<?xml version="1.0" encoding="UTF-8" standalone="no" ?>
<gpx xmlns="http://www.topografix.com/GPX/1/1" xmlns:xsi="http://www.w3.org/2001/XMLSchema-instance" xsi:schemaLocation="http://www.topografix.com/GPX/1/1 http://www.topografix.com/GPX/1/1/gpx.xsd" version="1.1" creator="VisuGPX - https://www.visugpx.com">
  <metadata>
    <name>Trail Grenoble - Bastille - Jalla - Relais de Roche Bise - Rachais</name>
    <desc><![CDATA[Fractionne dans la montee de la Bastille
Panne d'electricite sur la frontale
Grenoble - Bastille - Jalla - Relais de Roche Bise - Rachais
Premiere manteau neigeux sur nos montagnes]]></desc>
  </metadata>
  <trk>
    <name><![CDATA[Grenoble - Fractionne]]></name>
    <desc><![CDATA[Fractionne dans la montee de la Bastille
Grenoble - Bastille - Jalla - Relais de Roche Bise - Rachais]]></desc>
    <trkseg>
      <trkpt lat="45.1966" lon="5.73976">
        <ele>213.80000305176</ele>
        <time>2021-11-04T03:50:35.000Z</time>
      </trkpt>
      <trkpt lat="45.19659" lon="5.73976">
        <ele>213.80000305176</ele>
        <time>2021-11-04T03:50:36.000Z</time>
      </trkpt>
      <trkpt lat="45.19659" lon="5.73976">
        <ele>213.80000305176</ele>
        <time>2021-11-04T03:50:39.000Z</time>
      </trkpt>
      <trkpt lat="45.19656" lon="5.73976">
        <ele>213.80000305176</ele>
        <time>2021-11-04T03:50:45.000Z</time>
      </trkpt>
      <trkpt lat="45.19645" lon="5.73977">
        <ele>214</ele>
        <time>2021-11-04T03:50:51.000Z</time>
      </trkpt>
      <trkpt lat="45.19644" lon="5.73976">
        <ele>214</ele>
        <time>2021-11-04T03:50:52.000Z</time>
      </trkpt>
      <trkpt lat="45.19644" lon="5.73975">
        <ele>214</ele>
        <time>2021-11-04T03:50:53.000Z</time>
      </trkpt>
      <trkpt lat="45.19648" lon="5.73973">
        <ele>213.80000305176</ele>
        <time>2021-11-04T03:50:56.000Z</time>
      </trkpt>
      <trkpt lat="45.19649" lon="5.73972">
        <ele>214</ele>
        <time>2021-11-04T03:50:57.000Z</time>
      </trkpt>
      <trkpt lat="45.19649" lon="5.73972">
        <ele>214</ele>
        <time>2021-11-04T03:50:59.000Z</time>
      </trkpt>
      <trkpt lat="45.19647" lon="5.73973">
        <ele>214</ele>
        <time>2021-11-04T03:51:01.000Z</time>
      </trkpt>
      <trkpt lat="45.19644" lon="5.73973">
        <ele>213.80000305176</ele>
        <time>2021-11-04T03:51:03.000Z</time>
      </trkpt>
      <trkpt lat="45.19644" lon="5.73968">
        <ele>214</ele>
        <time>2021-11-04T03:51:07.000Z</time>
      </trkpt>
      <trkpt lat="45.19645" lon="5.73968">
        <ele>214</ele>
        <time>2021-11-04T03:51:10.000Z</time>
      </trkpt>
      <trkpt lat="45.19643" lon="5.73968">
        <ele>213.60000610352</ele>
        <time>2021-11-04T03:51:12.000Z</time>
      </trkpt>
      <trkpt lat="45.1964" lon="5.73969">
        <ele>212.39999389648</ele>
        <time>2021-11-04T03:51:15.000Z</time>
      </trkpt>
      <trkpt lat="45.1964" lon="5.73977">
        <ele>211</ele>
        <time>2021-11-04T03:51:21.000Z</time>
      </trkpt>
      <trkpt lat="45.1964" lon="5.73976">
        <ele>210.80000305176</ele>
        <time>2021-11-04T03:51:22.000Z</time>
      </trkpt>
      <trkpt lat="45.19639" lon="5.73977">
        <ele>210.19999694824</ele>
        <time>2021-11-04T03:51:24.000Z</time>
      </trkpt>
      <trkpt lat="45.19637" lon="5.73977">
        <ele>209.39999389648</ele>
        <time>2021-11-04T03:51:26.000Z</time>
      </trkpt>
      <trkpt lat="45.19637" lon="5.73976">
        <ele>209</ele>
        <time>2021-11-04T03:51:27.000Z</time>
      </trkpt>
      <trkpt lat="45.19638" lon="5.73977">
        <ele>208.80000305176</ele>
        <time>2021-11-04T03:51:28.000Z</time>
      </trkpt>
      <trkpt lat="45.19638" lon="5.73977">
        <ele>208.60000610352</ele>
        <time>2021-11-04T03:51:29.000Z</time>
      </trkpt>
      <trkpt lat="45.19638" lon="5.73979">
        <ele>208.39999389648</ele>
        <time>2021-11-04T03:51:30.000Z</time>
      </trkpt>
      <trkpt lat="45.19638" lon="5.73976">
        <ele>208.39999389648</ele>
        <time>2021-11-04T03:51:31.000Z</time>
      </trkpt>
      <trkpt lat="45.19638" lon="5.73974">
        <ele>208.39999389648</ele>
        <time>2021-11-04T03:51:32.000Z</time>
      </trkpt>
      <trkpt lat="45.19638" lon="5.73969">
        <ele>208.39999389648</ele>
        <time>2021-11-04T03:51:37.000Z</time>
      </trkpt>
      <trkpt lat="45.19639" lon="5.7397">
        <ele>208.39999389648</ele>
        <time>2021-11-04T03:51:38.000Z</time>
      </trkpt>
      <trkpt lat="45.19644" lon="5.73969">
        <ele>208.39999389648</ele>
        <time>2021-11-04T03:51:41.000Z</time>
      </trkpt>
      <trkpt lat="45.19646" lon="5.7397">
        <ele>208.39999389648</ele>
        <time>2021-11-04T03:51:42.000Z</time>
      </trkpt>
      <trkpt lat="45.19647" lon="5.73969">
        <ele>208.39999389648</ele>
        <time>2021-11-04T03:51:43.000Z</time>
      </trkpt>
      <trkpt lat="45.1965" lon="5.73969">
        <ele>208.60000610352</ele>
        <time>2021-11-04T03:51:46.000Z</time>
      </trkpt>
      <trkpt lat="45.19652" lon="5.73968">
        <ele>208.60000610352</ele>
        <time>2021-11-04T03:51:47.000Z</time>
      </trkpt>
      <trkpt lat="45.19655" lon="5.73963">
        <ele>208.39999389648</ele>
        <time>2021-11-04T03:51:49.000Z</time>
      </trkpt>
      <trkpt lat="45.19661" lon="5.73958">
        <ele>208.39999389648</ele>
        <time>2021-11-04T03:51:51.000Z</time>
      </trkpt>
      <trkpt lat="45.19662" lon="5.73956">
        <ele>208.39999389648</ele>
        <time>2021-11-04T03:51:52.000Z</time>
      </trkpt>
      <trkpt lat="45.19663" lon="5.73953">
        <ele>208.19999694824</ele>
        <time>2021-11-04T03:51:54.000Z</time>
      </trkpt>
      <trkpt lat="45.19665" lon="5.7395">
        <ele>208.19999694824</ele>
        <time>2021-11-04T03:51:56.000Z</time>
      </trkpt>
      <trkpt lat="45.19667" lon="5.73949">
        <ele>208.19999694824</ele>
        <time>2021-11-04T03:51:57.000Z</time>
      </trkpt>
      <trkpt lat="45.19672" lon="5.73951">
        <ele>208.19999694824</ele>
        <time>2021-11-04T03:52:00.000Z</time>
      </trkpt>
      <trkpt lat="45.19677" lon="5.73954">
        <ele>208.19999694824</ele>
        <time>2021-11-04T03:52:02.000Z</time>
      </trkpt>
      <trkpt lat="45.19677" lon="5.73956">
        <ele>208.19999694824</ele>
        <time>2021-11-04T03:52:03.000Z</time>
      </trkpt>
      <trkpt lat="45.19677" lon="5.73959">
        <ele>208.19999694824</ele>
        <time>2021-11-04T03:52:04.000Z</time>
      </trkpt>
      <trkpt lat="45.19675" lon="5.73976">
        <ele>208.39999389648</ele>
        <time>2021-11-04T03:52:09.000Z</time>
      </trkpt>
      <trkpt lat="45.19679" lon="5.73989">
        <ele>207.80000305176</ele>
        <time>2021-11-04T03:52:14.000Z</time>
      </trkpt>
      <trkpt lat="45.1968" lon="5.73992">
        <ele>207.80000305176</ele>
        <time>2021-11-04T03:52:15.000Z</time>
      </trkpt>
      <trkpt lat="45.1968" lon="5.74">
        <ele>207.80000305176</ele>
        <time>2021-11-04T03:52:18.000Z</time>
      </trkpt>
      <trkpt lat="45.19681" lon="5.74004">
        <ele>208.19999694824</ele>
        <time>2021-11-04T03:52:19.000Z</time>
      </trkpt>
      <trkpt lat="45.19692" lon="5.74023">
        <ele>208.19999694824</ele>
        <time>2021-11-04T03:52:25.000Z</time>
      </trkpt>
      <trkpt lat="45.19694" lon="5.74036">
        <ele>208.19999694824</ele>
        <time>2021-11-04T03:52:29.000Z</time>
      </trkpt>
      <trkpt lat="45.19695" lon="5.74039">
        <ele>208.19999694824</ele>
        <time>2021-11-04T03:52:30.000Z</time>
      </trkpt>
      <trkpt lat="45.197" lon="5.74061">
        <ele>208.19999694824</ele>
        <time>2021-11-04T03:52:37.000Z</time>
      </trkpt>
      <trkpt lat="45.19702" lon="5.7407">
        <ele>208.19999694824</ele>
        <time>2021-11-04T03:52:40.000Z</time>
      </trkpt>
      <trkpt lat="45.19703" lon="5.74076">
        <ele>208.19999694824</ele>
        <time>2021-11-04T03:52:42.000Z</time>
      </trkpt>
      <trkpt lat="45.19705" lon="5.74105">
        <ele>208.39999389648</ele>
        <time>2021-11-04T03:52:50.000Z</time>
      </trkpt>
      <trkpt lat="45.19709" lon="5.74124">
        <ele>208.39999389648</ele>
        <time>2021-11-04T03:52:56.000Z</time>
      </trkpt>
      <trkpt lat="45.19712" lon="5.74142">
        <ele>208.39999389648</ele>
        <time>2021-11-04T03:53:02.000Z</time>
      </trkpt>
      <trkpt lat="45.19715" lon="5.74161">
        <ele>208.19999694824</ele>
        <time>2021-11-04T03:53:08.000Z</time>
      </trkpt>
      <trkpt lat="45.19719" lon="5.74186">
        <ele>208.39999389648</ele>
        <time>2021-11-04T03:53:15.000Z</time>
      </trkpt>
      <trkpt lat="45.19722" lon="5.74204">
        <ele>208.39999389648</ele>
        <time>2021-11-04T03:53:21.000Z</time>
      </trkpt>
      <trkpt lat="45.19728" lon="5.7423">
        <ele>208.39999389648</ele>
        <time>2021-11-04T03:53:28.000Z</time>
      </trkpt>
      <trkpt lat="45.19728" lon="5.74235">
        <ele>208.60000610352</ele>
        <time>2021-11-04T03:53:29.000Z</time>
      </trkpt>
      <trkpt lat="45.19729" lon="5.74238">
        <ele>208.60000610352</ele>
        <time>2021-11-04T03:53:30.000Z</time>
      </trkpt>
      <trkpt lat="45.1973" lon="5.74244">
        <ele>208.80000305176</ele>
        <time>2021-11-04T03:53:32.000Z</time>
      </trkpt>
      <trkpt lat="45.1973" lon="5.74245">
        <ele>208.80000305176</ele>
        <time>2021-11-04T03:53:34.000Z</time>
      </trkpt>
      <trkpt lat="45.1973" lon="5.74246">
        <ele>209.39999389648</ele>
        <time>2021-11-04T03:53:36.000Z</time>
      </trkpt>
      <trkpt lat="45.19734" lon="5.74247">
        <ele>209.80000305176</ele>
        <time>2021-11-04T03:53:38.000Z</time>
      </trkpt>
      <trkpt lat="45.19738" lon="5.74246">
        <ele>210</ele>
        <time>2021-11-04T03:53:40.000Z</time>
      </trkpt>
      <trkpt lat="45.1974" lon="5.74244">
        <ele>210.19999694824</ele>
        <time>2021-11-04T03:53:41.000Z</time>
      </trkpt>
      <trkpt lat="45.19757" lon="5.74235">
        <ele>210.39999389648</ele>
        <time>2021-11-04T03:53:48.000Z</time>
      </trkpt>
      <trkpt lat="45.1976" lon="5.74233">
        <ele>210.39999389648</ele>
        <time>2021-11-04T03:53:50.000Z</time>
      </trkpt>
      <trkpt lat="45.19774" lon="5.74228">
        <ele>210.39999389648</ele>
        <time>2021-11-04T03:53:56.000Z</time>
      </trkpt>
      <trkpt lat="45.19788" lon="5.74226">
        <ele>210.39999389648</ele>
        <time>2021-11-04T03:54:04.000Z</time>
      </trkpt>
      <trkpt lat="45.198" lon="5.74227">
        <ele>210.19999694824</ele>
        <time>2021-11-04T03:54:10.000Z</time>
      </trkpt>
      <trkpt lat="45.1982" lon="5.74222">
        <ele>210.19999694824</ele>
        <time>2021-11-04T03:54:18.000Z</time>
      </trkpt>
      <trkpt lat="45.19822" lon="5.74221">
        <ele>210.39999389648</ele>
        <time>2021-11-04T03:54:19.000Z</time>
      </trkpt>
      <trkpt lat="45.19827" lon="5.7422">
        <ele>210.39999389648</ele>
        <time>2021-11-04T03:54:21.000Z</time>
      </trkpt>
      <trkpt lat="45.19838" lon="5.74217">
        <ele>210.39999389648</ele>
        <time>2021-11-04T03:54:26.000Z</time>
      </trkpt>
      <trkpt lat="45.19853" lon="5.74212">
        <ele>210.60000610352</ele>
        <time>2021-11-04T03:54:32.000Z</time>
      </trkpt>
      <trkpt lat="45.19863" lon="5.74207">
        <ele>210.60000610352</ele>
        <time>2021-11-04T03:54:37.000Z</time>
      </trkpt>
      <trkpt lat="45.19872" lon="5.74199">
        <ele>210.60000610352</ele>
        <time>2021-11-04T03:54:43.000Z</time>
      </trkpt>
      <trkpt lat="45.19877" lon="5.74196">
        <ele>210.39999389648</ele>
        <time>2021-11-04T03:54:45.000Z</time>
      </trkpt>
      <trkpt lat="45.19897" lon="5.74187">
        <ele>210.60000610352</ele>
        <time>2021-11-04T03:54:51.000Z</time>
      </trkpt>
      <trkpt lat="45.19899" lon="5.74185">
        <ele>210.60000610352</ele>
        <time>2021-11-04T03:54:52.000Z</time>
      </trkpt>
      <trkpt lat="45.19912" lon="5.74179">
        <ele>210.80000305176</ele>
        <time>2021-11-04T03:54:57.000Z</time>
      </trkpt>
      <trkpt lat="45.19925" lon="5.74172">
        <ele>210.80000305176</ele>
        <time>2021-11-04T03:55:02.000Z</time>
      </trkpt>
      <trkpt lat="45.19942" lon="5.7416">
        <ele>210.80000305176</ele>
        <time>2021-11-04T03:55:09.000Z</time>
      </trkpt>
      <trkpt lat="45.19944" lon="5.74158">
        <ele>210.80000305176</ele>
        <time>2021-11-04T03:55:10.000Z</time>
      </trkpt>
      <trkpt lat="45.19951" lon="5.74154">
        <ele>210.80000305176</ele>
        <time>2021-11-04T03:55:13.000Z</time>
      </trkpt>
      <trkpt lat="45.19958" lon="5.7415">
        <ele>210.80000305176</ele>
        <time>2021-11-04T03:55:16.000Z</time>
      </trkpt>
      <trkpt lat="45.19969" lon="5.74134">
        <ele>210.80000305176</ele>
        <time>2021-11-04T03:55:22.000Z</time>
      </trkpt>
      <trkpt lat="45.19979" lon="5.74124">
        <ele>210.60000610352</ele>
        <time>2021-11-04T03:55:27.000Z</time>
      </trkpt>
      <trkpt lat="45.19989" lon="5.74116">
        <ele>209.80000305176</ele>
        <time>2021-11-04T03:55:32.000Z</time>
      </trkpt>
      <trkpt lat="45.19996" lon="5.74107">
        <ele>209.19999694824</ele>
        <time>2021-11-04T03:55:35.000Z</time>
      </trkpt>
      <trkpt lat="45.2" lon="5.74102">
        <ele>208.80000305176</ele>
        <time>2021-11-04T03:55:37.000Z</time>
      </trkpt>
      <trkpt lat="45.20002" lon="5.74099">
        <ele>208.60000610352</ele>
        <time>2021-11-04T03:55:38.000Z</time>
      </trkpt>
      <trkpt lat="45.20012" lon="5.74088">
        <ele>208.39999389648</ele>
        <time>2021-11-04T03:55:43.000Z</time>
      </trkpt>
      <trkpt lat="45.20012" lon="5.7409">
        <ele>208.39999389648</ele>
        <time>2021-11-04T03:55:44.000Z</time>
      </trkpt>
      <trkpt lat="45.20031" lon="5.74047">
        <ele>208.19999694824</ele>
        <time>2021-11-04T03:55:56.000Z</time>
      </trkpt>
      <trkpt lat="45.2004" lon="5.74041">
        <ele>208.80000305176</ele>
        <time>2021-11-04T03:55:59.000Z</time>
      </trkpt>
      <trkpt lat="45.20043" lon="5.74039">
        <ele>209.60000610352</ele>
        <time>2021-11-04T03:56:03.000Z</time>
      </trkpt>
      <trkpt lat="45.20044" lon="5.74038">
        <ele>210</ele>
        <time>2021-11-04T03:56:04.000Z</time>
      </trkpt>
      <trkpt lat="45.20049" lon="5.74022">
        <ele>210.80000305176</ele>
        <time>2021-11-04T03:56:10.000Z</time>
      </trkpt>
      <trkpt lat="45.20049" lon="5.7402">
        <ele>210.80000305176</ele>
        <time>2021-11-04T03:56:11.000Z</time>
      </trkpt>
      <trkpt lat="45.20048" lon="5.74023">
        <ele>211</ele>
        <time>2021-11-04T03:56:13.000Z</time>
      </trkpt>
      <trkpt lat="45.20043" lon="5.74034">
        <ele>212</ele>
        <time>2021-11-04T03:56:19.000Z</time>
      </trkpt>
      <trkpt lat="45.20041" lon="5.74038">
        <ele>212.39999389648</ele>
        <time>2021-11-04T03:56:21.000Z</time>
      </trkpt>
      <trkpt lat="45.20037" lon="5.74046">
        <ele>213</ele>
        <time>2021-11-04T03:56:26.000Z</time>
      </trkpt>
      <trkpt lat="45.20032" lon="5.74053">
        <ele>213.80000305176</ele>
        <time>2021-11-04T03:56:30.000Z</time>
      </trkpt>
      <trkpt lat="45.20032" lon="5.74054">
        <ele>213.80000305176</ele>
        <time>2021-11-04T03:56:31.000Z</time>
      </trkpt>
      <trkpt lat="45.20033" lon="5.74057">
        <ele>214.19999694824</ele>
        <time>2021-11-04T03:56:33.000Z</time>
      </trkpt>
      <trkpt lat="45.20036" lon="5.74061">
        <ele>214.19999694824</ele>
        <time>2021-11-04T03:56:35.000Z</time>
      </trkpt>
      <trkpt lat="45.20038" lon="5.74063">
        <ele>214.39999389648</ele>
        <time>2021-11-04T03:56:36.000Z</time>
      </trkpt>
      <trkpt lat="45.20047" lon="5.74078">
        <ele>214.60000610352</ele>
        <time>2021-11-04T03:56:41.000Z</time>
      </trkpt>
      <trkpt lat="45.2006" lon="5.74096">
        <ele>214.39999389648</ele>
        <time>2021-11-04T03:56:48.000Z</time>
      </trkpt>
      <trkpt lat="45.20063" lon="5.74099">
        <ele>214.19999694824</ele>
        <time>2021-11-04T03:56:49.000Z</time>
      </trkpt>
      <trkpt lat="45.20078" lon="5.74113">
        <ele>214.60000610352</ele>
        <time>2021-11-04T03:56:55.000Z</time>
      </trkpt>
      <trkpt lat="45.20079" lon="5.74116">
        <ele>214.60000610352</ele>
        <time>2021-11-04T03:56:56.000Z</time>
      </trkpt>
      <trkpt lat="45.20085" lon="5.74124">
        <ele>214.60000610352</ele>
        <time>2021-11-04T03:56:59.000Z</time>
      </trkpt>
      <trkpt lat="45.20099" lon="5.74143">
        <ele>214.60000610352</ele>
        <time>2021-11-04T03:57:06.000Z</time>
      </trkpt>
      <trkpt lat="45.20105" lon="5.74151">
        <ele>214.60000610352</ele>
        <time>2021-11-04T03:57:09.000Z</time>
      </trkpt>
      <trkpt lat="45.20108" lon="5.74157">
        <ele>214.60000610352</ele>
        <time>2021-11-04T03:57:11.000Z</time>
      </trkpt>
      <trkpt lat="45.20118" lon="5.74166">
        <ele>214.39999389648</ele>
        <time>2021-11-04T03:57:16.000Z</time>
      </trkpt>
      <trkpt lat="45.20119" lon="5.74164">
        <ele>214.39999389648</ele>
        <time>2021-11-04T03:57:17.000Z</time>
      </trkpt>
      <trkpt lat="45.20127" lon="5.74145">
        <ele>213.80000305176</ele>
        <time>2021-11-04T03:57:23.000Z</time>
      </trkpt>
      <trkpt lat="45.20132" lon="5.74136">
        <ele>213.19999694824</ele>
        <time>2021-11-04T03:57:26.000Z</time>
      </trkpt>
      <trkpt lat="45.2014" lon="5.74121">
        <ele>212.19999694824</ele>
        <time>2021-11-04T03:57:31.000Z</time>
      </trkpt>
      <trkpt lat="45.20142" lon="5.74118">
        <ele>212</ele>
        <time>2021-11-04T03:57:32.000Z</time>
      </trkpt>
      <trkpt lat="45.20144" lon="5.74108">
        <ele>211.39999389648</ele>
        <time>2021-11-04T03:57:35.000Z</time>
      </trkpt>
      <trkpt lat="45.20146" lon="5.74105">
        <ele>211.19999694824</ele>
        <time>2021-11-04T03:57:36.000Z</time>
      </trkpt>
      <trkpt lat="45.20147" lon="5.74102">
        <ele>211</ele>
        <time>2021-11-04T03:57:37.000Z</time>
      </trkpt>
      <trkpt lat="45.20153" lon="5.74089">
        <ele>210.39999389648</ele>
        <time>2021-11-04T03:57:41.000Z</time>
      </trkpt>
      <trkpt lat="45.20157" lon="5.74078">
        <ele>210.19999694824</ele>
        <time>2021-11-04T03:57:44.000Z</time>
      </trkpt>
      <trkpt lat="45.20159" lon="5.74075">
        <ele>210</ele>
        <time>2021-11-04T03:57:45.000Z</time>
      </trkpt>
      <trkpt lat="45.20161" lon="5.74067">
        <ele>209.80000305176</ele>
        <time>2021-11-04T03:57:47.000Z</time>
      </trkpt>
      <trkpt lat="45.20167" lon="5.74059">
        <ele>209.60000610352</ele>
        <time>2021-11-04T03:57:50.000Z</time>
      </trkpt>
      <trkpt lat="45.20177" lon="5.74039">
        <ele>209</ele>
        <time>2021-11-04T03:57:56.000Z</time>
      </trkpt>
      <trkpt lat="45.20189" lon="5.74019">
        <ele>209.19999694824</ele>
        <time>2021-11-04T03:58:03.000Z</time>
      </trkpt>
      <trkpt lat="45.20202" lon="5.73997">
        <ele>209</ele>
        <time>2021-11-04T03:58:10.000Z</time>
      </trkpt>
      <trkpt lat="45.20204" lon="5.73994">
        <ele>209</ele>
        <time>2021-11-04T03:58:11.000Z</time>
      </trkpt>
      <trkpt lat="45.20205" lon="5.73991">
        <ele>209</ele>
        <time>2021-11-04T03:58:12.000Z</time>
      </trkpt>
      <trkpt lat="45.20213" lon="5.73975">
        <ele>209</ele>
        <time>2021-11-04T03:58:17.000Z</time>
      </trkpt>
      <trkpt lat="45.20216" lon="5.73963">
        <ele>209.19999694824</ele>
        <time>2021-11-04T03:58:20.000Z</time>
      </trkpt>
      <trkpt lat="45.20223" lon="5.73942">
        <ele>209</ele>
        <time>2021-11-04T03:58:26.000Z</time>
      </trkpt>
      <trkpt lat="45.2023" lon="5.73916">
        <ele>209.19999694824</ele>
        <time>2021-11-04T03:58:33.000Z</time>
      </trkpt>
      <trkpt lat="45.20237" lon="5.73894">
        <ele>209.19999694824</ele>
        <time>2021-11-04T03:58:39.000Z</time>
      </trkpt>
      <trkpt lat="45.20238" lon="5.73891">
        <ele>209.39999389648</ele>
        <time>2021-11-04T03:58:40.000Z</time>
      </trkpt>
      <trkpt lat="45.20243" lon="5.73863">
        <ele>209</ele>
        <time>2021-11-04T03:58:47.000Z</time>
      </trkpt>
      <trkpt lat="45.20244" lon="5.73859">
        <ele>209</ele>
        <time>2021-11-04T03:58:48.000Z</time>
      </trkpt>
      <trkpt lat="45.20248" lon="5.73844">
        <ele>208.80000305176</ele>
        <time>2021-11-04T03:58:52.000Z</time>
      </trkpt>
      <trkpt lat="45.2025" lon="5.73836">
        <ele>209</ele>
        <time>2021-11-04T03:58:54.000Z</time>
      </trkpt>
      <trkpt lat="45.20252" lon="5.73824">
        <ele>208.80000305176</ele>
        <time>2021-11-04T03:58:57.000Z</time>
      </trkpt>
      <trkpt lat="45.20258" lon="5.73815">
        <ele>208.60000610352</ele>
        <time>2021-11-04T03:59:00.000Z</time>
      </trkpt>
      <trkpt lat="45.20271" lon="5.73807">
        <ele>209</ele>
        <time>2021-11-04T03:59:05.000Z</time>
      </trkpt>
      <trkpt lat="45.20283" lon="5.73797">
        <ele>209.39999389648</ele>
        <time>2021-11-04T03:59:11.000Z</time>
      </trkpt>
      <trkpt lat="45.2029" lon="5.73794">
        <ele>210</ele>
        <time>2021-11-04T03:59:14.000Z</time>
      </trkpt>
      <trkpt lat="45.20295" lon="5.73792">
        <ele>210.60000610352</ele>
        <time>2021-11-04T03:59:17.000Z</time>
      </trkpt>
      <trkpt lat="45.20299" lon="5.7379">
        <ele>211</ele>
        <time>2021-11-04T03:59:20.000Z</time>
      </trkpt>
      <trkpt lat="45.20301" lon="5.7379">
        <ele>211.19999694824</ele>
        <time>2021-11-04T03:59:21.000Z</time>
      </trkpt>
      <trkpt lat="45.20304" lon="5.73787">
        <ele>212</ele>
        <time>2021-11-04T03:59:23.000Z</time>
      </trkpt>
      <trkpt lat="45.20306" lon="5.73785">
        <ele>212.19999694824</ele>
        <time>2021-11-04T03:59:24.000Z</time>
      </trkpt>
      <trkpt lat="45.2032" lon="5.73773">
        <ele>213.19999694824</ele>
        <time>2021-11-04T03:59:31.000Z</time>
      </trkpt>
      <trkpt lat="45.20327" lon="5.73764">
        <ele>213.60000610352</ele>
        <time>2021-11-04T03:59:36.000Z</time>
      </trkpt>
      <trkpt lat="45.20335" lon="5.73755">
        <ele>214.39999389648</ele>
        <time>2021-11-04T03:59:41.000Z</time>
      </trkpt>
      <trkpt lat="45.2034" lon="5.73751">
        <ele>214.60000610352</ele>
        <time>2021-11-04T03:59:43.000Z</time>
      </trkpt>
      <trkpt lat="45.20348" lon="5.73744">
        <ele>215.39999389648</ele>
        <time>2021-11-04T03:59:47.000Z</time>
      </trkpt>
      <trkpt lat="45.20352" lon="5.73737">
        <ele>215.60000610352</ele>
        <time>2021-11-04T03:59:50.000Z</time>
      </trkpt>
      <trkpt lat="45.20361" lon="5.73723">
        <ele>216.19999694824</ele>
        <time>2021-11-04T03:59:55.000Z</time>
      </trkpt>
      <trkpt lat="45.20362" lon="5.7372">
        <ele>216.39999389648</ele>
        <time>2021-11-04T03:59:56.000Z</time>
      </trkpt>
      <trkpt lat="45.2037" lon="5.73711">
        <ele>216.80000305176</ele>
        <time>2021-11-04T04:00:00.000Z</time>
      </trkpt>
      <trkpt lat="45.20378" lon="5.73698">
        <ele>217.39999389648</ele>
        <time>2021-11-04T04:00:05.000Z</time>
      </trkpt>
      <trkpt lat="45.2038" lon="5.73693">
        <ele>217.80000305176</ele>
        <time>2021-11-04T04:00:07.000Z</time>
      </trkpt>
      <trkpt lat="45.20384" lon="5.73682">
        <ele>218.60000610352</ele>
        <time>2021-11-04T04:00:11.000Z</time>
      </trkpt>
      <trkpt lat="45.20382" lon="5.73674">
        <ele>218.80000305176</ele>
        <time>2021-11-04T04:00:14.000Z</time>
      </trkpt>
      <trkpt lat="45.20369" lon="5.73661">
        <ele>218.60000610352</ele>
        <time>2021-11-04T04:00:21.000Z</time>
      </trkpt>
      <trkpt lat="45.20357" lon="5.73648">
        <ele>218</ele>
        <time>2021-11-04T04:00:26.000Z</time>
      </trkpt>
      <trkpt lat="45.20339" lon="5.73636">
        <ele>217.80000305176</ele>
        <time>2021-11-04T04:00:33.000Z</time>
      </trkpt>
      <trkpt lat="45.20334" lon="5.73632">
        <ele>217.80000305176</ele>
        <time>2021-11-04T04:00:35.000Z</time>
      </trkpt>
      <trkpt lat="45.20332" lon="5.73628">
        <ele>217.60000610352</ele>
        <time>2021-11-04T04:00:36.000Z</time>
      </trkpt>
      <trkpt lat="45.20328" lon="5.73624">
        <ele>217.39999389648</ele>
        <time>2021-11-04T04:00:38.000Z</time>
      </trkpt>
      <trkpt lat="45.20324" lon="5.73614">
        <ele>217.39999389648</ele>
        <time>2021-11-04T04:00:41.000Z</time>
      </trkpt>
      <trkpt lat="45.20322" lon="5.7361">
        <ele>217.39999389648</ele>
        <time>2021-11-04T04:00:42.000Z</time>
      </trkpt>
      <trkpt lat="45.20316" lon="5.73597">
        <ele>217.19999694824</ele>
        <time>2021-11-04T04:00:46.000Z</time>
      </trkpt>
      <trkpt lat="45.20314" lon="5.73593">
        <ele>217</ele>
        <time>2021-11-04T04:00:47.000Z</time>
      </trkpt>
      <trkpt lat="45.20306" lon="5.73584">
        <ele>216.60000610352</ele>
        <time>2021-11-04T04:00:51.000Z</time>
      </trkpt>
      <trkpt lat="45.20304" lon="5.73582">
        <ele>216.39999389648</ele>
        <time>2021-11-04T04:00:52.000Z</time>
      </trkpt>
      <trkpt lat="45.20294" lon="5.73568">
        <ele>215.19999694824</ele>
        <time>2021-11-04T04:00:58.000Z</time>
      </trkpt>
      <trkpt lat="45.20289" lon="5.7356">
        <ele>215</ele>
        <time>2021-11-04T04:01:01.000Z</time>
      </trkpt>
      <trkpt lat="45.2028" lon="5.73556">
        <ele>214.19999694824</ele>
        <time>2021-11-04T04:01:04.000Z</time>
      </trkpt>
      <trkpt lat="45.20277" lon="5.73551">
        <ele>213.80000305176</ele>
        <time>2021-11-04T04:01:06.000Z</time>
      </trkpt>
      <trkpt lat="45.20262" lon="5.73536">
        <ele>212.80000305176</ele>
        <time>2021-11-04T04:01:12.000Z</time>
      </trkpt>
      <trkpt lat="45.20249" lon="5.73523">
        <ele>212.19999694824</ele>
        <time>2021-11-04T04:01:17.000Z</time>
      </trkpt>
      <trkpt lat="45.20243" lon="5.73512">
        <ele>211.80000305176</ele>
        <time>2021-11-04T04:01:20.000Z</time>
      </trkpt>
      <trkpt lat="45.2024" lon="5.73506">
        <ele>211.60000610352</ele>
        <time>2021-11-04T04:01:22.000Z</time>
      </trkpt>
      <trkpt lat="45.20228" lon="5.73486">
        <ele>211.19999694824</ele>
        <time>2021-11-04T04:01:29.000Z</time>
      </trkpt>
      <trkpt lat="45.20218" lon="5.73462">
        <ele>210.80000305176</ele>
        <time>2021-11-04T04:01:36.000Z</time>
      </trkpt>
      <trkpt lat="45.20213" lon="5.73459">
        <ele>210.80000305176</ele>
        <time>2021-11-04T04:01:38.000Z</time>
      </trkpt>
      <trkpt lat="45.2021" lon="5.73458">
        <ele>210.80000305176</ele>
        <time>2021-11-04T04:01:39.000Z</time>
      </trkpt>
      <trkpt lat="45.20198" lon="5.73449">
        <ele>210.80000305176</ele>
        <time>2021-11-04T04:01:44.000Z</time>
      </trkpt>
      <trkpt lat="45.20184" lon="5.73429">
        <ele>210.19999694824</ele>
        <time>2021-11-04T04:01:51.000Z</time>
      </trkpt>
      <trkpt lat="45.20173" lon="5.73418">
        <ele>210.60000610352</ele>
        <time>2021-11-04T04:01:57.000Z</time>
      </trkpt>
      <trkpt lat="45.20162" lon="5.73413">
        <ele>210.19999694824</ele>
        <time>2021-11-04T04:02:01.000Z</time>
      </trkpt>
      <trkpt lat="45.20157" lon="5.73411">
        <ele>210</ele>
        <time>2021-11-04T04:02:03.000Z</time>
      </trkpt>
      <trkpt lat="45.20146" lon="5.73406">
        <ele>209.80000305176</ele>
        <time>2021-11-04T04:02:07.000Z</time>
      </trkpt>
      <trkpt lat="45.20137" lon="5.73403">
        <ele>209.60000610352</ele>
        <time>2021-11-04T04:02:10.000Z</time>
      </trkpt>
      <trkpt lat="45.20122" lon="5.73398">
        <ele>209.19999694824</ele>
        <time>2021-11-04T04:02:15.000Z</time>
      </trkpt>
      <trkpt lat="45.20102" lon="5.73393">
        <ele>209.19999694824</ele>
        <time>2021-11-04T04:02:22.000Z</time>
      </trkpt>
      <trkpt lat="45.20082" lon="5.73389">
        <ele>209</ele>
        <time>2021-11-04T04:02:29.000Z</time>
      </trkpt>
      <trkpt lat="45.20072" lon="5.73384">
        <ele>209</ele>
        <time>2021-11-04T04:02:33.000Z</time>
      </trkpt>
      <trkpt lat="45.2007" lon="5.73383">
        <ele>209</ele>
        <time>2021-11-04T04:02:34.000Z</time>
      </trkpt>
      <trkpt lat="45.20054" lon="5.73379">
        <ele>209</ele>
        <time>2021-11-04T04:02:40.000Z</time>
      </trkpt>
      <trkpt lat="45.20037" lon="5.73374">
        <ele>209.39999389648</ele>
        <time>2021-11-04T04:02:46.000Z</time>
      </trkpt>
      <trkpt lat="45.20022" lon="5.73374">
        <ele>209.60000610352</ele>
        <time>2021-11-04T04:02:51.000Z</time>
      </trkpt>
      <trkpt lat="45.20011" lon="5.73373">
        <ele>209.60000610352</ele>
        <time>2021-11-04T04:02:55.000Z</time>
      </trkpt>
      <trkpt lat="45.19993" lon="5.73365">
        <ele>209.80000305176</ele>
        <time>2021-11-04T04:03:02.000Z</time>
      </trkpt>
      <trkpt lat="45.19991" lon="5.73364">
        <ele>209.80000305176</ele>
        <time>2021-11-04T04:03:03.000Z</time>
      </trkpt>
      <trkpt lat="45.19974" lon="5.73352">
        <ele>210.19999694824</ele>
        <time>2021-11-04T04:03:10.000Z</time>
      </trkpt>
      <trkpt lat="45.19967" lon="5.73347">
        <ele>210.39999389648</ele>
        <time>2021-11-04T04:03:13.000Z</time>
      </trkpt>
      <trkpt lat="45.19949" lon="5.73342">
        <ele>210.19999694824</ele>
        <time>2021-11-04T04:03:20.000Z</time>
      </trkpt>
      <trkpt lat="45.19939" lon="5.73339">
        <ele>210.19999694824</ele>
        <time>2021-11-04T04:03:24.000Z</time>
      </trkpt>
      <trkpt lat="45.19936" lon="5.7334">
        <ele>210.19999694824</ele>
        <time>2021-11-04T04:03:25.000Z</time>
      </trkpt>
      <trkpt lat="45.19927" lon="5.73335">
        <ele>210.19999694824</ele>
        <time>2021-11-04T04:03:29.000Z</time>
      </trkpt>
      <trkpt lat="45.19914" lon="5.73328">
        <ele>210.39999389648</ele>
        <time>2021-11-04T04:03:34.000Z</time>
      </trkpt>
      <trkpt lat="45.19912" lon="5.73327">
        <ele>210.60000610352</ele>
        <time>2021-11-04T04:03:35.000Z</time>
      </trkpt>
      <trkpt lat="45.19909" lon="5.73326">
        <ele>210.60000610352</ele>
        <time>2021-11-04T04:03:36.000Z</time>
      </trkpt>
      <trkpt lat="45.19904" lon="5.73323">
        <ele>210.80000305176</ele>
        <time>2021-11-04T04:03:38.000Z</time>
      </trkpt>
      <trkpt lat="45.19898" lon="5.73316">
        <ele>210.80000305176</ele>
        <time>2021-11-04T04:03:41.000Z</time>
      </trkpt>
      <trkpt lat="45.19883" lon="5.73309">
        <ele>210.60000610352</ele>
        <time>2021-11-04T04:03:47.000Z</time>
      </trkpt>
      <trkpt lat="45.19865" lon="5.73302">
        <ele>210.60000610352</ele>
        <time>2021-11-04T04:03:54.000Z</time>
      </trkpt>
      <trkpt lat="45.19863" lon="5.73302">
        <ele>210.60000610352</ele>
        <time>2021-11-04T04:03:55.000Z</time>
      </trkpt>
      <trkpt lat="45.19848" lon="5.73299">
        <ele>210.39999389648</ele>
        <time>2021-11-04T04:04:01.000Z</time>
      </trkpt>
      <trkpt lat="45.19833" lon="5.73292">
        <ele>210.39999389648</ele>
        <time>2021-11-04T04:04:07.000Z</time>
      </trkpt>
      <trkpt lat="45.1982" lon="5.73286">
        <ele>209.80000305176</ele>
        <time>2021-11-04T04:04:12.000Z</time>
      </trkpt>
      <trkpt lat="45.19818" lon="5.73284">
        <ele>209.60000610352</ele>
        <time>2021-11-04T04:04:13.000Z</time>
      </trkpt>
      <trkpt lat="45.19816" lon="5.73279">
        <ele>209.60000610352</ele>
        <time>2021-11-04T04:04:14.000Z</time>
      </trkpt>
      <trkpt lat="45.19806" lon="5.73276">
        <ele>209.80000305176</ele>
        <time>2021-11-04T04:04:18.000Z</time>
      </trkpt>
      <trkpt lat="45.19803" lon="5.73276">
        <ele>210</ele>
        <time>2021-11-04T04:04:19.000Z</time>
      </trkpt>
      <trkpt lat="45.19785" lon="5.73271">
        <ele>210</ele>
        <time>2021-11-04T04:04:24.000Z</time>
      </trkpt>
      <trkpt lat="45.19771" lon="5.7326">
        <ele>210</ele>
        <time>2021-11-04T04:04:29.000Z</time>
      </trkpt>
      <trkpt lat="45.1977" lon="5.73237">
        <ele>210</ele>
        <time>2021-11-04T04:04:33.000Z</time>
      </trkpt>
      <trkpt lat="45.19774" lon="5.73217">
        <ele>209.60000610352</ele>
        <time>2021-11-04T04:04:37.000Z</time>
      </trkpt>
      <trkpt lat="45.19774" lon="5.73212">
        <ele>209.60000610352</ele>
        <time>2021-11-04T04:04:38.000Z</time>
      </trkpt>
      <trkpt lat="45.19771" lon="5.73187">
        <ele>209.60000610352</ele>
        <time>2021-11-04T04:04:43.000Z</time>
      </trkpt>
      <trkpt lat="45.19769" lon="5.73183">
        <ele>209.60000610352</ele>
        <time>2021-11-04T04:04:44.000Z</time>
      </trkpt>
      <trkpt lat="45.19769" lon="5.7317">
        <ele>209.80000305176</ele>
        <time>2021-11-04T04:04:47.000Z</time>
      </trkpt>
      <trkpt lat="45.19771" lon="5.73165">
        <ele>210</ele>
        <time>2021-11-04T04:04:48.000Z</time>
      </trkpt>
      <trkpt lat="45.19779" lon="5.73156">
        <ele>210.60000610352</ele>
        <time>2021-11-04T04:04:51.000Z</time>
      </trkpt>
      <trkpt lat="45.19781" lon="5.73153">
        <ele>211</ele>
        <time>2021-11-04T04:04:52.000Z</time>
      </trkpt>
      <trkpt lat="45.19787" lon="5.73146">
        <ele>211.80000305176</ele>
        <time>2021-11-04T04:04:54.000Z</time>
      </trkpt>
      <trkpt lat="45.19792" lon="5.73138">
        <ele>212.60000610352</ele>
        <time>2021-11-04T04:04:57.000Z</time>
      </trkpt>
      <trkpt lat="45.19793" lon="5.73136">
        <ele>213</ele>
        <time>2021-11-04T04:04:58.000Z</time>
      </trkpt>
      <trkpt lat="45.198" lon="5.73129">
        <ele>214</ele>
        <time>2021-11-04T04:05:02.000Z</time>
      </trkpt>
      <trkpt lat="45.198" lon="5.73125">
        <ele>214.80000305176</ele>
        <time>2021-11-04T04:05:04.000Z</time>
      </trkpt>
      <trkpt lat="45.198" lon="5.73125">
        <ele>215.39999389648</ele>
        <time>2021-11-04T04:05:06.000Z</time>
      </trkpt>
      <trkpt lat="45.19802" lon="5.73124">
        <ele>215.60000610352</ele>
        <time>2021-11-04T04:05:08.000Z</time>
      </trkpt>
      <trkpt lat="45.198" lon="5.73123">
        <ele>216.39999389648</ele>
        <time>2021-11-04T04:05:11.000Z</time>
      </trkpt>
      <trkpt lat="45.19798" lon="5.73124">
        <ele>216.60000610352</ele>
        <time>2021-11-04T04:05:12.000Z</time>
      </trkpt>
      <trkpt lat="45.19793" lon="5.73127">
        <ele>217</ele>
        <time>2021-11-04T04:05:14.000Z</time>
      </trkpt>
      <trkpt lat="45.19789" lon="5.73128">
        <ele>217.60000610352</ele>
        <time>2021-11-04T04:05:17.000Z</time>
      </trkpt>
      <trkpt lat="45.19784" lon="5.73126">
        <ele>218.60000610352</ele>
        <time>2021-11-04T04:05:20.000Z</time>
      </trkpt>
      <trkpt lat="45.19775" lon="5.7313">
        <ele>219.60000610352</ele>
        <time>2021-11-04T04:05:24.000Z</time>
      </trkpt>
      <trkpt lat="45.1977" lon="5.73123">
        <ele>221</ele>
        <time>2021-11-04T04:05:28.000Z</time>
      </trkpt>
      <trkpt lat="45.19765" lon="5.7312">
        <ele>221.60000610352</ele>
        <time>2021-11-04T04:05:30.000Z</time>
      </trkpt>
      <trkpt lat="45.19763" lon="5.73118">
        <ele>221.80000305176</ele>
        <time>2021-11-04T04:05:31.000Z</time>
      </trkpt>
      <trkpt lat="45.19761" lon="5.73114">
        <ele>222</ele>
        <time>2021-11-04T04:05:32.000Z</time>
      </trkpt>
      <trkpt lat="45.1976" lon="5.73109">
        <ele>222.60000610352</ele>
        <time>2021-11-04T04:05:34.000Z</time>
      </trkpt>
      <trkpt lat="45.19762" lon="5.73106">
        <ele>223.19999694824</ele>
        <time>2021-11-04T04:05:36.000Z</time>
      </trkpt>
      <trkpt lat="45.19764" lon="5.73105">
        <ele>223.80000305176</ele>
        <time>2021-11-04T04:05:38.000Z</time>
      </trkpt>
      <trkpt lat="45.19769" lon="5.73102">
        <ele>224.19999694824</ele>
        <time>2021-11-04T04:05:40.000Z</time>
      </trkpt>
      <trkpt lat="45.19773" lon="5.73101">
        <ele>224.39999389648</ele>
        <time>2021-11-04T04:05:41.000Z</time>
      </trkpt>
      <trkpt lat="45.19779" lon="5.731">
        <ele>224.60000610352</ele>
        <time>2021-11-04T04:05:43.000Z</time>
      </trkpt>
      <trkpt lat="45.19781" lon="5.731">
        <ele>224.80000305176</ele>
        <time>2021-11-04T04:05:44.000Z</time>
      </trkpt>
      <trkpt lat="45.19784" lon="5.73099">
        <ele>225.60000610352</ele>
        <time>2021-11-04T04:05:46.000Z</time>
      </trkpt>
      <trkpt lat="45.19788" lon="5.731">
        <ele>226.19999694824</ele>
        <time>2021-11-04T04:05:48.000Z</time>
      </trkpt>
      <trkpt lat="45.1979" lon="5.731">
        <ele>226.19999694824</ele>
        <time>2021-11-04T04:05:49.000Z</time>
      </trkpt>
      <trkpt lat="45.19793" lon="5.73099">
        <ele>226.60000610352</ele>
        <time>2021-11-04T04:05:51.000Z</time>
      </trkpt>
      <trkpt lat="45.19796" lon="5.73098">
        <ele>227</ele>
        <time>2021-11-04T04:05:53.000Z</time>
      </trkpt>
      <trkpt lat="45.19797" lon="5.73098">
        <ele>227.39999389648</ele>
        <time>2021-11-04T04:05:54.000Z</time>
      </trkpt>
      <trkpt lat="45.19799" lon="5.73098">
        <ele>227.60000610352</ele>
        <time>2021-11-04T04:05:56.000Z</time>
      </trkpt>
      <trkpt lat="45.198" lon="5.73095">
        <ele>228.19999694824</ele>
        <time>2021-11-04T04:05:59.000Z</time>
      </trkpt>
      <trkpt lat="45.19799" lon="5.73094">
        <ele>228.60000610352</ele>
        <time>2021-11-04T04:06:00.000Z</time>
      </trkpt>
      <trkpt lat="45.19797" lon="5.73094">
        <ele>228.80000305176</ele>
        <time>2021-11-04T04:06:01.000Z</time>
      </trkpt>
      <trkpt lat="45.19795" lon="5.73094">
        <ele>229.19999694824</ele>
        <time>2021-11-04T04:06:03.000Z</time>
      </trkpt>
      <trkpt lat="45.19791" lon="5.73092">
        <ele>229.60000610352</ele>
        <time>2021-11-04T04:06:06.000Z</time>
      </trkpt>
      <trkpt lat="45.19788" lon="5.7309">
        <ele>230</ele>
        <time>2021-11-04T04:06:08.000Z</time>
      </trkpt>
      <trkpt lat="45.19785" lon="5.73087">
        <ele>230.60000610352</ele>
        <time>2021-11-04T04:06:11.000Z</time>
      </trkpt>
      <trkpt lat="45.19783" lon="5.73085">
        <ele>231.19999694824</ele>
        <time>2021-11-04T04:06:13.000Z</time>
      </trkpt>
      <trkpt lat="45.19781" lon="5.73084">
        <ele>231.39999389648</ele>
        <time>2021-11-04T04:06:14.000Z</time>
      </trkpt>
      <trkpt lat="45.19779" lon="5.73083">
        <ele>231.80000305176</ele>
        <time>2021-11-04T04:06:16.000Z</time>
      </trkpt>
      <trkpt lat="45.19771" lon="5.73081">
        <ele>232.39999389648</ele>
        <time>2021-11-04T04:06:19.000Z</time>
      </trkpt>
      <trkpt lat="45.19767" lon="5.73079">
        <ele>233</ele>
        <time>2021-11-04T04:06:21.000Z</time>
      </trkpt>
      <trkpt lat="45.19764" lon="5.73077">
        <ele>233.39999389648</ele>
        <time>2021-11-04T04:06:23.000Z</time>
      </trkpt>
      <trkpt lat="45.19755" lon="5.73075">
        <ele>234.60000610352</ele>
        <time>2021-11-04T04:06:27.000Z</time>
      </trkpt>
      <trkpt lat="45.1975" lon="5.73068">
        <ele>235.39999389648</ele>
        <time>2021-11-04T04:06:30.000Z</time>
      </trkpt>
      <trkpt lat="45.19751" lon="5.73066">
        <ele>235.60000610352</ele>
        <time>2021-11-04T04:06:31.000Z</time>
      </trkpt>
      <trkpt lat="45.19752" lon="5.73063">
        <ele>235.80000305176</ele>
        <time>2021-11-04T04:06:32.000Z</time>
      </trkpt>
      <trkpt lat="45.19753" lon="5.73063">
        <ele>236.19999694824</ele>
        <time>2021-11-04T04:06:33.000Z</time>
      </trkpt>
      <trkpt lat="45.19755" lon="5.73063">
        <ele>236.60000610352</ele>
        <time>2021-11-04T04:06:34.000Z</time>
      </trkpt>
      <trkpt lat="45.19756" lon="5.73063">
        <ele>236.80000305176</ele>
        <time>2021-11-04T04:06:35.000Z</time>
      </trkpt>
      <trkpt lat="45.19762" lon="5.73064">
        <ele>237.80000305176</ele>
        <time>2021-11-04T04:06:39.000Z</time>
      </trkpt>
      <trkpt lat="45.19764" lon="5.73064">
        <ele>238</ele>
        <time>2021-11-04T04:06:40.000Z</time>
      </trkpt>
      <trkpt lat="45.19769" lon="5.73065">
        <ele>238.80000305176</ele>
        <time>2021-11-04T04:06:43.000Z</time>
      </trkpt>
      <trkpt lat="45.1977" lon="5.73065">
        <ele>239</ele>
        <time>2021-11-04T04:06:44.000Z</time>
      </trkpt>
      <trkpt lat="45.1977" lon="5.73065">
        <ele>239</ele>
        <time>2021-11-04T04:06:45.000Z</time>
      </trkpt>
      <trkpt lat="45.19776" lon="5.73065">
        <ele>239.80000305176</ele>
        <time>2021-11-04T04:06:48.000Z</time>
      </trkpt>
      <trkpt lat="45.19778" lon="5.73065">
        <ele>239.80000305176</ele>
        <time>2021-11-04T04:06:49.000Z</time>
      </trkpt>
      <trkpt lat="45.19789" lon="5.73063">
        <ele>241</ele>
        <time>2021-11-04T04:06:54.000Z</time>
      </trkpt>
      <trkpt lat="45.19791" lon="5.73063">
        <ele>241</ele>
        <time>2021-11-04T04:06:55.000Z</time>
      </trkpt>
      <trkpt lat="45.19793" lon="5.73063">
        <ele>241.60000610352</ele>
        <time>2021-11-04T04:06:57.000Z</time>
      </trkpt>
      <trkpt lat="45.19791" lon="5.73064">
        <ele>241.80000305176</ele>
        <time>2021-11-04T04:06:59.000Z</time>
      </trkpt>
      <trkpt lat="45.1979" lon="5.73065">
        <ele>242.19999694824</ele>
        <time>2021-11-04T04:07:00.000Z</time>
      </trkpt>
      <trkpt lat="45.19781" lon="5.73062">
        <ele>243.19999694824</ele>
        <time>2021-11-04T04:07:05.000Z</time>
      </trkpt>
      <trkpt lat="45.1978" lon="5.73061">
        <ele>243.39999389648</ele>
        <time>2021-11-04T04:07:06.000Z</time>
      </trkpt>
      <trkpt lat="45.19773" lon="5.73055">
        <ele>244.39999389648</ele>
        <time>2021-11-04T04:07:10.000Z</time>
      </trkpt>
      <trkpt lat="45.19767" lon="5.73052">
        <ele>245</ele>
        <time>2021-11-04T04:07:14.000Z</time>
      </trkpt>
      <trkpt lat="45.19764" lon="5.73048">
        <ele>245.39999389648</ele>
        <time>2021-11-04T04:07:16.000Z</time>
      </trkpt>
      <trkpt lat="45.19758" lon="5.73043">
        <ele>246.60000610352</ele>
        <time>2021-11-04T04:07:20.000Z</time>
      </trkpt>
      <trkpt lat="45.19754" lon="5.7304">
        <ele>247.19999694824</ele>
        <time>2021-11-04T04:07:22.000Z</time>
      </trkpt>
      <trkpt lat="45.19754" lon="5.73038">
        <ele>247.60000610352</ele>
        <time>2021-11-04T04:07:23.000Z</time>
      </trkpt>
      <trkpt lat="45.19755" lon="5.73037">
        <ele>247.80000305176</ele>
        <time>2021-11-04T04:07:24.000Z</time>
      </trkpt>
      <trkpt lat="45.19757" lon="5.73037">
        <ele>248</ele>
        <time>2021-11-04T04:07:25.000Z</time>
      </trkpt>
      <trkpt lat="45.19762" lon="5.73038">
        <ele>248.60000610352</ele>
        <time>2021-11-04T04:07:28.000Z</time>
      </trkpt>
      <trkpt lat="45.19764" lon="5.73039">
        <ele>249</ele>
        <time>2021-11-04T04:07:29.000Z</time>
      </trkpt>
      <trkpt lat="45.1977" lon="5.73039">
        <ele>249.80000305176</ele>
        <time>2021-11-04T04:07:32.000Z</time>
      </trkpt>
      <trkpt lat="45.19779" lon="5.7304">
        <ele>251</ele>
        <time>2021-11-04T04:07:36.000Z</time>
      </trkpt>
      <trkpt lat="45.19786" lon="5.73043">
        <ele>251.80000305176</ele>
        <time>2021-11-04T04:07:39.000Z</time>
      </trkpt>
      <trkpt lat="45.19788" lon="5.73044">
        <ele>252.19999694824</ele>
        <time>2021-11-04T04:07:40.000Z</time>
      </trkpt>
      <trkpt lat="45.1979" lon="5.73045">
        <ele>252.39999389648</ele>
        <time>2021-11-04T04:07:41.000Z</time>
      </trkpt>
      <trkpt lat="45.19793" lon="5.73047">
        <ele>253.19999694824</ele>
        <time>2021-11-04T04:07:43.000Z</time>
      </trkpt>
      <trkpt lat="45.19796" lon="5.73047">
        <ele>253.39999389648</ele>
        <time>2021-11-04T04:07:44.000Z</time>
      </trkpt>
      <trkpt lat="45.19798" lon="5.73047">
        <ele>253.60000610352</ele>
        <time>2021-11-04T04:07:45.000Z</time>
      </trkpt>
      <trkpt lat="45.19799" lon="5.73045">
        <ele>254.60000610352</ele>
        <time>2021-11-04T04:07:48.000Z</time>
      </trkpt>
      <trkpt lat="45.19798" lon="5.73044">
        <ele>254.80000305176</ele>
        <time>2021-11-04T04:07:49.000Z</time>
      </trkpt>
      <trkpt lat="45.19791" lon="5.73042">
        <ele>255.39999389648</ele>
        <time>2021-11-04T04:07:53.000Z</time>
      </trkpt>
      <trkpt lat="45.19789" lon="5.73042">
        <ele>255.60000610352</ele>
        <time>2021-11-04T04:07:54.000Z</time>
      </trkpt>
      <trkpt lat="45.1978" lon="5.7304">
        <ele>256.39999389648</ele>
        <time>2021-11-04T04:07:59.000Z</time>
      </trkpt>
      <trkpt lat="45.19777" lon="5.73039">
        <ele>256.39999389648</ele>
        <time>2021-11-04T04:08:00.000Z</time>
      </trkpt>
      <trkpt lat="45.19775" lon="5.73039">
        <ele>256.79998779297</ele>
        <time>2021-11-04T04:08:01.000Z</time>
      </trkpt>
      <trkpt lat="45.1977" lon="5.73036">
        <ele>257.39999389648</ele>
        <time>2021-11-04T04:08:04.000Z</time>
      </trkpt>
      <trkpt lat="45.19765" lon="5.73033">
        <ele>257.79998779297</ele>
        <time>2021-11-04T04:08:07.000Z</time>
      </trkpt>
      <trkpt lat="45.19759" lon="5.73028">
        <ele>258.60000610352</ele>
        <time>2021-11-04T04:08:11.000Z</time>
      </trkpt>
      <trkpt lat="45.19759" lon="5.73026">
        <ele>258.79998779297</ele>
        <time>2021-11-04T04:08:12.000Z</time>
      </trkpt>
      <trkpt lat="45.19759" lon="5.73024">
        <ele>259</ele>
        <time>2021-11-04T04:08:13.000Z</time>
      </trkpt>
      <trkpt lat="45.1976" lon="5.73022">
        <ele>259.39999389648</ele>
        <time>2021-11-04T04:08:14.000Z</time>
      </trkpt>
      <trkpt lat="45.19763" lon="5.73019">
        <ele>260</ele>
        <time>2021-11-04T04:08:16.000Z</time>
      </trkpt>
      <trkpt lat="45.19765" lon="5.73018">
        <ele>260.20001220703</ele>
        <time>2021-11-04T04:08:17.000Z</time>
      </trkpt>
      <trkpt lat="45.19767" lon="5.73018">
        <ele>260.39999389648</ele>
        <time>2021-11-04T04:08:18.000Z</time>
      </trkpt>
      <trkpt lat="45.1977" lon="5.73019">
        <ele>261</ele>
        <time>2021-11-04T04:08:20.000Z</time>
      </trkpt>
      <trkpt lat="45.19772" lon="5.7302">
        <ele>261.20001220703</ele>
        <time>2021-11-04T04:08:21.000Z</time>
      </trkpt>
      <trkpt lat="45.19779" lon="5.73022">
        <ele>262.20001220703</ele>
        <time>2021-11-04T04:08:24.000Z</time>
      </trkpt>
      <trkpt lat="45.19781" lon="5.73023">
        <ele>262.39999389648</ele>
        <time>2021-11-04T04:08:25.000Z</time>
      </trkpt>
      <trkpt lat="45.19798" lon="5.73026">
        <ele>263.39999389648</ele>
        <time>2021-11-04T04:08:30.000Z</time>
      </trkpt>
      <trkpt lat="45.19804" lon="5.73024">
        <ele>264</ele>
        <time>2021-11-04T04:08:32.000Z</time>
      </trkpt>
      <trkpt lat="45.19808" lon="5.7302">
        <ele>264.79998779297</ele>
        <time>2021-11-04T04:08:34.000Z</time>
      </trkpt>
      <trkpt lat="45.19807" lon="5.73017">
        <ele>265.20001220703</ele>
        <time>2021-11-04T04:08:35.000Z</time>
      </trkpt>
      <trkpt lat="45.19803" lon="5.73015">
        <ele>265.60000610352</ele>
        <time>2021-11-04T04:08:37.000Z</time>
      </trkpt>
      <trkpt lat="45.198" lon="5.73015">
        <ele>265.79998779297</ele>
        <time>2021-11-04T04:08:38.000Z</time>
      </trkpt>
      <trkpt lat="45.19795" lon="5.73013">
        <ele>266.39999389648</ele>
        <time>2021-11-04T04:08:40.000Z</time>
      </trkpt>
      <trkpt lat="45.19792" lon="5.73012">
        <ele>266.79998779297</ele>
        <time>2021-11-04T04:08:41.000Z</time>
      </trkpt>
      <trkpt lat="45.1979" lon="5.73011">
        <ele>267</ele>
        <time>2021-11-04T04:08:42.000Z</time>
      </trkpt>
      <trkpt lat="45.19785" lon="5.73008">
        <ele>267.60000610352</ele>
        <time>2021-11-04T04:08:44.000Z</time>
      </trkpt>
      <trkpt lat="45.19781" lon="5.73004">
        <ele>267.79998779297</ele>
        <time>2021-11-04T04:08:46.000Z</time>
      </trkpt>
      <trkpt lat="45.19777" lon="5.73">
        <ele>268.39999389648</ele>
        <time>2021-11-04T04:08:48.000Z</time>
      </trkpt>
      <trkpt lat="45.19772" lon="5.72997">
        <ele>269</ele>
        <time>2021-11-04T04:08:51.000Z</time>
      </trkpt>
      <trkpt lat="45.19769" lon="5.72995">
        <ele>269.39999389648</ele>
        <time>2021-11-04T04:08:53.000Z</time>
      </trkpt>
      <trkpt lat="45.19763" lon="5.72988">
        <ele>270</ele>
        <time>2021-11-04T04:08:57.000Z</time>
      </trkpt>
      <trkpt lat="45.19761" lon="5.72988">
        <ele>270.39999389648</ele>
        <time>2021-11-04T04:08:58.000Z</time>
      </trkpt>
      <trkpt lat="45.1976" lon="5.72987">
        <ele>270.39999389648</ele>
        <time>2021-11-04T04:08:59.000Z</time>
      </trkpt>
      <trkpt lat="45.19752" lon="5.72982">
        <ele>271.60000610352</ele>
        <time>2021-11-04T04:09:04.000Z</time>
      </trkpt>
      <trkpt lat="45.19745" lon="5.72975">
        <ele>272.60000610352</ele>
        <time>2021-11-04T04:09:09.000Z</time>
      </trkpt>
      <trkpt lat="45.19744" lon="5.72974">
        <ele>272.79998779297</ele>
        <time>2021-11-04T04:09:10.000Z</time>
      </trkpt>
      <trkpt lat="45.19739" lon="5.72967">
        <ele>273.60000610352</ele>
        <time>2021-11-04T04:09:14.000Z</time>
      </trkpt>
      <trkpt lat="45.19738" lon="5.72965">
        <ele>273.79998779297</ele>
        <time>2021-11-04T04:09:15.000Z</time>
      </trkpt>
      <trkpt lat="45.19733" lon="5.7295">
        <ele>275</ele>
        <time>2021-11-04T04:09:20.000Z</time>
      </trkpt>
      <trkpt lat="45.19728" lon="5.72935">
        <ele>276.20001220703</ele>
        <time>2021-11-04T04:09:25.000Z</time>
      </trkpt>
      <trkpt lat="45.19722" lon="5.72922">
        <ele>277.20001220703</ele>
        <time>2021-11-04T04:09:29.000Z</time>
      </trkpt>
      <trkpt lat="45.1972" lon="5.72919">
        <ele>277.60000610352</ele>
        <time>2021-11-04T04:09:30.000Z</time>
      </trkpt>
      <trkpt lat="45.19718" lon="5.72917">
        <ele>277.79998779297</ele>
        <time>2021-11-04T04:09:31.000Z</time>
      </trkpt>
      <trkpt lat="45.19715" lon="5.72912">
        <ele>278.39999389648</ele>
        <time>2021-11-04T04:09:33.000Z</time>
      </trkpt>
      <trkpt lat="45.19707" lon="5.72902">
        <ele>279.60000610352</ele>
        <time>2021-11-04T04:09:38.000Z</time>
      </trkpt>
      <trkpt lat="45.19706" lon="5.72899">
        <ele>279.79998779297</ele>
        <time>2021-11-04T04:09:39.000Z</time>
      </trkpt>
      <trkpt lat="45.19703" lon="5.72888">
        <ele>280.60000610352</ele>
        <time>2021-11-04T04:09:42.000Z</time>
      </trkpt>
      <trkpt lat="45.19701" lon="5.72886">
        <ele>281</ele>
        <time>2021-11-04T04:09:43.000Z</time>
      </trkpt>
      <trkpt lat="45.19699" lon="5.72884">
        <ele>281.39999389648</ele>
        <time>2021-11-04T04:09:44.000Z</time>
      </trkpt>
      <trkpt lat="45.19697" lon="5.72882">
        <ele>281.60000610352</ele>
        <time>2021-11-04T04:09:45.000Z</time>
      </trkpt>
      <trkpt lat="45.19695" lon="5.7288">
        <ele>282</ele>
        <time>2021-11-04T04:09:46.000Z</time>
      </trkpt>
      <trkpt lat="45.19692" lon="5.72877">
        <ele>282.39999389648</ele>
        <time>2021-11-04T04:09:48.000Z</time>
      </trkpt>
      <trkpt lat="45.19691" lon="5.72874">
        <ele>282.60000610352</ele>
        <time>2021-11-04T04:09:49.000Z</time>
      </trkpt>
      <trkpt lat="45.1969" lon="5.72871">
        <ele>282.79998779297</ele>
        <time>2021-11-04T04:09:50.000Z</time>
      </trkpt>
      <trkpt lat="45.19689" lon="5.72869">
        <ele>283.20001220703</ele>
        <time>2021-11-04T04:09:51.000Z</time>
      </trkpt>
      <trkpt lat="45.19689" lon="5.72861">
        <ele>284</ele>
        <time>2021-11-04T04:09:54.000Z</time>
      </trkpt>
      <trkpt lat="45.1969" lon="5.72861">
        <ele>284.20001220703</ele>
        <time>2021-11-04T04:09:55.000Z</time>
      </trkpt>
      <trkpt lat="45.19692" lon="5.7286">
        <ele>284.60000610352</ele>
        <time>2021-11-04T04:09:56.000Z</time>
      </trkpt>
      <trkpt lat="45.19695" lon="5.72861">
        <ele>285</ele>
        <time>2021-11-04T04:09:59.000Z</time>
      </trkpt>
      <trkpt lat="45.19698" lon="5.72864">
        <ele>285.20001220703</ele>
        <time>2021-11-04T04:10:01.000Z</time>
      </trkpt>
      <trkpt lat="45.19704" lon="5.72868">
        <ele>286</ele>
        <time>2021-11-04T04:10:05.000Z</time>
      </trkpt>
      <trkpt lat="45.19707" lon="5.72868">
        <ele>286.60000610352</ele>
        <time>2021-11-04T04:10:07.000Z</time>
      </trkpt>
      <trkpt lat="45.19713" lon="5.7287">
        <ele>287.20001220703</ele>
        <time>2021-11-04T04:10:10.000Z</time>
      </trkpt>
      <trkpt lat="45.19716" lon="5.7287">
        <ele>287.39999389648</ele>
        <time>2021-11-04T04:10:11.000Z</time>
      </trkpt>
      <trkpt lat="45.19717" lon="5.7287">
        <ele>287.60000610352</ele>
        <time>2021-11-04T04:10:12.000Z</time>
      </trkpt>
      <trkpt lat="45.19719" lon="5.72871">
        <ele>287.60000610352</ele>
        <time>2021-11-04T04:10:13.000Z</time>
      </trkpt>
      <trkpt lat="45.1972" lon="5.72873">
        <ele>287.79998779297</ele>
        <time>2021-11-04T04:10:14.000Z</time>
      </trkpt>
      <trkpt lat="45.19721" lon="5.72873">
        <ele>288</ele>
        <time>2021-11-04T04:10:15.000Z</time>
      </trkpt>
      <trkpt lat="45.19722" lon="5.72874">
        <ele>288.20001220703</ele>
        <time>2021-11-04T04:10:16.000Z</time>
      </trkpt>
      <trkpt lat="45.19724" lon="5.72875">
        <ele>288.60000610352</ele>
        <time>2021-11-04T04:10:17.000Z</time>
      </trkpt>
      <trkpt lat="45.1973" lon="5.72877">
        <ele>289.79998779297</ele>
        <time>2021-11-04T04:10:20.000Z</time>
      </trkpt>
      <trkpt lat="45.19734" lon="5.72879">
        <ele>290.20001220703</ele>
        <time>2021-11-04T04:10:22.000Z</time>
      </trkpt>
      <trkpt lat="45.19736" lon="5.7288">
        <ele>290.60000610352</ele>
        <time>2021-11-04T04:10:23.000Z</time>
      </trkpt>
      <trkpt lat="45.19737" lon="5.72882">
        <ele>291</ele>
        <time>2021-11-04T04:10:24.000Z</time>
      </trkpt>
      <trkpt lat="45.19738" lon="5.72883">
        <ele>291.20001220703</ele>
        <time>2021-11-04T04:10:25.000Z</time>
      </trkpt>
      <trkpt lat="45.19743" lon="5.72888">
        <ele>291.79998779297</ele>
        <time>2021-11-04T04:10:27.000Z</time>
      </trkpt>
      <trkpt lat="45.19745" lon="5.72889">
        <ele>292.20001220703</ele>
        <time>2021-11-04T04:10:28.000Z</time>
      </trkpt>
      <trkpt lat="45.19752" lon="5.72896">
        <ele>293.20001220703</ele>
        <time>2021-11-04T04:10:31.000Z</time>
      </trkpt>
      <trkpt lat="45.19755" lon="5.72899">
        <ele>293.60000610352</ele>
        <time>2021-11-04T04:10:33.000Z</time>
      </trkpt>
      <trkpt lat="45.19758" lon="5.72901">
        <ele>294.39999389648</ele>
        <time>2021-11-04T04:10:35.000Z</time>
      </trkpt>
      <trkpt lat="45.1976" lon="5.72902">
        <ele>294.79998779297</ele>
        <time>2021-11-04T04:10:36.000Z</time>
      </trkpt>
      <trkpt lat="45.19763" lon="5.72904">
        <ele>295.79998779297</ele>
        <time>2021-11-04T04:10:39.000Z</time>
      </trkpt>
      <trkpt lat="45.19765" lon="5.72907">
        <ele>296</ele>
        <time>2021-11-04T04:10:40.000Z</time>
      </trkpt>
      <trkpt lat="45.19771" lon="5.7291">
        <ele>296.39999389648</ele>
        <time>2021-11-04T04:10:42.000Z</time>
      </trkpt>
      <trkpt lat="45.19775" lon="5.72911">
        <ele>296.79998779297</ele>
        <time>2021-11-04T04:10:43.000Z</time>
      </trkpt>
      <trkpt lat="45.19778" lon="5.72912">
        <ele>297</ele>
        <time>2021-11-04T04:10:44.000Z</time>
      </trkpt>
      <trkpt lat="45.19785" lon="5.72914">
        <ele>298</ele>
        <time>2021-11-04T04:10:47.000Z</time>
      </trkpt>
      <trkpt lat="45.19788" lon="5.72915">
        <ele>298.20001220703</ele>
        <time>2021-11-04T04:10:48.000Z</time>
      </trkpt>
      <trkpt lat="45.1979" lon="5.72914">
        <ele>298.60000610352</ele>
        <time>2021-11-04T04:10:50.000Z</time>
      </trkpt>
      <trkpt lat="45.19789" lon="5.72914">
        <ele>298.79998779297</ele>
        <time>2021-11-04T04:10:52.000Z</time>
      </trkpt>
      <trkpt lat="45.19788" lon="5.72914">
        <ele>299.20001220703</ele>
        <time>2021-11-04T04:10:53.000Z</time>
      </trkpt>
      <trkpt lat="45.19782" lon="5.72914">
        <ele>300.20001220703</ele>
        <time>2021-11-04T04:10:57.000Z</time>
      </trkpt>
      <trkpt lat="45.19777" lon="5.72906">
        <ele>301.39999389648</ele>
        <time>2021-11-04T04:11:03.000Z</time>
      </trkpt>
      <trkpt lat="45.19776" lon="5.72904">
        <ele>301.60000610352</ele>
        <time>2021-11-04T04:11:04.000Z</time>
      </trkpt>
      <trkpt lat="45.19774" lon="5.72902">
        <ele>302.20001220703</ele>
        <time>2021-11-04T04:11:06.000Z</time>
      </trkpt>
      <trkpt lat="45.19772" lon="5.729">
        <ele>302.60000610352</ele>
        <time>2021-11-04T04:11:08.000Z</time>
      </trkpt>
      <trkpt lat="45.1977" lon="5.72896">
        <ele>303</ele>
        <time>2021-11-04T04:11:10.000Z</time>
      </trkpt>
      <trkpt lat="45.19767" lon="5.72894">
        <ele>303.79998779297</ele>
        <time>2021-11-04T04:11:13.000Z</time>
      </trkpt>
      <trkpt lat="45.19766" lon="5.72893">
        <ele>304</ele>
        <time>2021-11-04T04:11:14.000Z</time>
      </trkpt>
      <trkpt lat="45.19762" lon="5.72889">
        <ele>304.39999389648</ele>
        <time>2021-11-04T04:11:17.000Z</time>
      </trkpt>
      <trkpt lat="45.19761" lon="5.72886">
        <ele>304.79998779297</ele>
        <time>2021-11-04T04:11:18.000Z</time>
      </trkpt>
      <trkpt lat="45.19754" lon="5.72877">
        <ele>306</ele>
        <time>2021-11-04T04:11:22.000Z</time>
      </trkpt>
      <trkpt lat="45.19751" lon="5.72873">
        <ele>306.60000610352</ele>
        <time>2021-11-04T04:11:24.000Z</time>
      </trkpt>
      <trkpt lat="45.19747" lon="5.72869">
        <ele>307.39999389648</ele>
        <time>2021-11-04T04:11:26.000Z</time>
      </trkpt>
      <trkpt lat="45.19742" lon="5.72862">
        <ele>308.60000610352</ele>
        <time>2021-11-04T04:11:29.000Z</time>
      </trkpt>
      <trkpt lat="45.19742" lon="5.7286">
        <ele>308.79998779297</ele>
        <time>2021-11-04T04:11:30.000Z</time>
      </trkpt>
      <trkpt lat="45.19743" lon="5.72857">
        <ele>309.60000610352</ele>
        <time>2021-11-04T04:11:32.000Z</time>
      </trkpt>
      <trkpt lat="45.19745" lon="5.72856">
        <ele>310.20001220703</ele>
        <time>2021-11-04T04:11:34.000Z</time>
      </trkpt>
      <trkpt lat="45.19749" lon="5.72855">
        <ele>310.79998779297</ele>
        <time>2021-11-04T04:11:36.000Z</time>
      </trkpt>
      <trkpt lat="45.19752" lon="5.72854">
        <ele>311.39999389648</ele>
        <time>2021-11-04T04:11:38.000Z</time>
      </trkpt>
      <trkpt lat="45.19753" lon="5.72856">
        <ele>311.79998779297</ele>
        <time>2021-11-04T04:11:39.000Z</time>
      </trkpt>
      <trkpt lat="45.19763" lon="5.72858">
        <ele>313</ele>
        <time>2021-11-04T04:11:44.000Z</time>
      </trkpt>
      <trkpt lat="45.19767" lon="5.7286">
        <ele>313.60000610352</ele>
        <time>2021-11-04T04:11:46.000Z</time>
      </trkpt>
      <trkpt lat="45.19769" lon="5.72861">
        <ele>314.20001220703</ele>
        <time>2021-11-04T04:11:47.000Z</time>
      </trkpt>
      <trkpt lat="45.1977" lon="5.72862">
        <ele>314.39999389648</ele>
        <time>2021-11-04T04:11:48.000Z</time>
      </trkpt>
      <trkpt lat="45.19781" lon="5.72868">
        <ele>315</ele>
        <time>2021-11-04T04:11:53.000Z</time>
      </trkpt>
      <trkpt lat="45.19784" lon="5.72869">
        <ele>315.20001220703</ele>
        <time>2021-11-04T04:11:54.000Z</time>
      </trkpt>
      <trkpt lat="45.19786" lon="5.72871">
        <ele>315.79998779297</ele>
        <time>2021-11-04T04:11:56.000Z</time>
      </trkpt>
      <trkpt lat="45.19788" lon="5.72872">
        <ele>316.39999389648</ele>
        <time>2021-11-04T04:11:58.000Z</time>
      </trkpt>
      <trkpt lat="45.1979" lon="5.72872">
        <ele>316.60000610352</ele>
        <time>2021-11-04T04:11:59.000Z</time>
      </trkpt>
      <trkpt lat="45.19794" lon="5.72875">
        <ele>317.20001220703</ele>
        <time>2021-11-04T04:12:02.000Z</time>
      </trkpt>
      <trkpt lat="45.19797" lon="5.72876">
        <ele>317.39999389648</ele>
        <time>2021-11-04T04:12:03.000Z</time>
      </trkpt>
      <trkpt lat="45.19803" lon="5.72878">
        <ele>318.20001220703</ele>
        <time>2021-11-04T04:12:07.000Z</time>
      </trkpt>
      <trkpt lat="45.19804" lon="5.72878">
        <ele>318.39999389648</ele>
        <time>2021-11-04T04:12:08.000Z</time>
      </trkpt>
      <trkpt lat="45.19803" lon="5.72877">
        <ele>318.60000610352</ele>
        <time>2021-11-04T04:12:09.000Z</time>
      </trkpt>
      <trkpt lat="45.198" lon="5.72877">
        <ele>319.39999389648</ele>
        <time>2021-11-04T04:12:12.000Z</time>
      </trkpt>
      <trkpt lat="45.19798" lon="5.72876">
        <ele>319.60000610352</ele>
        <time>2021-11-04T04:12:13.000Z</time>
      </trkpt>
      <trkpt lat="45.19797" lon="5.72876">
        <ele>319.79998779297</ele>
        <time>2021-11-04T04:12:14.000Z</time>
      </trkpt>
      <trkpt lat="45.19794" lon="5.72874">
        <ele>320.20001220703</ele>
        <time>2021-11-04T04:12:16.000Z</time>
      </trkpt>
      <trkpt lat="45.19792" lon="5.7287">
        <ele>321</ele>
        <time>2021-11-04T04:12:18.000Z</time>
      </trkpt>
      <trkpt lat="45.19787" lon="5.72863">
        <ele>322</ele>
        <time>2021-11-04T04:12:21.000Z</time>
      </trkpt>
      <trkpt lat="45.19779" lon="5.72855">
        <ele>323.20001220703</ele>
        <time>2021-11-04T04:12:25.000Z</time>
      </trkpt>
      <trkpt lat="45.19773" lon="5.72846">
        <ele>324</ele>
        <time>2021-11-04T04:12:28.000Z</time>
      </trkpt>
      <trkpt lat="45.19772" lon="5.72844">
        <ele>324.39999389648</ele>
        <time>2021-11-04T04:12:29.000Z</time>
      </trkpt>
      <trkpt lat="45.1977" lon="5.72842">
        <ele>324.60000610352</ele>
        <time>2021-11-04T04:12:30.000Z</time>
      </trkpt>
      <trkpt lat="45.19766" lon="5.72838">
        <ele>325.60000610352</ele>
        <time>2021-11-04T04:12:32.000Z</time>
      </trkpt>
      <trkpt lat="45.19763" lon="5.72836">
        <ele>326</ele>
        <time>2021-11-04T04:12:33.000Z</time>
      </trkpt>
      <trkpt lat="45.19758" lon="5.72832">
        <ele>326.60000610352</ele>
        <time>2021-11-04T04:12:35.000Z</time>
      </trkpt>
      <trkpt lat="45.19756" lon="5.7283">
        <ele>327</ele>
        <time>2021-11-04T04:12:36.000Z</time>
      </trkpt>
      <trkpt lat="45.1975" lon="5.72822">
        <ele>327.79998779297</ele>
        <time>2021-11-04T04:12:39.000Z</time>
      </trkpt>
      <trkpt lat="45.19746" lon="5.72817">
        <ele>328.39999389648</ele>
        <time>2021-11-04T04:12:41.000Z</time>
      </trkpt>
      <trkpt lat="45.19747" lon="5.72814">
        <ele>328.79998779297</ele>
        <time>2021-11-04T04:12:42.000Z</time>
      </trkpt>
      <trkpt lat="45.1975" lon="5.72812">
        <ele>329.20001220703</ele>
        <time>2021-11-04T04:12:44.000Z</time>
      </trkpt>
      <trkpt lat="45.19754" lon="5.72814">
        <ele>329.60000610352</ele>
        <time>2021-11-04T04:12:46.000Z</time>
      </trkpt>
      <trkpt lat="45.19755" lon="5.72816">
        <ele>330</ele>
        <time>2021-11-04T04:12:47.000Z</time>
      </trkpt>
      <trkpt lat="45.19756" lon="5.72817">
        <ele>330.39999389648</ele>
        <time>2021-11-04T04:12:48.000Z</time>
      </trkpt>
      <trkpt lat="45.19759" lon="5.72819">
        <ele>330.60000610352</ele>
        <time>2021-11-04T04:12:50.000Z</time>
      </trkpt>
      <trkpt lat="45.19762" lon="5.72821">
        <ele>331</ele>
        <time>2021-11-04T04:12:52.000Z</time>
      </trkpt>
      <trkpt lat="45.19764" lon="5.72821">
        <ele>331.20001220703</ele>
        <time>2021-11-04T04:12:53.000Z</time>
      </trkpt>
      <trkpt lat="45.19767" lon="5.72821">
        <ele>331.39999389648</ele>
        <time>2021-11-04T04:12:55.000Z</time>
      </trkpt>
      <trkpt lat="45.19769" lon="5.72822">
        <ele>331.60000610352</ele>
        <time>2021-11-04T04:12:56.000Z</time>
      </trkpt>
      <trkpt lat="45.1977" lon="5.72822">
        <ele>332</ele>
        <time>2021-11-04T04:12:57.000Z</time>
      </trkpt>
      <trkpt lat="45.19771" lon="5.72823">
        <ele>332.20001220703</ele>
        <time>2021-11-04T04:12:58.000Z</time>
      </trkpt>
      <trkpt lat="45.19779" lon="5.72827">
        <ele>333</ele>
        <time>2021-11-04T04:13:03.000Z</time>
      </trkpt>
      <trkpt lat="45.19781" lon="5.72827">
        <ele>333.20001220703</ele>
        <time>2021-11-04T04:13:04.000Z</time>
      </trkpt>
      <trkpt lat="45.19789" lon="5.72831">
        <ele>334.20001220703</ele>
        <time>2021-11-04T04:13:08.000Z</time>
      </trkpt>
      <trkpt lat="45.19791" lon="5.72832">
        <ele>334.39999389648</ele>
        <time>2021-11-04T04:13:09.000Z</time>
      </trkpt>
      <trkpt lat="45.19798" lon="5.72836">
        <ele>335.39999389648</ele>
        <time>2021-11-04T04:13:14.000Z</time>
      </trkpt>
      <trkpt lat="45.198" lon="5.72838">
        <ele>335.60000610352</ele>
        <time>2021-11-04T04:13:16.000Z</time>
      </trkpt>
      <trkpt lat="45.19806" lon="5.72842">
        <ele>336.60000610352</ele>
        <time>2021-11-04T04:13:19.000Z</time>
      </trkpt>
      <trkpt lat="45.19809" lon="5.72844">
        <ele>337.20001220703</ele>
        <time>2021-11-04T04:13:21.000Z</time>
      </trkpt>
      <trkpt lat="45.1981" lon="5.72844">
        <ele>337.39999389648</ele>
        <time>2021-11-04T04:13:22.000Z</time>
      </trkpt>
      <trkpt lat="45.19811" lon="5.72842">
        <ele>337.60000610352</ele>
        <time>2021-11-04T04:13:23.000Z</time>
      </trkpt>
      <trkpt lat="45.19811" lon="5.72841">
        <ele>338.20001220703</ele>
        <time>2021-11-04T04:13:25.000Z</time>
      </trkpt>
      <trkpt lat="45.19808" lon="5.7284">
        <ele>338.79998779297</ele>
        <time>2021-11-04T04:13:27.000Z</time>
      </trkpt>
      <trkpt lat="45.19805" lon="5.72836">
        <ele>339</ele>
        <time>2021-11-04T04:13:29.000Z</time>
      </trkpt>
      <trkpt lat="45.19803" lon="5.72835">
        <ele>339.20001220703</ele>
        <time>2021-11-04T04:13:30.000Z</time>
      </trkpt>
      <trkpt lat="45.19797" lon="5.72831">
        <ele>340</ele>
        <time>2021-11-04T04:13:33.000Z</time>
      </trkpt>
      <trkpt lat="45.1979" lon="5.72821">
        <ele>340.79998779297</ele>
        <time>2021-11-04T04:13:37.000Z</time>
      </trkpt>
      <trkpt lat="45.19788" lon="5.72817">
        <ele>341</ele>
        <time>2021-11-04T04:13:39.000Z</time>
      </trkpt>
      <trkpt lat="45.19788" lon="5.72816">
        <ele>341.20001220703</ele>
        <time>2021-11-04T04:13:40.000Z</time>
      </trkpt>
      <trkpt lat="45.19789" lon="5.72816">
        <ele>341.39999389648</ele>
        <time>2021-11-04T04:13:41.000Z</time>
      </trkpt>
      <trkpt lat="45.19796" lon="5.72819">
        <ele>342.20001220703</ele>
        <time>2021-11-04T04:13:44.000Z</time>
      </trkpt>
      <trkpt lat="45.19802" lon="5.72823">
        <ele>342.79998779297</ele>
        <time>2021-11-04T04:13:47.000Z</time>
      </trkpt>
      <trkpt lat="45.19804" lon="5.72824">
        <ele>343.20001220703</ele>
        <time>2021-11-04T04:13:48.000Z</time>
      </trkpt>
      <trkpt lat="45.19813" lon="5.72829">
        <ele>344.20001220703</ele>
        <time>2021-11-04T04:13:53.000Z</time>
      </trkpt>
      <trkpt lat="45.19815" lon="5.72831">
        <ele>344.60000610352</ele>
        <time>2021-11-04T04:13:54.000Z</time>
      </trkpt>
      <trkpt lat="45.19821" lon="5.72833">
        <ele>345.20001220703</ele>
        <time>2021-11-04T04:13:58.000Z</time>
      </trkpt>
      <trkpt lat="45.19828" lon="5.72833">
        <ele>346.20001220703</ele>
        <time>2021-11-04T04:14:02.000Z</time>
      </trkpt>
      <trkpt lat="45.19829" lon="5.72832">
        <ele>346.39999389648</ele>
        <time>2021-11-04T04:14:03.000Z</time>
      </trkpt>
      <trkpt lat="45.19827" lon="5.72831">
        <ele>346.79998779297</ele>
        <time>2021-11-04T04:14:05.000Z</time>
      </trkpt>
      <trkpt lat="45.19821" lon="5.72829">
        <ele>347.60000610352</ele>
        <time>2021-11-04T04:14:09.000Z</time>
      </trkpt>
      <trkpt lat="45.19811" lon="5.72824">
        <ele>348.39999389648</ele>
        <time>2021-11-04T04:14:14.000Z</time>
      </trkpt>
      <trkpt lat="45.1981" lon="5.72821">
        <ele>348.60000610352</ele>
        <time>2021-11-04T04:14:15.000Z</time>
      </trkpt>
      <trkpt lat="45.1981" lon="5.72819">
        <ele>348.79998779297</ele>
        <time>2021-11-04T04:14:16.000Z</time>
      </trkpt>
      <trkpt lat="45.19812" lon="5.72816">
        <ele>349.20001220703</ele>
        <time>2021-11-04T04:14:18.000Z</time>
      </trkpt>
      <trkpt lat="45.19813" lon="5.72817">
        <ele>349.60000610352</ele>
        <time>2021-11-04T04:14:19.000Z</time>
      </trkpt>
      <trkpt lat="45.19815" lon="5.72818">
        <ele>349.79998779297</ele>
        <time>2021-11-04T04:14:20.000Z</time>
      </trkpt>
      <trkpt lat="45.19817" lon="5.72823">
        <ele>350</ele>
        <time>2021-11-04T04:14:22.000Z</time>
      </trkpt>
      <trkpt lat="45.19823" lon="5.72825">
        <ele>351</ele>
        <time>2021-11-04T04:14:25.000Z</time>
      </trkpt>
      <trkpt lat="45.19832" lon="5.72829">
        <ele>352</ele>
        <time>2021-11-04T04:14:30.000Z</time>
      </trkpt>
      <trkpt lat="45.19839" lon="5.72832">
        <ele>352.79998779297</ele>
        <time>2021-11-04T04:14:34.000Z</time>
      </trkpt>
      <trkpt lat="45.1984" lon="5.72831">
        <ele>353</ele>
        <time>2021-11-04T04:14:35.000Z</time>
      </trkpt>
      <trkpt lat="45.1984" lon="5.72829">
        <ele>353.20001220703</ele>
        <time>2021-11-04T04:14:36.000Z</time>
      </trkpt>
      <trkpt lat="45.19839" lon="5.72827">
        <ele>353.79998779297</ele>
        <time>2021-11-04T04:14:38.000Z</time>
      </trkpt>
      <trkpt lat="45.19836" lon="5.72826">
        <ele>354</ele>
        <time>2021-11-04T04:14:40.000Z</time>
      </trkpt>
      <trkpt lat="45.19834" lon="5.72827">
        <ele>354.39999389648</ele>
        <time>2021-11-04T04:14:41.000Z</time>
      </trkpt>
      <trkpt lat="45.19827" lon="5.7282">
        <ele>355.60000610352</ele>
        <time>2021-11-04T04:14:46.000Z</time>
      </trkpt>
      <trkpt lat="45.19825" lon="5.72817">
        <ele>356.20001220703</ele>
        <time>2021-11-04T04:14:48.000Z</time>
      </trkpt>
      <trkpt lat="45.19822" lon="5.72815">
        <ele>356.60000610352</ele>
        <time>2021-11-04T04:14:50.000Z</time>
      </trkpt>
      <trkpt lat="45.19814" lon="5.72811">
        <ele>357.60000610352</ele>
        <time>2021-11-04T04:14:55.000Z</time>
      </trkpt>
      <trkpt lat="45.19812" lon="5.72809">
        <ele>358</ele>
        <time>2021-11-04T04:14:56.000Z</time>
      </trkpt>
      <trkpt lat="45.19806" lon="5.72802">
        <ele>359</ele>
        <time>2021-11-04T04:15:00.000Z</time>
      </trkpt>
      <trkpt lat="45.19798" lon="5.72791">
        <ele>360</ele>
        <time>2021-11-04T04:15:05.000Z</time>
      </trkpt>
      <trkpt lat="45.19794" lon="5.72785">
        <ele>360.60000610352</ele>
        <time>2021-11-04T04:15:08.000Z</time>
      </trkpt>
      <trkpt lat="45.19793" lon="5.72782">
        <ele>360.79998779297</ele>
        <time>2021-11-04T04:15:09.000Z</time>
      </trkpt>
      <trkpt lat="45.19794" lon="5.7278">
        <ele>361</ele>
        <time>2021-11-04T04:15:10.000Z</time>
      </trkpt>
      <trkpt lat="45.19795" lon="5.7278">
        <ele>361.20001220703</ele>
        <time>2021-11-04T04:15:11.000Z</time>
      </trkpt>
      <trkpt lat="45.19797" lon="5.72782">
        <ele>361.60000610352</ele>
        <time>2021-11-04T04:15:13.000Z</time>
      </trkpt>
      <trkpt lat="45.19802" lon="5.72786">
        <ele>362.20001220703</ele>
        <time>2021-11-04T04:15:16.000Z</time>
      </trkpt>
      <trkpt lat="45.19803" lon="5.72787">
        <ele>362.39999389648</ele>
        <time>2021-11-04T04:15:17.000Z</time>
      </trkpt>
      <trkpt lat="45.19807" lon="5.7279">
        <ele>362.60000610352</ele>
        <time>2021-11-04T04:15:19.000Z</time>
      </trkpt>
      <trkpt lat="45.19815" lon="5.72795">
        <ele>363.60000610352</ele>
        <time>2021-11-04T04:15:23.000Z</time>
      </trkpt>
      <trkpt lat="45.19824" lon="5.72797">
        <ele>364.60000610352</ele>
        <time>2021-11-04T04:15:27.000Z</time>
      </trkpt>
      <trkpt lat="45.19826" lon="5.72798">
        <ele>364.79998779297</ele>
        <time>2021-11-04T04:15:28.000Z</time>
      </trkpt>
      <trkpt lat="45.19827" lon="5.72799">
        <ele>365.20001220703</ele>
        <time>2021-11-04T04:15:29.000Z</time>
      </trkpt>
      <trkpt lat="45.19832" lon="5.728">
        <ele>365.60000610352</ele>
        <time>2021-11-04T04:15:32.000Z</time>
      </trkpt>
      <trkpt lat="45.19834" lon="5.728">
        <ele>366</ele>
        <time>2021-11-04T04:15:33.000Z</time>
      </trkpt>
      <trkpt lat="45.19841" lon="5.72803">
        <ele>367.20001220703</ele>
        <time>2021-11-04T04:15:37.000Z</time>
      </trkpt>
      <trkpt lat="45.19838" lon="5.72801">
        <ele>368</ele>
        <time>2021-11-04T04:15:40.000Z</time>
      </trkpt>
      <trkpt lat="45.19836" lon="5.728">
        <ele>368.20001220703</ele>
        <time>2021-11-04T04:15:41.000Z</time>
      </trkpt>
      <trkpt lat="45.19829" lon="5.72795">
        <ele>369.20001220703</ele>
        <time>2021-11-04T04:15:45.000Z</time>
      </trkpt>
      <trkpt lat="45.19828" lon="5.72794">
        <ele>369.20001220703</ele>
        <time>2021-11-04T04:15:46.000Z</time>
      </trkpt>
      <trkpt lat="45.19819" lon="5.72788">
        <ele>370.60000610352</ele>
        <time>2021-11-04T04:15:51.000Z</time>
      </trkpt>
      <trkpt lat="45.19812" lon="5.72782">
        <ele>371.60000610352</ele>
        <time>2021-11-04T04:15:55.000Z</time>
      </trkpt>
      <trkpt lat="45.19809" lon="5.72778">
        <ele>372</ele>
        <time>2021-11-04T04:15:57.000Z</time>
      </trkpt>
      <trkpt lat="45.19806" lon="5.7277">
        <ele>372.79998779297</ele>
        <time>2021-11-04T04:16:00.000Z</time>
      </trkpt>
      <trkpt lat="45.19805" lon="5.72767">
        <ele>373.39999389648</ele>
        <time>2021-11-04T04:16:02.000Z</time>
      </trkpt>
      <trkpt lat="45.19802" lon="5.72761">
        <ele>374.20001220703</ele>
        <time>2021-11-04T04:16:05.000Z</time>
      </trkpt>
      <trkpt lat="45.19796" lon="5.72755">
        <ele>375</ele>
        <time>2021-11-04T04:16:09.000Z</time>
      </trkpt>
      <trkpt lat="45.19794" lon="5.72753">
        <ele>375.20001220703</ele>
        <time>2021-11-04T04:16:10.000Z</time>
      </trkpt>
      <trkpt lat="45.19786" lon="5.72745">
        <ele>376.39999389648</ele>
        <time>2021-11-04T04:16:15.000Z</time>
      </trkpt>
      <trkpt lat="45.19785" lon="5.72741">
        <ele>376.79998779297</ele>
        <time>2021-11-04T04:16:17.000Z</time>
      </trkpt>
      <trkpt lat="45.19785" lon="5.72738">
        <ele>377.39999389648</ele>
        <time>2021-11-04T04:16:19.000Z</time>
      </trkpt>
      <trkpt lat="45.19787" lon="5.72738">
        <ele>377.60000610352</ele>
        <time>2021-11-04T04:16:20.000Z</time>
      </trkpt>
      <trkpt lat="45.1979" lon="5.7274">
        <ele>378.39999389648</ele>
        <time>2021-11-04T04:16:23.000Z</time>
      </trkpt>
      <trkpt lat="45.19793" lon="5.7274">
        <ele>378.60000610352</ele>
        <time>2021-11-04T04:16:24.000Z</time>
      </trkpt>
      <trkpt lat="45.19796" lon="5.72741">
        <ele>379</ele>
        <time>2021-11-04T04:16:26.000Z</time>
      </trkpt>
      <trkpt lat="45.19802" lon="5.72745">
        <ele>379.60000610352</ele>
        <time>2021-11-04T04:16:29.000Z</time>
      </trkpt>
      <trkpt lat="45.19804" lon="5.72746">
        <ele>379.79998779297</ele>
        <time>2021-11-04T04:16:30.000Z</time>
      </trkpt>
      <trkpt lat="45.19812" lon="5.72753">
        <ele>380.60000610352</ele>
        <time>2021-11-04T04:16:35.000Z</time>
      </trkpt>
      <trkpt lat="45.19815" lon="5.72757">
        <ele>381</ele>
        <time>2021-11-04T04:16:37.000Z</time>
      </trkpt>
      <trkpt lat="45.19817" lon="5.72758">
        <ele>381.20001220703</ele>
        <time>2021-11-04T04:16:38.000Z</time>
      </trkpt>
      <trkpt lat="45.1982" lon="5.72761">
        <ele>381.39999389648</ele>
        <time>2021-11-04T04:16:40.000Z</time>
      </trkpt>
      <trkpt lat="45.19825" lon="5.72763">
        <ele>381.79998779297</ele>
        <time>2021-11-04T04:16:42.000Z</time>
      </trkpt>
      <trkpt lat="45.19828" lon="5.72763">
        <ele>382</ele>
        <time>2021-11-04T04:16:43.000Z</time>
      </trkpt>
      <trkpt lat="45.19834" lon="5.72764">
        <ele>382.39999389648</ele>
        <time>2021-11-04T04:16:45.000Z</time>
      </trkpt>
      <trkpt lat="45.19836" lon="5.72765">
        <ele>382.60000610352</ele>
        <time>2021-11-04T04:16:46.000Z</time>
      </trkpt>
      <trkpt lat="45.19841" lon="5.72768">
        <ele>383.20001220703</ele>
        <time>2021-11-04T04:16:48.000Z</time>
      </trkpt>
      <trkpt lat="45.1985" lon="5.72775">
        <ele>384.39999389648</ele>
        <time>2021-11-04T04:16:53.000Z</time>
      </trkpt>
      <trkpt lat="45.19851" lon="5.72775">
        <ele>384.60000610352</ele>
        <time>2021-11-04T04:16:54.000Z</time>
      </trkpt>
      <trkpt lat="45.1985" lon="5.72772">
        <ele>385.20001220703</ele>
        <time>2021-11-04T04:16:56.000Z</time>
      </trkpt>
      <trkpt lat="45.19846" lon="5.72768">
        <ele>385.60000610352</ele>
        <time>2021-11-04T04:16:59.000Z</time>
      </trkpt>
      <trkpt lat="45.19845" lon="5.72764">
        <ele>386</ele>
        <time>2021-11-04T04:17:01.000Z</time>
      </trkpt>
      <trkpt lat="45.19845" lon="5.72765">
        <ele>386.79998779297</ele>
        <time>2021-11-04T04:17:04.000Z</time>
      </trkpt>
      <trkpt lat="45.19846" lon="5.72765">
        <ele>386.79998779297</ele>
        <time>2021-11-04T04:17:05.000Z</time>
      </trkpt>
      <trkpt lat="45.19847" lon="5.72765">
        <ele>387.20001220703</ele>
        <time>2021-11-04T04:17:06.000Z</time>
      </trkpt>
      <trkpt lat="45.19848" lon="5.72766">
        <ele>387.79998779297</ele>
        <time>2021-11-04T04:17:07.000Z</time>
      </trkpt>
      <trkpt lat="45.1985" lon="5.72768">
        <ele>389.20001220703</ele>
        <time>2021-11-04T04:17:09.000Z</time>
      </trkpt>
      <trkpt lat="45.1985" lon="5.72769">
        <ele>389.60000610352</ele>
        <time>2021-11-04T04:17:10.000Z</time>
      </trkpt>
      <trkpt lat="45.19851" lon="5.72771">
        <ele>390.20001220703</ele>
        <time>2021-11-04T04:17:12.000Z</time>
      </trkpt>
      <trkpt lat="45.19852" lon="5.72773">
        <ele>390.79998779297</ele>
        <time>2021-11-04T04:17:14.000Z</time>
      </trkpt>
      <trkpt lat="45.19852" lon="5.72773">
        <ele>391</ele>
        <time>2021-11-04T04:17:15.000Z</time>
      </trkpt>
      <trkpt lat="45.19852" lon="5.72771">
        <ele>391.39999389648</ele>
        <time>2021-11-04T04:17:17.000Z</time>
      </trkpt>
      <trkpt lat="45.19852" lon="5.7277">
        <ele>391.79998779297</ele>
        <time>2021-11-04T04:17:18.000Z</time>
      </trkpt>
      <trkpt lat="45.19851" lon="5.7277">
        <ele>392.39999389648</ele>
        <time>2021-11-04T04:17:19.000Z</time>
      </trkpt>
      <trkpt lat="45.19849" lon="5.72759">
        <ele>404.60000610352</ele>
        <time>2021-11-04T04:17:50.000Z</time>
      </trkpt>
      <trkpt lat="45.19849" lon="5.72764">
        <ele>405.39999389648</ele>
        <time>2021-11-04T04:17:52.000Z</time>
      </trkpt>
      <trkpt lat="45.19845" lon="5.72762">
        <ele>405.79998779297</ele>
        <time>2021-11-04T04:17:55.000Z</time>
      </trkpt>
      <trkpt lat="45.19845" lon="5.72762">
        <ele>406.39999389648</ele>
        <time>2021-11-04T04:17:56.000Z</time>
      </trkpt>
      <trkpt lat="45.19849" lon="5.72762">
        <ele>407.60000610352</ele>
        <time>2021-11-04T04:17:58.000Z</time>
      </trkpt>
      <trkpt lat="45.19851" lon="5.72763">
        <ele>408.20001220703</ele>
        <time>2021-11-04T04:18:00.000Z</time>
      </trkpt>
      <trkpt lat="45.19852" lon="5.72762">
        <ele>408.60000610352</ele>
        <time>2021-11-04T04:18:01.000Z</time>
      </trkpt>
      <trkpt lat="45.19853" lon="5.72761">
        <ele>409</ele>
        <time>2021-11-04T04:18:02.000Z</time>
      </trkpt>
      <trkpt lat="45.19855" lon="5.72754">
        <ele>410</ele>
        <time>2021-11-04T04:18:06.000Z</time>
      </trkpt>
      <trkpt lat="45.19856" lon="5.72752">
        <ele>410</ele>
        <time>2021-11-04T04:18:07.000Z</time>
      </trkpt>
      <trkpt lat="45.19858" lon="5.72747">
        <ele>410.39999389648</ele>
        <time>2021-11-04T04:18:09.000Z</time>
      </trkpt>
      <trkpt lat="45.19857" lon="5.7274">
        <ele>410.79998779297</ele>
        <time>2021-11-04T04:18:12.000Z</time>
      </trkpt>
      <trkpt lat="45.19855" lon="5.72738">
        <ele>411.20001220703</ele>
        <time>2021-11-04T04:18:14.000Z</time>
      </trkpt>
      <trkpt lat="45.19855" lon="5.72736">
        <ele>411.39999389648</ele>
        <time>2021-11-04T04:18:16.000Z</time>
      </trkpt>
      <trkpt lat="45.19856" lon="5.7273">
        <ele>412.39999389648</ele>
        <time>2021-11-04T04:18:18.000Z</time>
      </trkpt>
      <trkpt lat="45.19837" lon="5.72744">
        <ele>415.60000610352</ele>
        <time>2021-11-04T04:18:29.000Z</time>
      </trkpt>
      <trkpt lat="45.19834" lon="5.7274">
        <ele>415.79998779297</ele>
        <time>2021-11-04T04:18:30.000Z</time>
      </trkpt>
      <trkpt lat="45.19832" lon="5.72729">
        <ele>415.39999389648</ele>
        <time>2021-11-04T04:18:33.000Z</time>
      </trkpt>
      <trkpt lat="45.19832" lon="5.72725">
        <ele>415.39999389648</ele>
        <time>2021-11-04T04:18:34.000Z</time>
      </trkpt>
      <trkpt lat="45.19821" lon="5.72715">
        <ele>415.39999389648</ele>
        <time>2021-11-04T04:18:38.000Z</time>
      </trkpt>
      <trkpt lat="45.19808" lon="5.72705">
        <ele>414.79998779297</ele>
        <time>2021-11-04T04:18:43.000Z</time>
      </trkpt>
      <trkpt lat="45.19805" lon="5.72703">
        <ele>414.79998779297</ele>
        <time>2021-11-04T04:18:44.000Z</time>
      </trkpt>
      <trkpt lat="45.19798" lon="5.72696">
        <ele>414.60000610352</ele>
        <time>2021-11-04T04:18:48.000Z</time>
      </trkpt>
      <trkpt lat="45.19784" lon="5.72683">
        <ele>414.20001220703</ele>
        <time>2021-11-04T04:18:54.000Z</time>
      </trkpt>
      <trkpt lat="45.1977" lon="5.7267">
        <ele>414.20001220703</ele>
        <time>2021-11-04T04:19:00.000Z</time>
      </trkpt>
      <trkpt lat="45.19758" lon="5.72654">
        <ele>414</ele>
        <time>2021-11-04T04:19:06.000Z</time>
      </trkpt>
      <trkpt lat="45.1975" lon="5.72639">
        <ele>414</ele>
        <time>2021-11-04T04:19:11.000Z</time>
      </trkpt>
      <trkpt lat="45.19749" lon="5.72636">
        <ele>414</ele>
        <time>2021-11-04T04:19:12.000Z</time>
      </trkpt>
      <trkpt lat="45.19749" lon="5.72629">
        <ele>414</ele>
        <time>2021-11-04T04:19:14.000Z</time>
      </trkpt>
      <trkpt lat="45.19745" lon="5.72614">
        <ele>414</ele>
        <time>2021-11-04T04:19:18.000Z</time>
      </trkpt>
      <trkpt lat="45.19739" lon="5.7259">
        <ele>414</ele>
        <time>2021-11-04T04:19:24.000Z</time>
      </trkpt>
      <trkpt lat="45.1974" lon="5.72585">
        <ele>414.20001220703</ele>
        <time>2021-11-04T04:19:25.000Z</time>
      </trkpt>
      <trkpt lat="45.1974" lon="5.72571">
        <ele>414</ele>
        <time>2021-11-04T04:19:28.000Z</time>
      </trkpt>
      <trkpt lat="45.1974" lon="5.72547">
        <ele>414</ele>
        <time>2021-11-04T04:19:33.000Z</time>
      </trkpt>
      <trkpt lat="45.19743" lon="5.72539">
        <ele>414.20001220703</ele>
        <time>2021-11-04T04:19:35.000Z</time>
      </trkpt>
      <trkpt lat="45.19745" lon="5.72536">
        <ele>414.39999389648</ele>
        <time>2021-11-04T04:19:36.000Z</time>
      </trkpt>
      <trkpt lat="45.19747" lon="5.72531">
        <ele>414.39999389648</ele>
        <time>2021-11-04T04:19:37.000Z</time>
      </trkpt>
      <trkpt lat="45.19759" lon="5.72514">
        <ele>414.79998779297</ele>
        <time>2021-11-04T04:19:42.000Z</time>
      </trkpt>
      <trkpt lat="45.19763" lon="5.7251">
        <ele>415.39999389648</ele>
        <time>2021-11-04T04:19:44.000Z</time>
      </trkpt>
      <trkpt lat="45.19768" lon="5.72505">
        <ele>416</ele>
        <time>2021-11-04T04:19:46.000Z</time>
      </trkpt>
      <trkpt lat="45.19769" lon="5.72506">
        <ele>416.20001220703</ele>
        <time>2021-11-04T04:19:47.000Z</time>
      </trkpt>
      <trkpt lat="45.19768" lon="5.72512">
        <ele>416.79998779297</ele>
        <time>2021-11-04T04:19:50.000Z</time>
      </trkpt>
      <trkpt lat="45.19769" lon="5.72516">
        <ele>417.20001220703</ele>
        <time>2021-11-04T04:19:52.000Z</time>
      </trkpt>
      <trkpt lat="45.19767" lon="5.72527">
        <ele>418</ele>
        <time>2021-11-04T04:19:57.000Z</time>
      </trkpt>
      <trkpt lat="45.19767" lon="5.72534">
        <ele>418.20001220703</ele>
        <time>2021-11-04T04:19:59.000Z</time>
      </trkpt>
      <trkpt lat="45.19767" lon="5.72544">
        <ele>418.79998779297</ele>
        <time>2021-11-04T04:20:03.000Z</time>
      </trkpt>
      <trkpt lat="45.19767" lon="5.72552">
        <ele>419.39999389648</ele>
        <time>2021-11-04T04:20:06.000Z</time>
      </trkpt>
      <trkpt lat="45.19767" lon="5.72555">
        <ele>419.60000610352</ele>
        <time>2021-11-04T04:20:07.000Z</time>
      </trkpt>
      <trkpt lat="45.19767" lon="5.72564">
        <ele>420</ele>
        <time>2021-11-04T04:20:10.000Z</time>
      </trkpt>
      <trkpt lat="45.19768" lon="5.7257">
        <ele>420.39999389648</ele>
        <time>2021-11-04T04:20:12.000Z</time>
      </trkpt>
      <trkpt lat="45.19769" lon="5.72574">
        <ele>420.79998779297</ele>
        <time>2021-11-04T04:20:14.000Z</time>
      </trkpt>
      <trkpt lat="45.19769" lon="5.72578">
        <ele>421.20001220703</ele>
        <time>2021-11-04T04:20:15.000Z</time>
      </trkpt>
      <trkpt lat="45.19769" lon="5.7258">
        <ele>421.39999389648</ele>
        <time>2021-11-04T04:20:16.000Z</time>
      </trkpt>
      <trkpt lat="45.19769" lon="5.72587">
        <ele>422</ele>
        <time>2021-11-04T04:20:18.000Z</time>
      </trkpt>
      <trkpt lat="45.19772" lon="5.72591">
        <ele>422.39999389648</ele>
        <time>2021-11-04T04:20:20.000Z</time>
      </trkpt>
      <trkpt lat="45.19774" lon="5.72591">
        <ele>422.79998779297</ele>
        <time>2021-11-04T04:20:21.000Z</time>
      </trkpt>
      <trkpt lat="45.19779" lon="5.72583">
        <ele>423.79998779297</ele>
        <time>2021-11-04T04:20:24.000Z</time>
      </trkpt>
      <trkpt lat="45.19779" lon="5.72579">
        <ele>424.20001220703</ele>
        <time>2021-11-04T04:20:25.000Z</time>
      </trkpt>
      <trkpt lat="45.1978" lon="5.72566">
        <ele>424.60000610352</ele>
        <time>2021-11-04T04:20:28.000Z</time>
      </trkpt>
      <trkpt lat="45.19781" lon="5.72554">
        <ele>425.39999389648</ele>
        <time>2021-11-04T04:20:31.000Z</time>
      </trkpt>
      <trkpt lat="45.19782" lon="5.72547">
        <ele>425.79998779297</ele>
        <time>2021-11-04T04:20:33.000Z</time>
      </trkpt>
      <trkpt lat="45.19782" lon="5.72544">
        <ele>426.20001220703</ele>
        <time>2021-11-04T04:20:34.000Z</time>
      </trkpt>
      <trkpt lat="45.19782" lon="5.7254">
        <ele>426.39999389648</ele>
        <time>2021-11-04T04:20:35.000Z</time>
      </trkpt>
      <trkpt lat="45.19783" lon="5.72536">
        <ele>426.79998779297</ele>
        <time>2021-11-04T04:20:36.000Z</time>
      </trkpt>
      <trkpt lat="45.19787" lon="5.72528">
        <ele>427.60000610352</ele>
        <time>2021-11-04T04:20:39.000Z</time>
      </trkpt>
      <trkpt lat="45.19791" lon="5.72532">
        <ele>428.20001220703</ele>
        <time>2021-11-04T04:20:41.000Z</time>
      </trkpt>
      <trkpt lat="45.19791" lon="5.72536">
        <ele>428.60000610352</ele>
        <time>2021-11-04T04:20:42.000Z</time>
      </trkpt>
      <trkpt lat="45.19792" lon="5.72543">
        <ele>429.20001220703</ele>
        <time>2021-11-04T04:20:44.000Z</time>
      </trkpt>
      <trkpt lat="45.19793" lon="5.72553">
        <ele>429.79998779297</ele>
        <time>2021-11-04T04:20:47.000Z</time>
      </trkpt>
      <trkpt lat="45.19792" lon="5.72575">
        <ele>431</ele>
        <time>2021-11-04T04:20:54.000Z</time>
      </trkpt>
      <trkpt lat="45.19791" lon="5.72589">
        <ele>431.79998779297</ele>
        <time>2021-11-04T04:20:59.000Z</time>
      </trkpt>
      <trkpt lat="45.19791" lon="5.72591">
        <ele>432</ele>
        <time>2021-11-04T04:21:00.000Z</time>
      </trkpt>
      <trkpt lat="45.1979" lon="5.72594">
        <ele>432.20001220703</ele>
        <time>2021-11-04T04:21:01.000Z</time>
      </trkpt>
      <trkpt lat="45.19792" lon="5.72608">
        <ele>433.20001220703</ele>
        <time>2021-11-04T04:21:06.000Z</time>
      </trkpt>
      <trkpt lat="45.19793" lon="5.72614">
        <ele>433.39999389648</ele>
        <time>2021-11-04T04:21:08.000Z</time>
      </trkpt>
      <trkpt lat="45.19797" lon="5.72622">
        <ele>434.20001220703</ele>
        <time>2021-11-04T04:21:12.000Z</time>
      </trkpt>
      <trkpt lat="45.19799" lon="5.72626">
        <ele>434.60000610352</ele>
        <time>2021-11-04T04:21:14.000Z</time>
      </trkpt>
      <trkpt lat="45.19804" lon="5.72632">
        <ele>435.20001220703</ele>
        <time>2021-11-04T04:21:17.000Z</time>
      </trkpt>
      <trkpt lat="45.19807" lon="5.72633">
        <ele>435.39999389648</ele>
        <time>2021-11-04T04:21:18.000Z</time>
      </trkpt>
      <trkpt lat="45.19809" lon="5.72634">
        <ele>435.60000610352</ele>
        <time>2021-11-04T04:21:19.000Z</time>
      </trkpt>
      <trkpt lat="45.19815" lon="5.7264">
        <ele>436.60000610352</ele>
        <time>2021-11-04T04:21:22.000Z</time>
      </trkpt>
      <trkpt lat="45.19819" lon="5.72643">
        <ele>437.20001220703</ele>
        <time>2021-11-04T04:21:24.000Z</time>
      </trkpt>
      <trkpt lat="45.19824" lon="5.72648">
        <ele>437.79998779297</ele>
        <time>2021-11-04T04:21:27.000Z</time>
      </trkpt>
      <trkpt lat="45.19826" lon="5.72651">
        <ele>438.20001220703</ele>
        <time>2021-11-04T04:21:29.000Z</time>
      </trkpt>
      <trkpt lat="45.19829" lon="5.72656">
        <ele>439</ele>
        <time>2021-11-04T04:21:32.000Z</time>
      </trkpt>
      <trkpt lat="45.19832" lon="5.7266">
        <ele>439.60000610352</ele>
        <time>2021-11-04T04:21:34.000Z</time>
      </trkpt>
      <trkpt lat="45.19834" lon="5.72665">
        <ele>440.20001220703</ele>
        <time>2021-11-04T04:21:36.000Z</time>
      </trkpt>
      <trkpt lat="45.19842" lon="5.72676">
        <ele>441.20001220703</ele>
        <time>2021-11-04T04:21:41.000Z</time>
      </trkpt>
      <trkpt lat="45.19848" lon="5.72685">
        <ele>441.79998779297</ele>
        <time>2021-11-04T04:21:44.000Z</time>
      </trkpt>
      <trkpt lat="45.1985" lon="5.72687">
        <ele>442</ele>
        <time>2021-11-04T04:21:45.000Z</time>
      </trkpt>
      <trkpt lat="45.19855" lon="5.72689">
        <ele>442.39999389648</ele>
        <time>2021-11-04T04:21:47.000Z</time>
      </trkpt>
      <trkpt lat="45.19858" lon="5.72688">
        <ele>443</ele>
        <time>2021-11-04T04:21:50.000Z</time>
      </trkpt>
      <trkpt lat="45.19857" lon="5.72686">
        <ele>443.20001220703</ele>
        <time>2021-11-04T04:21:51.000Z</time>
      </trkpt>
      <trkpt lat="45.19856" lon="5.72685">
        <ele>443.39999389648</ele>
        <time>2021-11-04T04:21:53.000Z</time>
      </trkpt>
      <trkpt lat="45.19854" lon="5.72683">
        <ele>443.60000610352</ele>
        <time>2021-11-04T04:21:54.000Z</time>
      </trkpt>
      <trkpt lat="45.19849" lon="5.72674">
        <ele>444.60000610352</ele>
        <time>2021-11-04T04:21:58.000Z</time>
      </trkpt>
      <trkpt lat="45.19845" lon="5.7267">
        <ele>445.20001220703</ele>
        <time>2021-11-04T04:22:01.000Z</time>
      </trkpt>
      <trkpt lat="45.19844" lon="5.72669">
        <ele>445.20001220703</ele>
        <time>2021-11-04T04:22:02.000Z</time>
      </trkpt>
      <trkpt lat="45.19842" lon="5.72665">
        <ele>445.60000610352</ele>
        <time>2021-11-04T04:22:04.000Z</time>
      </trkpt>
      <trkpt lat="45.19835" lon="5.72654">
        <ele>446.60000610352</ele>
        <time>2021-11-04T04:22:09.000Z</time>
      </trkpt>
      <trkpt lat="45.19834" lon="5.72652">
        <ele>446.79998779297</ele>
        <time>2021-11-04T04:22:10.000Z</time>
      </trkpt>
      <trkpt lat="45.19829" lon="5.72645">
        <ele>447.39999389648</ele>
        <time>2021-11-04T04:22:14.000Z</time>
      </trkpt>
      <trkpt lat="45.19827" lon="5.7264">
        <ele>447.79998779297</ele>
        <time>2021-11-04T04:22:16.000Z</time>
      </trkpt>
      <trkpt lat="45.19826" lon="5.72638">
        <ele>448</ele>
        <time>2021-11-04T04:22:17.000Z</time>
      </trkpt>
      <trkpt lat="45.19822" lon="5.72628">
        <ele>449</ele>
        <time>2021-11-04T04:22:21.000Z</time>
      </trkpt>
      <trkpt lat="45.1982" lon="5.72617">
        <ele>449.79998779297</ele>
        <time>2021-11-04T04:22:24.000Z</time>
      </trkpt>
      <trkpt lat="45.19819" lon="5.72609">
        <ele>450.20001220703</ele>
        <time>2021-11-04T04:22:26.000Z</time>
      </trkpt>
      <trkpt lat="45.19817" lon="5.72594">
        <ele>450.60000610352</ele>
        <time>2021-11-04T04:22:29.000Z</time>
      </trkpt>
      <trkpt lat="45.19817" lon="5.72584">
        <ele>451.20001220703</ele>
        <time>2021-11-04T04:22:32.000Z</time>
      </trkpt>
      <trkpt lat="45.19817" lon="5.72577">
        <ele>451.79998779297</ele>
        <time>2021-11-04T04:22:34.000Z</time>
      </trkpt>
      <trkpt lat="45.19816" lon="5.72571">
        <ele>452.60000610352</ele>
        <time>2021-11-04T04:22:36.000Z</time>
      </trkpt>
      <trkpt lat="45.19816" lon="5.72564">
        <ele>453</ele>
        <time>2021-11-04T04:22:38.000Z</time>
      </trkpt>
      <trkpt lat="45.19816" lon="5.72554">
        <ele>453.79998779297</ele>
        <time>2021-11-04T04:22:41.000Z</time>
      </trkpt>
      <trkpt lat="45.19817" lon="5.72543">
        <ele>454.60000610352</ele>
        <time>2021-11-04T04:22:44.000Z</time>
      </trkpt>
      <trkpt lat="45.19818" lon="5.72536">
        <ele>455.20001220703</ele>
        <time>2021-11-04T04:22:46.000Z</time>
      </trkpt>
      <trkpt lat="45.19819" lon="5.72533">
        <ele>455.39999389648</ele>
        <time>2021-11-04T04:22:47.000Z</time>
      </trkpt>
      <trkpt lat="45.19822" lon="5.72516">
        <ele>456.20001220703</ele>
        <time>2021-11-04T04:22:53.000Z</time>
      </trkpt>
      <trkpt lat="45.19823" lon="5.72514">
        <ele>456.20001220703</ele>
        <time>2021-11-04T04:22:54.000Z</time>
      </trkpt>
      <trkpt lat="45.19825" lon="5.72503">
        <ele>457.39999389648</ele>
        <time>2021-11-04T04:22:58.000Z</time>
      </trkpt>
      <trkpt lat="45.19827" lon="5.72497">
        <ele>457.79998779297</ele>
        <time>2021-11-04T04:23:00.000Z</time>
      </trkpt>
      <trkpt lat="45.19828" lon="5.7249">
        <ele>458.39999389648</ele>
        <time>2021-11-04T04:23:03.000Z</time>
      </trkpt>
      <trkpt lat="45.1983" lon="5.72482">
        <ele>459.39999389648</ele>
        <time>2021-11-04T04:23:06.000Z</time>
      </trkpt>
      <trkpt lat="45.19831" lon="5.72477">
        <ele>459.60000610352</ele>
        <time>2021-11-04T04:23:08.000Z</time>
      </trkpt>
      <trkpt lat="45.19833" lon="5.72467">
        <ele>460.60000610352</ele>
        <time>2021-11-04T04:23:12.000Z</time>
      </trkpt>
      <trkpt lat="45.19835" lon="5.72461">
        <ele>461</ele>
        <time>2021-11-04T04:23:14.000Z</time>
      </trkpt>
      <trkpt lat="45.19838" lon="5.72449">
        <ele>461.79998779297</ele>
        <time>2021-11-04T04:23:18.000Z</time>
      </trkpt>
      <trkpt lat="45.19843" lon="5.72442">
        <ele>463</ele>
        <time>2021-11-04T04:23:21.000Z</time>
      </trkpt>
      <trkpt lat="45.19848" lon="5.72441">
        <ele>463.39999389648</ele>
        <time>2021-11-04T04:23:23.000Z</time>
      </trkpt>
      <trkpt lat="45.19849" lon="5.72444">
        <ele>463.60000610352</ele>
        <time>2021-11-04T04:23:24.000Z</time>
      </trkpt>
      <trkpt lat="45.19849" lon="5.72451">
        <ele>464.20001220703</ele>
        <time>2021-11-04T04:23:26.000Z</time>
      </trkpt>
      <trkpt lat="45.19849" lon="5.72456">
        <ele>464.79998779297</ele>
        <time>2021-11-04T04:23:28.000Z</time>
      </trkpt>
      <trkpt lat="45.19849" lon="5.72459">
        <ele>465</ele>
        <time>2021-11-04T04:23:29.000Z</time>
      </trkpt>
      <trkpt lat="45.19849" lon="5.72463">
        <ele>465.39999389648</ele>
        <time>2021-11-04T04:23:30.000Z</time>
      </trkpt>
      <trkpt lat="45.1985" lon="5.72477">
        <ele>466.20001220703</ele>
        <time>2021-11-04T04:23:34.000Z</time>
      </trkpt>
      <trkpt lat="45.19851" lon="5.72485">
        <ele>466.60000610352</ele>
        <time>2021-11-04T04:23:36.000Z</time>
      </trkpt>
      <trkpt lat="45.19852" lon="5.72501">
        <ele>468.39999389648</ele>
        <time>2021-11-04T04:23:40.000Z</time>
      </trkpt>
      <trkpt lat="45.19854" lon="5.72517">
        <ele>469.20001220703</ele>
        <time>2021-11-04T04:23:44.000Z</time>
      </trkpt>
      <trkpt lat="45.19854" lon="5.72524">
        <ele>469.60000610352</ele>
        <time>2021-11-04T04:23:46.000Z</time>
      </trkpt>
      <trkpt lat="45.19854" lon="5.72527">
        <ele>469.60000610352</ele>
        <time>2021-11-04T04:23:47.000Z</time>
      </trkpt>
      <trkpt lat="45.19854" lon="5.72545">
        <ele>470.79998779297</ele>
        <time>2021-11-04T04:23:53.000Z</time>
      </trkpt>
      <trkpt lat="45.19856" lon="5.72555">
        <ele>471.39999389648</ele>
        <time>2021-11-04T04:23:57.000Z</time>
      </trkpt>
      <trkpt lat="45.19857" lon="5.72555">
        <ele>471.60000610352</ele>
        <time>2021-11-04T04:23:58.000Z</time>
      </trkpt>
      <trkpt lat="45.19858" lon="5.72552">
        <ele>471.79998779297</ele>
        <time>2021-11-04T04:24:00.000Z</time>
      </trkpt>
      <trkpt lat="45.19855" lon="5.72538">
        <ele>473</ele>
        <time>2021-11-04T04:24:05.000Z</time>
      </trkpt>
      <trkpt lat="45.19854" lon="5.72535">
        <ele>473</ele>
        <time>2021-11-04T04:24:06.000Z</time>
      </trkpt>
      <trkpt lat="45.19853" lon="5.72524">
        <ele>474</ele>
        <time>2021-11-04T04:24:10.000Z</time>
      </trkpt>
      <trkpt lat="45.19852" lon="5.72512">
        <ele>474.79998779297</ele>
        <time>2021-11-04T04:24:14.000Z</time>
      </trkpt>
      <trkpt lat="45.19853" lon="5.72509">
        <ele>475</ele>
        <time>2021-11-04T04:24:15.000Z</time>
      </trkpt>
      <trkpt lat="45.19853" lon="5.72505">
        <ele>475.20001220703</ele>
        <time>2021-11-04T04:24:16.000Z</time>
      </trkpt>
      <trkpt lat="45.19856" lon="5.72491">
        <ele>475.79998779297</ele>
        <time>2021-11-04T04:24:20.000Z</time>
      </trkpt>
      <trkpt lat="45.19862" lon="5.72481">
        <ele>476.20001220703</ele>
        <time>2021-11-04T04:24:23.000Z</time>
      </trkpt>
      <trkpt lat="45.19864" lon="5.72479">
        <ele>476.20001220703</ele>
        <time>2021-11-04T04:24:24.000Z</time>
      </trkpt>
      <trkpt lat="45.19866" lon="5.72477">
        <ele>476.39999389648</ele>
        <time>2021-11-04T04:24:25.000Z</time>
      </trkpt>
      <trkpt lat="45.19874" lon="5.72472">
        <ele>476.60000610352</ele>
        <time>2021-11-04T04:24:28.000Z</time>
      </trkpt>
      <trkpt lat="45.19884" lon="5.72461">
        <ele>477</ele>
        <time>2021-11-04T04:24:33.000Z</time>
      </trkpt>
      <trkpt lat="45.19885" lon="5.72459">
        <ele>477</ele>
        <time>2021-11-04T04:24:34.000Z</time>
      </trkpt>
      <trkpt lat="45.19884" lon="5.72449">
        <ele>477</ele>
        <time>2021-11-04T04:24:36.000Z</time>
      </trkpt>
      <trkpt lat="45.19891" lon="5.72435">
        <ele>476.60000610352</ele>
        <time>2021-11-04T04:24:40.000Z</time>
      </trkpt>
      <trkpt lat="45.19892" lon="5.7243">
        <ele>476.39999389648</ele>
        <time>2021-11-04T04:24:41.000Z</time>
      </trkpt>
      <trkpt lat="45.19898" lon="5.72427">
        <ele>475.79998779297</ele>
        <time>2021-11-04T04:24:43.000Z</time>
      </trkpt>
      <trkpt lat="45.19901" lon="5.72426">
        <ele>475.39999389648</ele>
        <time>2021-11-04T04:24:44.000Z</time>
      </trkpt>
      <trkpt lat="45.19905" lon="5.72426">
        <ele>475</ele>
        <time>2021-11-04T04:24:45.000Z</time>
      </trkpt>
      <trkpt lat="45.19914" lon="5.72424">
        <ele>473.60000610352</ele>
        <time>2021-11-04T04:24:48.000Z</time>
      </trkpt>
      <trkpt lat="45.19918" lon="5.72423">
        <ele>473.20001220703</ele>
        <time>2021-11-04T04:24:49.000Z</time>
      </trkpt>
      <trkpt lat="45.19925" lon="5.7242">
        <ele>472.39999389648</ele>
        <time>2021-11-04T04:24:51.000Z</time>
      </trkpt>
      <trkpt lat="45.19934" lon="5.7242">
        <ele>472</ele>
        <time>2021-11-04T04:24:54.000Z</time>
      </trkpt>
      <trkpt lat="45.19952" lon="5.72419">
        <ele>472</ele>
        <time>2021-11-04T04:25:01.000Z</time>
      </trkpt>
      <trkpt lat="45.19955" lon="5.72419">
        <ele>472</ele>
        <time>2021-11-04T04:25:02.000Z</time>
      </trkpt>
      <trkpt lat="45.19962" lon="5.72419">
        <ele>472.39999389648</ele>
        <time>2021-11-04T04:25:05.000Z</time>
      </trkpt>
      <trkpt lat="45.19973" lon="5.72419">
        <ele>473.39999389648</ele>
        <time>2021-11-04T04:25:10.000Z</time>
      </trkpt>
      <trkpt lat="45.19977" lon="5.7242">
        <ele>474</ele>
        <time>2021-11-04T04:25:12.000Z</time>
      </trkpt>
      <trkpt lat="45.19981" lon="5.7242">
        <ele>474.60000610352</ele>
        <time>2021-11-04T04:25:14.000Z</time>
      </trkpt>
      <trkpt lat="45.19988" lon="5.72422">
        <ele>475</ele>
        <time>2021-11-04T04:25:17.000Z</time>
      </trkpt>
      <trkpt lat="45.19993" lon="5.72423">
        <ele>476</ele>
        <time>2021-11-04T04:25:19.000Z</time>
      </trkpt>
      <trkpt lat="45.19998" lon="5.72424">
        <ele>476.79998779297</ele>
        <time>2021-11-04T04:25:21.000Z</time>
      </trkpt>
      <trkpt lat="45.2" lon="5.72425">
        <ele>477</ele>
        <time>2021-11-04T04:25:22.000Z</time>
      </trkpt>
      <trkpt lat="45.20013" lon="5.72425">
        <ele>478</ele>
        <time>2021-11-04T04:25:27.000Z</time>
      </trkpt>
      <trkpt lat="45.20023" lon="5.72427">
        <ele>479.20001220703</ele>
        <time>2021-11-04T04:25:31.000Z</time>
      </trkpt>
      <trkpt lat="45.20033" lon="5.72427">
        <ele>480.39999389648</ele>
        <time>2021-11-04T04:25:35.000Z</time>
      </trkpt>
      <trkpt lat="45.20048" lon="5.72431">
        <ele>481.39999389648</ele>
        <time>2021-11-04T04:25:40.000Z</time>
      </trkpt>
      <trkpt lat="45.20057" lon="5.72433">
        <ele>482.39999389648</ele>
        <time>2021-11-04T04:25:44.000Z</time>
      </trkpt>
      <trkpt lat="45.20059" lon="5.72433">
        <ele>482.60000610352</ele>
        <time>2021-11-04T04:25:45.000Z</time>
      </trkpt>
      <trkpt lat="45.20061" lon="5.72433">
        <ele>483.20001220703</ele>
        <time>2021-11-04T04:25:46.000Z</time>
      </trkpt>
      <trkpt lat="45.20065" lon="5.72435">
        <ele>484</ele>
        <time>2021-11-04T04:25:49.000Z</time>
      </trkpt>
      <trkpt lat="45.20068" lon="5.72441">
        <ele>484.60000610352</ele>
        <time>2021-11-04T04:25:52.000Z</time>
      </trkpt>
      <trkpt lat="45.20071" lon="5.72448">
        <ele>485.20001220703</ele>
        <time>2021-11-04T04:25:55.000Z</time>
      </trkpt>
      <trkpt lat="45.20073" lon="5.72456">
        <ele>486.20001220703</ele>
        <time>2021-11-04T04:25:58.000Z</time>
      </trkpt>
      <trkpt lat="45.20074" lon="5.72458">
        <ele>486.39999389648</ele>
        <time>2021-11-04T04:25:59.000Z</time>
      </trkpt>
      <trkpt lat="45.20074" lon="5.72461">
        <ele>486.60000610352</ele>
        <time>2021-11-04T04:26:00.000Z</time>
      </trkpt>
      <trkpt lat="45.20074" lon="5.72466">
        <ele>487</ele>
        <time>2021-11-04T04:26:02.000Z</time>
      </trkpt>
      <trkpt lat="45.20074" lon="5.72468">
        <ele>487</ele>
        <time>2021-11-04T04:26:03.000Z</time>
      </trkpt>
      <trkpt lat="45.20076" lon="5.72473">
        <ele>487.39999389648</ele>
        <time>2021-11-04T04:26:05.000Z</time>
      </trkpt>
      <trkpt lat="45.20076" lon="5.72485">
        <ele>488</ele>
        <time>2021-11-04T04:26:09.000Z</time>
      </trkpt>
      <trkpt lat="45.20075" lon="5.72494">
        <ele>488.60000610352</ele>
        <time>2021-11-04T04:26:12.000Z</time>
      </trkpt>
      <trkpt lat="45.20074" lon="5.725">
        <ele>488.79998779297</ele>
        <time>2021-11-04T04:26:14.000Z</time>
      </trkpt>
      <trkpt lat="45.20071" lon="5.72513">
        <ele>489.39999389648</ele>
        <time>2021-11-04T04:26:18.000Z</time>
      </trkpt>
      <trkpt lat="45.20072" lon="5.72524">
        <ele>489.60000610352</ele>
        <time>2021-11-04T04:26:21.000Z</time>
      </trkpt>
      <trkpt lat="45.20075" lon="5.72535">
        <ele>490</ele>
        <time>2021-11-04T04:26:24.000Z</time>
      </trkpt>
      <trkpt lat="45.20084" lon="5.72543">
        <ele>490.39999389648</ele>
        <time>2021-11-04T04:26:29.000Z</time>
      </trkpt>
      <trkpt lat="45.20088" lon="5.72544">
        <ele>490.79998779297</ele>
        <time>2021-11-04T04:26:31.000Z</time>
      </trkpt>
      <trkpt lat="45.20095" lon="5.72543">
        <ele>492.20001220703</ele>
        <time>2021-11-04T04:26:35.000Z</time>
      </trkpt>
      <trkpt lat="45.20097" lon="5.72543">
        <ele>492.60000610352</ele>
        <time>2021-11-04T04:26:36.000Z</time>
      </trkpt>
      <trkpt lat="45.201" lon="5.72542">
        <ele>493.39999389648</ele>
        <time>2021-11-04T04:26:38.000Z</time>
      </trkpt>
      <trkpt lat="45.20101" lon="5.72542">
        <ele>494.20001220703</ele>
        <time>2021-11-04T04:26:39.000Z</time>
      </trkpt>
      <trkpt lat="45.20102" lon="5.72543">
        <ele>494.39999389648</ele>
        <time>2021-11-04T04:26:40.000Z</time>
      </trkpt>
      <trkpt lat="45.20103" lon="5.72543">
        <ele>494.79998779297</ele>
        <time>2021-11-04T04:26:41.000Z</time>
      </trkpt>
      <trkpt lat="45.20107" lon="5.72541">
        <ele>495.60000610352</ele>
        <time>2021-11-04T04:26:43.000Z</time>
      </trkpt>
      <trkpt lat="45.20109" lon="5.7254">
        <ele>495.60000610352</ele>
        <time>2021-11-04T04:26:44.000Z</time>
      </trkpt>
      <trkpt lat="45.20109" lon="5.7254">
        <ele>496</ele>
        <time>2021-11-04T04:26:45.000Z</time>
      </trkpt>
      <trkpt lat="45.2011" lon="5.7254">
        <ele>496.39999389648</ele>
        <time>2021-11-04T04:26:46.000Z</time>
      </trkpt>
      <trkpt lat="45.20111" lon="5.72541">
        <ele>496.60000610352</ele>
        <time>2021-11-04T04:26:47.000Z</time>
      </trkpt>
      <trkpt lat="45.20112" lon="5.7254">
        <ele>497</ele>
        <time>2021-11-04T04:26:48.000Z</time>
      </trkpt>
      <trkpt lat="45.20113" lon="5.72539">
        <ele>497.39999389648</ele>
        <time>2021-11-04T04:26:49.000Z</time>
      </trkpt>
      <trkpt lat="45.20113" lon="5.72538">
        <ele>497.60000610352</ele>
        <time>2021-11-04T04:26:50.000Z</time>
      </trkpt>
      <trkpt lat="45.20113" lon="5.72537">
        <ele>497.79998779297</ele>
        <time>2021-11-04T04:26:51.000Z</time>
      </trkpt>
      <trkpt lat="45.20111" lon="5.72535">
        <ele>498.79998779297</ele>
        <time>2021-11-04T04:26:55.000Z</time>
      </trkpt>
      <trkpt lat="45.20109" lon="5.72531">
        <ele>499.60000610352</ele>
        <time>2021-11-04T04:26:58.000Z</time>
      </trkpt>
      <trkpt lat="45.20109" lon="5.72529">
        <ele>499.79998779297</ele>
        <time>2021-11-04T04:26:59.000Z</time>
      </trkpt>
      <trkpt lat="45.20109" lon="5.72527">
        <ele>500</ele>
        <time>2021-11-04T04:27:00.000Z</time>
      </trkpt>
      <trkpt lat="45.20109" lon="5.72521">
        <ele>500.39999389648</ele>
        <time>2021-11-04T04:27:03.000Z</time>
      </trkpt>
      <trkpt lat="45.2011" lon="5.72516">
        <ele>501.20001220703</ele>
        <time>2021-11-04T04:27:06.000Z</time>
      </trkpt>
      <trkpt lat="45.20113" lon="5.7251">
        <ele>502.20001220703</ele>
        <time>2021-11-04T04:27:10.000Z</time>
      </trkpt>
      <trkpt lat="45.20118" lon="5.72508">
        <ele>503</ele>
        <time>2021-11-04T04:27:14.000Z</time>
      </trkpt>
      <trkpt lat="45.20119" lon="5.72507">
        <ele>503.20001220703</ele>
        <time>2021-11-04T04:27:15.000Z</time>
      </trkpt>
      <trkpt lat="45.20121" lon="5.72503">
        <ele>504.20001220703</ele>
        <time>2021-11-04T04:27:18.000Z</time>
      </trkpt>
      <trkpt lat="45.20123" lon="5.725">
        <ele>504.39999389648</ele>
        <time>2021-11-04T04:27:20.000Z</time>
      </trkpt>
      <trkpt lat="45.20127" lon="5.72496">
        <ele>505.60000610352</ele>
        <time>2021-11-04T04:27:24.000Z</time>
      </trkpt>
      <trkpt lat="45.2013" lon="5.72493">
        <ele>506.20001220703</ele>
        <time>2021-11-04T04:27:27.000Z</time>
      </trkpt>
      <trkpt lat="45.2013" lon="5.72492">
        <ele>506.60000610352</ele>
        <time>2021-11-04T04:27:28.000Z</time>
      </trkpt>
      <trkpt lat="45.20132" lon="5.72486">
        <ele>507.79998779297</ele>
        <time>2021-11-04T04:27:32.000Z</time>
      </trkpt>
      <trkpt lat="45.20133" lon="5.72482">
        <ele>508.79998779297</ele>
        <time>2021-11-04T04:27:35.000Z</time>
      </trkpt>
      <trkpt lat="45.20133" lon="5.72481">
        <ele>509.20001220703</ele>
        <time>2021-11-04T04:27:36.000Z</time>
      </trkpt>
      <trkpt lat="45.20133" lon="5.72481">
        <ele>509.60000610352</ele>
        <time>2021-11-04T04:27:37.000Z</time>
      </trkpt>
      <trkpt lat="45.20133" lon="5.7248">
        <ele>509.79998779297</ele>
        <time>2021-11-04T04:27:38.000Z</time>
      </trkpt>
      <trkpt lat="45.20134" lon="5.72477">
        <ele>510.20001220703</ele>
        <time>2021-11-04T04:27:40.000Z</time>
      </trkpt>
      <trkpt lat="45.20135" lon="5.72474">
        <ele>510.39999389648</ele>
        <time>2021-11-04T04:27:42.000Z</time>
      </trkpt>
      <trkpt lat="45.20136" lon="5.72473">
        <ele>511</ele>
        <time>2021-11-04T04:27:43.000Z</time>
      </trkpt>
      <trkpt lat="45.20139" lon="5.7247">
        <ele>512</ele>
        <time>2021-11-04T04:27:48.000Z</time>
      </trkpt>
      <trkpt lat="45.20139" lon="5.72469">
        <ele>512.20001220703</ele>
        <time>2021-11-04T04:27:49.000Z</time>
      </trkpt>
      <trkpt lat="45.2014" lon="5.72466">
        <ele>513.20001220703</ele>
        <time>2021-11-04T04:27:52.000Z</time>
      </trkpt>
      <trkpt lat="45.20141" lon="5.72465">
        <ele>513.40002441406</ele>
        <time>2021-11-04T04:27:53.000Z</time>
      </trkpt>
      <trkpt lat="45.20141" lon="5.72466">
        <ele>513.79998779297</ele>
        <time>2021-11-04T04:27:54.000Z</time>
      </trkpt>
      <trkpt lat="45.20142" lon="5.72466">
        <ele>514.20001220703</ele>
        <time>2021-11-04T04:27:56.000Z</time>
      </trkpt>
      <trkpt lat="45.20143" lon="5.72464">
        <ele>514.79998779297</ele>
        <time>2021-11-04T04:27:58.000Z</time>
      </trkpt>
      <trkpt lat="45.20144" lon="5.7246">
        <ele>515.40002441406</ele>
        <time>2021-11-04T04:28:00.000Z</time>
      </trkpt>
      <trkpt lat="45.20145" lon="5.72458">
        <ele>516.40002441406</ele>
        <time>2021-11-04T04:28:03.000Z</time>
      </trkpt>
      <trkpt lat="45.20145" lon="5.72459">
        <ele>517</ele>
        <time>2021-11-04T04:28:05.000Z</time>
      </trkpt>
      <trkpt lat="45.20147" lon="5.72461">
        <ele>517.59997558594</ele>
        <time>2021-11-04T04:28:08.000Z</time>
      </trkpt>
      <trkpt lat="45.20148" lon="5.72461">
        <ele>518.79998779297</ele>
        <time>2021-11-04T04:28:11.000Z</time>
      </trkpt>
      <trkpt lat="45.20151" lon="5.72462">
        <ele>519.59997558594</ele>
        <time>2021-11-04T04:28:15.000Z</time>
      </trkpt>
      <trkpt lat="45.20151" lon="5.72463">
        <ele>520</ele>
        <time>2021-11-04T04:28:16.000Z</time>
      </trkpt>
      <trkpt lat="45.20153" lon="5.72465">
        <ele>521.20001220703</ele>
        <time>2021-11-04T04:28:20.000Z</time>
      </trkpt>
      <trkpt lat="45.20154" lon="5.72465">
        <ele>521.59997558594</ele>
        <time>2021-11-04T04:28:21.000Z</time>
      </trkpt>
      <trkpt lat="45.20155" lon="5.72467">
        <ele>522.59997558594</ele>
        <time>2021-11-04T04:28:23.000Z</time>
      </trkpt>
      <trkpt lat="45.20157" lon="5.72469">
        <ele>523.59997558594</ele>
        <time>2021-11-04T04:28:26.000Z</time>
      </trkpt>
      <trkpt lat="45.20157" lon="5.7247">
        <ele>523.79998779297</ele>
        <time>2021-11-04T04:28:27.000Z</time>
      </trkpt>
      <trkpt lat="45.20159" lon="5.72471">
        <ele>524.40002441406</ele>
        <time>2021-11-04T04:28:30.000Z</time>
      </trkpt>
      <trkpt lat="45.2016" lon="5.72472">
        <ele>524.79998779297</ele>
        <time>2021-11-04T04:28:31.000Z</time>
      </trkpt>
      <trkpt lat="45.20161" lon="5.72472">
        <ele>525.20001220703</ele>
        <time>2021-11-04T04:28:32.000Z</time>
      </trkpt>
      <trkpt lat="45.20163" lon="5.72474">
        <ele>525.79998779297</ele>
        <time>2021-11-04T04:28:34.000Z</time>
      </trkpt>
      <trkpt lat="45.20164" lon="5.72475">
        <ele>526.20001220703</ele>
        <time>2021-11-04T04:28:36.000Z</time>
      </trkpt>
      <trkpt lat="45.20165" lon="5.72476">
        <ele>526.79998779297</ele>
        <time>2021-11-04T04:28:38.000Z</time>
      </trkpt>
      <trkpt lat="45.20166" lon="5.72476">
        <ele>527.20001220703</ele>
        <time>2021-11-04T04:28:39.000Z</time>
      </trkpt>
      <trkpt lat="45.20169" lon="5.72481">
        <ele>528.40002441406</ele>
        <time>2021-11-04T04:28:42.000Z</time>
      </trkpt>
      <trkpt lat="45.20169" lon="5.72481">
        <ele>528.59997558594</ele>
        <time>2021-11-04T04:28:43.000Z</time>
      </trkpt>
      <trkpt lat="45.2017" lon="5.72481">
        <ele>529</ele>
        <time>2021-11-04T04:28:44.000Z</time>
      </trkpt>
      <trkpt lat="45.20171" lon="5.72482">
        <ele>529.40002441406</ele>
        <time>2021-11-04T04:28:45.000Z</time>
      </trkpt>
      <trkpt lat="45.20173" lon="5.72486">
        <ele>530.20001220703</ele>
        <time>2021-11-04T04:28:48.000Z</time>
      </trkpt>
      <trkpt lat="45.20174" lon="5.72488">
        <ele>530.59997558594</ele>
        <time>2021-11-04T04:28:49.000Z</time>
      </trkpt>
      <trkpt lat="45.20174" lon="5.72489">
        <ele>531</ele>
        <time>2021-11-04T04:28:50.000Z</time>
      </trkpt>
      <trkpt lat="45.20178" lon="5.72492">
        <ele>531.59997558594</ele>
        <time>2021-11-04T04:28:55.000Z</time>
      </trkpt>
      <trkpt lat="45.20179" lon="5.72493">
        <ele>532</ele>
        <time>2021-11-04T04:28:57.000Z</time>
      </trkpt>
      <trkpt lat="45.20181" lon="5.72493">
        <ele>532.79998779297</ele>
        <time>2021-11-04T04:28:59.000Z</time>
      </trkpt>
      <trkpt lat="45.20185" lon="5.72497">
        <ele>533.79998779297</ele>
        <time>2021-11-04T04:29:04.000Z</time>
      </trkpt>
      <trkpt lat="45.20186" lon="5.72498">
        <ele>534</ele>
        <time>2021-11-04T04:29:05.000Z</time>
      </trkpt>
      <trkpt lat="45.2019" lon="5.72504">
        <ele>535</ele>
        <time>2021-11-04T04:29:11.000Z</time>
      </trkpt>
      <trkpt lat="45.20191" lon="5.72505">
        <ele>535.20001220703</ele>
        <time>2021-11-04T04:29:12.000Z</time>
      </trkpt>
      <trkpt lat="45.20192" lon="5.72506">
        <ele>535.40002441406</ele>
        <time>2021-11-04T04:29:13.000Z</time>
      </trkpt>
      <trkpt lat="45.20195" lon="5.72509">
        <ele>536.20001220703</ele>
        <time>2021-11-04T04:29:17.000Z</time>
      </trkpt>
      <trkpt lat="45.202" lon="5.72515">
        <ele>537.40002441406</ele>
        <time>2021-11-04T04:29:23.000Z</time>
      </trkpt>
      <trkpt lat="45.20205" lon="5.72521">
        <ele>538.59997558594</ele>
        <time>2021-11-04T04:29:28.000Z</time>
      </trkpt>
      <trkpt lat="45.20206" lon="5.72522">
        <ele>538.79998779297</ele>
        <time>2021-11-04T04:29:29.000Z</time>
      </trkpt>
      <trkpt lat="45.20209" lon="5.72523">
        <ele>539.40002441406</ele>
        <time>2021-11-04T04:29:33.000Z</time>
      </trkpt>
      <trkpt lat="45.2021" lon="5.72523">
        <ele>539.59997558594</ele>
        <time>2021-11-04T04:29:34.000Z</time>
      </trkpt>
      <trkpt lat="45.20211" lon="5.72524">
        <ele>540</ele>
        <time>2021-11-04T04:29:35.000Z</time>
      </trkpt>
      <trkpt lat="45.20215" lon="5.72524">
        <ele>540.79998779297</ele>
        <time>2021-11-04T04:29:38.000Z</time>
      </trkpt>
      <trkpt lat="45.20218" lon="5.72524">
        <ele>542</ele>
        <time>2021-11-04T04:29:41.000Z</time>
      </trkpt>
      <trkpt lat="45.2022" lon="5.72524">
        <ele>543</ele>
        <time>2021-11-04T04:29:45.000Z</time>
      </trkpt>
      <trkpt lat="45.20221" lon="5.72523">
        <ele>543.59997558594</ele>
        <time>2021-11-04T04:29:47.000Z</time>
      </trkpt>
      <trkpt lat="45.20222" lon="5.72523">
        <ele>543.79998779297</ele>
        <time>2021-11-04T04:29:48.000Z</time>
      </trkpt>
      <trkpt lat="45.20223" lon="5.72523">
        <ele>544.20001220703</ele>
        <time>2021-11-04T04:29:49.000Z</time>
      </trkpt>
      <trkpt lat="45.20228" lon="5.72524">
        <ele>545.40002441406</ele>
        <time>2021-11-04T04:29:53.000Z</time>
      </trkpt>
      <trkpt lat="45.20229" lon="5.72525">
        <ele>545.59997558594</ele>
        <time>2021-11-04T04:29:54.000Z</time>
      </trkpt>
      <trkpt lat="45.2023" lon="5.72525">
        <ele>545.79998779297</ele>
        <time>2021-11-04T04:29:55.000Z</time>
      </trkpt>
      <trkpt lat="45.20231" lon="5.72525">
        <ele>545.79998779297</ele>
        <time>2021-11-04T04:29:56.000Z</time>
      </trkpt>
      <trkpt lat="45.20233" lon="5.72524">
        <ele>546.59997558594</ele>
        <time>2021-11-04T04:29:59.000Z</time>
      </trkpt>
      <trkpt lat="45.20236" lon="5.72524">
        <ele>547.59997558594</ele>
        <time>2021-11-04T04:30:03.000Z</time>
      </trkpt>
      <trkpt lat="45.20237" lon="5.72525">
        <ele>548.20001220703</ele>
        <time>2021-11-04T04:30:05.000Z</time>
      </trkpt>
      <trkpt lat="45.20238" lon="5.72524">
        <ele>548.59997558594</ele>
        <time>2021-11-04T04:30:06.000Z</time>
      </trkpt>
      <trkpt lat="45.20239" lon="5.72524">
        <ele>549</ele>
        <time>2021-11-04T04:30:07.000Z</time>
      </trkpt>
      <trkpt lat="45.20242" lon="5.72521">
        <ele>550</ele>
        <time>2021-11-04T04:30:12.000Z</time>
      </trkpt>
      <trkpt lat="45.20244" lon="5.72521">
        <ele>551.40002441406</ele>
        <time>2021-11-04T04:30:15.000Z</time>
      </trkpt>
      <trkpt lat="45.20245" lon="5.7252">
        <ele>551.79998779297</ele>
        <time>2021-11-04T04:30:17.000Z</time>
      </trkpt>
      <trkpt lat="45.20246" lon="5.7252">
        <ele>552.20001220703</ele>
        <time>2021-11-04T04:30:19.000Z</time>
      </trkpt>
      <trkpt lat="45.20247" lon="5.7252">
        <ele>552.79998779297</ele>
        <time>2021-11-04T04:30:20.000Z</time>
      </trkpt>
      <trkpt lat="45.20248" lon="5.72519">
        <ele>553.20001220703</ele>
        <time>2021-11-04T04:30:21.000Z</time>
      </trkpt>
      <trkpt lat="45.20248" lon="5.72518">
        <ele>553.79998779297</ele>
        <time>2021-11-04T04:30:23.000Z</time>
      </trkpt>
      <trkpt lat="45.20249" lon="5.72518">
        <ele>554.40002441406</ele>
        <time>2021-11-04T04:30:25.000Z</time>
      </trkpt>
      <trkpt lat="45.20251" lon="5.72518">
        <ele>554.59997558594</ele>
        <time>2021-11-04T04:30:26.000Z</time>
      </trkpt>
      <trkpt lat="45.20253" lon="5.72518">
        <ele>555.20001220703</ele>
        <time>2021-11-04T04:30:27.000Z</time>
      </trkpt>
      <trkpt lat="45.20259" lon="5.72519">
        <ele>556</ele>
        <time>2021-11-04T04:30:32.000Z</time>
      </trkpt>
      <trkpt lat="45.2026" lon="5.72518">
        <ele>556.40002441406</ele>
        <time>2021-11-04T04:30:33.000Z</time>
      </trkpt>
      <trkpt lat="45.20263" lon="5.72518">
        <ele>557.20001220703</ele>
        <time>2021-11-04T04:30:37.000Z</time>
      </trkpt>
      <trkpt lat="45.20264" lon="5.72518">
        <ele>557.59997558594</ele>
        <time>2021-11-04T04:30:38.000Z</time>
      </trkpt>
      <trkpt lat="45.20267" lon="5.72517">
        <ele>558.40002441406</ele>
        <time>2021-11-04T04:30:41.000Z</time>
      </trkpt>
      <trkpt lat="45.20268" lon="5.72517">
        <ele>558.79998779297</ele>
        <time>2021-11-04T04:30:42.000Z</time>
      </trkpt>
      <trkpt lat="45.20271" lon="5.72519">
        <ele>559.79998779297</ele>
        <time>2021-11-04T04:30:47.000Z</time>
      </trkpt>
      <trkpt lat="45.20275" lon="5.72519">
        <ele>560.79998779297</ele>
        <time>2021-11-04T04:30:52.000Z</time>
      </trkpt>
      <trkpt lat="45.20276" lon="5.72519">
        <ele>561.20001220703</ele>
        <time>2021-11-04T04:30:53.000Z</time>
      </trkpt>
      <trkpt lat="45.20282" lon="5.72519">
        <ele>562</ele>
        <time>2021-11-04T04:30:57.000Z</time>
      </trkpt>
      <trkpt lat="45.20287" lon="5.72518">
        <ele>562.79998779297</ele>
        <time>2021-11-04T04:31:01.000Z</time>
      </trkpt>
      <trkpt lat="45.20288" lon="5.72518">
        <ele>563</ele>
        <time>2021-11-04T04:31:02.000Z</time>
      </trkpt>
      <trkpt lat="45.20292" lon="5.72517">
        <ele>563.79998779297</ele>
        <time>2021-11-04T04:31:05.000Z</time>
      </trkpt>
      <trkpt lat="45.20294" lon="5.72517">
        <ele>564.20001220703</ele>
        <time>2021-11-04T04:31:06.000Z</time>
      </trkpt>
      <trkpt lat="45.20296" lon="5.72517">
        <ele>564.79998779297</ele>
        <time>2021-11-04T04:31:08.000Z</time>
      </trkpt>
      <trkpt lat="45.20299" lon="5.72519">
        <ele>565.59997558594</ele>
        <time>2021-11-04T04:31:11.000Z</time>
      </trkpt>
      <trkpt lat="45.20301" lon="5.7252">
        <ele>566.20001220703</ele>
        <time>2021-11-04T04:31:13.000Z</time>
      </trkpt>
      <trkpt lat="45.20302" lon="5.72521">
        <ele>566.40002441406</ele>
        <time>2021-11-04T04:31:14.000Z</time>
      </trkpt>
      <trkpt lat="45.20304" lon="5.72521">
        <ele>566.79998779297</ele>
        <time>2021-11-04T04:31:16.000Z</time>
      </trkpt>
      <trkpt lat="45.20305" lon="5.72521">
        <ele>567</ele>
        <time>2021-11-04T04:31:17.000Z</time>
      </trkpt>
      <trkpt lat="45.20307" lon="5.72522">
        <ele>568.20001220703</ele>
        <time>2021-11-04T04:31:20.000Z</time>
      </trkpt>
      <trkpt lat="45.20308" lon="5.72522">
        <ele>568.40002441406</ele>
        <time>2021-11-04T04:31:21.000Z</time>
      </trkpt>
      <trkpt lat="45.2031" lon="5.72524">
        <ele>569.20001220703</ele>
        <time>2021-11-04T04:31:24.000Z</time>
      </trkpt>
      <trkpt lat="45.20311" lon="5.72524">
        <ele>569.59997558594</ele>
        <time>2021-11-04T04:31:25.000Z</time>
      </trkpt>
      <trkpt lat="45.20313" lon="5.72524">
        <ele>570.20001220703</ele>
        <time>2021-11-04T04:31:27.000Z</time>
      </trkpt>
      <trkpt lat="45.20314" lon="5.72523">
        <ele>570.40002441406</ele>
        <time>2021-11-04T04:31:28.000Z</time>
      </trkpt>
      <trkpt lat="45.20318" lon="5.72523">
        <ele>571.40002441406</ele>
        <time>2021-11-04T04:31:31.000Z</time>
      </trkpt>
      <trkpt lat="45.2032" lon="5.72521">
        <ele>571.79998779297</ele>
        <time>2021-11-04T04:31:32.000Z</time>
      </trkpt>
      <trkpt lat="45.20323" lon="5.72521">
        <ele>572.40002441406</ele>
        <time>2021-11-04T04:31:34.000Z</time>
      </trkpt>
      <trkpt lat="45.20324" lon="5.72521">
        <ele>572.59997558594</ele>
        <time>2021-11-04T04:31:35.000Z</time>
      </trkpt>
      <trkpt lat="45.20325" lon="5.72521">
        <ele>573.20001220703</ele>
        <time>2021-11-04T04:31:36.000Z</time>
      </trkpt>
      <trkpt lat="45.20326" lon="5.72521">
        <ele>573.79998779297</ele>
        <time>2021-11-04T04:31:38.000Z</time>
      </trkpt>
      <trkpt lat="45.20325" lon="5.7252">
        <ele>574.20001220703</ele>
        <time>2021-11-04T04:31:40.000Z</time>
      </trkpt>
      <trkpt lat="45.20329" lon="5.72519">
        <ele>574.79998779297</ele>
        <time>2021-11-04T04:31:44.000Z</time>
      </trkpt>
      <trkpt lat="45.2033" lon="5.7252">
        <ele>575.20001220703</ele>
        <time>2021-11-04T04:31:45.000Z</time>
      </trkpt>
      <trkpt lat="45.20331" lon="5.72521">
        <ele>575.79998779297</ele>
        <time>2021-11-04T04:31:48.000Z</time>
      </trkpt>
      <trkpt lat="45.20331" lon="5.72521">
        <ele>576.20001220703</ele>
        <time>2021-11-04T04:31:50.000Z</time>
      </trkpt>
      <trkpt lat="45.20335" lon="5.7252">
        <ele>576.79998779297</ele>
        <time>2021-11-04T04:31:53.000Z</time>
      </trkpt>
      <trkpt lat="45.20335" lon="5.7252">
        <ele>577.20001220703</ele>
        <time>2021-11-04T04:31:54.000Z</time>
      </trkpt>
      <trkpt lat="45.20337" lon="5.72519">
        <ele>578.20001220703</ele>
        <time>2021-11-04T04:31:57.000Z</time>
      </trkpt>
      <trkpt lat="45.20338" lon="5.7252">
        <ele>578.40002441406</ele>
        <time>2021-11-04T04:31:58.000Z</time>
      </trkpt>
      <trkpt lat="45.2034" lon="5.72521">
        <ele>578.79998779297</ele>
        <time>2021-11-04T04:32:00.000Z</time>
      </trkpt>
      <trkpt lat="45.20342" lon="5.72522">
        <ele>579</ele>
        <time>2021-11-04T04:32:02.000Z</time>
      </trkpt>
      <trkpt lat="45.20344" lon="5.72523">
        <ele>579.59997558594</ele>
        <time>2021-11-04T04:32:04.000Z</time>
      </trkpt>
      <trkpt lat="45.20345" lon="5.72523">
        <ele>579.79998779297</ele>
        <time>2021-11-04T04:32:05.000Z</time>
      </trkpt>
      <trkpt lat="45.20347" lon="5.72524">
        <ele>580.20001220703</ele>
        <time>2021-11-04T04:32:07.000Z</time>
      </trkpt>
      <trkpt lat="45.20347" lon="5.72524">
        <ele>580.59997558594</ele>
        <time>2021-11-04T04:32:08.000Z</time>
      </trkpt>
      <trkpt lat="45.2035" lon="5.72522">
        <ele>582</ele>
        <time>2021-11-04T04:32:12.000Z</time>
      </trkpt>
      <trkpt lat="45.20351" lon="5.72519">
        <ele>583.20001220703</ele>
        <time>2021-11-04T04:32:16.000Z</time>
      </trkpt>
      <trkpt lat="45.20351" lon="5.72517">
        <ele>583.59997558594</ele>
        <time>2021-11-04T04:32:18.000Z</time>
      </trkpt>
      <trkpt lat="45.20353" lon="5.72518">
        <ele>584.40002441406</ele>
        <time>2021-11-04T04:32:20.000Z</time>
      </trkpt>
      <trkpt lat="45.20355" lon="5.72519">
        <ele>585.20001220703</ele>
        <time>2021-11-04T04:32:22.000Z</time>
      </trkpt>
      <trkpt lat="45.20356" lon="5.7252">
        <ele>585.40002441406</ele>
        <time>2021-11-04T04:32:24.000Z</time>
      </trkpt>
      <trkpt lat="45.20358" lon="5.7252">
        <ele>586</ele>
        <time>2021-11-04T04:32:26.000Z</time>
      </trkpt>
      <trkpt lat="45.20359" lon="5.72521">
        <ele>586.40002441406</ele>
        <time>2021-11-04T04:32:28.000Z</time>
      </trkpt>
      <trkpt lat="45.2036" lon="5.72521">
        <ele>586.59997558594</ele>
        <time>2021-11-04T04:32:29.000Z</time>
      </trkpt>
      <trkpt lat="45.20362" lon="5.72521">
        <ele>587.20001220703</ele>
        <time>2021-11-04T04:32:34.000Z</time>
      </trkpt>
      <trkpt lat="45.20364" lon="5.72521">
        <ele>587.79998779297</ele>
        <time>2021-11-04T04:32:36.000Z</time>
      </trkpt>
      <trkpt lat="45.20366" lon="5.72523">
        <ele>588.20001220703</ele>
        <time>2021-11-04T04:32:38.000Z</time>
      </trkpt>
      <trkpt lat="45.2037" lon="5.72528">
        <ele>588.79998779297</ele>
        <time>2021-11-04T04:32:42.000Z</time>
      </trkpt>
      <trkpt lat="45.2037" lon="5.72529">
        <ele>589.20001220703</ele>
        <time>2021-11-04T04:32:43.000Z</time>
      </trkpt>
      <trkpt lat="45.20371" lon="5.72531">
        <ele>589.79998779297</ele>
        <time>2021-11-04T04:32:45.000Z</time>
      </trkpt>
      <trkpt lat="45.20372" lon="5.72531">
        <ele>590</ele>
        <time>2021-11-04T04:32:46.000Z</time>
      </trkpt>
      <trkpt lat="45.20372" lon="5.7253">
        <ele>591</ele>
        <time>2021-11-04T04:32:49.000Z</time>
      </trkpt>
      <trkpt lat="45.20373" lon="5.7253">
        <ele>591.20001220703</ele>
        <time>2021-11-04T04:32:50.000Z</time>
      </trkpt>
      <trkpt lat="45.20375" lon="5.72533">
        <ele>592.40002441406</ele>
        <time>2021-11-04T04:32:54.000Z</time>
      </trkpt>
      <trkpt lat="45.20375" lon="5.72534">
        <ele>592.59997558594</ele>
        <time>2021-11-04T04:32:55.000Z</time>
      </trkpt>
      <trkpt lat="45.20379" lon="5.72536">
        <ele>593.59997558594</ele>
        <time>2021-11-04T04:32:58.000Z</time>
      </trkpt>
      <trkpt lat="45.20379" lon="5.72537">
        <ele>594.20001220703</ele>
        <time>2021-11-04T04:33:00.000Z</time>
      </trkpt>
      <trkpt lat="45.2038" lon="5.72541">
        <ele>594.59997558594</ele>
        <time>2021-11-04T04:33:03.000Z</time>
      </trkpt>
      <trkpt lat="45.20381" lon="5.72542">
        <ele>594.79998779297</ele>
        <time>2021-11-04T04:33:04.000Z</time>
      </trkpt>
      <trkpt lat="45.20384" lon="5.72542">
        <ele>595.59997558594</ele>
        <time>2021-11-04T04:33:08.000Z</time>
      </trkpt>
      <trkpt lat="45.20385" lon="5.72542">
        <ele>595.79998779297</ele>
        <time>2021-11-04T04:33:09.000Z</time>
      </trkpt>
      <trkpt lat="45.20386" lon="5.72541">
        <ele>596</ele>
        <time>2021-11-04T04:33:10.000Z</time>
      </trkpt>
      <trkpt lat="45.20387" lon="5.72539">
        <ele>597</ele>
        <time>2021-11-04T04:33:13.000Z</time>
      </trkpt>
      <trkpt lat="45.20387" lon="5.72538">
        <ele>597.79998779297</ele>
        <time>2021-11-04T04:33:16.000Z</time>
      </trkpt>
      <trkpt lat="45.20388" lon="5.72538">
        <ele>598.20001220703</ele>
        <time>2021-11-04T04:33:18.000Z</time>
      </trkpt>
      <trkpt lat="45.20392" lon="5.72538">
        <ele>599.20001220703</ele>
        <time>2021-11-04T04:33:22.000Z</time>
      </trkpt>
      <trkpt lat="45.20394" lon="5.7254">
        <ele>599.59997558594</ele>
        <time>2021-11-04T04:33:24.000Z</time>
      </trkpt>
      <trkpt lat="45.20397" lon="5.7254">
        <ele>600.40002441406</ele>
        <time>2021-11-04T04:33:28.000Z</time>
      </trkpt>
      <trkpt lat="45.20398" lon="5.72539">
        <ele>600.59997558594</ele>
        <time>2021-11-04T04:33:29.000Z</time>
      </trkpt>
      <trkpt lat="45.204" lon="5.72538">
        <ele>601.79998779297</ele>
        <time>2021-11-04T04:33:34.000Z</time>
      </trkpt>
      <trkpt lat="45.20403" lon="5.72536">
        <ele>603</ele>
        <time>2021-11-04T04:33:39.000Z</time>
      </trkpt>
      <trkpt lat="45.20405" lon="5.72533">
        <ele>604.20001220703</ele>
        <time>2021-11-04T04:33:43.000Z</time>
      </trkpt>
      <trkpt lat="45.20406" lon="5.72532">
        <ele>604.59997558594</ele>
        <time>2021-11-04T04:33:44.000Z</time>
      </trkpt>
      <trkpt lat="45.2041" lon="5.7253">
        <ele>605.20001220703</ele>
        <time>2021-11-04T04:33:49.000Z</time>
      </trkpt>
      <trkpt lat="45.2041" lon="5.72528">
        <ele>606.20001220703</ele>
        <time>2021-11-04T04:33:51.000Z</time>
      </trkpt>
      <trkpt lat="45.20411" lon="5.72527">
        <ele>606.59997558594</ele>
        <time>2021-11-04T04:33:52.000Z</time>
      </trkpt>
      <trkpt lat="45.20414" lon="5.72523">
        <ele>607.79998779297</ele>
        <time>2021-11-04T04:33:56.000Z</time>
      </trkpt>
      <trkpt lat="45.20415" lon="5.72521">
        <ele>608</ele>
        <time>2021-11-04T04:33:57.000Z</time>
      </trkpt>
      <trkpt lat="45.20416" lon="5.7252">
        <ele>608.20001220703</ele>
        <time>2021-11-04T04:33:58.000Z</time>
      </trkpt>
      <trkpt lat="45.20419" lon="5.72519">
        <ele>609.20001220703</ele>
        <time>2021-11-04T04:34:01.000Z</time>
      </trkpt>
      <trkpt lat="45.2042" lon="5.72519">
        <ele>609.40002441406</ele>
        <time>2021-11-04T04:34:02.000Z</time>
      </trkpt>
      <trkpt lat="45.20421" lon="5.72517">
        <ele>609.79998779297</ele>
        <time>2021-11-04T04:34:04.000Z</time>
      </trkpt>
      <trkpt lat="45.20422" lon="5.72516">
        <ele>610.20001220703</ele>
        <time>2021-11-04T04:34:05.000Z</time>
      </trkpt>
      <trkpt lat="45.20423" lon="5.72516">
        <ele>610.79998779297</ele>
        <time>2021-11-04T04:34:07.000Z</time>
      </trkpt>
      <trkpt lat="45.20424" lon="5.72517">
        <ele>611.20001220703</ele>
        <time>2021-11-04T04:34:08.000Z</time>
      </trkpt>
      <trkpt lat="45.20425" lon="5.72518">
        <ele>611.59997558594</ele>
        <time>2021-11-04T04:34:09.000Z</time>
      </trkpt>
      <trkpt lat="45.20427" lon="5.72518">
        <ele>612.40002441406</ele>
        <time>2021-11-04T04:34:11.000Z</time>
      </trkpt>
      <trkpt lat="45.20427" lon="5.72518">
        <ele>612.79998779297</ele>
        <time>2021-11-04T04:34:12.000Z</time>
      </trkpt>
      <trkpt lat="45.20428" lon="5.72518">
        <ele>613.20001220703</ele>
        <time>2021-11-04T04:34:13.000Z</time>
      </trkpt>
      <trkpt lat="45.20431" lon="5.72516">
        <ele>613.79998779297</ele>
        <time>2021-11-04T04:34:16.000Z</time>
      </trkpt>
      <trkpt lat="45.20431" lon="5.72516">
        <ele>614.20001220703</ele>
        <time>2021-11-04T04:34:17.000Z</time>
      </trkpt>
      <trkpt lat="45.20431" lon="5.72516">
        <ele>614.59997558594</ele>
        <time>2021-11-04T04:34:18.000Z</time>
      </trkpt>
      <trkpt lat="45.20431" lon="5.72516">
        <ele>615</ele>
        <time>2021-11-04T04:34:19.000Z</time>
      </trkpt>
      <trkpt lat="45.20436" lon="5.72516">
        <ele>616</ele>
        <time>2021-11-04T04:34:22.000Z</time>
      </trkpt>
      <trkpt lat="45.20438" lon="5.72515">
        <ele>616.40002441406</ele>
        <time>2021-11-04T04:34:23.000Z</time>
      </trkpt>
      <trkpt lat="45.20443" lon="5.72517">
        <ele>617.20001220703</ele>
        <time>2021-11-04T04:34:27.000Z</time>
      </trkpt>
      <trkpt lat="45.20446" lon="5.72519">
        <ele>617.59997558594</ele>
        <time>2021-11-04T04:34:29.000Z</time>
      </trkpt>
      <trkpt lat="45.2045" lon="5.72523">
        <ele>618.20001220703</ele>
        <time>2021-11-04T04:34:32.000Z</time>
      </trkpt>
      <trkpt lat="45.20454" lon="5.7253">
        <ele>619</ele>
        <time>2021-11-04T04:34:36.000Z</time>
      </trkpt>
      <trkpt lat="45.20456" lon="5.72534">
        <ele>619.40002441406</ele>
        <time>2021-11-04T04:34:38.000Z</time>
      </trkpt>
      <trkpt lat="45.20463" lon="5.7254">
        <ele>620.40002441406</ele>
        <time>2021-11-04T04:34:43.000Z</time>
      </trkpt>
      <trkpt lat="45.20465" lon="5.72541">
        <ele>620.59997558594</ele>
        <time>2021-11-04T04:34:44.000Z</time>
      </trkpt>
      <trkpt lat="45.2047" lon="5.72547">
        <ele>621.40002441406</ele>
        <time>2021-11-04T04:34:49.000Z</time>
      </trkpt>
      <trkpt lat="45.20471" lon="5.72548">
        <ele>621.59997558594</ele>
        <time>2021-11-04T04:34:50.000Z</time>
      </trkpt>
      <trkpt lat="45.20473" lon="5.72551">
        <ele>621.59997558594</ele>
        <time>2021-11-04T04:34:51.000Z</time>
      </trkpt>
      <trkpt lat="45.20483" lon="5.72561">
        <ele>622.79998779297</ele>
        <time>2021-11-04T04:34:57.000Z</time>
      </trkpt>
      <trkpt lat="45.20492" lon="5.72559">
        <ele>623.79998779297</ele>
        <time>2021-11-04T04:35:02.000Z</time>
      </trkpt>
      <trkpt lat="45.20492" lon="5.72557">
        <ele>624</ele>
        <time>2021-11-04T04:35:03.000Z</time>
      </trkpt>
      <trkpt lat="45.20491" lon="5.72553">
        <ele>624.59997558594</ele>
        <time>2021-11-04T04:35:05.000Z</time>
      </trkpt>
      <trkpt lat="45.2049" lon="5.72552">
        <ele>625</ele>
        <time>2021-11-04T04:35:06.000Z</time>
      </trkpt>
      <trkpt lat="45.20488" lon="5.72545">
        <ele>626</ele>
        <time>2021-11-04T04:35:10.000Z</time>
      </trkpt>
      <trkpt lat="45.20486" lon="5.72539">
        <ele>627.20001220703</ele>
        <time>2021-11-04T04:35:14.000Z</time>
      </trkpt>
      <trkpt lat="45.20483" lon="5.72531">
        <ele>628.40002441406</ele>
        <time>2021-11-04T04:35:18.000Z</time>
      </trkpt>
      <trkpt lat="45.20483" lon="5.72529">
        <ele>628.59997558594</ele>
        <time>2021-11-04T04:35:19.000Z</time>
      </trkpt>
      <trkpt lat="45.20485" lon="5.72521">
        <ele>629</ele>
        <time>2021-11-04T04:35:22.000Z</time>
      </trkpt>
      <trkpt lat="45.20485" lon="5.72508">
        <ele>629.40002441406</ele>
        <time>2021-11-04T04:35:27.000Z</time>
      </trkpt>
      <trkpt lat="45.20484" lon="5.72505">
        <ele>629.20001220703</ele>
        <time>2021-11-04T04:35:28.000Z</time>
      </trkpt>
      <trkpt lat="45.20473" lon="5.72493">
        <ele>628.79998779297</ele>
        <time>2021-11-04T04:35:35.000Z</time>
      </trkpt>
      <trkpt lat="45.20457" lon="5.72488">
        <ele>628.79998779297</ele>
        <time>2021-11-04T04:35:43.000Z</time>
      </trkpt>
      <trkpt lat="45.20448" lon="5.7248">
        <ele>629.20001220703</ele>
        <time>2021-11-04T04:35:49.000Z</time>
      </trkpt>
      <trkpt lat="45.20436" lon="5.72474">
        <ele>628.79998779297</ele>
        <time>2021-11-04T04:35:55.000Z</time>
      </trkpt>
      <trkpt lat="45.20434" lon="5.72473">
        <ele>628.59997558594</ele>
        <time>2021-11-04T04:35:56.000Z</time>
      </trkpt>
      <trkpt lat="45.20421" lon="5.72468">
        <ele>628.40002441406</ele>
        <time>2021-11-04T04:36:01.000Z</time>
      </trkpt>
      <trkpt lat="45.2041" lon="5.72452">
        <ele>628.40002441406</ele>
        <time>2021-11-04T04:36:07.000Z</time>
      </trkpt>
      <trkpt lat="45.204" lon="5.72446">
        <ele>629.59997558594</ele>
        <time>2021-11-04T04:36:13.000Z</time>
      </trkpt>
      <trkpt lat="45.204" lon="5.72443">
        <ele>629.59997558594</ele>
        <time>2021-11-04T04:36:15.000Z</time>
      </trkpt>
      <trkpt lat="45.204" lon="5.72442">
        <ele>630.79998779297</ele>
        <time>2021-11-04T04:36:17.000Z</time>
      </trkpt>
      <trkpt lat="45.20394" lon="5.72443">
        <ele>631.79998779297</ele>
        <time>2021-11-04T04:36:22.000Z</time>
      </trkpt>
      <trkpt lat="45.20392" lon="5.72443">
        <ele>632</ele>
        <time>2021-11-04T04:36:23.000Z</time>
      </trkpt>
      <trkpt lat="45.20385" lon="5.72442">
        <ele>633.20001220703</ele>
        <time>2021-11-04T04:36:29.000Z</time>
      </trkpt>
      <trkpt lat="45.20384" lon="5.7244">
        <ele>633.20001220703</ele>
        <time>2021-11-04T04:36:30.000Z</time>
      </trkpt>
      <trkpt lat="45.2039" lon="5.72432">
        <ele>633.40002441406</ele>
        <time>2021-11-04T04:36:34.000Z</time>
      </trkpt>
      <trkpt lat="45.20397" lon="5.72429">
        <ele>634.20001220703</ele>
        <time>2021-11-04T04:36:38.000Z</time>
      </trkpt>
      <trkpt lat="45.20402" lon="5.72425">
        <ele>634.59997558594</ele>
        <time>2021-11-04T04:36:41.000Z</time>
      </trkpt>
      <trkpt lat="45.20402" lon="5.72423">
        <ele>634.59997558594</ele>
        <time>2021-11-04T04:36:42.000Z</time>
      </trkpt>
      <trkpt lat="45.204" lon="5.72417">
        <ele>634.79998779297</ele>
        <time>2021-11-04T04:36:45.000Z</time>
      </trkpt>
      <trkpt lat="45.20398" lon="5.72417">
        <ele>634.79998779297</ele>
        <time>2021-11-04T04:36:47.000Z</time>
      </trkpt>
      <trkpt lat="45.2039" lon="5.7242">
        <ele>633.40002441406</ele>
        <time>2021-11-04T04:36:53.000Z</time>
      </trkpt>
      <trkpt lat="45.20389" lon="5.72421">
        <ele>633.20001220703</ele>
        <time>2021-11-04T04:36:54.000Z</time>
      </trkpt>
      <trkpt lat="45.20388" lon="5.72421">
        <ele>632.79998779297</ele>
        <time>2021-11-04T04:36:55.000Z</time>
      </trkpt>
      <trkpt lat="45.20388" lon="5.72421">
        <ele>632.79998779297</ele>
        <time>2021-11-04T04:36:56.000Z</time>
      </trkpt>
      <trkpt lat="45.20386" lon="5.7242">
        <ele>632.40002441406</ele>
        <time>2021-11-04T04:36:58.000Z</time>
      </trkpt>
      <trkpt lat="45.20385" lon="5.72419">
        <ele>631.79998779297</ele>
        <time>2021-11-04T04:37:00.000Z</time>
      </trkpt>
      <trkpt lat="45.20384" lon="5.72414">
        <ele>630.59997558594</ele>
        <time>2021-11-04T04:37:03.000Z</time>
      </trkpt>
      <trkpt lat="45.20383" lon="5.72413">
        <ele>630.40002441406</ele>
        <time>2021-11-04T04:37:04.000Z</time>
      </trkpt>
      <trkpt lat="45.20383" lon="5.7241">
        <ele>629.59997558594</ele>
        <time>2021-11-04T04:37:06.000Z</time>
      </trkpt>
      <trkpt lat="45.20383" lon="5.72399">
        <ele>628.79998779297</ele>
        <time>2021-11-04T04:37:10.000Z</time>
      </trkpt>
      <trkpt lat="45.20391" lon="5.72388">
        <ele>628.79998779297</ele>
        <time>2021-11-04T04:37:15.000Z</time>
      </trkpt>
      <trkpt lat="45.20402" lon="5.72385">
        <ele>628.59997558594</ele>
        <time>2021-11-04T04:37:19.000Z</time>
      </trkpt>
      <trkpt lat="45.2041" lon="5.72386">
        <ele>628.40002441406</ele>
        <time>2021-11-04T04:37:22.000Z</time>
      </trkpt>
      <trkpt lat="45.20429" lon="5.72389">
        <ele>628.40002441406</ele>
        <time>2021-11-04T04:37:29.000Z</time>
      </trkpt>
      <trkpt lat="45.20431" lon="5.7239">
        <ele>628.40002441406</ele>
        <time>2021-11-04T04:37:30.000Z</time>
      </trkpt>
      <trkpt lat="45.20443" lon="5.72397">
        <ele>628.59997558594</ele>
        <time>2021-11-04T04:37:36.000Z</time>
      </trkpt>
      <trkpt lat="45.2045" lon="5.72403">
        <ele>629.79998779297</ele>
        <time>2021-11-04T04:37:40.000Z</time>
      </trkpt>
      <trkpt lat="45.20451" lon="5.72405">
        <ele>630</ele>
        <time>2021-11-04T04:37:41.000Z</time>
      </trkpt>
      <trkpt lat="45.2046" lon="5.72409">
        <ele>630.79998779297</ele>
        <time>2021-11-04T04:37:45.000Z</time>
      </trkpt>
      <trkpt lat="45.20467" lon="5.72417">
        <ele>631.79998779297</ele>
        <time>2021-11-04T04:37:49.000Z</time>
      </trkpt>
      <trkpt lat="45.20468" lon="5.72419">
        <ele>632</ele>
        <time>2021-11-04T04:37:50.000Z</time>
      </trkpt>
      <trkpt lat="45.20476" lon="5.72439">
        <ele>633</ele>
        <time>2021-11-04T04:37:57.000Z</time>
      </trkpt>
      <trkpt lat="45.20478" lon="5.72447">
        <ele>632.79998779297</ele>
        <time>2021-11-04T04:38:00.000Z</time>
      </trkpt>
      <trkpt lat="45.20479" lon="5.72452">
        <ele>632.40002441406</ele>
        <time>2021-11-04T04:38:02.000Z</time>
      </trkpt>
      <trkpt lat="45.20479" lon="5.72457">
        <ele>632</ele>
        <time>2021-11-04T04:38:04.000Z</time>
      </trkpt>
      <trkpt lat="45.20479" lon="5.72462">
        <ele>631.59997558594</ele>
        <time>2021-11-04T04:38:06.000Z</time>
      </trkpt>
      <trkpt lat="45.2048" lon="5.72467">
        <ele>630.79998779297</ele>
        <time>2021-11-04T04:38:08.000Z</time>
      </trkpt>
      <trkpt lat="45.2048" lon="5.72471">
        <ele>630.20001220703</ele>
        <time>2021-11-04T04:38:10.000Z</time>
      </trkpt>
      <trkpt lat="45.2048" lon="5.72476">
        <ele>629.79998779297</ele>
        <time>2021-11-04T04:38:12.000Z</time>
      </trkpt>
      <trkpt lat="45.20481" lon="5.72485">
        <ele>628.59997558594</ele>
        <time>2021-11-04T04:38:15.000Z</time>
      </trkpt>
      <trkpt lat="45.20482" lon="5.72488">
        <ele>628.40002441406</ele>
        <time>2021-11-04T04:38:16.000Z</time>
      </trkpt>
      <trkpt lat="45.20483" lon="5.7249">
        <ele>628.20001220703</ele>
        <time>2021-11-04T04:38:17.000Z</time>
      </trkpt>
      <trkpt lat="45.20489" lon="5.72509">
        <ele>628.79998779297</ele>
        <time>2021-11-04T04:38:23.000Z</time>
      </trkpt>
      <trkpt lat="45.20493" lon="5.72522">
        <ele>629.59997558594</ele>
        <time>2021-11-04T04:38:27.000Z</time>
      </trkpt>
      <trkpt lat="45.20496" lon="5.72529">
        <ele>629.79998779297</ele>
        <time>2021-11-04T04:38:30.000Z</time>
      </trkpt>
      <trkpt lat="45.20507" lon="5.72544">
        <ele>630.59997558594</ele>
        <time>2021-11-04T04:38:36.000Z</time>
      </trkpt>
      <trkpt lat="45.20509" lon="5.72547">
        <ele>630.59997558594</ele>
        <time>2021-11-04T04:38:37.000Z</time>
      </trkpt>
      <trkpt lat="45.20521" lon="5.72557">
        <ele>630.40002441406</ele>
        <time>2021-11-04T04:38:43.000Z</time>
      </trkpt>
      <trkpt lat="45.20527" lon="5.72558">
        <ele>629.59997558594</ele>
        <time>2021-11-04T04:38:47.000Z</time>
      </trkpt>
      <trkpt lat="45.20528" lon="5.72559">
        <ele>629.40002441406</ele>
        <time>2021-11-04T04:38:48.000Z</time>
      </trkpt>
      <trkpt lat="45.20536" lon="5.72559">
        <ele>628.40002441406</ele>
        <time>2021-11-04T04:38:52.000Z</time>
      </trkpt>
      <trkpt lat="45.2054" lon="5.72558">
        <ele>628</ele>
        <time>2021-11-04T04:38:54.000Z</time>
      </trkpt>
      <trkpt lat="45.20541" lon="5.72557">
        <ele>628.20001220703</ele>
        <time>2021-11-04T04:38:56.000Z</time>
      </trkpt>
      <trkpt lat="45.20546" lon="5.72558">
        <ele>628.40002441406</ele>
        <time>2021-11-04T04:38:59.000Z</time>
      </trkpt>
      <trkpt lat="45.20547" lon="5.72558">
        <ele>628.59997558594</ele>
        <time>2021-11-04T04:39:00.000Z</time>
      </trkpt>
      <trkpt lat="45.2055" lon="5.72557">
        <ele>628.79998779297</ele>
        <time>2021-11-04T04:39:02.000Z</time>
      </trkpt>
      <trkpt lat="45.20557" lon="5.7256">
        <ele>629.20001220703</ele>
        <time>2021-11-04T04:39:05.000Z</time>
      </trkpt>
      <trkpt lat="45.20566" lon="5.72561">
        <ele>629.59997558594</ele>
        <time>2021-11-04T04:39:09.000Z</time>
      </trkpt>
      <trkpt lat="45.20572" lon="5.72564">
        <ele>630</ele>
        <time>2021-11-04T04:39:12.000Z</time>
      </trkpt>
      <trkpt lat="45.20576" lon="5.72566">
        <ele>630.79998779297</ele>
        <time>2021-11-04T04:39:15.000Z</time>
      </trkpt>
      <trkpt lat="45.20581" lon="5.72569">
        <ele>631.40002441406</ele>
        <time>2021-11-04T04:39:18.000Z</time>
      </trkpt>
      <trkpt lat="45.20582" lon="5.7257">
        <ele>631.59997558594</ele>
        <time>2021-11-04T04:39:19.000Z</time>
      </trkpt>
      <trkpt lat="45.20584" lon="5.72572">
        <ele>631.79998779297</ele>
        <time>2021-11-04T04:39:20.000Z</time>
      </trkpt>
      <trkpt lat="45.20596" lon="5.72584">
        <ele>632.79998779297</ele>
        <time>2021-11-04T04:39:27.000Z</time>
      </trkpt>
      <trkpt lat="45.20598" lon="5.72585">
        <ele>633</ele>
        <time>2021-11-04T04:39:28.000Z</time>
      </trkpt>
      <trkpt lat="45.2061" lon="5.72595">
        <ele>633.79998779297</ele>
        <time>2021-11-04T04:39:35.000Z</time>
      </trkpt>
      <trkpt lat="45.20611" lon="5.72596">
        <ele>634</ele>
        <time>2021-11-04T04:39:36.000Z</time>
      </trkpt>
      <trkpt lat="45.20618" lon="5.726">
        <ele>635.20001220703</ele>
        <time>2021-11-04T04:39:41.000Z</time>
      </trkpt>
      <trkpt lat="45.20623" lon="5.72603">
        <ele>636.20001220703</ele>
        <time>2021-11-04T04:39:44.000Z</time>
      </trkpt>
      <trkpt lat="45.20624" lon="5.72604">
        <ele>636.40002441406</ele>
        <time>2021-11-04T04:39:45.000Z</time>
      </trkpt>
      <trkpt lat="45.20625" lon="5.72605">
        <ele>636.59997558594</ele>
        <time>2021-11-04T04:39:46.000Z</time>
      </trkpt>
      <trkpt lat="45.20628" lon="5.72605">
        <ele>637</ele>
        <time>2021-11-04T04:39:48.000Z</time>
      </trkpt>
      <trkpt lat="45.20639" lon="5.72603">
        <ele>637.20001220703</ele>
        <time>2021-11-04T04:39:53.000Z</time>
      </trkpt>
      <trkpt lat="45.20641" lon="5.72603">
        <ele>637.40002441406</ele>
        <time>2021-11-04T04:39:54.000Z</time>
      </trkpt>
      <trkpt lat="45.20652" lon="5.72595">
        <ele>638.20001220703</ele>
        <time>2021-11-04T04:40:00.000Z</time>
      </trkpt>
      <trkpt lat="45.20654" lon="5.72594">
        <ele>638.40002441406</ele>
        <time>2021-11-04T04:40:01.000Z</time>
      </trkpt>
      <trkpt lat="45.20665" lon="5.72586">
        <ele>639.59997558594</ele>
        <time>2021-11-04T04:40:07.000Z</time>
      </trkpt>
      <trkpt lat="45.20668" lon="5.72584">
        <ele>639.79998779297</ele>
        <time>2021-11-04T04:40:09.000Z</time>
      </trkpt>
      <trkpt lat="45.20673" lon="5.72581">
        <ele>640.59997558594</ele>
        <time>2021-11-04T04:40:12.000Z</time>
      </trkpt>
      <trkpt lat="45.20675" lon="5.7258">
        <ele>640.79998779297</ele>
        <time>2021-11-04T04:40:13.000Z</time>
      </trkpt>
      <trkpt lat="45.20681" lon="5.72578">
        <ele>641.79998779297</ele>
        <time>2021-11-04T04:40:17.000Z</time>
      </trkpt>
      <trkpt lat="45.20687" lon="5.72573">
        <ele>642.79998779297</ele>
        <time>2021-11-04T04:40:21.000Z</time>
      </trkpt>
      <trkpt lat="45.2069" lon="5.7257">
        <ele>643.59997558594</ele>
        <time>2021-11-04T04:40:24.000Z</time>
      </trkpt>
      <trkpt lat="45.20693" lon="5.72568">
        <ele>644.20001220703</ele>
        <time>2021-11-04T04:40:27.000Z</time>
      </trkpt>
      <trkpt lat="45.20695" lon="5.72568">
        <ele>644.40002441406</ele>
        <time>2021-11-04T04:40:28.000Z</time>
      </trkpt>
      <trkpt lat="45.20698" lon="5.72569">
        <ele>645.40002441406</ele>
        <time>2021-11-04T04:40:31.000Z</time>
      </trkpt>
      <trkpt lat="45.20701" lon="5.72572">
        <ele>646</ele>
        <time>2021-11-04T04:40:34.000Z</time>
      </trkpt>
      <trkpt lat="45.20702" lon="5.72573">
        <ele>646.40002441406</ele>
        <time>2021-11-04T04:40:35.000Z</time>
      </trkpt>
      <trkpt lat="45.20702" lon="5.72575">
        <ele>646.79998779297</ele>
        <time>2021-11-04T04:40:36.000Z</time>
      </trkpt>
      <trkpt lat="45.20703" lon="5.72577">
        <ele>647</ele>
        <time>2021-11-04T04:40:38.000Z</time>
      </trkpt>
      <trkpt lat="45.20706" lon="5.72577">
        <ele>647.59997558594</ele>
        <time>2021-11-04T04:40:40.000Z</time>
      </trkpt>
      <trkpt lat="45.20708" lon="5.72579">
        <ele>648.59997558594</ele>
        <time>2021-11-04T04:40:43.000Z</time>
      </trkpt>
      <trkpt lat="45.20711" lon="5.72581">
        <ele>649.40002441406</ele>
        <time>2021-11-04T04:40:46.000Z</time>
      </trkpt>
      <trkpt lat="45.20712" lon="5.72582">
        <ele>649.79998779297</ele>
        <time>2021-11-04T04:40:47.000Z</time>
      </trkpt>
      <trkpt lat="45.20714" lon="5.72581">
        <ele>650.40002441406</ele>
        <time>2021-11-04T04:40:49.000Z</time>
      </trkpt>
      <trkpt lat="45.20719" lon="5.72579">
        <ele>651.20001220703</ele>
        <time>2021-11-04T04:40:52.000Z</time>
      </trkpt>
      <trkpt lat="45.2072" lon="5.72579">
        <ele>651.40002441406</ele>
        <time>2021-11-04T04:40:53.000Z</time>
      </trkpt>
      <trkpt lat="45.20724" lon="5.72582">
        <ele>652.20001220703</ele>
        <time>2021-11-04T04:40:56.000Z</time>
      </trkpt>
      <trkpt lat="45.20725" lon="5.72583">
        <ele>652.59997558594</ele>
        <time>2021-11-04T04:40:57.000Z</time>
      </trkpt>
      <trkpt lat="45.20727" lon="5.72584">
        <ele>653</ele>
        <time>2021-11-04T04:40:59.000Z</time>
      </trkpt>
      <trkpt lat="45.20729" lon="5.72586">
        <ele>653.40002441406</ele>
        <time>2021-11-04T04:41:01.000Z</time>
      </trkpt>
      <trkpt lat="45.2073" lon="5.72587">
        <ele>654</ele>
        <time>2021-11-04T04:41:03.000Z</time>
      </trkpt>
      <trkpt lat="45.20732" lon="5.72587">
        <ele>654.40002441406</ele>
        <time>2021-11-04T04:41:05.000Z</time>
      </trkpt>
      <trkpt lat="45.20734" lon="5.72586">
        <ele>655.20001220703</ele>
        <time>2021-11-04T04:41:08.000Z</time>
      </trkpt>
      <trkpt lat="45.20735" lon="5.72587">
        <ele>655.59997558594</ele>
        <time>2021-11-04T04:41:09.000Z</time>
      </trkpt>
      <trkpt lat="45.20737" lon="5.7259">
        <ele>656.20001220703</ele>
        <time>2021-11-04T04:41:12.000Z</time>
      </trkpt>
      <trkpt lat="45.20738" lon="5.72594">
        <ele>656.79998779297</ele>
        <time>2021-11-04T04:41:14.000Z</time>
      </trkpt>
      <trkpt lat="45.20741" lon="5.72602">
        <ele>657.79998779297</ele>
        <time>2021-11-04T04:41:19.000Z</time>
      </trkpt>
      <trkpt lat="45.20742" lon="5.72605">
        <ele>658.40002441406</ele>
        <time>2021-11-04T04:41:21.000Z</time>
      </trkpt>
      <trkpt lat="45.20745" lon="5.72606">
        <ele>658.79998779297</ele>
        <time>2021-11-04T04:41:23.000Z</time>
      </trkpt>
      <trkpt lat="45.20746" lon="5.72612">
        <ele>659.79998779297</ele>
        <time>2021-11-04T04:41:27.000Z</time>
      </trkpt>
      <trkpt lat="45.20745" lon="5.72613">
        <ele>660</ele>
        <time>2021-11-04T04:41:28.000Z</time>
      </trkpt>
      <trkpt lat="45.20745" lon="5.72617">
        <ele>661</ele>
        <time>2021-11-04T04:41:31.000Z</time>
      </trkpt>
      <trkpt lat="45.20748" lon="5.72616">
        <ele>661.79998779297</ele>
        <time>2021-11-04T04:41:34.000Z</time>
      </trkpt>
      <trkpt lat="45.20751" lon="5.72614">
        <ele>662.40002441406</ele>
        <time>2021-11-04T04:41:36.000Z</time>
      </trkpt>
      <trkpt lat="45.20756" lon="5.72612">
        <ele>663.20001220703</ele>
        <time>2021-11-04T04:41:40.000Z</time>
      </trkpt>
      <trkpt lat="45.20757" lon="5.72612">
        <ele>663.40002441406</ele>
        <time>2021-11-04T04:41:41.000Z</time>
      </trkpt>
      <trkpt lat="45.2076" lon="5.72611">
        <ele>664.59997558594</ele>
        <time>2021-11-04T04:41:45.000Z</time>
      </trkpt>
      <trkpt lat="45.20763" lon="5.7261">
        <ele>665.40002441406</ele>
        <time>2021-11-04T04:41:48.000Z</time>
      </trkpt>
      <trkpt lat="45.20764" lon="5.7261">
        <ele>665.79998779297</ele>
        <time>2021-11-04T04:41:49.000Z</time>
      </trkpt>
      <trkpt lat="45.20768" lon="5.72608">
        <ele>667</ele>
        <time>2021-11-04T04:41:53.000Z</time>
      </trkpt>
      <trkpt lat="45.20769" lon="5.72608">
        <ele>667.40002441406</ele>
        <time>2021-11-04T04:41:55.000Z</time>
      </trkpt>
      <trkpt lat="45.2077" lon="5.72609">
        <ele>667.59997558594</ele>
        <time>2021-11-04T04:41:56.000Z</time>
      </trkpt>
      <trkpt lat="45.20771" lon="5.7261">
        <ele>668</ele>
        <time>2021-11-04T04:41:57.000Z</time>
      </trkpt>
      <trkpt lat="45.20773" lon="5.72615">
        <ele>669.40002441406</ele>
        <time>2021-11-04T04:42:01.000Z</time>
      </trkpt>
      <trkpt lat="45.20774" lon="5.7262">
        <ele>669.79998779297</ele>
        <time>2021-11-04T04:42:04.000Z</time>
      </trkpt>
      <trkpt lat="45.20775" lon="5.72625">
        <ele>670.40002441406</ele>
        <time>2021-11-04T04:42:06.000Z</time>
      </trkpt>
      <trkpt lat="45.20775" lon="5.72628">
        <ele>670.79998779297</ele>
        <time>2021-11-04T04:42:08.000Z</time>
      </trkpt>
      <trkpt lat="45.20775" lon="5.7263">
        <ele>671.20001220703</ele>
        <time>2021-11-04T04:42:10.000Z</time>
      </trkpt>
      <trkpt lat="45.20775" lon="5.72631">
        <ele>671.59997558594</ele>
        <time>2021-11-04T04:42:11.000Z</time>
      </trkpt>
      <trkpt lat="45.20774" lon="5.72633">
        <ele>671.79998779297</ele>
        <time>2021-11-04T04:42:12.000Z</time>
      </trkpt>
      <trkpt lat="45.20774" lon="5.72634">
        <ele>672</ele>
        <time>2021-11-04T04:42:13.000Z</time>
      </trkpt>
      <trkpt lat="45.20774" lon="5.72637">
        <ele>672.79998779297</ele>
        <time>2021-11-04T04:42:16.000Z</time>
      </trkpt>
      <trkpt lat="45.20773" lon="5.72641">
        <ele>673.59997558594</ele>
        <time>2021-11-04T04:42:19.000Z</time>
      </trkpt>
      <trkpt lat="45.20773" lon="5.72642">
        <ele>673.79998779297</ele>
        <time>2021-11-04T04:42:20.000Z</time>
      </trkpt>
      <trkpt lat="45.20775" lon="5.72644">
        <ele>675</ele>
        <time>2021-11-04T04:42:24.000Z</time>
      </trkpt>
      <trkpt lat="45.20775" lon="5.72644">
        <ele>675.40002441406</ele>
        <time>2021-11-04T04:42:25.000Z</time>
      </trkpt>
      <trkpt lat="45.20777" lon="5.72644">
        <ele>675.40002441406</ele>
        <time>2021-11-04T04:42:26.000Z</time>
      </trkpt>
      <trkpt lat="45.20779" lon="5.72644">
        <ele>676.40002441406</ele>
        <time>2021-11-04T04:42:29.000Z</time>
      </trkpt>
      <trkpt lat="45.20781" lon="5.72644">
        <ele>677.20001220703</ele>
        <time>2021-11-04T04:42:32.000Z</time>
      </trkpt>
      <trkpt lat="45.20782" lon="5.72643">
        <ele>677.40002441406</ele>
        <time>2021-11-04T04:42:33.000Z</time>
      </trkpt>
      <trkpt lat="45.20786" lon="5.72642">
        <ele>678.20001220703</ele>
        <time>2021-11-04T04:42:38.000Z</time>
      </trkpt>
      <trkpt lat="45.20786" lon="5.72642">
        <ele>678.59997558594</ele>
        <time>2021-11-04T04:42:39.000Z</time>
      </trkpt>
      <trkpt lat="45.20786" lon="5.7264">
        <ele>679.20001220703</ele>
        <time>2021-11-04T04:42:41.000Z</time>
      </trkpt>
      <trkpt lat="45.20787" lon="5.7264">
        <ele>679.40002441406</ele>
        <time>2021-11-04T04:42:42.000Z</time>
      </trkpt>
      <trkpt lat="45.20789" lon="5.72639">
        <ele>679.59997558594</ele>
        <time>2021-11-04T04:42:44.000Z</time>
      </trkpt>
      <trkpt lat="45.20792" lon="5.72635">
        <ele>680.79998779297</ele>
        <time>2021-11-04T04:42:49.000Z</time>
      </trkpt>
      <trkpt lat="45.20794" lon="5.72627">
        <ele>682</ele>
        <time>2021-11-04T04:42:54.000Z</time>
      </trkpt>
      <trkpt lat="45.20795" lon="5.72625">
        <ele>682.20001220703</ele>
        <time>2021-11-04T04:42:56.000Z</time>
      </trkpt>
      <trkpt lat="45.20798" lon="5.72625">
        <ele>683</ele>
        <time>2021-11-04T04:42:58.000Z</time>
      </trkpt>
      <trkpt lat="45.20799" lon="5.72625">
        <ele>683.40002441406</ele>
        <time>2021-11-04T04:42:59.000Z</time>
      </trkpt>
      <trkpt lat="45.20799" lon="5.72628">
        <ele>684</ele>
        <time>2021-11-04T04:43:02.000Z</time>
      </trkpt>
      <trkpt lat="45.208" lon="5.7263">
        <ele>684.40002441406</ele>
        <time>2021-11-04T04:43:03.000Z</time>
      </trkpt>
      <trkpt lat="45.20801" lon="5.72636">
        <ele>685.40002441406</ele>
        <time>2021-11-04T04:43:08.000Z</time>
      </trkpt>
      <trkpt lat="45.20802" lon="5.72638">
        <ele>686.20001220703</ele>
        <time>2021-11-04T04:43:11.000Z</time>
      </trkpt>
      <trkpt lat="45.20802" lon="5.72639">
        <ele>686.59997558594</ele>
        <time>2021-11-04T04:43:13.000Z</time>
      </trkpt>
      <trkpt lat="45.20802" lon="5.72644">
        <ele>687.79998779297</ele>
        <time>2021-11-04T04:43:17.000Z</time>
      </trkpt>
      <trkpt lat="45.20803" lon="5.72645">
        <ele>688.20001220703</ele>
        <time>2021-11-04T04:43:18.000Z</time>
      </trkpt>
      <trkpt lat="45.20802" lon="5.72647">
        <ele>688.59997558594</ele>
        <time>2021-11-04T04:43:20.000Z</time>
      </trkpt>
      <trkpt lat="45.20801" lon="5.7265">
        <ele>689</ele>
        <time>2021-11-04T04:43:22.000Z</time>
      </trkpt>
      <trkpt lat="45.20802" lon="5.72655">
        <ele>690.40002441406</ele>
        <time>2021-11-04T04:43:26.000Z</time>
      </trkpt>
      <trkpt lat="45.20802" lon="5.72656">
        <ele>690.59997558594</ele>
        <time>2021-11-04T04:43:27.000Z</time>
      </trkpt>
      <trkpt lat="45.20803" lon="5.72659">
        <ele>691.20001220703</ele>
        <time>2021-11-04T04:43:29.000Z</time>
      </trkpt>
      <trkpt lat="45.20803" lon="5.72661">
        <ele>691.40002441406</ele>
        <time>2021-11-04T04:43:30.000Z</time>
      </trkpt>
      <trkpt lat="45.20804" lon="5.72664">
        <ele>691.79998779297</ele>
        <time>2021-11-04T04:43:32.000Z</time>
      </trkpt>
      <trkpt lat="45.20806" lon="5.72666">
        <ele>692.40002441406</ele>
        <time>2021-11-04T04:43:34.000Z</time>
      </trkpt>
      <trkpt lat="45.20809" lon="5.72664">
        <ele>693.20001220703</ele>
        <time>2021-11-04T04:43:37.000Z</time>
      </trkpt>
      <trkpt lat="45.20811" lon="5.72664">
        <ele>693.59997558594</ele>
        <time>2021-11-04T04:43:38.000Z</time>
      </trkpt>
      <trkpt lat="45.20817" lon="5.72665">
        <ele>694.79998779297</ele>
        <time>2021-11-04T04:43:42.000Z</time>
      </trkpt>
      <trkpt lat="45.20818" lon="5.72665">
        <ele>695</ele>
        <time>2021-11-04T04:43:43.000Z</time>
      </trkpt>
      <trkpt lat="45.20819" lon="5.72663">
        <ele>695.40002441406</ele>
        <time>2021-11-04T04:43:44.000Z</time>
      </trkpt>
      <trkpt lat="45.2082" lon="5.72661">
        <ele>696</ele>
        <time>2021-11-04T04:43:47.000Z</time>
      </trkpt>
      <trkpt lat="45.20821" lon="5.7266">
        <ele>696.20001220703</ele>
        <time>2021-11-04T04:43:48.000Z</time>
      </trkpt>
      <trkpt lat="45.20822" lon="5.72657">
        <ele>696.59997558594</ele>
        <time>2021-11-04T04:43:50.000Z</time>
      </trkpt>
      <trkpt lat="45.20824" lon="5.72654">
        <ele>697.40002441406</ele>
        <time>2021-11-04T04:43:53.000Z</time>
      </trkpt>
      <trkpt lat="45.20827" lon="5.72654">
        <ele>698</ele>
        <time>2021-11-04T04:43:56.000Z</time>
      </trkpt>
      <trkpt lat="45.20829" lon="5.72656">
        <ele>698.40002441406</ele>
        <time>2021-11-04T04:43:58.000Z</time>
      </trkpt>
      <trkpt lat="45.20829" lon="5.72657">
        <ele>698.79998779297</ele>
        <time>2021-11-04T04:43:59.000Z</time>
      </trkpt>
      <trkpt lat="45.2083" lon="5.72659">
        <ele>699.40002441406</ele>
        <time>2021-11-04T04:44:02.000Z</time>
      </trkpt>
      <trkpt lat="45.20831" lon="5.7266">
        <ele>700</ele>
        <time>2021-11-04T04:44:03.000Z</time>
      </trkpt>
      <trkpt lat="45.20832" lon="5.72661">
        <ele>700.40002441406</ele>
        <time>2021-11-04T04:44:04.000Z</time>
      </trkpt>
      <trkpt lat="45.20831" lon="5.72662">
        <ele>700.59997558594</ele>
        <time>2021-11-04T04:44:05.000Z</time>
      </trkpt>
      <trkpt lat="45.20832" lon="5.72668">
        <ele>701.59997558594</ele>
        <time>2021-11-04T04:44:09.000Z</time>
      </trkpt>
      <trkpt lat="45.20832" lon="5.72669">
        <ele>702</ele>
        <time>2021-11-04T04:44:10.000Z</time>
      </trkpt>
      <trkpt lat="45.20833" lon="5.72672">
        <ele>702.59997558594</ele>
        <time>2021-11-04T04:44:12.000Z</time>
      </trkpt>
      <trkpt lat="45.20833" lon="5.72673">
        <ele>702.79998779297</ele>
        <time>2021-11-04T04:44:13.000Z</time>
      </trkpt>
      <trkpt lat="45.20833" lon="5.72675">
        <ele>702.79998779297</ele>
        <time>2021-11-04T04:44:14.000Z</time>
      </trkpt>
      <trkpt lat="45.20833" lon="5.72677">
        <ele>703.20001220703</ele>
        <time>2021-11-04T04:44:16.000Z</time>
      </trkpt>
      <trkpt lat="45.20834" lon="5.72678">
        <ele>703.40002441406</ele>
        <time>2021-11-04T04:44:17.000Z</time>
      </trkpt>
      <trkpt lat="45.20835" lon="5.7268">
        <ele>703.79998779297</ele>
        <time>2021-11-04T04:44:19.000Z</time>
      </trkpt>
      <trkpt lat="45.20837" lon="5.72687">
        <ele>705</ele>
        <time>2021-11-04T04:44:24.000Z</time>
      </trkpt>
      <trkpt lat="45.20838" lon="5.72689">
        <ele>705.40002441406</ele>
        <time>2021-11-04T04:44:25.000Z</time>
      </trkpt>
      <trkpt lat="45.20838" lon="5.7269">
        <ele>705.79998779297</ele>
        <time>2021-11-04T04:44:26.000Z</time>
      </trkpt>
      <trkpt lat="45.20838" lon="5.72691">
        <ele>706</ele>
        <time>2021-11-04T04:44:27.000Z</time>
      </trkpt>
      <trkpt lat="45.2084" lon="5.72692">
        <ele>707.20001220703</ele>
        <time>2021-11-04T04:44:31.000Z</time>
      </trkpt>
      <trkpt lat="45.20841" lon="5.72692">
        <ele>707.59997558594</ele>
        <time>2021-11-04T04:44:32.000Z</time>
      </trkpt>
      <trkpt lat="45.20842" lon="5.72691">
        <ele>708.40002441406</ele>
        <time>2021-11-04T04:44:34.000Z</time>
      </trkpt>
      <trkpt lat="45.20845" lon="5.7269">
        <ele>709.20001220703</ele>
        <time>2021-11-04T04:44:38.000Z</time>
      </trkpt>
      <trkpt lat="45.20847" lon="5.7269">
        <ele>709.79998779297</ele>
        <time>2021-11-04T04:44:40.000Z</time>
      </trkpt>
      <trkpt lat="45.20848" lon="5.7269">
        <ele>710.79998779297</ele>
        <time>2021-11-04T04:44:44.000Z</time>
      </trkpt>
      <trkpt lat="45.20848" lon="5.7269">
        <ele>711.20001220703</ele>
        <time>2021-11-04T04:44:45.000Z</time>
      </trkpt>
      <trkpt lat="45.20851" lon="5.72689">
        <ele>711.79998779297</ele>
        <time>2021-11-04T04:44:48.000Z</time>
      </trkpt>
      <trkpt lat="45.20853" lon="5.72689">
        <ele>712</ele>
        <time>2021-11-04T04:44:50.000Z</time>
      </trkpt>
      <trkpt lat="45.20854" lon="5.72689">
        <ele>712.20001220703</ele>
        <time>2021-11-04T04:44:51.000Z</time>
      </trkpt>
      <trkpt lat="45.20861" lon="5.72687">
        <ele>713.20001220703</ele>
        <time>2021-11-04T04:44:56.000Z</time>
      </trkpt>
      <trkpt lat="45.20864" lon="5.72686">
        <ele>713.40002441406</ele>
        <time>2021-11-04T04:44:58.000Z</time>
      </trkpt>
      <trkpt lat="45.20868" lon="5.72685">
        <ele>714.40002441406</ele>
        <time>2021-11-04T04:45:02.000Z</time>
      </trkpt>
      <trkpt lat="45.20873" lon="5.72684">
        <ele>715.59997558594</ele>
        <time>2021-11-04T04:45:07.000Z</time>
      </trkpt>
      <trkpt lat="45.20875" lon="5.72684">
        <ele>715.79998779297</ele>
        <time>2021-11-04T04:45:08.000Z</time>
      </trkpt>
      <trkpt lat="45.20881" lon="5.72683">
        <ele>717</ele>
        <time>2021-11-04T04:45:13.000Z</time>
      </trkpt>
      <trkpt lat="45.20883" lon="5.72682">
        <ele>717.40002441406</ele>
        <time>2021-11-04T04:45:15.000Z</time>
      </trkpt>
      <trkpt lat="45.20885" lon="5.72682">
        <ele>717.40002441406</ele>
        <time>2021-11-04T04:45:16.000Z</time>
      </trkpt>
      <trkpt lat="45.20886" lon="5.72681">
        <ele>718</ele>
        <time>2021-11-04T04:45:18.000Z</time>
      </trkpt>
      <trkpt lat="45.2089" lon="5.72679">
        <ele>719</ele>
        <time>2021-11-04T04:45:22.000Z</time>
      </trkpt>
      <trkpt lat="45.20891" lon="5.72678">
        <ele>719.20001220703</ele>
        <time>2021-11-04T04:45:23.000Z</time>
      </trkpt>
      <trkpt lat="45.20895" lon="5.72676">
        <ele>720.20001220703</ele>
        <time>2021-11-04T04:45:27.000Z</time>
      </trkpt>
      <trkpt lat="45.20896" lon="5.72677">
        <ele>720.59997558594</ele>
        <time>2021-11-04T04:45:28.000Z</time>
      </trkpt>
      <trkpt lat="45.20897" lon="5.72677">
        <ele>720.79998779297</ele>
        <time>2021-11-04T04:45:29.000Z</time>
      </trkpt>
      <trkpt lat="45.20898" lon="5.72676">
        <ele>721.79998779297</ele>
        <time>2021-11-04T04:45:31.000Z</time>
      </trkpt>
      <trkpt lat="45.20898" lon="5.72676">
        <ele>722</ele>
        <time>2021-11-04T04:45:32.000Z</time>
      </trkpt>
      <trkpt lat="45.209" lon="5.72674">
        <ele>722.40002441406</ele>
        <time>2021-11-04T04:45:34.000Z</time>
      </trkpt>
      <trkpt lat="45.20904" lon="5.72673">
        <ele>723.20001220703</ele>
        <time>2021-11-04T04:45:37.000Z</time>
      </trkpt>
      <trkpt lat="45.20906" lon="5.72672">
        <ele>723.59997558594</ele>
        <time>2021-11-04T04:45:38.000Z</time>
      </trkpt>
      <trkpt lat="45.20911" lon="5.7267">
        <ele>724.40002441406</ele>
        <time>2021-11-04T04:45:42.000Z</time>
      </trkpt>
      <trkpt lat="45.20912" lon="5.7267">
        <ele>724.59997558594</ele>
        <time>2021-11-04T04:45:43.000Z</time>
      </trkpt>
      <trkpt lat="45.20913" lon="5.7267">
        <ele>724.79998779297</ele>
        <time>2021-11-04T04:45:44.000Z</time>
      </trkpt>
      <trkpt lat="45.20919" lon="5.72672">
        <ele>725.20001220703</ele>
        <time>2021-11-04T04:45:47.000Z</time>
      </trkpt>
      <trkpt lat="45.20921" lon="5.72672">
        <ele>725.40002441406</ele>
        <time>2021-11-04T04:45:48.000Z</time>
      </trkpt>
      <trkpt lat="45.20922" lon="5.72673">
        <ele>725.79998779297</ele>
        <time>2021-11-04T04:45:49.000Z</time>
      </trkpt>
      <trkpt lat="45.20924" lon="5.72675">
        <ele>726.40002441406</ele>
        <time>2021-11-04T04:45:51.000Z</time>
      </trkpt>
      <trkpt lat="45.20924" lon="5.72675">
        <ele>726.79998779297</ele>
        <time>2021-11-04T04:45:52.000Z</time>
      </trkpt>
      <trkpt lat="45.20924" lon="5.72677">
        <ele>727.40002441406</ele>
        <time>2021-11-04T04:45:54.000Z</time>
      </trkpt>
      <trkpt lat="45.20925" lon="5.72679">
        <ele>727.59997558594</ele>
        <time>2021-11-04T04:45:55.000Z</time>
      </trkpt>
      <trkpt lat="45.20927" lon="5.7268">
        <ele>727.79998779297</ele>
        <time>2021-11-04T04:45:57.000Z</time>
      </trkpt>
      <trkpt lat="45.20927" lon="5.7268">
        <ele>727.79998779297</ele>
        <time>2021-11-04T04:45:58.000Z</time>
      </trkpt>
      <trkpt lat="45.20932" lon="5.72681">
        <ele>728.59997558594</ele>
        <time>2021-11-04T04:46:01.000Z</time>
      </trkpt>
      <trkpt lat="45.20937" lon="5.72684">
        <ele>729.79998779297</ele>
        <time>2021-11-04T04:46:06.000Z</time>
      </trkpt>
      <trkpt lat="45.20942" lon="5.72692">
        <ele>731</ele>
        <time>2021-11-04T04:46:10.000Z</time>
      </trkpt>
      <trkpt lat="45.20947" lon="5.72697">
        <ele>731.59997558594</ele>
        <time>2021-11-04T04:46:13.000Z</time>
      </trkpt>
      <trkpt lat="45.20948" lon="5.72698">
        <ele>732</ele>
        <time>2021-11-04T04:46:14.000Z</time>
      </trkpt>
      <trkpt lat="45.2095" lon="5.72704">
        <ele>732.79998779297</ele>
        <time>2021-11-04T04:46:18.000Z</time>
      </trkpt>
      <trkpt lat="45.2095" lon="5.72704">
        <ele>733.20001220703</ele>
        <time>2021-11-04T04:46:19.000Z</time>
      </trkpt>
      <trkpt lat="45.20952" lon="5.72705">
        <ele>734</ele>
        <time>2021-11-04T04:46:21.000Z</time>
      </trkpt>
      <trkpt lat="45.20953" lon="5.72705">
        <ele>734.20001220703</ele>
        <time>2021-11-04T04:46:22.000Z</time>
      </trkpt>
      <trkpt lat="45.20954" lon="5.7271">
        <ele>735.59997558594</ele>
        <time>2021-11-04T04:46:27.000Z</time>
      </trkpt>
      <trkpt lat="45.20954" lon="5.72711">
        <ele>736</ele>
        <time>2021-11-04T04:46:28.000Z</time>
      </trkpt>
      <trkpt lat="45.20957" lon="5.72712">
        <ele>736.40002441406</ele>
        <time>2021-11-04T04:46:31.000Z</time>
      </trkpt>
      <trkpt lat="45.20958" lon="5.72713">
        <ele>736.79998779297</ele>
        <time>2021-11-04T04:46:32.000Z</time>
      </trkpt>
      <trkpt lat="45.20959" lon="5.72714">
        <ele>737.20001220703</ele>
        <time>2021-11-04T04:46:33.000Z</time>
      </trkpt>
      <trkpt lat="45.20961" lon="5.72714">
        <ele>737.79998779297</ele>
        <time>2021-11-04T04:46:35.000Z</time>
      </trkpt>
      <trkpt lat="45.20961" lon="5.72714">
        <ele>738</ele>
        <time>2021-11-04T04:46:36.000Z</time>
      </trkpt>
      <trkpt lat="45.20963" lon="5.72719">
        <ele>739</ele>
        <time>2021-11-04T04:46:39.000Z</time>
      </trkpt>
      <trkpt lat="45.20965" lon="5.7272">
        <ele>739.40002441406</ele>
        <time>2021-11-04T04:46:40.000Z</time>
      </trkpt>
      <trkpt lat="45.20968" lon="5.72721">
        <ele>740.20001220703</ele>
        <time>2021-11-04T04:46:43.000Z</time>
      </trkpt>
      <trkpt lat="45.20969" lon="5.72722">
        <ele>740.79998779297</ele>
        <time>2021-11-04T04:46:45.000Z</time>
      </trkpt>
      <trkpt lat="45.2097" lon="5.72723">
        <ele>741.40002441406</ele>
        <time>2021-11-04T04:46:48.000Z</time>
      </trkpt>
      <trkpt lat="45.2097" lon="5.72724">
        <ele>741.59997558594</ele>
        <time>2021-11-04T04:46:49.000Z</time>
      </trkpt>
      <trkpt lat="45.2097" lon="5.72724">
        <ele>742.59997558594</ele>
        <time>2021-11-04T04:46:51.000Z</time>
      </trkpt>
      <trkpt lat="45.20971" lon="5.72728">
        <ele>743</ele>
        <time>2021-11-04T04:46:53.000Z</time>
      </trkpt>
      <trkpt lat="45.20973" lon="5.72733">
        <ele>743.59997558594</ele>
        <time>2021-11-04T04:46:57.000Z</time>
      </trkpt>
      <trkpt lat="45.20975" lon="5.72733">
        <ele>744.59997558594</ele>
        <time>2021-11-04T04:47:00.000Z</time>
      </trkpt>
      <trkpt lat="45.20976" lon="5.72733">
        <ele>744.79998779297</ele>
        <time>2021-11-04T04:47:01.000Z</time>
      </trkpt>
      <trkpt lat="45.20979" lon="5.72739">
        <ele>746</ele>
        <time>2021-11-04T04:47:06.000Z</time>
      </trkpt>
      <trkpt lat="45.20981" lon="5.7274">
        <ele>746.59997558594</ele>
        <time>2021-11-04T04:47:08.000Z</time>
      </trkpt>
      <trkpt lat="45.20981" lon="5.72742">
        <ele>747.20001220703</ele>
        <time>2021-11-04T04:47:10.000Z</time>
      </trkpt>
      <trkpt lat="45.20985" lon="5.72746">
        <ele>748.20001220703</ele>
        <time>2021-11-04T04:47:14.000Z</time>
      </trkpt>
      <trkpt lat="45.20985" lon="5.72748">
        <ele>748.40002441406</ele>
        <time>2021-11-04T04:47:15.000Z</time>
      </trkpt>
      <trkpt lat="45.20985" lon="5.7275">
        <ele>749.59997558594</ele>
        <time>2021-11-04T04:47:19.000Z</time>
      </trkpt>
      <trkpt lat="45.20986" lon="5.72752">
        <ele>750.20001220703</ele>
        <time>2021-11-04T04:47:21.000Z</time>
      </trkpt>
      <trkpt lat="45.20987" lon="5.72754">
        <ele>751</ele>
        <time>2021-11-04T04:47:23.000Z</time>
      </trkpt>
      <trkpt lat="45.20986" lon="5.72757">
        <ele>752.20001220703</ele>
        <time>2021-11-04T04:47:27.000Z</time>
      </trkpt>
      <trkpt lat="45.20987" lon="5.72758">
        <ele>753.40002441406</ele>
        <time>2021-11-04T04:47:32.000Z</time>
      </trkpt>
      <trkpt lat="45.20987" lon="5.72754">
        <ele>754.40002441406</ele>
        <time>2021-11-04T04:47:38.000Z</time>
      </trkpt>
      <trkpt lat="45.20988" lon="5.72753">
        <ele>754.59997558594</ele>
        <time>2021-11-04T04:47:39.000Z</time>
      </trkpt>
      <trkpt lat="45.20989" lon="5.72752">
        <ele>755.59997558594</ele>
        <time>2021-11-04T04:47:41.000Z</time>
      </trkpt>
      <trkpt lat="45.20992" lon="5.72753">
        <ele>756.20001220703</ele>
        <time>2021-11-04T04:47:44.000Z</time>
      </trkpt>
      <trkpt lat="45.20994" lon="5.72753">
        <ele>756.79998779297</ele>
        <time>2021-11-04T04:47:46.000Z</time>
      </trkpt>
      <trkpt lat="45.20995" lon="5.72751">
        <ele>757.79998779297</ele>
        <time>2021-11-04T04:47:50.000Z</time>
      </trkpt>
      <trkpt lat="45.20996" lon="5.7275">
        <ele>758</ele>
        <time>2021-11-04T04:47:52.000Z</time>
      </trkpt>
      <trkpt lat="45.20998" lon="5.72748">
        <ele>758.79998779297</ele>
        <time>2021-11-04T04:47:55.000Z</time>
      </trkpt>
      <trkpt lat="45.21" lon="5.72747">
        <ele>760</ele>
        <time>2021-11-04T04:47:58.000Z</time>
      </trkpt>
      <trkpt lat="45.21003" lon="5.72745">
        <ele>761</ele>
        <time>2021-11-04T04:48:01.000Z</time>
      </trkpt>
      <trkpt lat="45.21005" lon="5.72743">
        <ele>762.20001220703</ele>
        <time>2021-11-04T04:48:05.000Z</time>
      </trkpt>
      <trkpt lat="45.21007" lon="5.72741">
        <ele>762.59997558594</ele>
        <time>2021-11-04T04:48:08.000Z</time>
      </trkpt>
      <trkpt lat="45.21009" lon="5.7274">
        <ele>763.59997558594</ele>
        <time>2021-11-04T04:48:11.000Z</time>
      </trkpt>
      <trkpt lat="45.2101" lon="5.7274">
        <ele>764.20001220703</ele>
        <time>2021-11-04T04:48:13.000Z</time>
      </trkpt>
      <trkpt lat="45.21011" lon="5.72741">
        <ele>764.79998779297</ele>
        <time>2021-11-04T04:48:15.000Z</time>
      </trkpt>
      <trkpt lat="45.21016" lon="5.72743">
        <ele>766.20001220703</ele>
        <time>2021-11-04T04:48:20.000Z</time>
      </trkpt>
      <trkpt lat="45.21017" lon="5.72743">
        <ele>766.40002441406</ele>
        <time>2021-11-04T04:48:21.000Z</time>
      </trkpt>
      <trkpt lat="45.21019" lon="5.72741">
        <ele>767.20001220703</ele>
        <time>2021-11-04T04:48:24.000Z</time>
      </trkpt>
      <trkpt lat="45.21021" lon="5.7274">
        <ele>768</ele>
        <time>2021-11-04T04:48:27.000Z</time>
      </trkpt>
      <trkpt lat="45.21022" lon="5.7274">
        <ele>768.40002441406</ele>
        <time>2021-11-04T04:48:28.000Z</time>
      </trkpt>
      <trkpt lat="45.21025" lon="5.7274">
        <ele>769.20001220703</ele>
        <time>2021-11-04T04:48:32.000Z</time>
      </trkpt>
      <trkpt lat="45.21026" lon="5.7274">
        <ele>769.40002441406</ele>
        <time>2021-11-04T04:48:33.000Z</time>
      </trkpt>
      <trkpt lat="45.21029" lon="5.7274">
        <ele>770.79998779297</ele>
        <time>2021-11-04T04:48:38.000Z</time>
      </trkpt>
      <trkpt lat="45.21031" lon="5.7274">
        <ele>771.20001220703</ele>
        <time>2021-11-04T04:48:40.000Z</time>
      </trkpt>
      <trkpt lat="45.21032" lon="5.7274">
        <ele>771.79998779297</ele>
        <time>2021-11-04T04:48:42.000Z</time>
      </trkpt>
      <trkpt lat="45.21036" lon="5.72741">
        <ele>773</ele>
        <time>2021-11-04T04:48:47.000Z</time>
      </trkpt>
      <trkpt lat="45.2104" lon="5.7274">
        <ele>774</ele>
        <time>2021-11-04T04:48:51.000Z</time>
      </trkpt>
      <trkpt lat="45.21044" lon="5.72741">
        <ele>775</ele>
        <time>2021-11-04T04:48:55.000Z</time>
      </trkpt>
      <trkpt lat="45.21046" lon="5.72744">
        <ele>775.40002441406</ele>
        <time>2021-11-04T04:48:57.000Z</time>
      </trkpt>
      <trkpt lat="45.21047" lon="5.72746">
        <ele>775.59997558594</ele>
        <time>2021-11-04T04:48:59.000Z</time>
      </trkpt>
      <trkpt lat="45.21048" lon="5.72748">
        <ele>775.79998779297</ele>
        <time>2021-11-04T04:49:00.000Z</time>
      </trkpt>
      <trkpt lat="45.21053" lon="5.72758">
        <ele>776.40002441406</ele>
        <time>2021-11-04T04:49:05.000Z</time>
      </trkpt>
      <trkpt lat="45.21053" lon="5.72763">
        <ele>776.79998779297</ele>
        <time>2021-11-04T04:49:07.000Z</time>
      </trkpt>
      <trkpt lat="45.21054" lon="5.72765">
        <ele>777</ele>
        <time>2021-11-04T04:49:09.000Z</time>
      </trkpt>
      <trkpt lat="45.21056" lon="5.72769">
        <ele>777.20001220703</ele>
        <time>2021-11-04T04:49:11.000Z</time>
      </trkpt>
      <trkpt lat="45.21055" lon="5.72774">
        <ele>777.40002441406</ele>
        <time>2021-11-04T04:49:13.000Z</time>
      </trkpt>
      <trkpt lat="45.21055" lon="5.72777">
        <ele>777.59997558594</ele>
        <time>2021-11-04T04:49:14.000Z</time>
      </trkpt>
      <trkpt lat="45.21057" lon="5.72784">
        <ele>777.59997558594</ele>
        <time>2021-11-04T04:49:17.000Z</time>
      </trkpt>
      <trkpt lat="45.21059" lon="5.72787">
        <ele>777.79998779297</ele>
        <time>2021-11-04T04:49:19.000Z</time>
      </trkpt>
      <trkpt lat="45.21063" lon="5.72796">
        <ele>777.79998779297</ele>
        <time>2021-11-04T04:49:23.000Z</time>
      </trkpt>
      <trkpt lat="45.21065" lon="5.728">
        <ele>777.79998779297</ele>
        <time>2021-11-04T04:49:25.000Z</time>
      </trkpt>
      <trkpt lat="45.21068" lon="5.7281">
        <ele>778</ele>
        <time>2021-11-04T04:49:29.000Z</time>
      </trkpt>
      <trkpt lat="45.2107" lon="5.72814">
        <ele>778</ele>
        <time>2021-11-04T04:49:31.000Z</time>
      </trkpt>
      <trkpt lat="45.21075" lon="5.72822">
        <ele>778.59997558594</ele>
        <time>2021-11-04T04:49:35.000Z</time>
      </trkpt>
      <trkpt lat="45.21078" lon="5.72828">
        <ele>779</ele>
        <time>2021-11-04T04:49:38.000Z</time>
      </trkpt>
      <trkpt lat="45.21079" lon="5.72833">
        <ele>779.79998779297</ele>
        <time>2021-11-04T04:49:42.000Z</time>
      </trkpt>
      <trkpt lat="45.2108" lon="5.72836">
        <ele>780</ele>
        <time>2021-11-04T04:49:44.000Z</time>
      </trkpt>
      <trkpt lat="45.21081" lon="5.72839">
        <ele>780.40002441406</ele>
        <time>2021-11-04T04:49:46.000Z</time>
      </trkpt>
      <trkpt lat="45.21084" lon="5.72842">
        <ele>780.79998779297</ele>
        <time>2021-11-04T04:49:48.000Z</time>
      </trkpt>
      <trkpt lat="45.21086" lon="5.72845">
        <ele>781.20001220703</ele>
        <time>2021-11-04T04:49:50.000Z</time>
      </trkpt>
      <trkpt lat="45.21093" lon="5.72851">
        <ele>781.59997558594</ele>
        <time>2021-11-04T04:49:54.000Z</time>
      </trkpt>
      <trkpt lat="45.21096" lon="5.72853">
        <ele>782</ele>
        <time>2021-11-04T04:49:56.000Z</time>
      </trkpt>
      <trkpt lat="45.211" lon="5.72855">
        <ele>782.40002441406</ele>
        <time>2021-11-04T04:49:58.000Z</time>
      </trkpt>
      <trkpt lat="45.21102" lon="5.72858">
        <ele>783</ele>
        <time>2021-11-04T04:50:00.000Z</time>
      </trkpt>
      <trkpt lat="45.21103" lon="5.72858">
        <ele>783.40002441406</ele>
        <time>2021-11-04T04:50:01.000Z</time>
      </trkpt>
      <trkpt lat="45.21106" lon="5.72861">
        <ele>783.79998779297</ele>
        <time>2021-11-04T04:50:03.000Z</time>
      </trkpt>
      <trkpt lat="45.21107" lon="5.72862">
        <ele>784.20001220703</ele>
        <time>2021-11-04T04:50:04.000Z</time>
      </trkpt>
      <trkpt lat="45.21112" lon="5.72867">
        <ele>785.20001220703</ele>
        <time>2021-11-04T04:50:09.000Z</time>
      </trkpt>
      <trkpt lat="45.21115" lon="5.72871">
        <ele>785.79998779297</ele>
        <time>2021-11-04T04:50:13.000Z</time>
      </trkpt>
      <trkpt lat="45.21117" lon="5.72873">
        <ele>786.20001220703</ele>
        <time>2021-11-04T04:50:15.000Z</time>
      </trkpt>
      <trkpt lat="45.21118" lon="5.72874">
        <ele>786.40002441406</ele>
        <time>2021-11-04T04:50:16.000Z</time>
      </trkpt>
      <trkpt lat="45.21124" lon="5.72879">
        <ele>787.79998779297</ele>
        <time>2021-11-04T04:50:21.000Z</time>
      </trkpt>
      <trkpt lat="45.21126" lon="5.72881">
        <ele>788.20001220703</ele>
        <time>2021-11-04T04:50:23.000Z</time>
      </trkpt>
      <trkpt lat="45.21129" lon="5.72881">
        <ele>788.79998779297</ele>
        <time>2021-11-04T04:50:25.000Z</time>
      </trkpt>
      <trkpt lat="45.21133" lon="5.72888">
        <ele>790</ele>
        <time>2021-11-04T04:50:30.000Z</time>
      </trkpt>
      <trkpt lat="45.21134" lon="5.72888">
        <ele>790.20001220703</ele>
        <time>2021-11-04T04:50:31.000Z</time>
      </trkpt>
      <trkpt lat="45.21139" lon="5.72889">
        <ele>791.20001220703</ele>
        <time>2021-11-04T04:50:34.000Z</time>
      </trkpt>
      <trkpt lat="45.2114" lon="5.72889">
        <ele>791.40002441406</ele>
        <time>2021-11-04T04:50:35.000Z</time>
      </trkpt>
      <trkpt lat="45.21143" lon="5.72889">
        <ele>792.40002441406</ele>
        <time>2021-11-04T04:50:38.000Z</time>
      </trkpt>
      <trkpt lat="45.21145" lon="5.7289">
        <ele>793</ele>
        <time>2021-11-04T04:50:40.000Z</time>
      </trkpt>
      <trkpt lat="45.21147" lon="5.7289">
        <ele>793.59997558594</ele>
        <time>2021-11-04T04:50:42.000Z</time>
      </trkpt>
      <trkpt lat="45.21155" lon="5.72893">
        <ele>794.59997558594</ele>
        <time>2021-11-04T04:50:47.000Z</time>
      </trkpt>
      <trkpt lat="45.21156" lon="5.72893">
        <ele>794.79998779297</ele>
        <time>2021-11-04T04:50:48.000Z</time>
      </trkpt>
      <trkpt lat="45.2116" lon="5.72894">
        <ele>795.40002441406</ele>
        <time>2021-11-04T04:50:51.000Z</time>
      </trkpt>
      <trkpt lat="45.21163" lon="5.72895">
        <ele>795.79998779297</ele>
        <time>2021-11-04T04:50:54.000Z</time>
      </trkpt>
      <trkpt lat="45.21165" lon="5.72895">
        <ele>796</ele>
        <time>2021-11-04T04:50:55.000Z</time>
      </trkpt>
      <trkpt lat="45.21169" lon="5.72898">
        <ele>797</ele>
        <time>2021-11-04T04:50:58.000Z</time>
      </trkpt>
      <trkpt lat="45.21173" lon="5.72901">
        <ele>797.79998779297</ele>
        <time>2021-11-04T04:51:01.000Z</time>
      </trkpt>
      <trkpt lat="45.21174" lon="5.72901">
        <ele>798</ele>
        <time>2021-11-04T04:51:02.000Z</time>
      </trkpt>
      <trkpt lat="45.21177" lon="5.72903">
        <ele>798.59997558594</ele>
        <time>2021-11-04T04:51:04.000Z</time>
      </trkpt>
      <trkpt lat="45.21179" lon="5.72906">
        <ele>799.20001220703</ele>
        <time>2021-11-04T04:51:06.000Z</time>
      </trkpt>
      <trkpt lat="45.21181" lon="5.72909">
        <ele>800</ele>
        <time>2021-11-04T04:51:09.000Z</time>
      </trkpt>
      <trkpt lat="45.21182" lon="5.7291">
        <ele>800.20001220703</ele>
        <time>2021-11-04T04:51:10.000Z</time>
      </trkpt>
      <trkpt lat="45.21189" lon="5.72916">
        <ele>801.40002441406</ele>
        <time>2021-11-04T04:51:15.000Z</time>
      </trkpt>
      <trkpt lat="45.21191" lon="5.72919">
        <ele>801.79998779297</ele>
        <time>2021-11-04T04:51:17.000Z</time>
      </trkpt>
      <trkpt lat="45.21194" lon="5.72922">
        <ele>802.40002441406</ele>
        <time>2021-11-04T04:51:19.000Z</time>
      </trkpt>
      <trkpt lat="45.21198" lon="5.72928">
        <ele>803.40002441406</ele>
        <time>2021-11-04T04:51:23.000Z</time>
      </trkpt>
      <trkpt lat="45.212" lon="5.7293">
        <ele>803.79998779297</ele>
        <time>2021-11-04T04:51:25.000Z</time>
      </trkpt>
      <trkpt lat="45.21203" lon="5.72936">
        <ele>804.59997558594</ele>
        <time>2021-11-04T04:51:29.000Z</time>
      </trkpt>
      <trkpt lat="45.21206" lon="5.7294">
        <ele>805.40002441406</ele>
        <time>2021-11-04T04:51:33.000Z</time>
      </trkpt>
      <trkpt lat="45.21207" lon="5.7294">
        <ele>805.59997558594</ele>
        <time>2021-11-04T04:51:34.000Z</time>
      </trkpt>
      <trkpt lat="45.21208" lon="5.72941">
        <ele>805.59997558594</ele>
        <time>2021-11-04T04:51:35.000Z</time>
      </trkpt>
      <trkpt lat="45.21211" lon="5.72943">
        <ele>806</ele>
        <time>2021-11-04T04:51:37.000Z</time>
      </trkpt>
      <trkpt lat="45.21212" lon="5.72942">
        <ele>806.40002441406</ele>
        <time>2021-11-04T04:51:39.000Z</time>
      </trkpt>
      <trkpt lat="45.21212" lon="5.72942">
        <ele>806.59997558594</ele>
        <time>2021-11-04T04:51:40.000Z</time>
      </trkpt>
      <trkpt lat="45.21211" lon="5.72941">
        <ele>807.20001220703</ele>
        <time>2021-11-04T04:51:41.000Z</time>
      </trkpt>
      <trkpt lat="45.2121" lon="5.72937">
        <ele>808.20001220703</ele>
        <time>2021-11-04T04:51:45.000Z</time>
      </trkpt>
      <trkpt lat="45.21209" lon="5.7293">
        <ele>809.40002441406</ele>
        <time>2021-11-04T04:51:49.000Z</time>
      </trkpt>
      <trkpt lat="45.21208" lon="5.72923">
        <ele>810.40002441406</ele>
        <time>2021-11-04T04:51:54.000Z</time>
      </trkpt>
      <trkpt lat="45.21207" lon="5.7292">
        <ele>811</ele>
        <time>2021-11-04T04:51:56.000Z</time>
      </trkpt>
      <trkpt lat="45.21208" lon="5.72918">
        <ele>811.20001220703</ele>
        <time>2021-11-04T04:51:57.000Z</time>
      </trkpt>
      <trkpt lat="45.2121" lon="5.72916">
        <ele>811.59997558594</ele>
        <time>2021-11-04T04:51:59.000Z</time>
      </trkpt>
      <trkpt lat="45.21212" lon="5.72916">
        <ele>812.20001220703</ele>
        <time>2021-11-04T04:52:01.000Z</time>
      </trkpt>
      <trkpt lat="45.21214" lon="5.72917">
        <ele>812.59997558594</ele>
        <time>2021-11-04T04:52:03.000Z</time>
      </trkpt>
      <trkpt lat="45.2122" lon="5.72918">
        <ele>813.59997558594</ele>
        <time>2021-11-04T04:52:08.000Z</time>
      </trkpt>
      <trkpt lat="45.21221" lon="5.72918">
        <ele>813.79998779297</ele>
        <time>2021-11-04T04:52:09.000Z</time>
      </trkpt>
      <trkpt lat="45.21225" lon="5.7292">
        <ele>815</ele>
        <time>2021-11-04T04:52:13.000Z</time>
      </trkpt>
      <trkpt lat="45.21227" lon="5.72924">
        <ele>815.79998779297</ele>
        <time>2021-11-04T04:52:15.000Z</time>
      </trkpt>
      <trkpt lat="45.21227" lon="5.72926">
        <ele>816</ele>
        <time>2021-11-04T04:52:16.000Z</time>
      </trkpt>
      <trkpt lat="45.21234" lon="5.72932">
        <ele>817.20001220703</ele>
        <time>2021-11-04T04:52:22.000Z</time>
      </trkpt>
      <trkpt lat="45.21235" lon="5.72933">
        <ele>817.40002441406</ele>
        <time>2021-11-04T04:52:23.000Z</time>
      </trkpt>
      <trkpt lat="45.21243" lon="5.72936">
        <ele>818.59997558594</ele>
        <time>2021-11-04T04:52:29.000Z</time>
      </trkpt>
      <trkpt lat="45.21245" lon="5.72937">
        <ele>819</ele>
        <time>2021-11-04T04:52:31.000Z</time>
      </trkpt>
      <trkpt lat="45.21246" lon="5.72937">
        <ele>819.20001220703</ele>
        <time>2021-11-04T04:52:32.000Z</time>
      </trkpt>
      <trkpt lat="45.21247" lon="5.72937">
        <ele>819.59997558594</ele>
        <time>2021-11-04T04:52:34.000Z</time>
      </trkpt>
      <trkpt lat="45.21249" lon="5.72937">
        <ele>820</ele>
        <time>2021-11-04T04:52:36.000Z</time>
      </trkpt>
      <trkpt lat="45.21252" lon="5.72938">
        <ele>820.59997558594</ele>
        <time>2021-11-04T04:52:39.000Z</time>
      </trkpt>
      <trkpt lat="45.21253" lon="5.72939">
        <ele>821.40002441406</ele>
        <time>2021-11-04T04:52:42.000Z</time>
      </trkpt>
      <trkpt lat="45.21254" lon="5.72939">
        <ele>821.79998779297</ele>
        <time>2021-11-04T04:52:43.000Z</time>
      </trkpt>
      <trkpt lat="45.21259" lon="5.72942">
        <ele>823</ele>
        <time>2021-11-04T04:52:48.000Z</time>
      </trkpt>
      <trkpt lat="45.21259" lon="5.72943">
        <ele>823.20001220703</ele>
        <time>2021-11-04T04:52:49.000Z</time>
      </trkpt>
      <trkpt lat="45.21261" lon="5.72945">
        <ele>823.59997558594</ele>
        <time>2021-11-04T04:52:51.000Z</time>
      </trkpt>
      <trkpt lat="45.21263" lon="5.72945">
        <ele>824.20001220703</ele>
        <time>2021-11-04T04:52:53.000Z</time>
      </trkpt>
      <trkpt lat="45.21263" lon="5.72945">
        <ele>824.59997558594</ele>
        <time>2021-11-04T04:52:54.000Z</time>
      </trkpt>
      <trkpt lat="45.21266" lon="5.72946">
        <ele>825.40002441406</ele>
        <time>2021-11-04T04:52:57.000Z</time>
      </trkpt>
      <trkpt lat="45.21268" lon="5.72947">
        <ele>826.59997558594</ele>
        <time>2021-11-04T04:53:00.000Z</time>
      </trkpt>
      <trkpt lat="45.21274" lon="5.7295">
        <ele>827.79998779297</ele>
        <time>2021-11-04T04:53:05.000Z</time>
      </trkpt>
      <trkpt lat="45.21275" lon="5.72952">
        <ele>828</ele>
        <time>2021-11-04T04:53:06.000Z</time>
      </trkpt>
      <trkpt lat="45.21279" lon="5.72958">
        <ele>829</ele>
        <time>2021-11-04T04:53:11.000Z</time>
      </trkpt>
      <trkpt lat="45.21283" lon="5.72962">
        <ele>829.79998779297</ele>
        <time>2021-11-04T04:53:15.000Z</time>
      </trkpt>
      <trkpt lat="45.21284" lon="5.72963">
        <ele>830.20001220703</ele>
        <time>2021-11-04T04:53:16.000Z</time>
      </trkpt>
      <trkpt lat="45.21288" lon="5.72967">
        <ele>831.20001220703</ele>
        <time>2021-11-04T04:53:20.000Z</time>
      </trkpt>
      <trkpt lat="45.2129" lon="5.72968">
        <ele>831.79998779297</ele>
        <time>2021-11-04T04:53:22.000Z</time>
      </trkpt>
      <trkpt lat="45.21291" lon="5.72969">
        <ele>832</ele>
        <time>2021-11-04T04:53:23.000Z</time>
      </trkpt>
      <trkpt lat="45.21293" lon="5.72973">
        <ele>832.40002441406</ele>
        <time>2021-11-04T04:53:25.000Z</time>
      </trkpt>
      <trkpt lat="45.21295" lon="5.72978">
        <ele>833.40002441406</ele>
        <time>2021-11-04T04:53:29.000Z</time>
      </trkpt>
      <trkpt lat="45.21296" lon="5.72979">
        <ele>833.59997558594</ele>
        <time>2021-11-04T04:53:30.000Z</time>
      </trkpt>
      <trkpt lat="45.21297" lon="5.7298">
        <ele>834</ele>
        <time>2021-11-04T04:53:32.000Z</time>
      </trkpt>
      <trkpt lat="45.21299" lon="5.7298">
        <ele>834.59997558594</ele>
        <time>2021-11-04T04:53:34.000Z</time>
      </trkpt>
      <trkpt lat="45.21301" lon="5.72981">
        <ele>835.20001220703</ele>
        <time>2021-11-04T04:53:36.000Z</time>
      </trkpt>
      <trkpt lat="45.21304" lon="5.72982">
        <ele>835.79998779297</ele>
        <time>2021-11-04T04:53:38.000Z</time>
      </trkpt>
      <trkpt lat="45.21308" lon="5.72987">
        <ele>836.79998779297</ele>
        <time>2021-11-04T04:53:42.000Z</time>
      </trkpt>
      <trkpt lat="45.2131" lon="5.72989">
        <ele>836.79998779297</ele>
        <time>2021-11-04T04:53:43.000Z</time>
      </trkpt>
      <trkpt lat="45.21317" lon="5.72998">
        <ele>838.20001220703</ele>
        <time>2021-11-04T04:53:50.000Z</time>
      </trkpt>
      <trkpt lat="45.21321" lon="5.73002">
        <ele>839.20001220703</ele>
        <time>2021-11-04T04:53:54.000Z</time>
      </trkpt>
      <trkpt lat="45.21323" lon="5.73007">
        <ele>840</ele>
        <time>2021-11-04T04:53:57.000Z</time>
      </trkpt>
      <trkpt lat="45.21325" lon="5.73009">
        <ele>840.40002441406</ele>
        <time>2021-11-04T04:53:59.000Z</time>
      </trkpt>
      <trkpt lat="45.21328" lon="5.73013">
        <ele>841.40002441406</ele>
        <time>2021-11-04T04:54:03.000Z</time>
      </trkpt>
      <trkpt lat="45.21331" lon="5.73016">
        <ele>842.40002441406</ele>
        <time>2021-11-04T04:54:06.000Z</time>
      </trkpt>
      <trkpt lat="45.21332" lon="5.73017">
        <ele>842.79998779297</ele>
        <time>2021-11-04T04:54:07.000Z</time>
      </trkpt>
      <trkpt lat="45.21335" lon="5.73022">
        <ele>843.59997558594</ele>
        <time>2021-11-04T04:54:11.000Z</time>
      </trkpt>
      <trkpt lat="45.21336" lon="5.73022">
        <ele>844</ele>
        <time>2021-11-04T04:54:12.000Z</time>
      </trkpt>
      <trkpt lat="45.21339" lon="5.73027">
        <ele>844.59997558594</ele>
        <time>2021-11-04T04:54:15.000Z</time>
      </trkpt>
      <trkpt lat="45.2134" lon="5.73028">
        <ele>845</ele>
        <time>2021-11-04T04:54:16.000Z</time>
      </trkpt>
      <trkpt lat="45.21339" lon="5.7303">
        <ele>845.59997558594</ele>
        <time>2021-11-04T04:54:18.000Z</time>
      </trkpt>
      <trkpt lat="45.2134" lon="5.73032">
        <ele>846.20001220703</ele>
        <time>2021-11-04T04:54:20.000Z</time>
      </trkpt>
      <trkpt lat="45.21341" lon="5.73032">
        <ele>846.40002441406</ele>
        <time>2021-11-04T04:54:21.000Z</time>
      </trkpt>
      <trkpt lat="45.21343" lon="5.73035">
        <ele>847.20001220703</ele>
        <time>2021-11-04T04:54:24.000Z</time>
      </trkpt>
      <trkpt lat="45.21343" lon="5.73037">
        <ele>847.59997558594</ele>
        <time>2021-11-04T04:54:25.000Z</time>
      </trkpt>
      <trkpt lat="45.21344" lon="5.7304">
        <ele>848.20001220703</ele>
        <time>2021-11-04T04:54:27.000Z</time>
      </trkpt>
      <trkpt lat="45.21346" lon="5.73045">
        <ele>849</ele>
        <time>2021-11-04T04:54:31.000Z</time>
      </trkpt>
      <trkpt lat="45.21347" lon="5.73047">
        <ele>849.59997558594</ele>
        <time>2021-11-04T04:54:32.000Z</time>
      </trkpt>
      <trkpt lat="45.21349" lon="5.73049">
        <ele>850</ele>
        <time>2021-11-04T04:54:34.000Z</time>
      </trkpt>
      <trkpt lat="45.21352" lon="5.73053">
        <ele>851</ele>
        <time>2021-11-04T04:54:38.000Z</time>
      </trkpt>
      <trkpt lat="45.21353" lon="5.73056">
        <ele>851.59997558594</ele>
        <time>2021-11-04T04:54:40.000Z</time>
      </trkpt>
      <trkpt lat="45.21355" lon="5.73061">
        <ele>852.20001220703</ele>
        <time>2021-11-04T04:54:43.000Z</time>
      </trkpt>
      <trkpt lat="45.21357" lon="5.73063">
        <ele>853.20001220703</ele>
        <time>2021-11-04T04:54:46.000Z</time>
      </trkpt>
      <trkpt lat="45.21358" lon="5.73064">
        <ele>853.40002441406</ele>
        <time>2021-11-04T04:54:47.000Z</time>
      </trkpt>
      <trkpt lat="45.21361" lon="5.73067">
        <ele>854.20001220703</ele>
        <time>2021-11-04T04:54:50.000Z</time>
      </trkpt>
      <trkpt lat="45.21362" lon="5.73068">
        <ele>854.40002441406</ele>
        <time>2021-11-04T04:54:51.000Z</time>
      </trkpt>
      <trkpt lat="45.21366" lon="5.73074">
        <ele>855.40002441406</ele>
        <time>2021-11-04T04:54:56.000Z</time>
      </trkpt>
      <trkpt lat="45.21369" lon="5.73078">
        <ele>855.79998779297</ele>
        <time>2021-11-04T04:54:59.000Z</time>
      </trkpt>
      <trkpt lat="45.2138" lon="5.73092">
        <ele>856.40002441406</ele>
        <time>2021-11-04T04:55:07.000Z</time>
      </trkpt>
      <trkpt lat="45.21381" lon="5.73095">
        <ele>856.59997558594</ele>
        <time>2021-11-04T04:55:08.000Z</time>
      </trkpt>
      <trkpt lat="45.21383" lon="5.73098">
        <ele>856.79998779297</ele>
        <time>2021-11-04T04:55:10.000Z</time>
      </trkpt>
      <trkpt lat="45.21387" lon="5.73105">
        <ele>857</ele>
        <time>2021-11-04T04:55:13.000Z</time>
      </trkpt>
      <trkpt lat="45.2139" lon="5.73112">
        <ele>857.79998779297</ele>
        <time>2021-11-04T04:55:16.000Z</time>
      </trkpt>
      <trkpt lat="45.21394" lon="5.73117">
        <ele>858</ele>
        <time>2021-11-04T04:55:19.000Z</time>
      </trkpt>
      <trkpt lat="45.21398" lon="5.73122">
        <ele>858.79998779297</ele>
        <time>2021-11-04T04:55:22.000Z</time>
      </trkpt>
      <trkpt lat="45.21406" lon="5.73131">
        <ele>859.40002441406</ele>
        <time>2021-11-04T04:55:27.000Z</time>
      </trkpt>
      <trkpt lat="45.21408" lon="5.73135">
        <ele>859.79998779297</ele>
        <time>2021-11-04T04:55:29.000Z</time>
      </trkpt>
      <trkpt lat="45.21413" lon="5.73144">
        <ele>861</ele>
        <time>2021-11-04T04:55:34.000Z</time>
      </trkpt>
      <trkpt lat="45.21414" lon="5.73145">
        <ele>861.40002441406</ele>
        <time>2021-11-04T04:55:35.000Z</time>
      </trkpt>
      <trkpt lat="45.21417" lon="5.73147">
        <ele>861.79998779297</ele>
        <time>2021-11-04T04:55:37.000Z</time>
      </trkpt>
      <trkpt lat="45.21418" lon="5.73148">
        <ele>862.40002441406</ele>
        <time>2021-11-04T04:55:38.000Z</time>
      </trkpt>
      <trkpt lat="45.2142" lon="5.7315">
        <ele>862.79998779297</ele>
        <time>2021-11-04T04:55:40.000Z</time>
      </trkpt>
      <trkpt lat="45.21422" lon="5.73152">
        <ele>863.20001220703</ele>
        <time>2021-11-04T04:55:42.000Z</time>
      </trkpt>
      <trkpt lat="45.21424" lon="5.73153">
        <ele>863.40002441406</ele>
        <time>2021-11-04T04:55:44.000Z</time>
      </trkpt>
      <trkpt lat="45.21425" lon="5.73154">
        <ele>863.59997558594</ele>
        <time>2021-11-04T04:55:45.000Z</time>
      </trkpt>
      <trkpt lat="45.21427" lon="5.73155">
        <ele>863.79998779297</ele>
        <time>2021-11-04T04:55:46.000Z</time>
      </trkpt>
      <trkpt lat="45.21428" lon="5.73155">
        <ele>864</ele>
        <time>2021-11-04T04:55:47.000Z</time>
      </trkpt>
      <trkpt lat="45.21432" lon="5.73158">
        <ele>864.40002441406</ele>
        <time>2021-11-04T04:55:50.000Z</time>
      </trkpt>
      <trkpt lat="45.21434" lon="5.73158">
        <ele>864.59997558594</ele>
        <time>2021-11-04T04:55:51.000Z</time>
      </trkpt>
      <trkpt lat="45.21436" lon="5.73159">
        <ele>864.79998779297</ele>
        <time>2021-11-04T04:55:52.000Z</time>
      </trkpt>
      <trkpt lat="45.21437" lon="5.73159">
        <ele>865.20001220703</ele>
        <time>2021-11-04T04:55:53.000Z</time>
      </trkpt>
      <trkpt lat="45.21441" lon="5.7316">
        <ele>865.59997558594</ele>
        <time>2021-11-04T04:55:55.000Z</time>
      </trkpt>
      <trkpt lat="45.21446" lon="5.73161">
        <ele>866.79998779297</ele>
        <time>2021-11-04T04:55:59.000Z</time>
      </trkpt>
      <trkpt lat="45.21448" lon="5.73161">
        <ele>867.20001220703</ele>
        <time>2021-11-04T04:56:00.000Z</time>
      </trkpt>
      <trkpt lat="45.21451" lon="5.73163">
        <ele>868</ele>
        <time>2021-11-04T04:56:03.000Z</time>
      </trkpt>
      <trkpt lat="45.21452" lon="5.73165">
        <ele>868.40002441406</ele>
        <time>2021-11-04T04:56:05.000Z</time>
      </trkpt>
      <trkpt lat="45.21454" lon="5.73168">
        <ele>869.40002441406</ele>
        <time>2021-11-04T04:56:08.000Z</time>
      </trkpt>
      <trkpt lat="45.21456" lon="5.73172">
        <ele>870.40002441406</ele>
        <time>2021-11-04T04:56:11.000Z</time>
      </trkpt>
      <trkpt lat="45.21456" lon="5.73173">
        <ele>870.59997558594</ele>
        <time>2021-11-04T04:56:12.000Z</time>
      </trkpt>
      <trkpt lat="45.2146" lon="5.73178">
        <ele>871.79998779297</ele>
        <time>2021-11-04T04:56:16.000Z</time>
      </trkpt>
      <trkpt lat="45.21461" lon="5.73178">
        <ele>872</ele>
        <time>2021-11-04T04:56:17.000Z</time>
      </trkpt>
      <trkpt lat="45.21462" lon="5.73179">
        <ele>872.40002441406</ele>
        <time>2021-11-04T04:56:18.000Z</time>
      </trkpt>
      <trkpt lat="45.21465" lon="5.73182">
        <ele>872.79998779297</ele>
        <time>2021-11-04T04:56:21.000Z</time>
      </trkpt>
      <trkpt lat="45.21468" lon="5.73184">
        <ele>874</ele>
        <time>2021-11-04T04:56:24.000Z</time>
      </trkpt>
      <trkpt lat="45.21468" lon="5.73185">
        <ele>874.40002441406</ele>
        <time>2021-11-04T04:56:25.000Z</time>
      </trkpt>
      <trkpt lat="45.21469" lon="5.73187">
        <ele>875.20001220703</ele>
        <time>2021-11-04T04:56:27.000Z</time>
      </trkpt>
      <trkpt lat="45.21469" lon="5.7319">
        <ele>875.40002441406</ele>
        <time>2021-11-04T04:56:28.000Z</time>
      </trkpt>
      <trkpt lat="45.21471" lon="5.73199">
        <ele>876.20001220703</ele>
        <time>2021-11-04T04:56:32.000Z</time>
      </trkpt>
      <trkpt lat="45.21471" lon="5.73202">
        <ele>876.59997558594</ele>
        <time>2021-11-04T04:56:33.000Z</time>
      </trkpt>
      <trkpt lat="45.21473" lon="5.73221">
        <ele>877</ele>
        <time>2021-11-04T04:56:39.000Z</time>
      </trkpt>
      <trkpt lat="45.21475" lon="5.73226">
        <ele>877.20001220703</ele>
        <time>2021-11-04T04:56:41.000Z</time>
      </trkpt>
      <trkpt lat="45.2148" lon="5.73233">
        <ele>877.79998779297</ele>
        <time>2021-11-04T04:56:45.000Z</time>
      </trkpt>
      <trkpt lat="45.21483" lon="5.73238">
        <ele>878.59997558594</ele>
        <time>2021-11-04T04:56:48.000Z</time>
      </trkpt>
      <trkpt lat="45.21485" lon="5.73242">
        <ele>879.40002441406</ele>
        <time>2021-11-04T04:56:51.000Z</time>
      </trkpt>
      <trkpt lat="45.21486" lon="5.73243">
        <ele>879.79998779297</ele>
        <time>2021-11-04T04:56:52.000Z</time>
      </trkpt>
      <trkpt lat="45.2149" lon="5.73247">
        <ele>881.20001220703</ele>
        <time>2021-11-04T04:56:56.000Z</time>
      </trkpt>
      <trkpt lat="45.21491" lon="5.73248">
        <ele>881.40002441406</ele>
        <time>2021-11-04T04:56:57.000Z</time>
      </trkpt>
      <trkpt lat="45.21494" lon="5.73251">
        <ele>882.20001220703</ele>
        <time>2021-11-04T04:57:00.000Z</time>
      </trkpt>
      <trkpt lat="45.21499" lon="5.73258">
        <ele>883</ele>
        <time>2021-11-04T04:57:04.000Z</time>
      </trkpt>
      <trkpt lat="45.215" lon="5.7326">
        <ele>883.20001220703</ele>
        <time>2021-11-04T04:57:05.000Z</time>
      </trkpt>
      <trkpt lat="45.21501" lon="5.73262">
        <ele>883.79998779297</ele>
        <time>2021-11-04T04:57:07.000Z</time>
      </trkpt>
      <trkpt lat="45.21503" lon="5.73265">
        <ele>884.20001220703</ele>
        <time>2021-11-04T04:57:09.000Z</time>
      </trkpt>
      <trkpt lat="45.21504" lon="5.73267">
        <ele>884.40002441406</ele>
        <time>2021-11-04T04:57:10.000Z</time>
      </trkpt>
      <trkpt lat="45.21504" lon="5.73269">
        <ele>884.59997558594</ele>
        <time>2021-11-04T04:57:11.000Z</time>
      </trkpt>
      <trkpt lat="45.21503" lon="5.73279">
        <ele>885.20001220703</ele>
        <time>2021-11-04T04:57:15.000Z</time>
      </trkpt>
      <trkpt lat="45.21503" lon="5.73289">
        <ele>884.79998779297</ele>
        <time>2021-11-04T04:57:19.000Z</time>
      </trkpt>
      <trkpt lat="45.21505" lon="5.73294">
        <ele>884.79998779297</ele>
        <time>2021-11-04T04:57:21.000Z</time>
      </trkpt>
      <trkpt lat="45.21513" lon="5.73313">
        <ele>885.59997558594</ele>
        <time>2021-11-04T04:57:28.000Z</time>
      </trkpt>
      <trkpt lat="45.21513" lon="5.73315">
        <ele>885.79998779297</ele>
        <time>2021-11-04T04:57:29.000Z</time>
      </trkpt>
      <trkpt lat="45.21514" lon="5.73317">
        <ele>886.20001220703</ele>
        <time>2021-11-04T04:57:31.000Z</time>
      </trkpt>
      <trkpt lat="45.21516" lon="5.73318">
        <ele>886.59997558594</ele>
        <time>2021-11-04T04:57:33.000Z</time>
      </trkpt>
      <trkpt lat="45.21518" lon="5.73319">
        <ele>886.79998779297</ele>
        <time>2021-11-04T04:57:34.000Z</time>
      </trkpt>
      <trkpt lat="45.21529" lon="5.73323">
        <ele>887.79998779297</ele>
        <time>2021-11-04T04:57:42.000Z</time>
      </trkpt>
      <trkpt lat="45.2153" lon="5.73322">
        <ele>888</ele>
        <time>2021-11-04T04:57:43.000Z</time>
      </trkpt>
      <trkpt lat="45.21534" lon="5.73322">
        <ele>888.59997558594</ele>
        <time>2021-11-04T04:57:46.000Z</time>
      </trkpt>
      <trkpt lat="45.21536" lon="5.73323">
        <ele>888.79998779297</ele>
        <time>2021-11-04T04:57:48.000Z</time>
      </trkpt>
      <trkpt lat="45.21537" lon="5.73324">
        <ele>889</ele>
        <time>2021-11-04T04:57:49.000Z</time>
      </trkpt>
      <trkpt lat="45.21541" lon="5.73326">
        <ele>890</ele>
        <time>2021-11-04T04:57:54.000Z</time>
      </trkpt>
      <trkpt lat="45.21543" lon="5.73328">
        <ele>890.40002441406</ele>
        <time>2021-11-04T04:57:56.000Z</time>
      </trkpt>
      <trkpt lat="45.21548" lon="5.73326">
        <ele>891.20001220703</ele>
        <time>2021-11-04T04:58:00.000Z</time>
      </trkpt>
      <trkpt lat="45.21549" lon="5.73327">
        <ele>891.40002441406</ele>
        <time>2021-11-04T04:58:01.000Z</time>
      </trkpt>
      <trkpt lat="45.21551" lon="5.73326">
        <ele>892</ele>
        <time>2021-11-04T04:58:03.000Z</time>
      </trkpt>
      <trkpt lat="45.21553" lon="5.73326">
        <ele>892.20001220703</ele>
        <time>2021-11-04T04:58:04.000Z</time>
      </trkpt>
      <trkpt lat="45.21561" lon="5.73329">
        <ele>893</ele>
        <time>2021-11-04T04:58:09.000Z</time>
      </trkpt>
      <trkpt lat="45.21562" lon="5.73329">
        <ele>893.20001220703</ele>
        <time>2021-11-04T04:58:10.000Z</time>
      </trkpt>
      <trkpt lat="45.21569" lon="5.73332">
        <ele>894.40002441406</ele>
        <time>2021-11-04T04:58:15.000Z</time>
      </trkpt>
      <trkpt lat="45.2157" lon="5.73332">
        <ele>894.59997558594</ele>
        <time>2021-11-04T04:58:16.000Z</time>
      </trkpt>
      <trkpt lat="45.21572" lon="5.73335">
        <ele>894.79998779297</ele>
        <time>2021-11-04T04:58:18.000Z</time>
      </trkpt>
      <trkpt lat="45.21577" lon="5.73342">
        <ele>895.59997558594</ele>
        <time>2021-11-04T04:58:23.000Z</time>
      </trkpt>
      <trkpt lat="45.21579" lon="5.73343">
        <ele>895.79998779297</ele>
        <time>2021-11-04T04:58:25.000Z</time>
      </trkpt>
      <trkpt lat="45.21583" lon="5.73343">
        <ele>896.20001220703</ele>
        <time>2021-11-04T04:58:28.000Z</time>
      </trkpt>
      <trkpt lat="45.21586" lon="5.73345">
        <ele>896.79998779297</ele>
        <time>2021-11-04T04:58:31.000Z</time>
      </trkpt>
      <trkpt lat="45.2159" lon="5.73348">
        <ele>897.59997558594</ele>
        <time>2021-11-04T04:58:34.000Z</time>
      </trkpt>
      <trkpt lat="45.2159" lon="5.7335">
        <ele>898</ele>
        <time>2021-11-04T04:58:35.000Z</time>
      </trkpt>
      <trkpt lat="45.21592" lon="5.73351">
        <ele>898.20001220703</ele>
        <time>2021-11-04T04:58:36.000Z</time>
      </trkpt>
      <trkpt lat="45.21594" lon="5.73355">
        <ele>898.59997558594</ele>
        <time>2021-11-04T04:58:39.000Z</time>
      </trkpt>
      <trkpt lat="45.21597" lon="5.73359">
        <ele>899.20001220703</ele>
        <time>2021-11-04T04:58:42.000Z</time>
      </trkpt>
      <trkpt lat="45.21602" lon="5.73364">
        <ele>900</ele>
        <time>2021-11-04T04:58:46.000Z</time>
      </trkpt>
      <trkpt lat="45.21603" lon="5.73366">
        <ele>900.20001220703</ele>
        <time>2021-11-04T04:58:47.000Z</time>
      </trkpt>
      <trkpt lat="45.21607" lon="5.7337">
        <ele>901.40002441406</ele>
        <time>2021-11-04T04:58:51.000Z</time>
      </trkpt>
      <trkpt lat="45.21609" lon="5.73372">
        <ele>901.79998779297</ele>
        <time>2021-11-04T04:58:53.000Z</time>
      </trkpt>
      <trkpt lat="45.21612" lon="5.73374">
        <ele>902.59997558594</ele>
        <time>2021-11-04T04:58:55.000Z</time>
      </trkpt>
      <trkpt lat="45.21615" lon="5.73379">
        <ele>903.59997558594</ele>
        <time>2021-11-04T04:58:59.000Z</time>
      </trkpt>
      <trkpt lat="45.21617" lon="5.7338">
        <ele>903.79998779297</ele>
        <time>2021-11-04T04:59:00.000Z</time>
      </trkpt>
      <trkpt lat="45.21622" lon="5.73382">
        <ele>904.79998779297</ele>
        <time>2021-11-04T04:59:05.000Z</time>
      </trkpt>
      <trkpt lat="45.21627" lon="5.73385">
        <ele>905.40002441406</ele>
        <time>2021-11-04T04:59:08.000Z</time>
      </trkpt>
      <trkpt lat="45.2163" lon="5.7339">
        <ele>906</ele>
        <time>2021-11-04T04:59:11.000Z</time>
      </trkpt>
      <trkpt lat="45.21636" lon="5.73396">
        <ele>907.20001220703</ele>
        <time>2021-11-04T04:59:16.000Z</time>
      </trkpt>
      <trkpt lat="45.21645" lon="5.73404">
        <ele>908.20001220703</ele>
        <time>2021-11-04T04:59:21.000Z</time>
      </trkpt>
      <trkpt lat="45.21647" lon="5.73408">
        <ele>908.40002441406</ele>
        <time>2021-11-04T04:59:23.000Z</time>
      </trkpt>
      <trkpt lat="45.21652" lon="5.73418">
        <ele>909</ele>
        <time>2021-11-04T04:59:27.000Z</time>
      </trkpt>
      <trkpt lat="45.21655" lon="5.73422">
        <ele>909.20001220703</ele>
        <time>2021-11-04T04:59:29.000Z</time>
      </trkpt>
      <trkpt lat="45.21656" lon="5.73424">
        <ele>909.40002441406</ele>
        <time>2021-11-04T04:59:30.000Z</time>
      </trkpt>
      <trkpt lat="45.21658" lon="5.7343">
        <ele>909.79998779297</ele>
        <time>2021-11-04T04:59:32.000Z</time>
      </trkpt>
      <trkpt lat="45.21661" lon="5.73437">
        <ele>910.40002441406</ele>
        <time>2021-11-04T04:59:35.000Z</time>
      </trkpt>
      <trkpt lat="45.21664" lon="5.73446">
        <ele>910.59997558594</ele>
        <time>2021-11-04T04:59:38.000Z</time>
      </trkpt>
      <trkpt lat="45.21665" lon="5.73455">
        <ele>911.40002441406</ele>
        <time>2021-11-04T04:59:41.000Z</time>
      </trkpt>
      <trkpt lat="45.21666" lon="5.73457">
        <ele>911.59997558594</ele>
        <time>2021-11-04T04:59:42.000Z</time>
      </trkpt>
      <trkpt lat="45.21666" lon="5.73462">
        <ele>912</ele>
        <time>2021-11-04T04:59:44.000Z</time>
      </trkpt>
      <trkpt lat="45.21667" lon="5.73466">
        <ele>912.40002441406</ele>
        <time>2021-11-04T04:59:46.000Z</time>
      </trkpt>
      <trkpt lat="45.2167" lon="5.73479">
        <ele>913.40002441406</ele>
        <time>2021-11-04T04:59:51.000Z</time>
      </trkpt>
      <trkpt lat="45.21671" lon="5.73481">
        <ele>913.59997558594</ele>
        <time>2021-11-04T04:59:52.000Z</time>
      </trkpt>
      <trkpt lat="45.21672" lon="5.73483">
        <ele>914</ele>
        <time>2021-11-04T04:59:53.000Z</time>
      </trkpt>
      <trkpt lat="45.21673" lon="5.73482">
        <ele>914.40002441406</ele>
        <time>2021-11-04T04:59:55.000Z</time>
      </trkpt>
      <trkpt lat="45.21673" lon="5.73482">
        <ele>914.59997558594</ele>
        <time>2021-11-04T04:59:56.000Z</time>
      </trkpt>
      <trkpt lat="45.21673" lon="5.73481">
        <ele>914.79998779297</ele>
        <time>2021-11-04T04:59:57.000Z</time>
      </trkpt>
      <trkpt lat="45.21672" lon="5.7348">
        <ele>915.40002441406</ele>
        <time>2021-11-04T04:59:59.000Z</time>
      </trkpt>
      <trkpt lat="45.21672" lon="5.73478">
        <ele>915.40002441406</ele>
        <time>2021-11-04T05:00:00.000Z</time>
      </trkpt>
      <trkpt lat="45.21671" lon="5.73476">
        <ele>916.20001220703</ele>
        <time>2021-11-04T05:00:02.000Z</time>
      </trkpt>
      <trkpt lat="45.21671" lon="5.73467">
        <ele>916.79998779297</ele>
        <time>2021-11-04T05:00:07.000Z</time>
      </trkpt>
      <trkpt lat="45.2167" lon="5.73462">
        <ele>917.40002441406</ele>
        <time>2021-11-04T05:00:09.000Z</time>
      </trkpt>
      <trkpt lat="45.2167" lon="5.73451">
        <ele>918.40002441406</ele>
        <time>2021-11-04T05:00:14.000Z</time>
      </trkpt>
      <trkpt lat="45.21671" lon="5.73449">
        <ele>918.59997558594</ele>
        <time>2021-11-04T05:00:15.000Z</time>
      </trkpt>
      <trkpt lat="45.2167" lon="5.7344">
        <ele>919.79998779297</ele>
        <time>2021-11-04T05:00:21.000Z</time>
      </trkpt>
      <trkpt lat="45.2167" lon="5.73439">
        <ele>920.20001220703</ele>
        <time>2021-11-04T05:00:22.000Z</time>
      </trkpt>
      <trkpt lat="45.2167" lon="5.73434">
        <ele>921</ele>
        <time>2021-11-04T05:00:26.000Z</time>
      </trkpt>
      <trkpt lat="45.21671" lon="5.73429">
        <ele>921.59997558594</ele>
        <time>2021-11-04T05:00:29.000Z</time>
      </trkpt>
      <trkpt lat="45.2167" lon="5.73425">
        <ele>922.40002441406</ele>
        <time>2021-11-04T05:00:32.000Z</time>
      </trkpt>
      <trkpt lat="45.21668" lon="5.7342">
        <ele>923.20001220703</ele>
        <time>2021-11-04T05:00:36.000Z</time>
      </trkpt>
      <trkpt lat="45.21667" lon="5.73419">
        <ele>923.59997558594</ele>
        <time>2021-11-04T05:00:37.000Z</time>
      </trkpt>
      <trkpt lat="45.21667" lon="5.73418">
        <ele>923.79998779297</ele>
        <time>2021-11-04T05:00:38.000Z</time>
      </trkpt>
      <trkpt lat="45.21664" lon="5.73414">
        <ele>924.20001220703</ele>
        <time>2021-11-04T05:00:41.000Z</time>
      </trkpt>
      <trkpt lat="45.21661" lon="5.73414">
        <ele>924.79998779297</ele>
        <time>2021-11-04T05:00:42.000Z</time>
      </trkpt>
      <trkpt lat="45.2166" lon="5.73412">
        <ele>925</ele>
        <time>2021-11-04T05:00:43.000Z</time>
      </trkpt>
      <trkpt lat="45.2166" lon="5.73406">
        <ele>925.59997558594</ele>
        <time>2021-11-04T05:00:46.000Z</time>
      </trkpt>
      <trkpt lat="45.2166" lon="5.73405">
        <ele>926</ele>
        <time>2021-11-04T05:00:47.000Z</time>
      </trkpt>
      <trkpt lat="45.2166" lon="5.73404">
        <ele>926.20001220703</ele>
        <time>2021-11-04T05:00:48.000Z</time>
      </trkpt>
      <trkpt lat="45.2166" lon="5.73399">
        <ele>926.79998779297</ele>
        <time>2021-11-04T05:00:51.000Z</time>
      </trkpt>
      <trkpt lat="45.2166" lon="5.73398">
        <ele>927.20001220703</ele>
        <time>2021-11-04T05:00:52.000Z</time>
      </trkpt>
      <trkpt lat="45.2166" lon="5.73397">
        <ele>927.59997558594</ele>
        <time>2021-11-04T05:00:53.000Z</time>
      </trkpt>
      <trkpt lat="45.21657" lon="5.73393">
        <ele>928.20001220703</ele>
        <time>2021-11-04T05:00:56.000Z</time>
      </trkpt>
      <trkpt lat="45.21656" lon="5.73392">
        <ele>928.59997558594</ele>
        <time>2021-11-04T05:00:57.000Z</time>
      </trkpt>
      <trkpt lat="45.21653" lon="5.73388">
        <ele>929.40002441406</ele>
        <time>2021-11-04T05:01:00.000Z</time>
      </trkpt>
      <trkpt lat="45.21653" lon="5.73386">
        <ele>929.59997558594</ele>
        <time>2021-11-04T05:01:01.000Z</time>
      </trkpt>
      <trkpt lat="45.21654" lon="5.73382">
        <ele>930.40002441406</ele>
        <time>2021-11-04T05:01:03.000Z</time>
      </trkpt>
      <trkpt lat="45.21654" lon="5.7338">
        <ele>930.59997558594</ele>
        <time>2021-11-04T05:01:04.000Z</time>
      </trkpt>
      <trkpt lat="45.21654" lon="5.73379">
        <ele>931</ele>
        <time>2021-11-04T05:01:05.000Z</time>
      </trkpt>
      <trkpt lat="45.21652" lon="5.73376">
        <ele>931.79998779297</ele>
        <time>2021-11-04T05:01:08.000Z</time>
      </trkpt>
      <trkpt lat="45.21647" lon="5.73371">
        <ele>932.79998779297</ele>
        <time>2021-11-04T05:01:13.000Z</time>
      </trkpt>
      <trkpt lat="45.21643" lon="5.73366">
        <ele>934</ele>
        <time>2021-11-04T05:01:17.000Z</time>
      </trkpt>
      <trkpt lat="45.2164" lon="5.73363">
        <ele>935.20001220703</ele>
        <time>2021-11-04T05:01:20.000Z</time>
      </trkpt>
      <trkpt lat="45.2164" lon="5.73357">
        <ele>936.40002441406</ele>
        <time>2021-11-04T05:01:24.000Z</time>
      </trkpt>
      <trkpt lat="45.21638" lon="5.73353">
        <ele>937.40002441406</ele>
        <time>2021-11-04T05:01:27.000Z</time>
      </trkpt>
      <trkpt lat="45.21638" lon="5.73351">
        <ele>937.59997558594</ele>
        <time>2021-11-04T05:01:28.000Z</time>
      </trkpt>
      <trkpt lat="45.21638" lon="5.73344">
        <ele>938.79998779297</ele>
        <time>2021-11-04T05:01:32.000Z</time>
      </trkpt>
      <trkpt lat="45.21639" lon="5.73343">
        <ele>939</ele>
        <time>2021-11-04T05:01:33.000Z</time>
      </trkpt>
      <trkpt lat="45.21639" lon="5.7334">
        <ele>939.40002441406</ele>
        <time>2021-11-04T05:01:35.000Z</time>
      </trkpt>
      <trkpt lat="45.21639" lon="5.73338">
        <ele>939.79998779297</ele>
        <time>2021-11-04T05:01:36.000Z</time>
      </trkpt>
      <trkpt lat="45.21639" lon="5.73336">
        <ele>940.40002441406</ele>
        <time>2021-11-04T05:01:37.000Z</time>
      </trkpt>
      <trkpt lat="45.2164" lon="5.73329">
        <ele>941</ele>
        <time>2021-11-04T05:01:41.000Z</time>
      </trkpt>
      <trkpt lat="45.2164" lon="5.73327">
        <ele>941.79998779297</ele>
        <time>2021-11-04T05:01:44.000Z</time>
      </trkpt>
      <trkpt lat="45.2164" lon="5.73326">
        <ele>942.20001220703</ele>
        <time>2021-11-04T05:01:45.000Z</time>
      </trkpt>
      <trkpt lat="45.21641" lon="5.73324">
        <ele>942.20001220703</ele>
        <time>2021-11-04T05:01:46.000Z</time>
      </trkpt>
      <trkpt lat="45.21641" lon="5.7332">
        <ele>942.40002441406</ele>
        <time>2021-11-04T05:01:48.000Z</time>
      </trkpt>
      <trkpt lat="45.2164" lon="5.73317">
        <ele>943.20001220703</ele>
        <time>2021-11-04T05:01:50.000Z</time>
      </trkpt>
      <trkpt lat="45.21639" lon="5.73311">
        <ele>943.79998779297</ele>
        <time>2021-11-04T05:01:53.000Z</time>
      </trkpt>
      <trkpt lat="45.21639" lon="5.73309">
        <ele>944.20001220703</ele>
        <time>2021-11-04T05:01:54.000Z</time>
      </trkpt>
      <trkpt lat="45.21638" lon="5.73305">
        <ele>944.79998779297</ele>
        <time>2021-11-04T05:01:56.000Z</time>
      </trkpt>
      <trkpt lat="45.21637" lon="5.73297">
        <ele>945.59997558594</ele>
        <time>2021-11-04T05:02:00.000Z</time>
      </trkpt>
      <trkpt lat="45.21636" lon="5.73293">
        <ele>946.20001220703</ele>
        <time>2021-11-04T05:02:02.000Z</time>
      </trkpt>
      <trkpt lat="45.21634" lon="5.73288">
        <ele>947</ele>
        <time>2021-11-04T05:02:05.000Z</time>
      </trkpt>
      <trkpt lat="45.21633" lon="5.73286">
        <ele>947.20001220703</ele>
        <time>2021-11-04T05:02:06.000Z</time>
      </trkpt>
      <trkpt lat="45.21629" lon="5.73278">
        <ele>948.20001220703</ele>
        <time>2021-11-04T05:02:11.000Z</time>
      </trkpt>
      <trkpt lat="45.21628" lon="5.73273">
        <ele>948.40002441406</ele>
        <time>2021-11-04T05:02:13.000Z</time>
      </trkpt>
      <trkpt lat="45.21624" lon="5.73266">
        <ele>949.20001220703</ele>
        <time>2021-11-04T05:02:17.000Z</time>
      </trkpt>
      <trkpt lat="45.21621" lon="5.73258">
        <ele>950.40002441406</ele>
        <time>2021-11-04T05:02:22.000Z</time>
      </trkpt>
      <trkpt lat="45.21617" lon="5.73253">
        <ele>951.40002441406</ele>
        <time>2021-11-04T05:02:26.000Z</time>
      </trkpt>
      <trkpt lat="45.21615" lon="5.73249">
        <ele>951.79998779297</ele>
        <time>2021-11-04T05:02:29.000Z</time>
      </trkpt>
      <trkpt lat="45.21614" lon="5.73247">
        <ele>952.59997558594</ele>
        <time>2021-11-04T05:02:31.000Z</time>
      </trkpt>
      <trkpt lat="45.21614" lon="5.73246">
        <ele>952.79998779297</ele>
        <time>2021-11-04T05:02:32.000Z</time>
      </trkpt>
      <trkpt lat="45.21613" lon="5.73243">
        <ele>953.20001220703</ele>
        <time>2021-11-04T05:02:34.000Z</time>
      </trkpt>
      <trkpt lat="45.21613" lon="5.73242">
        <ele>954</ele>
        <time>2021-11-04T05:02:36.000Z</time>
      </trkpt>
      <trkpt lat="45.21611" lon="5.73238">
        <ele>955</ele>
        <time>2021-11-04T05:02:40.000Z</time>
      </trkpt>
      <trkpt lat="45.2161" lon="5.73237">
        <ele>955.20001220703</ele>
        <time>2021-11-04T05:02:41.000Z</time>
      </trkpt>
      <trkpt lat="45.2161" lon="5.73236">
        <ele>955.59997558594</ele>
        <time>2021-11-04T05:02:42.000Z</time>
      </trkpt>
      <trkpt lat="45.2161" lon="5.73235">
        <ele>956.20001220703</ele>
        <time>2021-11-04T05:02:44.000Z</time>
      </trkpt>
      <trkpt lat="45.21609" lon="5.73232">
        <ele>956.59997558594</ele>
        <time>2021-11-04T05:02:46.000Z</time>
      </trkpt>
      <trkpt lat="45.21607" lon="5.7323">
        <ele>957.20001220703</ele>
        <time>2021-11-04T05:02:49.000Z</time>
      </trkpt>
      <trkpt lat="45.21606" lon="5.73229">
        <ele>957.79998779297</ele>
        <time>2021-11-04T05:02:51.000Z</time>
      </trkpt>
      <trkpt lat="45.21606" lon="5.73227">
        <ele>958.40002441406</ele>
        <time>2021-11-04T05:02:53.000Z</time>
      </trkpt>
      <trkpt lat="45.21603" lon="5.73222">
        <ele>959.59997558594</ele>
        <time>2021-11-04T05:02:58.000Z</time>
      </trkpt>
      <trkpt lat="45.21602" lon="5.73221">
        <ele>960</ele>
        <time>2021-11-04T05:02:59.000Z</time>
      </trkpt>
      <trkpt lat="45.21597" lon="5.73215">
        <ele>960.59997558594</ele>
        <time>2021-11-04T05:03:04.000Z</time>
      </trkpt>
      <trkpt lat="45.21596" lon="5.73215">
        <ele>960.79998779297</ele>
        <time>2021-11-04T05:03:05.000Z</time>
      </trkpt>
      <trkpt lat="45.21593" lon="5.73209">
        <ele>961.20001220703</ele>
        <time>2021-11-04T05:03:08.000Z</time>
      </trkpt>
      <trkpt lat="45.21593" lon="5.73205">
        <ele>961.59997558594</ele>
        <time>2021-11-04T05:03:10.000Z</time>
      </trkpt>
      <trkpt lat="45.21591" lon="5.73203">
        <ele>961.79998779297</ele>
        <time>2021-11-04T05:03:11.000Z</time>
      </trkpt>
      <trkpt lat="45.21587" lon="5.73198">
        <ele>962.79998779297</ele>
        <time>2021-11-04T05:03:15.000Z</time>
      </trkpt>
      <trkpt lat="45.21583" lon="5.73196">
        <ele>963.59997558594</ele>
        <time>2021-11-04T05:03:18.000Z</time>
      </trkpt>
      <trkpt lat="45.2158" lon="5.73193">
        <ele>964</ele>
        <time>2021-11-04T05:03:20.000Z</time>
      </trkpt>
      <trkpt lat="45.21575" lon="5.73188">
        <ele>965</ele>
        <time>2021-11-04T05:03:24.000Z</time>
      </trkpt>
      <trkpt lat="45.21572" lon="5.73186">
        <ele>965.40002441406</ele>
        <time>2021-11-04T05:03:26.000Z</time>
      </trkpt>
      <trkpt lat="45.21571" lon="5.73184">
        <ele>966.20001220703</ele>
        <time>2021-11-04T05:03:28.000Z</time>
      </trkpt>
      <trkpt lat="45.21569" lon="5.7318">
        <ele>967.40002441406</ele>
        <time>2021-11-04T05:03:31.000Z</time>
      </trkpt>
      <trkpt lat="45.21568" lon="5.73177">
        <ele>967.59997558594</ele>
        <time>2021-11-04T05:03:33.000Z</time>
      </trkpt>
      <trkpt lat="45.21568" lon="5.73176">
        <ele>968.20001220703</ele>
        <time>2021-11-04T05:03:34.000Z</time>
      </trkpt>
      <trkpt lat="45.21568" lon="5.73176">
        <ele>968.59997558594</ele>
        <time>2021-11-04T05:03:35.000Z</time>
      </trkpt>
      <trkpt lat="45.21568" lon="5.73174">
        <ele>969.20001220703</ele>
        <time>2021-11-04T05:03:37.000Z</time>
      </trkpt>
      <trkpt lat="45.21568" lon="5.73173">
        <ele>969.40002441406</ele>
        <time>2021-11-04T05:03:38.000Z</time>
      </trkpt>
      <trkpt lat="45.21568" lon="5.73168">
        <ele>969.79998779297</ele>
        <time>2021-11-04T05:03:41.000Z</time>
      </trkpt>
      <trkpt lat="45.21568" lon="5.73167">
        <ele>970.40002441406</ele>
        <time>2021-11-04T05:03:42.000Z</time>
      </trkpt>
      <trkpt lat="45.21568" lon="5.73164">
        <ele>971</ele>
        <time>2021-11-04T05:03:44.000Z</time>
      </trkpt>
      <trkpt lat="45.21568" lon="5.73163">
        <ele>971.40002441406</ele>
        <time>2021-11-04T05:03:45.000Z</time>
      </trkpt>
      <trkpt lat="45.21568" lon="5.73161">
        <ele>972</ele>
        <time>2021-11-04T05:03:47.000Z</time>
      </trkpt>
      <trkpt lat="45.21568" lon="5.7316">
        <ele>972.40002441406</ele>
        <time>2021-11-04T05:03:48.000Z</time>
      </trkpt>
      <trkpt lat="45.2157" lon="5.7316">
        <ele>972.79998779297</ele>
        <time>2021-11-04T05:03:50.000Z</time>
      </trkpt>
      <trkpt lat="45.2157" lon="5.73159">
        <ele>973.20001220703</ele>
        <time>2021-11-04T05:03:51.000Z</time>
      </trkpt>
      <trkpt lat="45.21571" lon="5.73158">
        <ele>974.20001220703</ele>
        <time>2021-11-04T05:03:54.000Z</time>
      </trkpt>
      <trkpt lat="45.2157" lon="5.73156">
        <ele>974.79998779297</ele>
        <time>2021-11-04T05:03:56.000Z</time>
      </trkpt>
      <trkpt lat="45.2157" lon="5.73155">
        <ele>975</ele>
        <time>2021-11-04T05:03:57.000Z</time>
      </trkpt>
      <trkpt lat="45.2157" lon="5.73155">
        <ele>975.20001220703</ele>
        <time>2021-11-04T05:03:58.000Z</time>
      </trkpt>
      <trkpt lat="45.2157" lon="5.73154">
        <ele>975.59997558594</ele>
        <time>2021-11-04T05:03:59.000Z</time>
      </trkpt>
      <trkpt lat="45.2157" lon="5.73152">
        <ele>976.59997558594</ele>
        <time>2021-11-04T05:04:02.000Z</time>
      </trkpt>
      <trkpt lat="45.2157" lon="5.7315">
        <ele>977</ele>
        <time>2021-11-04T05:04:04.000Z</time>
      </trkpt>
      <trkpt lat="45.21571" lon="5.73146">
        <ele>977.79998779297</ele>
        <time>2021-11-04T05:04:08.000Z</time>
      </trkpt>
      <trkpt lat="45.21574" lon="5.73144">
        <ele>979</ele>
        <time>2021-11-04T05:04:13.000Z</time>
      </trkpt>
      <trkpt lat="45.21577" lon="5.73141">
        <ele>980.20001220703</ele>
        <time>2021-11-04T05:04:18.000Z</time>
      </trkpt>
      <trkpt lat="45.21577" lon="5.73141">
        <ele>980.79998779297</ele>
        <time>2021-11-04T05:04:19.000Z</time>
      </trkpt>
      <trkpt lat="45.21577" lon="5.7314">
        <ele>981</ele>
        <time>2021-11-04T05:04:20.000Z</time>
      </trkpt>
      <trkpt lat="45.21577" lon="5.7314">
        <ele>981.20001220703</ele>
        <time>2021-11-04T05:04:21.000Z</time>
      </trkpt>
      <trkpt lat="45.21575" lon="5.73138">
        <ele>981.79998779297</ele>
        <time>2021-11-04T05:04:24.000Z</time>
      </trkpt>
      <trkpt lat="45.21575" lon="5.73136">
        <ele>982.40002441406</ele>
        <time>2021-11-04T05:04:26.000Z</time>
      </trkpt>
      <trkpt lat="45.21574" lon="5.73131">
        <ele>983.59997558594</ele>
        <time>2021-11-04T05:04:30.000Z</time>
      </trkpt>
      <trkpt lat="45.21575" lon="5.7313">
        <ele>983.79998779297</ele>
        <time>2021-11-04T05:04:31.000Z</time>
      </trkpt>
      <trkpt lat="45.21576" lon="5.73125">
        <ele>984.59997558594</ele>
        <time>2021-11-04T05:04:35.000Z</time>
      </trkpt>
      <trkpt lat="45.21579" lon="5.73123">
        <ele>985.40002441406</ele>
        <time>2021-11-04T05:04:38.000Z</time>
      </trkpt>
      <trkpt lat="45.2158" lon="5.73122">
        <ele>985.59997558594</ele>
        <time>2021-11-04T05:04:39.000Z</time>
      </trkpt>
      <trkpt lat="45.21584" lon="5.73118">
        <ele>987</ele>
        <time>2021-11-04T05:04:44.000Z</time>
      </trkpt>
      <trkpt lat="45.2159" lon="5.73117">
        <ele>988.20001220703</ele>
        <time>2021-11-04T05:04:50.000Z</time>
      </trkpt>
      <trkpt lat="45.21591" lon="5.73117">
        <ele>988.40002441406</ele>
        <time>2021-11-04T05:04:51.000Z</time>
      </trkpt>
      <trkpt lat="45.21594" lon="5.73119">
        <ele>988.79998779297</ele>
        <time>2021-11-04T05:04:53.000Z</time>
      </trkpt>
      <trkpt lat="45.21597" lon="5.73122">
        <ele>989.40002441406</ele>
        <time>2021-11-04T05:04:56.000Z</time>
      </trkpt>
      <trkpt lat="45.21604" lon="5.73124">
        <ele>990.20001220703</ele>
        <time>2021-11-04T05:05:02.000Z</time>
      </trkpt>
      <trkpt lat="45.21606" lon="5.73124">
        <ele>990.40002441406</ele>
        <time>2021-11-04T05:05:03.000Z</time>
      </trkpt>
      <trkpt lat="45.2161" lon="5.73127">
        <ele>991.59997558594</ele>
        <time>2021-11-04T05:05:08.000Z</time>
      </trkpt>
      <trkpt lat="45.21614" lon="5.73129">
        <ele>992.59997558594</ele>
        <time>2021-11-04T05:05:11.000Z</time>
      </trkpt>
      <trkpt lat="45.21618" lon="5.73131">
        <ele>993.59997558594</ele>
        <time>2021-11-04T05:05:15.000Z</time>
      </trkpt>
      <trkpt lat="45.21623" lon="5.73134">
        <ele>994.59997558594</ele>
        <time>2021-11-04T05:05:19.000Z</time>
      </trkpt>
      <trkpt lat="45.21624" lon="5.73135">
        <ele>994.79998779297</ele>
        <time>2021-11-04T05:05:20.000Z</time>
      </trkpt>
      <trkpt lat="45.21625" lon="5.73135">
        <ele>995</ele>
        <time>2021-11-04T05:05:21.000Z</time>
      </trkpt>
      <trkpt lat="45.21628" lon="5.73135">
        <ele>995.79998779297</ele>
        <time>2021-11-04T05:05:24.000Z</time>
      </trkpt>
      <trkpt lat="45.21629" lon="5.73136">
        <ele>996</ele>
        <time>2021-11-04T05:05:25.000Z</time>
      </trkpt>
      <trkpt lat="45.21632" lon="5.73138">
        <ele>996.79998779297</ele>
        <time>2021-11-04T05:05:28.000Z</time>
      </trkpt>
      <trkpt lat="45.21633" lon="5.73137">
        <ele>997.40002441406</ele>
        <time>2021-11-04T05:05:30.000Z</time>
      </trkpt>
      <trkpt lat="45.21634" lon="5.73134">
        <ele>997.79998779297</ele>
        <time>2021-11-04T05:05:32.000Z</time>
      </trkpt>
      <trkpt lat="45.21635" lon="5.73134">
        <ele>998</ele>
        <time>2021-11-04T05:05:33.000Z</time>
      </trkpt>
      <trkpt lat="45.21636" lon="5.73132">
        <ele>999</ele>
        <time>2021-11-04T05:05:35.000Z</time>
      </trkpt>
      <trkpt lat="45.2164" lon="5.73132">
        <ele>999.79998779297</ele>
        <time>2021-11-04T05:05:39.000Z</time>
      </trkpt>
      <trkpt lat="45.21641" lon="5.73133">
        <ele>1000</ele>
        <time>2021-11-04T05:05:41.000Z</time>
      </trkpt>
      <trkpt lat="45.21642" lon="5.73133">
        <ele>1000.4000244141</ele>
        <time>2021-11-04T05:05:42.000Z</time>
      </trkpt>
      <trkpt lat="45.21645" lon="5.73133">
        <ele>1001</ele>
        <time>2021-11-04T05:05:44.000Z</time>
      </trkpt>
      <trkpt lat="45.21646" lon="5.73133">
        <ele>1001.200012207</ele>
        <time>2021-11-04T05:05:45.000Z</time>
      </trkpt>
      <trkpt lat="45.21648" lon="5.73133">
        <ele>1001.4000244141</ele>
        <time>2021-11-04T05:05:47.000Z</time>
      </trkpt>
      <trkpt lat="45.2165" lon="5.73134">
        <ele>1002.4000244141</ele>
        <time>2021-11-04T05:05:49.000Z</time>
      </trkpt>
      <trkpt lat="45.21651" lon="5.73134">
        <ele>1002.5999755859</ele>
        <time>2021-11-04T05:05:50.000Z</time>
      </trkpt>
      <trkpt lat="45.21655" lon="5.73134">
        <ele>1003</ele>
        <time>2021-11-04T05:05:53.000Z</time>
      </trkpt>
      <trkpt lat="45.21656" lon="5.73133">
        <ele>1003.4000244141</ele>
        <time>2021-11-04T05:05:54.000Z</time>
      </trkpt>
      <trkpt lat="45.21659" lon="5.73133">
        <ele>1004.4000244141</ele>
        <time>2021-11-04T05:05:58.000Z</time>
      </trkpt>
      <trkpt lat="45.21661" lon="5.73135">
        <ele>1005</ele>
        <time>2021-11-04T05:06:00.000Z</time>
      </trkpt>
      <trkpt lat="45.21661" lon="5.73136">
        <ele>1005.4000244141</ele>
        <time>2021-11-04T05:06:01.000Z</time>
      </trkpt>
      <trkpt lat="45.21663" lon="5.73137">
        <ele>1006</ele>
        <time>2021-11-04T05:06:03.000Z</time>
      </trkpt>
      <trkpt lat="45.21664" lon="5.73137">
        <ele>1006.4000244141</ele>
        <time>2021-11-04T05:06:05.000Z</time>
      </trkpt>
      <trkpt lat="45.21664" lon="5.73136">
        <ele>1006.799987793</ele>
        <time>2021-11-04T05:06:06.000Z</time>
      </trkpt>
      <trkpt lat="45.21665" lon="5.73136">
        <ele>1007</ele>
        <time>2021-11-04T05:06:07.000Z</time>
      </trkpt>
      <trkpt lat="45.21667" lon="5.73137">
        <ele>1007.5999755859</ele>
        <time>2021-11-04T05:06:10.000Z</time>
      </trkpt>
      <trkpt lat="45.21669" lon="5.73139">
        <ele>1008.4000244141</ele>
        <time>2021-11-04T05:06:13.000Z</time>
      </trkpt>
      <trkpt lat="45.21669" lon="5.73139">
        <ele>1008.799987793</ele>
        <time>2021-11-04T05:06:14.000Z</time>
      </trkpt>
      <trkpt lat="45.2167" lon="5.7314">
        <ele>1009</ele>
        <time>2021-11-04T05:06:15.000Z</time>
      </trkpt>
      <trkpt lat="45.21671" lon="5.73144">
        <ele>1009.799987793</ele>
        <time>2021-11-04T05:06:19.000Z</time>
      </trkpt>
      <trkpt lat="45.21673" lon="5.73147">
        <ele>1011.200012207</ele>
        <time>2021-11-04T05:06:23.000Z</time>
      </trkpt>
      <trkpt lat="45.21673" lon="5.73148">
        <ele>1011.4000244141</ele>
        <time>2021-11-04T05:06:24.000Z</time>
      </trkpt>
      <trkpt lat="45.21674" lon="5.73149">
        <ele>1011.5999755859</ele>
        <time>2021-11-04T05:06:25.000Z</time>
      </trkpt>
      <trkpt lat="45.21674" lon="5.7315">
        <ele>1012</ele>
        <time>2021-11-04T05:06:26.000Z</time>
      </trkpt>
      <trkpt lat="45.21675" lon="5.73151">
        <ele>1012.200012207</ele>
        <time>2021-11-04T05:06:27.000Z</time>
      </trkpt>
      <trkpt lat="45.21676" lon="5.73152">
        <ele>1012.5999755859</ele>
        <time>2021-11-04T05:06:28.000Z</time>
      </trkpt>
      <trkpt lat="45.21677" lon="5.73155">
        <ele>1013.200012207</ele>
        <time>2021-11-04T05:06:31.000Z</time>
      </trkpt>
      <trkpt lat="45.21678" lon="5.73155">
        <ele>1013.200012207</ele>
        <time>2021-11-04T05:06:32.000Z</time>
      </trkpt>
      <trkpt lat="45.21678" lon="5.73156">
        <ele>1013.4000244141</ele>
        <time>2021-11-04T05:06:33.000Z</time>
      </trkpt>
      <trkpt lat="45.21677" lon="5.73158">
        <ele>1013.4000244141</ele>
        <time>2021-11-04T05:06:35.000Z</time>
      </trkpt>
      <trkpt lat="45.21678" lon="5.73162">
        <ele>1014.4000244141</ele>
        <time>2021-11-04T05:06:38.000Z</time>
      </trkpt>
      <trkpt lat="45.21679" lon="5.73164">
        <ele>1014.799987793</ele>
        <time>2021-11-04T05:06:40.000Z</time>
      </trkpt>
      <trkpt lat="45.21682" lon="5.73166">
        <ele>1015.4000244141</ele>
        <time>2021-11-04T05:06:42.000Z</time>
      </trkpt>
      <trkpt lat="45.21683" lon="5.73168">
        <ele>1015.5999755859</ele>
        <time>2021-11-04T05:06:43.000Z</time>
      </trkpt>
      <trkpt lat="45.21683" lon="5.73169">
        <ele>1015.799987793</ele>
        <time>2021-11-04T05:06:44.000Z</time>
      </trkpt>
      <trkpt lat="45.21684" lon="5.73168">
        <ele>1016.4000244141</ele>
        <time>2021-11-04T05:06:45.000Z</time>
      </trkpt>
      <trkpt lat="45.21687" lon="5.73171">
        <ele>1017.200012207</ele>
        <time>2021-11-04T05:06:48.000Z</time>
      </trkpt>
      <trkpt lat="45.21687" lon="5.73172">
        <ele>1017.4000244141</ele>
        <time>2021-11-04T05:06:49.000Z</time>
      </trkpt>
      <trkpt lat="45.2169" lon="5.73176">
        <ele>1018.4000244141</ele>
        <time>2021-11-04T05:06:53.000Z</time>
      </trkpt>
      <trkpt lat="45.21692" lon="5.73179">
        <ele>1019</ele>
        <time>2021-11-04T05:06:55.000Z</time>
      </trkpt>
      <trkpt lat="45.21693" lon="5.73183">
        <ele>1019.4000244141</ele>
        <time>2021-11-04T05:06:58.000Z</time>
      </trkpt>
      <trkpt lat="45.21694" lon="5.73185">
        <ele>1019.5999755859</ele>
        <time>2021-11-04T05:06:59.000Z</time>
      </trkpt>
      <trkpt lat="45.217" lon="5.73194">
        <ele>1020.4000244141</ele>
        <time>2021-11-04T05:07:05.000Z</time>
      </trkpt>
      <trkpt lat="45.21701" lon="5.73196">
        <ele>1020.5999755859</ele>
        <time>2021-11-04T05:07:06.000Z</time>
      </trkpt>
      <trkpt lat="45.21702" lon="5.73197">
        <ele>1020.5999755859</ele>
        <time>2021-11-04T05:07:07.000Z</time>
      </trkpt>
      <trkpt lat="45.21704" lon="5.732">
        <ele>1021</ele>
        <time>2021-11-04T05:07:10.000Z</time>
      </trkpt>
      <trkpt lat="45.21706" lon="5.73203">
        <ele>1021</ele>
        <time>2021-11-04T05:07:12.000Z</time>
      </trkpt>
      <trkpt lat="45.21714" lon="5.73211">
        <ele>1021.4000244141</ele>
        <time>2021-11-04T05:07:19.000Z</time>
      </trkpt>
      <trkpt lat="45.21716" lon="5.73215">
        <ele>1021.5999755859</ele>
        <time>2021-11-04T05:07:22.000Z</time>
      </trkpt>
      <trkpt lat="45.21717" lon="5.73217">
        <ele>1022</ele>
        <time>2021-11-04T05:07:24.000Z</time>
      </trkpt>
      <trkpt lat="45.21718" lon="5.73217">
        <ele>1022.200012207</ele>
        <time>2021-11-04T05:07:25.000Z</time>
      </trkpt>
      <trkpt lat="45.2172" lon="5.73216">
        <ele>1023</ele>
        <time>2021-11-04T05:07:28.000Z</time>
      </trkpt>
      <trkpt lat="45.21721" lon="5.73217">
        <ele>1023.799987793</ele>
        <time>2021-11-04T05:07:30.000Z</time>
      </trkpt>
      <trkpt lat="45.21722" lon="5.73216">
        <ele>1024</ele>
        <time>2021-11-04T05:07:31.000Z</time>
      </trkpt>
      <trkpt lat="45.21724" lon="5.73216">
        <ele>1024.5999755859</ele>
        <time>2021-11-04T05:07:33.000Z</time>
      </trkpt>
      <trkpt lat="45.21725" lon="5.73214">
        <ele>1025.1999511719</ele>
        <time>2021-11-04T05:07:35.000Z</time>
      </trkpt>
      <trkpt lat="45.21726" lon="5.73213">
        <ele>1025.4000244141</ele>
        <time>2021-11-04T05:07:36.000Z</time>
      </trkpt>
      <trkpt lat="45.21728" lon="5.73212">
        <ele>1025.5999755859</ele>
        <time>2021-11-04T05:07:38.000Z</time>
      </trkpt>
      <trkpt lat="45.2173" lon="5.73211">
        <ele>1025.8000488281</ele>
        <time>2021-11-04T05:07:40.000Z</time>
      </trkpt>
      <trkpt lat="45.21732" lon="5.73208">
        <ele>1026.5999755859</ele>
        <time>2021-11-04T05:07:42.000Z</time>
      </trkpt>
      <trkpt lat="45.21734" lon="5.73205">
        <ele>1027</ele>
        <time>2021-11-04T05:07:44.000Z</time>
      </trkpt>
      <trkpt lat="45.21737" lon="5.73204">
        <ele>1027.1999511719</ele>
        <time>2021-11-04T05:07:46.000Z</time>
      </trkpt>
      <trkpt lat="45.21744" lon="5.73201">
        <ele>1027.4000244141</ele>
        <time>2021-11-04T05:07:53.000Z</time>
      </trkpt>
      <trkpt lat="45.21748" lon="5.73201">
        <ele>1026.5999755859</ele>
        <time>2021-11-04T05:07:56.000Z</time>
      </trkpt>
      <trkpt lat="45.21754" lon="5.73206">
        <ele>1025.8000488281</ele>
        <time>2021-11-04T05:08:01.000Z</time>
      </trkpt>
      <trkpt lat="45.21755" lon="5.73208">
        <ele>1026</ele>
        <time>2021-11-04T05:08:03.000Z</time>
      </trkpt>
      <trkpt lat="45.21755" lon="5.73209">
        <ele>1026.4000244141</ele>
        <time>2021-11-04T05:08:05.000Z</time>
      </trkpt>
      <trkpt lat="45.21755" lon="5.7321">
        <ele>1026.5999755859</ele>
        <time>2021-11-04T05:08:06.000Z</time>
      </trkpt>
      <trkpt lat="45.21755" lon="5.73211">
        <ele>1026.8000488281</ele>
        <time>2021-11-04T05:08:07.000Z</time>
      </trkpt>
      <trkpt lat="45.21755" lon="5.73214">
        <ele>1027.8000488281</ele>
        <time>2021-11-04T05:08:10.000Z</time>
      </trkpt>
      <trkpt lat="45.21756" lon="5.73215">
        <ele>1028.1999511719</ele>
        <time>2021-11-04T05:08:11.000Z</time>
      </trkpt>
      <trkpt lat="45.21757" lon="5.73217">
        <ele>1028.8000488281</ele>
        <time>2021-11-04T05:08:14.000Z</time>
      </trkpt>
      <trkpt lat="45.2176" lon="5.7322">
        <ele>1029.5999755859</ele>
        <time>2021-11-04T05:08:17.000Z</time>
      </trkpt>
      <trkpt lat="45.21761" lon="5.73222">
        <ele>1029.5999755859</ele>
        <time>2021-11-04T05:08:19.000Z</time>
      </trkpt>
      <trkpt lat="45.21763" lon="5.73226">
        <ele>1029.8000488281</ele>
        <time>2021-11-04T05:08:22.000Z</time>
      </trkpt>
      <trkpt lat="45.21764" lon="5.73227">
        <ele>1029.8000488281</ele>
        <time>2021-11-04T05:08:23.000Z</time>
      </trkpt>
      <trkpt lat="45.21766" lon="5.7323">
        <ele>1029.8000488281</ele>
        <time>2021-11-04T05:08:25.000Z</time>
      </trkpt>
      <trkpt lat="45.21775" lon="5.73237">
        <ele>1029.4000244141</ele>
        <time>2021-11-04T05:08:33.000Z</time>
      </trkpt>
      <trkpt lat="45.21776" lon="5.73239">
        <ele>1029.5999755859</ele>
        <time>2021-11-04T05:08:34.000Z</time>
      </trkpt>
      <trkpt lat="45.21776" lon="5.7324">
        <ele>1030.1999511719</ele>
        <time>2021-11-04T05:08:36.000Z</time>
      </trkpt>
      <trkpt lat="45.21777" lon="5.73243">
        <ele>1030.5999755859</ele>
        <time>2021-11-04T05:08:38.000Z</time>
      </trkpt>
      <trkpt lat="45.21779" lon="5.73247">
        <ele>1031</ele>
        <time>2021-11-04T05:08:40.000Z</time>
      </trkpt>
      <trkpt lat="45.21779" lon="5.73248">
        <ele>1031.1999511719</ele>
        <time>2021-11-04T05:08:41.000Z</time>
      </trkpt>
      <trkpt lat="45.21781" lon="5.73251">
        <ele>1032</ele>
        <time>2021-11-04T05:08:44.000Z</time>
      </trkpt>
      <trkpt lat="45.21783" lon="5.73251">
        <ele>1032.4000244141</ele>
        <time>2021-11-04T05:08:45.000Z</time>
      </trkpt>
      <trkpt lat="45.21784" lon="5.73255">
        <ele>1033</ele>
        <time>2021-11-04T05:08:47.000Z</time>
      </trkpt>
      <trkpt lat="45.21783" lon="5.73259">
        <ele>1033.4000244141</ele>
        <time>2021-11-04T05:08:49.000Z</time>
      </trkpt>
      <trkpt lat="45.21779" lon="5.73263">
        <ele>1034.1999511719</ele>
        <time>2021-11-04T05:08:53.000Z</time>
      </trkpt>
      <trkpt lat="45.21779" lon="5.73265">
        <ele>1034.5999755859</ele>
        <time>2021-11-04T05:08:55.000Z</time>
      </trkpt>
      <trkpt lat="45.21782" lon="5.73273">
        <ele>1035.1999511719</ele>
        <time>2021-11-04T05:09:00.000Z</time>
      </trkpt>
      <trkpt lat="45.21784" lon="5.73274">
        <ele>1035.5999755859</ele>
        <time>2021-11-04T05:09:02.000Z</time>
      </trkpt>
      <trkpt lat="45.21785" lon="5.73275">
        <ele>1035.5999755859</ele>
        <time>2021-11-04T05:09:03.000Z</time>
      </trkpt>
      <trkpt lat="45.21789" lon="5.73277">
        <ele>1036.8000488281</ele>
        <time>2021-11-04T05:09:06.000Z</time>
      </trkpt>
      <trkpt lat="45.21796" lon="5.73282">
        <ele>1037.8000488281</ele>
        <time>2021-11-04T05:09:12.000Z</time>
      </trkpt>
      <trkpt lat="45.21803" lon="5.73291">
        <ele>1039</ele>
        <time>2021-11-04T05:09:18.000Z</time>
      </trkpt>
      <trkpt lat="45.21805" lon="5.73293">
        <ele>1039.4000244141</ele>
        <time>2021-11-04T05:09:20.000Z</time>
      </trkpt>
      <trkpt lat="45.2181" lon="5.73301">
        <ele>1040.1999511719</ele>
        <time>2021-11-04T05:09:25.000Z</time>
      </trkpt>
      <trkpt lat="45.21811" lon="5.73304">
        <ele>1040.4000244141</ele>
        <time>2021-11-04T05:09:27.000Z</time>
      </trkpt>
      <trkpt lat="45.21812" lon="5.73305">
        <ele>1040.8000488281</ele>
        <time>2021-11-04T05:09:28.000Z</time>
      </trkpt>
      <trkpt lat="45.21816" lon="5.73307">
        <ele>1041.4000244141</ele>
        <time>2021-11-04T05:09:31.000Z</time>
      </trkpt>
      <trkpt lat="45.21819" lon="5.73309">
        <ele>1041.5999755859</ele>
        <time>2021-11-04T05:09:33.000Z</time>
      </trkpt>
      <trkpt lat="45.21821" lon="5.7331">
        <ele>1041.8000488281</ele>
        <time>2021-11-04T05:09:35.000Z</time>
      </trkpt>
      <trkpt lat="45.21823" lon="5.73312">
        <ele>1042.5999755859</ele>
        <time>2021-11-04T05:09:37.000Z</time>
      </trkpt>
      <trkpt lat="45.21824" lon="5.73313">
        <ele>1042.8000488281</ele>
        <time>2021-11-04T05:09:38.000Z</time>
      </trkpt>
      <trkpt lat="45.21825" lon="5.73315">
        <ele>1043.1999511719</ele>
        <time>2021-11-04T05:09:40.000Z</time>
      </trkpt>
      <trkpt lat="45.21827" lon="5.73317">
        <ele>1043.5999755859</ele>
        <time>2021-11-04T05:09:43.000Z</time>
      </trkpt>
      <trkpt lat="45.21828" lon="5.73318">
        <ele>1043.8000488281</ele>
        <time>2021-11-04T05:09:44.000Z</time>
      </trkpt>
      <trkpt lat="45.21829" lon="5.73322">
        <ele>1044.5999755859</ele>
        <time>2021-11-04T05:09:47.000Z</time>
      </trkpt>
      <trkpt lat="45.21832" lon="5.73326">
        <ele>1045.1999511719</ele>
        <time>2021-11-04T05:09:50.000Z</time>
      </trkpt>
      <trkpt lat="45.21838" lon="5.73332">
        <ele>1045.8000488281</ele>
        <time>2021-11-04T05:09:55.000Z</time>
      </trkpt>
      <trkpt lat="45.21844" lon="5.73338">
        <ele>1046</ele>
        <time>2021-11-04T05:09:59.000Z</time>
      </trkpt>
      <trkpt lat="45.21845" lon="5.7334">
        <ele>1046.1999511719</ele>
        <time>2021-11-04T05:10:00.000Z</time>
      </trkpt>
      <trkpt lat="45.21845" lon="5.73347">
        <ele>1046.5999755859</ele>
        <time>2021-11-04T05:10:04.000Z</time>
      </trkpt>
      <trkpt lat="45.21845" lon="5.73348">
        <ele>1046.4000244141</ele>
        <time>2021-11-04T05:10:05.000Z</time>
      </trkpt>
      <trkpt lat="45.21844" lon="5.73351">
        <ele>1046</ele>
        <time>2021-11-04T05:10:08.000Z</time>
      </trkpt>
      <trkpt lat="45.21844" lon="5.73351">
        <ele>1046</ele>
        <time>2021-11-04T05:10:10.000Z</time>
      </trkpt>
      <trkpt lat="45.21844" lon="5.7335">
        <ele>1046</ele>
        <time>2021-11-04T05:10:11.000Z</time>
      </trkpt>
      <trkpt lat="45.21846" lon="5.73344">
        <ele>1046</ele>
        <time>2021-11-04T05:10:16.000Z</time>
      </trkpt>
      <trkpt lat="45.21847" lon="5.73343">
        <ele>1046</ele>
        <time>2021-11-04T05:10:17.000Z</time>
      </trkpt>
      <trkpt lat="45.21849" lon="5.73343">
        <ele>1046.5999755859</ele>
        <time>2021-11-04T05:10:21.000Z</time>
      </trkpt>
      <trkpt lat="45.21849" lon="5.73343">
        <ele>1046.5999755859</ele>
        <time>2021-11-04T05:10:22.000Z</time>
      </trkpt>
      <trkpt lat="45.21849" lon="5.73343">
        <ele>1046.8000488281</ele>
        <time>2021-11-04T05:10:23.000Z</time>
      </trkpt>
      <trkpt lat="45.21849" lon="5.73344">
        <ele>1047.4000244141</ele>
        <time>2021-11-04T05:10:30.000Z</time>
      </trkpt>
      <trkpt lat="45.21845" lon="5.7334">
        <ele>1045.8000488281</ele>
        <time>2021-11-04T05:10:38.000Z</time>
      </trkpt>
      <trkpt lat="45.21843" lon="5.73338">
        <ele>1045.5999755859</ele>
        <time>2021-11-04T05:10:39.000Z</time>
      </trkpt>
      <trkpt lat="45.2184" lon="5.73335">
        <ele>1045.5999755859</ele>
        <time>2021-11-04T05:10:41.000Z</time>
      </trkpt>
      <trkpt lat="45.21836" lon="5.73332">
        <ele>1045.4000244141</ele>
        <time>2021-11-04T05:10:44.000Z</time>
      </trkpt>
      <trkpt lat="45.21832" lon="5.73328">
        <ele>1044.8000488281</ele>
        <time>2021-11-04T05:10:47.000Z</time>
      </trkpt>
      <trkpt lat="45.2183" lon="5.73326">
        <ele>1044.5999755859</ele>
        <time>2021-11-04T05:10:49.000Z</time>
      </trkpt>
      <trkpt lat="45.21827" lon="5.73323">
        <ele>1044.1999511719</ele>
        <time>2021-11-04T05:10:51.000Z</time>
      </trkpt>
      <trkpt lat="45.21825" lon="5.7332">
        <ele>1043.4000244141</ele>
        <time>2021-11-04T05:10:54.000Z</time>
      </trkpt>
      <trkpt lat="45.21822" lon="5.73317">
        <ele>1042.4000244141</ele>
        <time>2021-11-04T05:10:58.000Z</time>
      </trkpt>
      <trkpt lat="45.21821" lon="5.73317">
        <ele>1042</ele>
        <time>2021-11-04T05:10:59.000Z</time>
      </trkpt>
      <trkpt lat="45.21817" lon="5.73314">
        <ele>1041.4000244141</ele>
        <time>2021-11-04T05:11:02.000Z</time>
      </trkpt>
      <trkpt lat="45.21811" lon="5.73311">
        <ele>1040.4000244141</ele>
        <time>2021-11-04T05:11:06.000Z</time>
      </trkpt>
      <trkpt lat="45.2181" lon="5.73309">
        <ele>1040.1999511719</ele>
        <time>2021-11-04T05:11:07.000Z</time>
      </trkpt>
      <trkpt lat="45.21807" lon="5.73301">
        <ele>1039.1999511719</ele>
        <time>2021-11-04T05:11:11.000Z</time>
      </trkpt>
      <trkpt lat="45.21806" lon="5.73299">
        <ele>1039</ele>
        <time>2021-11-04T05:11:12.000Z</time>
      </trkpt>
      <trkpt lat="45.21799" lon="5.73294">
        <ele>1038</ele>
        <time>2021-11-04T05:11:17.000Z</time>
      </trkpt>
      <trkpt lat="45.21797" lon="5.73291">
        <ele>1037.5999755859</ele>
        <time>2021-11-04T05:11:19.000Z</time>
      </trkpt>
      <trkpt lat="45.21796" lon="5.73288">
        <ele>1037.1999511719</ele>
        <time>2021-11-04T05:11:21.000Z</time>
      </trkpt>
      <trkpt lat="45.21793" lon="5.73286">
        <ele>1036.5999755859</ele>
        <time>2021-11-04T05:11:23.000Z</time>
      </trkpt>
      <trkpt lat="45.21792" lon="5.73285">
        <ele>1036.4000244141</ele>
        <time>2021-11-04T05:11:24.000Z</time>
      </trkpt>
      <trkpt lat="45.2179" lon="5.73283">
        <ele>1036</ele>
        <time>2021-11-04T05:11:26.000Z</time>
      </trkpt>
      <trkpt lat="45.21789" lon="5.73282">
        <ele>1035.5999755859</ele>
        <time>2021-11-04T05:11:27.000Z</time>
      </trkpt>
      <trkpt lat="45.21786" lon="5.73278">
        <ele>1035.1999511719</ele>
        <time>2021-11-04T05:11:30.000Z</time>
      </trkpt>
      <trkpt lat="45.21785" lon="5.73278">
        <ele>1034.4000244141</ele>
        <time>2021-11-04T05:11:32.000Z</time>
      </trkpt>
      <trkpt lat="45.21783" lon="5.73277">
        <ele>1033.8000488281</ele>
        <time>2021-11-04T05:11:34.000Z</time>
      </trkpt>
      <trkpt lat="45.21782" lon="5.73275">
        <ele>1033.4000244141</ele>
        <time>2021-11-04T05:11:35.000Z</time>
      </trkpt>
      <trkpt lat="45.21781" lon="5.73273">
        <ele>1033.1999511719</ele>
        <time>2021-11-04T05:11:36.000Z</time>
      </trkpt>
      <trkpt lat="45.21781" lon="5.73272">
        <ele>1033.1999511719</ele>
        <time>2021-11-04T05:11:37.000Z</time>
      </trkpt>
      <trkpt lat="45.21783" lon="5.73268">
        <ele>1032.8000488281</ele>
        <time>2021-11-04T05:11:40.000Z</time>
      </trkpt>
      <trkpt lat="45.21785" lon="5.73265">
        <ele>1032.1999511719</ele>
        <time>2021-11-04T05:11:43.000Z</time>
      </trkpt>
      <trkpt lat="45.21785" lon="5.73264">
        <ele>1032</ele>
        <time>2021-11-04T05:11:44.000Z</time>
      </trkpt>
      <trkpt lat="45.21785" lon="5.73262">
        <ele>1031.8000488281</ele>
        <time>2021-11-04T05:11:45.000Z</time>
      </trkpt>
      <trkpt lat="45.21784" lon="5.73261">
        <ele>1031.5999755859</ele>
        <time>2021-11-04T05:11:46.000Z</time>
      </trkpt>
      <trkpt lat="45.21781" lon="5.73255">
        <ele>1031</ele>
        <time>2021-11-04T05:11:50.000Z</time>
      </trkpt>
      <trkpt lat="45.21779" lon="5.73252">
        <ele>1030</ele>
        <time>2021-11-04T05:11:52.000Z</time>
      </trkpt>
      <trkpt lat="45.21779" lon="5.73251">
        <ele>1029.5999755859</ele>
        <time>2021-11-04T05:11:53.000Z</time>
      </trkpt>
      <trkpt lat="45.21778" lon="5.73247">
        <ele>1029.1999511719</ele>
        <time>2021-11-04T05:11:55.000Z</time>
      </trkpt>
      <trkpt lat="45.21777" lon="5.73244">
        <ele>1028.5999755859</ele>
        <time>2021-11-04T05:11:57.000Z</time>
      </trkpt>
      <trkpt lat="45.21776" lon="5.73243">
        <ele>1028.4000244141</ele>
        <time>2021-11-04T05:11:58.000Z</time>
      </trkpt>
      <trkpt lat="45.21773" lon="5.73237">
        <ele>1027.5999755859</ele>
        <time>2021-11-04T05:12:02.000Z</time>
      </trkpt>
      <trkpt lat="45.21772" lon="5.73237">
        <ele>1027.5999755859</ele>
        <time>2021-11-04T05:12:03.000Z</time>
      </trkpt>
      <trkpt lat="45.21768" lon="5.73234">
        <ele>1027.4000244141</ele>
        <time>2021-11-04T05:12:06.000Z</time>
      </trkpt>
      <trkpt lat="45.21765" lon="5.7323">
        <ele>1027.4000244141</ele>
        <time>2021-11-04T05:12:09.000Z</time>
      </trkpt>
      <trkpt lat="45.21764" lon="5.73228">
        <ele>1027.1999511719</ele>
        <time>2021-11-04T05:12:11.000Z</time>
      </trkpt>
      <trkpt lat="45.21763" lon="5.73227">
        <ele>1027.1999511719</ele>
        <time>2021-11-04T05:12:12.000Z</time>
      </trkpt>
      <trkpt lat="45.21761" lon="5.73223">
        <ele>1027.1999511719</ele>
        <time>2021-11-04T05:12:15.000Z</time>
      </trkpt>
      <trkpt lat="45.21759" lon="5.73219">
        <ele>1026.1999511719</ele>
        <time>2021-11-04T05:12:20.000Z</time>
      </trkpt>
      <trkpt lat="45.21758" lon="5.73217">
        <ele>1025.5999755859</ele>
        <time>2021-11-04T05:12:22.000Z</time>
      </trkpt>
      <trkpt lat="45.21758" lon="5.73216">
        <ele>1025.4000244141</ele>
        <time>2021-11-04T05:12:23.000Z</time>
      </trkpt>
      <trkpt lat="45.21758" lon="5.73214">
        <ele>1024.8000488281</ele>
        <time>2021-11-04T05:12:25.000Z</time>
      </trkpt>
      <trkpt lat="45.21755" lon="5.73211">
        <ele>1023.799987793</ele>
        <time>2021-11-04T05:12:28.000Z</time>
      </trkpt>
      <trkpt lat="45.21754" lon="5.7321">
        <ele>1023.5999755859</ele>
        <time>2021-11-04T05:12:29.000Z</time>
      </trkpt>
      <trkpt lat="45.21747" lon="5.73203">
        <ele>1023.200012207</ele>
        <time>2021-11-04T05:12:35.000Z</time>
      </trkpt>
      <trkpt lat="45.21745" lon="5.73204">
        <ele>1023.4000244141</ele>
        <time>2021-11-04T05:12:36.000Z</time>
      </trkpt>
      <trkpt lat="45.21739" lon="5.73207">
        <ele>1024.5999755859</ele>
        <time>2021-11-04T05:12:43.000Z</time>
      </trkpt>
      <trkpt lat="45.21736" lon="5.73211">
        <ele>1024.1999511719</ele>
        <time>2021-11-04T05:12:47.000Z</time>
      </trkpt>
      <trkpt lat="45.21735" lon="5.73212">
        <ele>1024.1999511719</ele>
        <time>2021-11-04T05:12:49.000Z</time>
      </trkpt>
      <trkpt lat="45.21733" lon="5.73214">
        <ele>1023.799987793</ele>
        <time>2021-11-04T05:12:52.000Z</time>
      </trkpt>
      <trkpt lat="45.21732" lon="5.73214">
        <ele>1023.5999755859</ele>
        <time>2021-11-04T05:12:53.000Z</time>
      </trkpt>
      <trkpt lat="45.21732" lon="5.73216">
        <ele>1023.4000244141</ele>
        <time>2021-11-04T05:12:55.000Z</time>
      </trkpt>
      <trkpt lat="45.2173" lon="5.73218">
        <ele>1022.799987793</ele>
        <time>2021-11-04T05:12:57.000Z</time>
      </trkpt>
      <trkpt lat="45.21729" lon="5.7322">
        <ele>1022</ele>
        <time>2021-11-04T05:12:59.000Z</time>
      </trkpt>
      <trkpt lat="45.21728" lon="5.73221">
        <ele>1021.5999755859</ele>
        <time>2021-11-04T05:13:01.000Z</time>
      </trkpt>
      <trkpt lat="45.21728" lon="5.73221">
        <ele>1021.200012207</ele>
        <time>2021-11-04T05:13:02.000Z</time>
      </trkpt>
      <trkpt lat="45.21727" lon="5.73222">
        <ele>1021</ele>
        <time>2021-11-04T05:13:03.000Z</time>
      </trkpt>
      <trkpt lat="45.21725" lon="5.73221">
        <ele>1020.5999755859</ele>
        <time>2021-11-04T05:13:05.000Z</time>
      </trkpt>
      <trkpt lat="45.21724" lon="5.73219">
        <ele>1020.4000244141</ele>
        <time>2021-11-04T05:13:06.000Z</time>
      </trkpt>
      <trkpt lat="45.21724" lon="5.73219">
        <ele>1020</ele>
        <time>2021-11-04T05:13:07.000Z</time>
      </trkpt>
      <trkpt lat="45.21723" lon="5.73218">
        <ele>1019.799987793</ele>
        <time>2021-11-04T05:13:08.000Z</time>
      </trkpt>
      <trkpt lat="45.2172" lon="5.73221">
        <ele>1019.200012207</ele>
        <time>2021-11-04T05:13:11.000Z</time>
      </trkpt>
      <trkpt lat="45.21719" lon="5.73223">
        <ele>1018.799987793</ele>
        <time>2021-11-04T05:13:12.000Z</time>
      </trkpt>
      <trkpt lat="45.21718" lon="5.73223">
        <ele>1018.5999755859</ele>
        <time>2021-11-04T05:13:13.000Z</time>
      </trkpt>
      <trkpt lat="45.21718" lon="5.73223">
        <ele>1018.200012207</ele>
        <time>2021-11-04T05:13:14.000Z</time>
      </trkpt>
      <trkpt lat="45.21718" lon="5.73222">
        <ele>1018</ele>
        <time>2021-11-04T05:13:15.000Z</time>
      </trkpt>
      <trkpt lat="45.21718" lon="5.73219">
        <ele>1018</ele>
        <time>2021-11-04T05:13:17.000Z</time>
      </trkpt>
      <trkpt lat="45.21717" lon="5.73215">
        <ele>1018</ele>
        <time>2021-11-04T05:13:19.000Z</time>
      </trkpt>
      <trkpt lat="45.21713" lon="5.73212">
        <ele>1018</ele>
        <time>2021-11-04T05:13:21.000Z</time>
      </trkpt>
      <trkpt lat="45.2171" lon="5.73207">
        <ele>1018</ele>
        <time>2021-11-04T05:13:24.000Z</time>
      </trkpt>
      <trkpt lat="45.21709" lon="5.73204">
        <ele>1018</ele>
        <time>2021-11-04T05:13:26.000Z</time>
      </trkpt>
      <trkpt lat="45.21708" lon="5.73203">
        <ele>1017.799987793</ele>
        <time>2021-11-04T05:13:27.000Z</time>
      </trkpt>
      <trkpt lat="45.21705" lon="5.73197">
        <ele>1017.4000244141</ele>
        <time>2021-11-04T05:13:31.000Z</time>
      </trkpt>
      <trkpt lat="45.21702" lon="5.73194">
        <ele>1017.200012207</ele>
        <time>2021-11-04T05:13:33.000Z</time>
      </trkpt>
      <trkpt lat="45.21697" lon="5.73184">
        <ele>1016.4000244141</ele>
        <time>2021-11-04T05:13:39.000Z</time>
      </trkpt>
      <trkpt lat="45.21696" lon="5.73181">
        <ele>1016.200012207</ele>
        <time>2021-11-04T05:13:41.000Z</time>
      </trkpt>
      <trkpt lat="45.21693" lon="5.73178">
        <ele>1015</ele>
        <time>2021-11-04T05:13:44.000Z</time>
      </trkpt>
      <trkpt lat="45.21691" lon="5.73175">
        <ele>1014.200012207</ele>
        <time>2021-11-04T05:13:46.000Z</time>
      </trkpt>
      <trkpt lat="45.2169" lon="5.73173">
        <ele>1013.799987793</ele>
        <time>2021-11-04T05:13:48.000Z</time>
      </trkpt>
      <trkpt lat="45.21689" lon="5.73172">
        <ele>1013.5999755859</ele>
        <time>2021-11-04T05:13:49.000Z</time>
      </trkpt>
      <trkpt lat="45.21688" lon="5.7317">
        <ele>1013</ele>
        <time>2021-11-04T05:13:51.000Z</time>
      </trkpt>
      <trkpt lat="45.21686" lon="5.73169">
        <ele>1012.799987793</ele>
        <time>2021-11-04T05:13:53.000Z</time>
      </trkpt>
      <trkpt lat="45.21684" lon="5.73166">
        <ele>1011.5999755859</ele>
        <time>2021-11-04T05:13:56.000Z</time>
      </trkpt>
      <trkpt lat="45.21683" lon="5.73164">
        <ele>1011</ele>
        <time>2021-11-04T05:13:58.000Z</time>
      </trkpt>
      <trkpt lat="45.21682" lon="5.73162">
        <ele>1010.4000244141</ele>
        <time>2021-11-04T05:14:00.000Z</time>
      </trkpt>
      <trkpt lat="45.2168" lon="5.73158">
        <ele>1009.200012207</ele>
        <time>2021-11-04T05:14:03.000Z</time>
      </trkpt>
      <trkpt lat="45.2168" lon="5.73157">
        <ele>1009</ele>
        <time>2021-11-04T05:14:04.000Z</time>
      </trkpt>
      <trkpt lat="45.21678" lon="5.73152">
        <ele>1008.200012207</ele>
        <time>2021-11-04T05:14:08.000Z</time>
      </trkpt>
      <trkpt lat="45.21677" lon="5.7315">
        <ele>1007</ele>
        <time>2021-11-04T05:14:11.000Z</time>
      </trkpt>
      <trkpt lat="45.21674" lon="5.73145">
        <ele>1005.5999755859</ele>
        <time>2021-11-04T05:14:16.000Z</time>
      </trkpt>
      <trkpt lat="45.21674" lon="5.73145">
        <ele>1005.200012207</ele>
        <time>2021-11-04T05:14:17.000Z</time>
      </trkpt>
      <trkpt lat="45.21673" lon="5.73145">
        <ele>1005</ele>
        <time>2021-11-04T05:14:18.000Z</time>
      </trkpt>
      <trkpt lat="45.21672" lon="5.73145">
        <ele>1004.200012207</ele>
        <time>2021-11-04T05:14:20.000Z</time>
      </trkpt>
      <trkpt lat="45.21669" lon="5.73146">
        <ele>1003.4000244141</ele>
        <time>2021-11-04T05:14:23.000Z</time>
      </trkpt>
      <trkpt lat="45.21669" lon="5.73145">
        <ele>1003</ele>
        <time>2021-11-04T05:14:24.000Z</time>
      </trkpt>
      <trkpt lat="45.21667" lon="5.73144">
        <ele>1002.4000244141</ele>
        <time>2021-11-04T05:14:26.000Z</time>
      </trkpt>
      <trkpt lat="45.21666" lon="5.73141">
        <ele>1001.799987793</ele>
        <time>2021-11-04T05:14:28.000Z</time>
      </trkpt>
      <trkpt lat="45.21664" lon="5.7314">
        <ele>1000.799987793</ele>
        <time>2021-11-04T05:14:32.000Z</time>
      </trkpt>
      <trkpt lat="45.21663" lon="5.7314">
        <ele>1000.4000244141</ele>
        <time>2021-11-04T05:14:33.000Z</time>
      </trkpt>
      <trkpt lat="45.21662" lon="5.73141">
        <ele>1000</ele>
        <time>2021-11-04T05:14:34.000Z</time>
      </trkpt>
      <trkpt lat="45.2166" lon="5.73141">
        <ele>999.40002441406</ele>
        <time>2021-11-04T05:14:35.000Z</time>
      </trkpt>
      <trkpt lat="45.21653" lon="5.73138">
        <ele>998.40002441406</ele>
        <time>2021-11-04T05:14:39.000Z</time>
      </trkpt>
      <trkpt lat="45.21652" lon="5.73139">
        <ele>998.20001220703</ele>
        <time>2021-11-04T05:14:40.000Z</time>
      </trkpt>
      <trkpt lat="45.2165" lon="5.73139">
        <ele>997.40002441406</ele>
        <time>2021-11-04T05:14:42.000Z</time>
      </trkpt>
      <trkpt lat="45.21648" lon="5.73139">
        <ele>997</ele>
        <time>2021-11-04T05:14:43.000Z</time>
      </trkpt>
      <trkpt lat="45.21647" lon="5.73139">
        <ele>996.59997558594</ele>
        <time>2021-11-04T05:14:44.000Z</time>
      </trkpt>
      <trkpt lat="45.21644" lon="5.7314">
        <ele>996.20001220703</ele>
        <time>2021-11-04T05:14:46.000Z</time>
      </trkpt>
      <trkpt lat="45.21644" lon="5.7314">
        <ele>995.79998779297</ele>
        <time>2021-11-04T05:14:47.000Z</time>
      </trkpt>
      <trkpt lat="45.21641" lon="5.73141">
        <ele>994.40002441406</ele>
        <time>2021-11-04T05:14:51.000Z</time>
      </trkpt>
      <trkpt lat="45.21639" lon="5.73143">
        <ele>993.79998779297</ele>
        <time>2021-11-04T05:14:53.000Z</time>
      </trkpt>
      <trkpt lat="45.21638" lon="5.73143">
        <ele>993.40002441406</ele>
        <time>2021-11-04T05:14:54.000Z</time>
      </trkpt>
      <trkpt lat="45.21637" lon="5.73143">
        <ele>993</ele>
        <time>2021-11-04T05:14:55.000Z</time>
      </trkpt>
      <trkpt lat="45.21633" lon="5.73141">
        <ele>992.20001220703</ele>
        <time>2021-11-04T05:14:58.000Z</time>
      </trkpt>
      <trkpt lat="45.21626" lon="5.73139">
        <ele>991</ele>
        <time>2021-11-04T05:15:01.000Z</time>
      </trkpt>
      <trkpt lat="45.2162" lon="5.73134">
        <ele>989.79998779297</ele>
        <time>2021-11-04T05:15:05.000Z</time>
      </trkpt>
      <trkpt lat="45.21617" lon="5.73133">
        <ele>988.79998779297</ele>
        <time>2021-11-04T05:15:07.000Z</time>
      </trkpt>
      <trkpt lat="45.21613" lon="5.73131">
        <ele>987.79998779297</ele>
        <time>2021-11-04T05:15:10.000Z</time>
      </trkpt>
      <trkpt lat="45.21611" lon="5.7313">
        <ele>987.40002441406</ele>
        <time>2021-11-04T05:15:11.000Z</time>
      </trkpt>
      <trkpt lat="45.21608" lon="5.73129">
        <ele>986.59997558594</ele>
        <time>2021-11-04T05:15:13.000Z</time>
      </trkpt>
      <trkpt lat="45.21606" lon="5.73128">
        <ele>986.20001220703</ele>
        <time>2021-11-04T05:15:14.000Z</time>
      </trkpt>
      <trkpt lat="45.21601" lon="5.73123">
        <ele>985</ele>
        <time>2021-11-04T05:15:17.000Z</time>
      </trkpt>
      <trkpt lat="45.21595" lon="5.73119">
        <ele>984.20001220703</ele>
        <time>2021-11-04T05:15:20.000Z</time>
      </trkpt>
      <trkpt lat="45.21592" lon="5.7312">
        <ele>984</ele>
        <time>2021-11-04T05:15:22.000Z</time>
      </trkpt>
      <trkpt lat="45.2159" lon="5.73121">
        <ele>983.59997558594</ele>
        <time>2021-11-04T05:15:23.000Z</time>
      </trkpt>
      <trkpt lat="45.21587" lon="5.73123">
        <ele>982.79998779297</ele>
        <time>2021-11-04T05:15:25.000Z</time>
      </trkpt>
      <trkpt lat="45.21585" lon="5.73124">
        <ele>981.79998779297</ele>
        <time>2021-11-04T05:15:28.000Z</time>
      </trkpt>
      <trkpt lat="45.21583" lon="5.73127">
        <ele>980.59997558594</ele>
        <time>2021-11-04T05:15:31.000Z</time>
      </trkpt>
      <trkpt lat="45.21584" lon="5.73132">
        <ele>979.59997558594</ele>
        <time>2021-11-04T05:15:34.000Z</time>
      </trkpt>
      <trkpt lat="45.21583" lon="5.73135">
        <ele>978.79998779297</ele>
        <time>2021-11-04T05:15:36.000Z</time>
      </trkpt>
      <trkpt lat="45.21583" lon="5.73137">
        <ele>978.40002441406</ele>
        <time>2021-11-04T05:15:37.000Z</time>
      </trkpt>
      <trkpt lat="45.21584" lon="5.73138">
        <ele>978.20001220703</ele>
        <time>2021-11-04T05:15:38.000Z</time>
      </trkpt>
      <trkpt lat="45.21585" lon="5.73139">
        <ele>977.59997558594</ele>
        <time>2021-11-04T05:15:40.000Z</time>
      </trkpt>
      <trkpt lat="45.21584" lon="5.7314">
        <ele>977.20001220703</ele>
        <time>2021-11-04T05:15:41.000Z</time>
      </trkpt>
      <trkpt lat="45.21583" lon="5.73142">
        <ele>977.20001220703</ele>
        <time>2021-11-04T05:15:42.000Z</time>
      </trkpt>
      <trkpt lat="45.2158" lon="5.73143">
        <ele>976</ele>
        <time>2021-11-04T05:15:45.000Z</time>
      </trkpt>
      <trkpt lat="45.2158" lon="5.73145">
        <ele>975.40002441406</ele>
        <time>2021-11-04T05:15:47.000Z</time>
      </trkpt>
      <trkpt lat="45.21578" lon="5.73145">
        <ele>974.59997558594</ele>
        <time>2021-11-04T05:15:49.000Z</time>
      </trkpt>
      <trkpt lat="45.21578" lon="5.73146">
        <ele>974.20001220703</ele>
        <time>2021-11-04T05:15:51.000Z</time>
      </trkpt>
      <trkpt lat="45.21577" lon="5.73147">
        <ele>973.79998779297</ele>
        <time>2021-11-04T05:15:52.000Z</time>
      </trkpt>
      <trkpt lat="45.21577" lon="5.73148">
        <ele>973.59997558594</ele>
        <time>2021-11-04T05:15:53.000Z</time>
      </trkpt>
      <trkpt lat="45.21576" lon="5.73149">
        <ele>973.40002441406</ele>
        <time>2021-11-04T05:15:54.000Z</time>
      </trkpt>
      <trkpt lat="45.21576" lon="5.73152">
        <ele>972.40002441406</ele>
        <time>2021-11-04T05:15:56.000Z</time>
      </trkpt>
      <trkpt lat="45.21575" lon="5.73152">
        <ele>971.59997558594</ele>
        <time>2021-11-04T05:15:58.000Z</time>
      </trkpt>
      <trkpt lat="45.21575" lon="5.73152">
        <ele>971.40002441406</ele>
        <time>2021-11-04T05:15:59.000Z</time>
      </trkpt>
      <trkpt lat="45.21575" lon="5.73154">
        <ele>971</ele>
        <time>2021-11-04T05:16:01.000Z</time>
      </trkpt>
      <trkpt lat="45.21574" lon="5.73158">
        <ele>969.79998779297</ele>
        <time>2021-11-04T05:16:04.000Z</time>
      </trkpt>
      <trkpt lat="45.21574" lon="5.73159">
        <ele>969.59997558594</ele>
        <time>2021-11-04T05:16:05.000Z</time>
      </trkpt>
      <trkpt lat="45.21572" lon="5.73159">
        <ele>968.79998779297</ele>
        <time>2021-11-04T05:16:08.000Z</time>
      </trkpt>
      <trkpt lat="45.21569" lon="5.73164">
        <ele>967.20001220703</ele>
        <time>2021-11-04T05:16:13.000Z</time>
      </trkpt>
      <trkpt lat="45.21567" lon="5.73168">
        <ele>966.40002441406</ele>
        <time>2021-11-04T05:16:16.000Z</time>
      </trkpt>
      <trkpt lat="45.21567" lon="5.73169">
        <ele>966</ele>
        <time>2021-11-04T05:16:17.000Z</time>
      </trkpt>
      <trkpt lat="45.21567" lon="5.7317">
        <ele>965.59997558594</ele>
        <time>2021-11-04T05:16:18.000Z</time>
      </trkpt>
      <trkpt lat="45.21568" lon="5.73172">
        <ele>965.20001220703</ele>
        <time>2021-11-04T05:16:19.000Z</time>
      </trkpt>
      <trkpt lat="45.21568" lon="5.73174">
        <ele>964.79998779297</ele>
        <time>2021-11-04T05:16:21.000Z</time>
      </trkpt>
      <trkpt lat="45.21568" lon="5.73174">
        <ele>964.40002441406</ele>
        <time>2021-11-04T05:16:22.000Z</time>
      </trkpt>
      <trkpt lat="45.21568" lon="5.73175">
        <ele>963.59997558594</ele>
        <time>2021-11-04T05:16:25.000Z</time>
      </trkpt>
      <trkpt lat="45.21569" lon="5.73178">
        <ele>963</ele>
        <time>2021-11-04T05:16:27.000Z</time>
      </trkpt>
      <trkpt lat="45.2157" lon="5.73181">
        <ele>962.40002441406</ele>
        <time>2021-11-04T05:16:29.000Z</time>
      </trkpt>
      <trkpt lat="45.21574" lon="5.73187">
        <ele>960.79998779297</ele>
        <time>2021-11-04T05:16:33.000Z</time>
      </trkpt>
      <trkpt lat="45.21578" lon="5.73192">
        <ele>959.59997558594</ele>
        <time>2021-11-04T05:16:36.000Z</time>
      </trkpt>
      <trkpt lat="45.21584" lon="5.73194">
        <ele>958.79998779297</ele>
        <time>2021-11-04T05:16:39.000Z</time>
      </trkpt>
      <trkpt lat="45.21587" lon="5.73197">
        <ele>958.40002441406</ele>
        <time>2021-11-04T05:16:41.000Z</time>
      </trkpt>
      <trkpt lat="45.21589" lon="5.732">
        <ele>957.59997558594</ele>
        <time>2021-11-04T05:16:43.000Z</time>
      </trkpt>
      <trkpt lat="45.2159" lon="5.73202">
        <ele>957.20001220703</ele>
        <time>2021-11-04T05:16:44.000Z</time>
      </trkpt>
      <trkpt lat="45.21593" lon="5.73206">
        <ele>956.59997558594</ele>
        <time>2021-11-04T05:16:46.000Z</time>
      </trkpt>
      <trkpt lat="45.21595" lon="5.73211">
        <ele>956</ele>
        <time>2021-11-04T05:16:48.000Z</time>
      </trkpt>
      <trkpt lat="45.21599" lon="5.73216">
        <ele>955.20001220703</ele>
        <time>2021-11-04T05:16:51.000Z</time>
      </trkpt>
      <trkpt lat="45.216" lon="5.73218">
        <ele>955</ele>
        <time>2021-11-04T05:16:52.000Z</time>
      </trkpt>
      <trkpt lat="45.21601" lon="5.73219">
        <ele>954.79998779297</ele>
        <time>2021-11-04T05:16:53.000Z</time>
      </trkpt>
      <trkpt lat="45.21605" lon="5.73226">
        <ele>953.40002441406</ele>
        <time>2021-11-04T05:16:58.000Z</time>
      </trkpt>
      <trkpt lat="45.21605" lon="5.73227">
        <ele>953.20001220703</ele>
        <time>2021-11-04T05:16:59.000Z</time>
      </trkpt>
      <trkpt lat="45.21607" lon="5.7323">
        <ele>952.20001220703</ele>
        <time>2021-11-04T05:17:02.000Z</time>
      </trkpt>
      <trkpt lat="45.21609" lon="5.73232">
        <ele>951.40002441406</ele>
        <time>2021-11-04T05:17:04.000Z</time>
      </trkpt>
      <trkpt lat="45.2161" lon="5.73233">
        <ele>951.20001220703</ele>
        <time>2021-11-04T05:17:05.000Z</time>
      </trkpt>
      <trkpt lat="45.2161" lon="5.73235">
        <ele>951</ele>
        <time>2021-11-04T05:17:06.000Z</time>
      </trkpt>
      <trkpt lat="45.21612" lon="5.7324">
        <ele>950</ele>
        <time>2021-11-04T05:17:09.000Z</time>
      </trkpt>
      <trkpt lat="45.21614" lon="5.73243">
        <ele>949.40002441406</ele>
        <time>2021-11-04T05:17:11.000Z</time>
      </trkpt>
      <trkpt lat="45.21615" lon="5.73246">
        <ele>948.59997558594</ele>
        <time>2021-11-04T05:17:13.000Z</time>
      </trkpt>
      <trkpt lat="45.21619" lon="5.73253">
        <ele>947.20001220703</ele>
        <time>2021-11-04T05:17:17.000Z</time>
      </trkpt>
      <trkpt lat="45.2162" lon="5.73255">
        <ele>946.79998779297</ele>
        <time>2021-11-04T05:17:18.000Z</time>
      </trkpt>
      <trkpt lat="45.2162" lon="5.73257">
        <ele>946.40002441406</ele>
        <time>2021-11-04T05:17:19.000Z</time>
      </trkpt>
      <trkpt lat="45.21622" lon="5.73259">
        <ele>946.20001220703</ele>
        <time>2021-11-04T05:17:20.000Z</time>
      </trkpt>
      <trkpt lat="45.21624" lon="5.7326">
        <ele>945.79998779297</ele>
        <time>2021-11-04T05:17:21.000Z</time>
      </trkpt>
      <trkpt lat="45.21627" lon="5.73265">
        <ele>945.20001220703</ele>
        <time>2021-11-04T05:17:23.000Z</time>
      </trkpt>
      <trkpt lat="45.21632" lon="5.73274">
        <ele>944</ele>
        <time>2021-11-04T05:17:27.000Z</time>
      </trkpt>
      <trkpt lat="45.21634" lon="5.73278">
        <ele>943.40002441406</ele>
        <time>2021-11-04T05:17:29.000Z</time>
      </trkpt>
      <trkpt lat="45.21635" lon="5.7328">
        <ele>943.20001220703</ele>
        <time>2021-11-04T05:17:30.000Z</time>
      </trkpt>
      <trkpt lat="45.21636" lon="5.73283">
        <ele>942.79998779297</ele>
        <time>2021-11-04T05:17:31.000Z</time>
      </trkpt>
      <trkpt lat="45.2164" lon="5.7329">
        <ele>942.40002441406</ele>
        <time>2021-11-04T05:17:34.000Z</time>
      </trkpt>
      <trkpt lat="45.21641" lon="5.73292">
        <ele>942</ele>
        <time>2021-11-04T05:17:35.000Z</time>
      </trkpt>
      <trkpt lat="45.21642" lon="5.73294">
        <ele>941.40002441406</ele>
        <time>2021-11-04T05:17:36.000Z</time>
      </trkpt>
      <trkpt lat="45.21642" lon="5.73296">
        <ele>941</ele>
        <time>2021-11-04T05:17:37.000Z</time>
      </trkpt>
      <trkpt lat="45.21643" lon="5.73298">
        <ele>940.79998779297</ele>
        <time>2021-11-04T05:17:38.000Z</time>
      </trkpt>
      <trkpt lat="45.21644" lon="5.73303">
        <ele>940.20001220703</ele>
        <time>2021-11-04T05:17:40.000Z</time>
      </trkpt>
      <trkpt lat="45.21645" lon="5.73307">
        <ele>939.40002441406</ele>
        <time>2021-11-04T05:17:42.000Z</time>
      </trkpt>
      <trkpt lat="45.21645" lon="5.73308">
        <ele>939.20001220703</ele>
        <time>2021-11-04T05:17:43.000Z</time>
      </trkpt>
      <trkpt lat="45.21645" lon="5.7331">
        <ele>939</ele>
        <time>2021-11-04T05:17:44.000Z</time>
      </trkpt>
      <trkpt lat="45.21646" lon="5.73317">
        <ele>938</ele>
        <time>2021-11-04T05:17:48.000Z</time>
      </trkpt>
      <trkpt lat="45.21647" lon="5.73321">
        <ele>937</ele>
        <time>2021-11-04T05:17:50.000Z</time>
      </trkpt>
      <trkpt lat="45.21648" lon="5.73323">
        <ele>936.40002441406</ele>
        <time>2021-11-04T05:17:51.000Z</time>
      </trkpt>
      <trkpt lat="45.2165" lon="5.73326">
        <ele>935.20001220703</ele>
        <time>2021-11-04T05:17:54.000Z</time>
      </trkpt>
      <trkpt lat="45.21652" lon="5.73331">
        <ele>934.40002441406</ele>
        <time>2021-11-04T05:17:57.000Z</time>
      </trkpt>
      <trkpt lat="45.21652" lon="5.73333">
        <ele>934</ele>
        <time>2021-11-04T05:17:58.000Z</time>
      </trkpt>
      <trkpt lat="45.21653" lon="5.73336">
        <ele>933.40002441406</ele>
        <time>2021-11-04T05:18:00.000Z</time>
      </trkpt>
      <trkpt lat="45.21654" lon="5.73339">
        <ele>932.59997558594</ele>
        <time>2021-11-04T05:18:02.000Z</time>
      </trkpt>
      <trkpt lat="45.21654" lon="5.7334">
        <ele>932.20001220703</ele>
        <time>2021-11-04T05:18:03.000Z</time>
      </trkpt>
      <trkpt lat="45.21654" lon="5.73343">
        <ele>931.79998779297</ele>
        <time>2021-11-04T05:18:05.000Z</time>
      </trkpt>
      <trkpt lat="45.21654" lon="5.73345">
        <ele>931.59997558594</ele>
        <time>2021-11-04T05:18:06.000Z</time>
      </trkpt>
      <trkpt lat="45.21656" lon="5.7335">
        <ele>930.79998779297</ele>
        <time>2021-11-04T05:18:08.000Z</time>
      </trkpt>
      <trkpt lat="45.21658" lon="5.73353">
        <ele>930.40002441406</ele>
        <time>2021-11-04T05:18:09.000Z</time>
      </trkpt>
      <trkpt lat="45.21659" lon="5.73354">
        <ele>930</ele>
        <time>2021-11-04T05:18:10.000Z</time>
      </trkpt>
      <trkpt lat="45.21661" lon="5.73359">
        <ele>929.20001220703</ele>
        <time>2021-11-04T05:18:13.000Z</time>
      </trkpt>
      <trkpt lat="45.21661" lon="5.73363">
        <ele>928.40002441406</ele>
        <time>2021-11-04T05:18:15.000Z</time>
      </trkpt>
      <trkpt lat="45.21662" lon="5.73365">
        <ele>928</ele>
        <time>2021-11-04T05:18:16.000Z</time>
      </trkpt>
      <trkpt lat="45.21665" lon="5.73369">
        <ele>926.59997558594</ele>
        <time>2021-11-04T05:18:19.000Z</time>
      </trkpt>
      <trkpt lat="45.21665" lon="5.73371">
        <ele>926.40002441406</ele>
        <time>2021-11-04T05:18:20.000Z</time>
      </trkpt>
      <trkpt lat="45.21665" lon="5.73375">
        <ele>925.59997558594</ele>
        <time>2021-11-04T05:18:22.000Z</time>
      </trkpt>
      <trkpt lat="45.21665" lon="5.73377">
        <ele>925.20001220703</ele>
        <time>2021-11-04T05:18:23.000Z</time>
      </trkpt>
      <trkpt lat="45.21665" lon="5.73381">
        <ele>924.79998779297</ele>
        <time>2021-11-04T05:18:25.000Z</time>
      </trkpt>
      <trkpt lat="45.21664" lon="5.73384">
        <ele>924.40002441406</ele>
        <time>2021-11-04T05:18:26.000Z</time>
      </trkpt>
      <trkpt lat="45.21664" lon="5.73388">
        <ele>923.40002441406</ele>
        <time>2021-11-04T05:18:28.000Z</time>
      </trkpt>
      <trkpt lat="45.21663" lon="5.73389">
        <ele>922.79998779297</ele>
        <time>2021-11-04T05:18:29.000Z</time>
      </trkpt>
      <trkpt lat="45.21664" lon="5.73391">
        <ele>922.40002441406</ele>
        <time>2021-11-04T05:18:30.000Z</time>
      </trkpt>
      <trkpt lat="45.21665" lon="5.73392">
        <ele>922</ele>
        <time>2021-11-04T05:18:31.000Z</time>
      </trkpt>
      <trkpt lat="45.21665" lon="5.73393">
        <ele>921.79998779297</ele>
        <time>2021-11-04T05:18:32.000Z</time>
      </trkpt>
      <trkpt lat="45.21667" lon="5.73399">
        <ele>921</ele>
        <time>2021-11-04T05:18:35.000Z</time>
      </trkpt>
      <trkpt lat="45.21669" lon="5.73405">
        <ele>919.59997558594</ele>
        <time>2021-11-04T05:18:38.000Z</time>
      </trkpt>
      <trkpt lat="45.2167" lon="5.73407">
        <ele>919.59997558594</ele>
        <time>2021-11-04T05:18:39.000Z</time>
      </trkpt>
      <trkpt lat="45.2167" lon="5.73417">
        <ele>918.20001220703</ele>
        <time>2021-11-04T05:18:43.000Z</time>
      </trkpt>
      <trkpt lat="45.2167" lon="5.73418">
        <ele>917.79998779297</ele>
        <time>2021-11-04T05:18:44.000Z</time>
      </trkpt>
      <trkpt lat="45.21672" lon="5.73423">
        <ele>917</ele>
        <time>2021-11-04T05:18:46.000Z</time>
      </trkpt>
      <trkpt lat="45.21672" lon="5.73427">
        <ele>916.40002441406</ele>
        <time>2021-11-04T05:18:47.000Z</time>
      </trkpt>
      <trkpt lat="45.21673" lon="5.73431">
        <ele>916.20001220703</ele>
        <time>2021-11-04T05:18:48.000Z</time>
      </trkpt>
      <trkpt lat="45.21673" lon="5.73433">
        <ele>915.79998779297</ele>
        <time>2021-11-04T05:18:49.000Z</time>
      </trkpt>
      <trkpt lat="45.21671" lon="5.73438">
        <ele>915.40002441406</ele>
        <time>2021-11-04T05:18:51.000Z</time>
      </trkpt>
      <trkpt lat="45.21671" lon="5.73444">
        <ele>914.20001220703</ele>
        <time>2021-11-04T05:18:53.000Z</time>
      </trkpt>
      <trkpt lat="45.21671" lon="5.73446">
        <ele>913.79998779297</ele>
        <time>2021-11-04T05:18:54.000Z</time>
      </trkpt>
      <trkpt lat="45.21672" lon="5.73452">
        <ele>912.79998779297</ele>
        <time>2021-11-04T05:18:56.000Z</time>
      </trkpt>
      <trkpt lat="45.21672" lon="5.73455">
        <ele>912.59997558594</ele>
        <time>2021-11-04T05:18:57.000Z</time>
      </trkpt>
      <trkpt lat="45.21672" lon="5.73458">
        <ele>912.20001220703</ele>
        <time>2021-11-04T05:18:58.000Z</time>
      </trkpt>
      <trkpt lat="45.21672" lon="5.73464">
        <ele>911.79998779297</ele>
        <time>2021-11-04T05:19:00.000Z</time>
      </trkpt>
      <trkpt lat="45.21673" lon="5.73469">
        <ele>911.40002441406</ele>
        <time>2021-11-04T05:19:02.000Z</time>
      </trkpt>
      <trkpt lat="45.21673" lon="5.73471">
        <ele>911</ele>
        <time>2021-11-04T05:19:03.000Z</time>
      </trkpt>
      <trkpt lat="45.21673" lon="5.73472">
        <ele>910.59997558594</ele>
        <time>2021-11-04T05:19:04.000Z</time>
      </trkpt>
      <trkpt lat="45.21674" lon="5.73476">
        <ele>910</ele>
        <time>2021-11-04T05:19:07.000Z</time>
      </trkpt>
      <trkpt lat="45.21674" lon="5.73477">
        <ele>909.59997558594</ele>
        <time>2021-11-04T05:19:09.000Z</time>
      </trkpt>
      <trkpt lat="45.21673" lon="5.73478">
        <ele>909.20001220703</ele>
        <time>2021-11-04T05:19:11.000Z</time>
      </trkpt>
      <trkpt lat="45.21672" lon="5.73474">
        <ele>908.59997558594</ele>
        <time>2021-11-04T05:19:13.000Z</time>
      </trkpt>
      <trkpt lat="45.21671" lon="5.73471">
        <ele>908.40002441406</ele>
        <time>2021-11-04T05:19:14.000Z</time>
      </trkpt>
      <trkpt lat="45.2167" lon="5.73468">
        <ele>908</ele>
        <time>2021-11-04T05:19:15.000Z</time>
      </trkpt>
      <trkpt lat="45.21668" lon="5.73459">
        <ele>907.20001220703</ele>
        <time>2021-11-04T05:19:18.000Z</time>
      </trkpt>
      <trkpt lat="45.21664" lon="5.73448">
        <ele>906.20001220703</ele>
        <time>2021-11-04T05:19:22.000Z</time>
      </trkpt>
      <trkpt lat="45.21664" lon="5.73445">
        <ele>905.79998779297</ele>
        <time>2021-11-04T05:19:23.000Z</time>
      </trkpt>
      <trkpt lat="45.2166" lon="5.73435">
        <ele>905</ele>
        <time>2021-11-04T05:19:27.000Z</time>
      </trkpt>
      <trkpt lat="45.21659" lon="5.73432">
        <ele>904.79998779297</ele>
        <time>2021-11-04T05:19:28.000Z</time>
      </trkpt>
      <trkpt lat="45.21651" lon="5.73418">
        <ele>903.59997558594</ele>
        <time>2021-11-04T05:19:34.000Z</time>
      </trkpt>
      <trkpt lat="45.21638" lon="5.73399">
        <ele>902.79998779297</ele>
        <time>2021-11-04T05:19:42.000Z</time>
      </trkpt>
      <trkpt lat="45.21636" lon="5.73398">
        <ele>902.59997558594</ele>
        <time>2021-11-04T05:19:43.000Z</time>
      </trkpt>
      <trkpt lat="45.21629" lon="5.73391">
        <ele>901.40002441406</ele>
        <time>2021-11-04T05:19:47.000Z</time>
      </trkpt>
      <trkpt lat="45.21624" lon="5.73387">
        <ele>900.79998779297</ele>
        <time>2021-11-04T05:19:50.000Z</time>
      </trkpt>
      <trkpt lat="45.21622" lon="5.73386">
        <ele>900.40002441406</ele>
        <time>2021-11-04T05:19:51.000Z</time>
      </trkpt>
      <trkpt lat="45.21615" lon="5.73381">
        <ele>899</ele>
        <time>2021-11-04T05:19:56.000Z</time>
      </trkpt>
      <trkpt lat="45.21611" lon="5.73378">
        <ele>898</ele>
        <time>2021-11-04T05:19:59.000Z</time>
      </trkpt>
      <trkpt lat="45.21607" lon="5.73376">
        <ele>897.20001220703</ele>
        <time>2021-11-04T05:20:02.000Z</time>
      </trkpt>
      <trkpt lat="45.21606" lon="5.73375">
        <ele>896.79998779297</ele>
        <time>2021-11-04T05:20:03.000Z</time>
      </trkpt>
      <trkpt lat="45.21601" lon="5.73368">
        <ele>895.59997558594</ele>
        <time>2021-11-04T05:20:07.000Z</time>
      </trkpt>
      <trkpt lat="45.21597" lon="5.73359">
        <ele>894.59997558594</ele>
        <time>2021-11-04T05:20:11.000Z</time>
      </trkpt>
      <trkpt lat="45.21591" lon="5.73351">
        <ele>893.20001220703</ele>
        <time>2021-11-04T05:20:16.000Z</time>
      </trkpt>
      <trkpt lat="45.2159" lon="5.73351">
        <ele>893</ele>
        <time>2021-11-04T05:20:17.000Z</time>
      </trkpt>
      <trkpt lat="45.21585" lon="5.7335">
        <ele>892</ele>
        <time>2021-11-04T05:20:21.000Z</time>
      </trkpt>
      <trkpt lat="45.21583" lon="5.73349">
        <ele>890.79998779297</ele>
        <time>2021-11-04T05:20:23.000Z</time>
      </trkpt>
      <trkpt lat="45.21582" lon="5.73349">
        <ele>890.59997558594</ele>
        <time>2021-11-04T05:20:24.000Z</time>
      </trkpt>
      <trkpt lat="45.21581" lon="5.73349">
        <ele>890.20001220703</ele>
        <time>2021-11-04T05:20:27.000Z</time>
      </trkpt>
      <trkpt lat="45.21581" lon="5.7335">
        <ele>890</ele>
        <time>2021-11-04T05:20:29.000Z</time>
      </trkpt>
      <trkpt lat="45.21585" lon="5.73353">
        <ele>890</ele>
        <time>2021-11-04T05:20:34.000Z</time>
      </trkpt>
      <trkpt lat="45.21585" lon="5.7335">
        <ele>890</ele>
        <time>2021-11-04T05:20:36.000Z</time>
      </trkpt>
      <trkpt lat="45.21585" lon="5.73349">
        <ele>890</ele>
        <time>2021-11-04T05:20:37.000Z</time>
      </trkpt>
      <trkpt lat="45.21585" lon="5.73349">
        <ele>890</ele>
        <time>2021-11-04T05:20:41.000Z</time>
      </trkpt>
      <trkpt lat="45.21585" lon="5.73349">
        <ele>890.20001220703</ele>
        <time>2021-11-04T05:20:45.000Z</time>
      </trkpt>
      <trkpt lat="45.21584" lon="5.73349">
        <ele>890.20001220703</ele>
        <time>2021-11-04T05:20:51.000Z</time>
      </trkpt>
      <trkpt lat="45.21584" lon="5.73349">
        <ele>890.20001220703</ele>
        <time>2021-11-04T05:20:52.000Z</time>
      </trkpt>
      <trkpt lat="45.21584" lon="5.73349">
        <ele>890.20001220703</ele>
        <time>2021-11-04T05:20:53.000Z</time>
      </trkpt>
      <trkpt lat="45.21577" lon="5.73345">
        <ele>890</ele>
        <time>2021-11-04T05:20:58.000Z</time>
      </trkpt>
      <trkpt lat="45.21574" lon="5.73343">
        <ele>889.79998779297</ele>
        <time>2021-11-04T05:20:59.000Z</time>
      </trkpt>
      <trkpt lat="45.21561" lon="5.73336">
        <ele>888.59997558594</ele>
        <time>2021-11-04T05:21:04.000Z</time>
      </trkpt>
      <trkpt lat="45.21557" lon="5.73335">
        <ele>888</ele>
        <time>2021-11-04T05:21:06.000Z</time>
      </trkpt>
      <trkpt lat="45.21555" lon="5.73334">
        <ele>887.59997558594</ele>
        <time>2021-11-04T05:21:07.000Z</time>
      </trkpt>
      <trkpt lat="45.21554" lon="5.73333">
        <ele>887.20001220703</ele>
        <time>2021-11-04T05:21:08.000Z</time>
      </trkpt>
      <trkpt lat="45.21551" lon="5.73331">
        <ele>886.79998779297</ele>
        <time>2021-11-04T05:21:10.000Z</time>
      </trkpt>
      <trkpt lat="45.21547" lon="5.73329">
        <ele>886.20001220703</ele>
        <time>2021-11-04T05:21:12.000Z</time>
      </trkpt>
      <trkpt lat="45.21545" lon="5.73329">
        <ele>886</ele>
        <time>2021-11-04T05:21:13.000Z</time>
      </trkpt>
      <trkpt lat="45.21542" lon="5.73329">
        <ele>885</ele>
        <time>2021-11-04T05:21:15.000Z</time>
      </trkpt>
      <trkpt lat="45.2154" lon="5.73329">
        <ele>884.79998779297</ele>
        <time>2021-11-04T05:21:16.000Z</time>
      </trkpt>
      <trkpt lat="45.21535" lon="5.73329">
        <ele>884.59997558594</ele>
        <time>2021-11-04T05:21:18.000Z</time>
      </trkpt>
      <trkpt lat="45.21533" lon="5.73329">
        <ele>884</ele>
        <time>2021-11-04T05:21:19.000Z</time>
      </trkpt>
      <trkpt lat="45.21525" lon="5.73325">
        <ele>882.79998779297</ele>
        <time>2021-11-04T05:21:23.000Z</time>
      </trkpt>
      <trkpt lat="45.21523" lon="5.73325">
        <ele>882.40002441406</ele>
        <time>2021-11-04T05:21:24.000Z</time>
      </trkpt>
      <trkpt lat="45.21517" lon="5.73321">
        <ele>881.59997558594</ele>
        <time>2021-11-04T05:21:27.000Z</time>
      </trkpt>
      <trkpt lat="45.21514" lon="5.73314">
        <ele>880.59997558594</ele>
        <time>2021-11-04T05:21:31.000Z</time>
      </trkpt>
      <trkpt lat="45.21514" lon="5.7331">
        <ele>880</ele>
        <time>2021-11-04T05:21:34.000Z</time>
      </trkpt>
      <trkpt lat="45.21514" lon="5.73307">
        <ele>880</ele>
        <time>2021-11-04T05:21:35.000Z</time>
      </trkpt>
      <trkpt lat="45.21513" lon="5.73302">
        <ele>879.59997558594</ele>
        <time>2021-11-04T05:21:37.000Z</time>
      </trkpt>
      <trkpt lat="45.2151" lon="5.73288">
        <ele>878.40002441406</ele>
        <time>2021-11-04T05:21:41.000Z</time>
      </trkpt>
      <trkpt lat="45.21508" lon="5.73274">
        <ele>878.40002441406</ele>
        <time>2021-11-04T05:21:45.000Z</time>
      </trkpt>
      <trkpt lat="45.21508" lon="5.73271">
        <ele>878.40002441406</ele>
        <time>2021-11-04T05:21:46.000Z</time>
      </trkpt>
      <trkpt lat="45.21507" lon="5.73268">
        <ele>878.40002441406</ele>
        <time>2021-11-04T05:21:47.000Z</time>
      </trkpt>
      <trkpt lat="45.21502" lon="5.73259">
        <ele>878.59997558594</ele>
        <time>2021-11-04T05:21:51.000Z</time>
      </trkpt>
      <trkpt lat="45.21498" lon="5.73254">
        <ele>877.40002441406</ele>
        <time>2021-11-04T05:21:54.000Z</time>
      </trkpt>
      <trkpt lat="45.21493" lon="5.73246">
        <ele>876.40002441406</ele>
        <time>2021-11-04T05:21:58.000Z</time>
      </trkpt>
      <trkpt lat="45.21491" lon="5.73244">
        <ele>875.59997558594</ele>
        <time>2021-11-04T05:22:00.000Z</time>
      </trkpt>
      <trkpt lat="45.21489" lon="5.73242">
        <ele>875.20001220703</ele>
        <time>2021-11-04T05:22:02.000Z</time>
      </trkpt>
      <trkpt lat="45.21487" lon="5.73241">
        <ele>874.59997558594</ele>
        <time>2021-11-04T05:22:03.000Z</time>
      </trkpt>
      <trkpt lat="45.21484" lon="5.73238">
        <ele>874</ele>
        <time>2021-11-04T05:22:05.000Z</time>
      </trkpt>
      <trkpt lat="45.21483" lon="5.73237">
        <ele>873.79998779297</ele>
        <time>2021-11-04T05:22:06.000Z</time>
      </trkpt>
      <trkpt lat="45.21478" lon="5.73231">
        <ele>872.59997558594</ele>
        <time>2021-11-04T05:22:09.000Z</time>
      </trkpt>
      <trkpt lat="45.21474" lon="5.73222">
        <ele>871.40002441406</ele>
        <time>2021-11-04T05:22:12.000Z</time>
      </trkpt>
      <trkpt lat="45.21473" lon="5.73219">
        <ele>871.40002441406</ele>
        <time>2021-11-04T05:22:13.000Z</time>
      </trkpt>
      <trkpt lat="45.21474" lon="5.73212">
        <ele>871</ele>
        <time>2021-11-04T05:22:15.000Z</time>
      </trkpt>
      <trkpt lat="45.21477" lon="5.732">
        <ele>870.40002441406</ele>
        <time>2021-11-04T05:22:19.000Z</time>
      </trkpt>
      <trkpt lat="45.21472" lon="5.7319">
        <ele>869.59997558594</ele>
        <time>2021-11-04T05:22:24.000Z</time>
      </trkpt>
      <trkpt lat="45.21472" lon="5.73188">
        <ele>869</ele>
        <time>2021-11-04T05:22:25.000Z</time>
      </trkpt>
      <trkpt lat="45.21471" lon="5.73186">
        <ele>868.40002441406</ele>
        <time>2021-11-04T05:22:27.000Z</time>
      </trkpt>
      <trkpt lat="45.2147" lon="5.73186">
        <ele>868</ele>
        <time>2021-11-04T05:22:28.000Z</time>
      </trkpt>
      <trkpt lat="45.21469" lon="5.73185">
        <ele>867.59997558594</ele>
        <time>2021-11-04T05:22:29.000Z</time>
      </trkpt>
      <trkpt lat="45.21466" lon="5.73182">
        <ele>867</ele>
        <time>2021-11-04T05:22:31.000Z</time>
      </trkpt>
      <trkpt lat="45.21463" lon="5.73176">
        <ele>865.79998779297</ele>
        <time>2021-11-04T05:22:34.000Z</time>
      </trkpt>
      <trkpt lat="45.21461" lon="5.73173">
        <ele>865</ele>
        <time>2021-11-04T05:22:36.000Z</time>
      </trkpt>
      <trkpt lat="45.2146" lon="5.73171">
        <ele>864.59997558594</ele>
        <time>2021-11-04T05:22:37.000Z</time>
      </trkpt>
      <trkpt lat="45.21456" lon="5.73166">
        <ele>863.40002441406</ele>
        <time>2021-11-04T05:22:40.000Z</time>
      </trkpt>
      <trkpt lat="45.21453" lon="5.73164">
        <ele>862.59997558594</ele>
        <time>2021-11-04T05:22:42.000Z</time>
      </trkpt>
      <trkpt lat="45.2145" lon="5.73161">
        <ele>862</ele>
        <time>2021-11-04T05:22:44.000Z</time>
      </trkpt>
      <trkpt lat="45.21447" lon="5.7316">
        <ele>860.59997558594</ele>
        <time>2021-11-04T05:22:47.000Z</time>
      </trkpt>
      <trkpt lat="45.21444" lon="5.7316">
        <ele>860.20001220703</ele>
        <time>2021-11-04T05:22:48.000Z</time>
      </trkpt>
      <trkpt lat="45.2144" lon="5.73161">
        <ele>859.40002441406</ele>
        <time>2021-11-04T05:22:50.000Z</time>
      </trkpt>
      <trkpt lat="45.21431" lon="5.73156">
        <ele>858.59997558594</ele>
        <time>2021-11-04T05:22:54.000Z</time>
      </trkpt>
      <trkpt lat="45.21429" lon="5.73156">
        <ele>858.40002441406</ele>
        <time>2021-11-04T05:22:55.000Z</time>
      </trkpt>
      <trkpt lat="45.2142" lon="5.73152">
        <ele>857</ele>
        <time>2021-11-04T05:23:00.000Z</time>
      </trkpt>
      <trkpt lat="45.21415" lon="5.73144">
        <ele>855.79998779297</ele>
        <time>2021-11-04T05:23:04.000Z</time>
      </trkpt>
      <trkpt lat="45.21412" lon="5.73137">
        <ele>855</ele>
        <time>2021-11-04T05:23:07.000Z</time>
      </trkpt>
      <trkpt lat="45.21411" lon="5.73135">
        <ele>854.79998779297</ele>
        <time>2021-11-04T05:23:08.000Z</time>
      </trkpt>
      <trkpt lat="45.21404" lon="5.73128">
        <ele>854</ele>
        <time>2021-11-04T05:23:12.000Z</time>
      </trkpt>
      <trkpt lat="45.214" lon="5.73123">
        <ele>853.40002441406</ele>
        <time>2021-11-04T05:23:14.000Z</time>
      </trkpt>
      <trkpt lat="45.21394" lon="5.73115">
        <ele>852.59997558594</ele>
        <time>2021-11-04T05:23:18.000Z</time>
      </trkpt>
      <trkpt lat="45.21391" lon="5.7311">
        <ele>852.20001220703</ele>
        <time>2021-11-04T05:23:20.000Z</time>
      </trkpt>
      <trkpt lat="45.21382" lon="5.73099">
        <ele>851.40002441406</ele>
        <time>2021-11-04T05:23:25.000Z</time>
      </trkpt>
      <trkpt lat="45.21378" lon="5.73093">
        <ele>851.20001220703</ele>
        <time>2021-11-04T05:23:27.000Z</time>
      </trkpt>
      <trkpt lat="45.21377" lon="5.73091">
        <ele>851</ele>
        <time>2021-11-04T05:23:28.000Z</time>
      </trkpt>
      <trkpt lat="45.21371" lon="5.73083">
        <ele>850.40002441406</ele>
        <time>2021-11-04T05:23:31.000Z</time>
      </trkpt>
      <trkpt lat="45.21368" lon="5.73079">
        <ele>850.20001220703</ele>
        <time>2021-11-04T05:23:33.000Z</time>
      </trkpt>
      <trkpt lat="45.21366" lon="5.73078">
        <ele>850.20001220703</ele>
        <time>2021-11-04T05:23:34.000Z</time>
      </trkpt>
      <trkpt lat="45.21366" lon="5.73076">
        <ele>850</ele>
        <time>2021-11-04T05:23:35.000Z</time>
      </trkpt>
      <trkpt lat="45.21365" lon="5.73075">
        <ele>850</ele>
        <time>2021-11-04T05:23:36.000Z</time>
      </trkpt>
      <trkpt lat="45.21364" lon="5.73074">
        <ele>849.79998779297</ele>
        <time>2021-11-04T05:23:37.000Z</time>
      </trkpt>
      <trkpt lat="45.21361" lon="5.73071">
        <ele>849.20001220703</ele>
        <time>2021-11-04T05:23:40.000Z</time>
      </trkpt>
      <trkpt lat="45.2136" lon="5.7307">
        <ele>848.79998779297</ele>
        <time>2021-11-04T05:23:41.000Z</time>
      </trkpt>
      <trkpt lat="45.21356" lon="5.73066">
        <ele>848</ele>
        <time>2021-11-04T05:23:44.000Z</time>
      </trkpt>
      <trkpt lat="45.21354" lon="5.73061">
        <ele>847</ele>
        <time>2021-11-04T05:23:47.000Z</time>
      </trkpt>
      <trkpt lat="45.21353" lon="5.7306">
        <ele>846.59997558594</ele>
        <time>2021-11-04T05:23:48.000Z</time>
      </trkpt>
      <trkpt lat="45.21352" lon="5.73059">
        <ele>846.40002441406</ele>
        <time>2021-11-04T05:23:49.000Z</time>
      </trkpt>
      <trkpt lat="45.2135" lon="5.73055">
        <ele>845.79998779297</ele>
        <time>2021-11-04T05:23:51.000Z</time>
      </trkpt>
      <trkpt lat="45.21347" lon="5.73052">
        <ele>844.79998779297</ele>
        <time>2021-11-04T05:23:53.000Z</time>
      </trkpt>
      <trkpt lat="45.21346" lon="5.73051">
        <ele>844.59997558594</ele>
        <time>2021-11-04T05:23:54.000Z</time>
      </trkpt>
      <trkpt lat="45.21345" lon="5.73047">
        <ele>843.79998779297</ele>
        <time>2021-11-04T05:23:56.000Z</time>
      </trkpt>
      <trkpt lat="45.21344" lon="5.73046">
        <ele>843.20001220703</ele>
        <time>2021-11-04T05:23:57.000Z</time>
      </trkpt>
      <trkpt lat="45.21343" lon="5.73045">
        <ele>843</ele>
        <time>2021-11-04T05:23:58.000Z</time>
      </trkpt>
      <trkpt lat="45.21341" lon="5.73042">
        <ele>842.59997558594</ele>
        <time>2021-11-04T05:24:00.000Z</time>
      </trkpt>
      <trkpt lat="45.2134" lon="5.73041">
        <ele>842.20001220703</ele>
        <time>2021-11-04T05:24:01.000Z</time>
      </trkpt>
      <trkpt lat="45.21338" lon="5.73038">
        <ele>841.40002441406</ele>
        <time>2021-11-04T05:24:03.000Z</time>
      </trkpt>
      <trkpt lat="45.21338" lon="5.73036">
        <ele>841</ele>
        <time>2021-11-04T05:24:04.000Z</time>
      </trkpt>
      <trkpt lat="45.21337" lon="5.73034">
        <ele>840.20001220703</ele>
        <time>2021-11-04T05:24:06.000Z</time>
      </trkpt>
      <trkpt lat="45.21337" lon="5.73034">
        <ele>839.59997558594</ele>
        <time>2021-11-04T05:24:07.000Z</time>
      </trkpt>
      <trkpt lat="45.21336" lon="5.73033">
        <ele>839.40002441406</ele>
        <time>2021-11-04T05:24:08.000Z</time>
      </trkpt>
      <trkpt lat="45.21333" lon="5.73028">
        <ele>838.40002441406</ele>
        <time>2021-11-04T05:24:11.000Z</time>
      </trkpt>
      <trkpt lat="45.21333" lon="5.73027">
        <ele>838.20001220703</ele>
        <time>2021-11-04T05:24:12.000Z</time>
      </trkpt>
      <trkpt lat="45.21329" lon="5.7302">
        <ele>837</ele>
        <time>2021-11-04T05:24:16.000Z</time>
      </trkpt>
      <trkpt lat="45.21326" lon="5.73016">
        <ele>836.40002441406</ele>
        <time>2021-11-04T05:24:18.000Z</time>
      </trkpt>
      <trkpt lat="45.21325" lon="5.73015">
        <ele>836.20001220703</ele>
        <time>2021-11-04T05:24:19.000Z</time>
      </trkpt>
      <trkpt lat="45.21324" lon="5.73013">
        <ele>835.59997558594</ele>
        <time>2021-11-04T05:24:20.000Z</time>
      </trkpt>
      <trkpt lat="45.2132" lon="5.73007">
        <ele>834.59997558594</ele>
        <time>2021-11-04T05:24:24.000Z</time>
      </trkpt>
      <trkpt lat="45.21318" lon="5.73005">
        <ele>834.40002441406</ele>
        <time>2021-11-04T05:24:25.000Z</time>
      </trkpt>
      <trkpt lat="45.21314" lon="5.73">
        <ele>833.20001220703</ele>
        <time>2021-11-04T05:24:28.000Z</time>
      </trkpt>
      <trkpt lat="45.21312" lon="5.72997">
        <ele>832.59997558594</ele>
        <time>2021-11-04T05:24:30.000Z</time>
      </trkpt>
      <trkpt lat="45.21311" lon="5.72994">
        <ele>832</ele>
        <time>2021-11-04T05:24:32.000Z</time>
      </trkpt>
      <trkpt lat="45.21306" lon="5.72991">
        <ele>831</ele>
        <time>2021-11-04T05:24:36.000Z</time>
      </trkpt>
      <trkpt lat="45.21303" lon="5.72989">
        <ele>830.40002441406</ele>
        <time>2021-11-04T05:24:38.000Z</time>
      </trkpt>
      <trkpt lat="45.21301" lon="5.72987">
        <ele>829.79998779297</ele>
        <time>2021-11-04T05:24:40.000Z</time>
      </trkpt>
      <trkpt lat="45.21297" lon="5.72981">
        <ele>828.40002441406</ele>
        <time>2021-11-04T05:24:44.000Z</time>
      </trkpt>
      <trkpt lat="45.21294" lon="5.72978">
        <ele>827.40002441406</ele>
        <time>2021-11-04T05:24:47.000Z</time>
      </trkpt>
      <trkpt lat="45.21291" lon="5.72975">
        <ele>826.40002441406</ele>
        <time>2021-11-04T05:24:50.000Z</time>
      </trkpt>
      <trkpt lat="45.21289" lon="5.72972">
        <ele>825.79998779297</ele>
        <time>2021-11-04T05:24:52.000Z</time>
      </trkpt>
      <trkpt lat="45.21285" lon="5.7297">
        <ele>825.20001220703</ele>
        <time>2021-11-04T05:24:54.000Z</time>
      </trkpt>
      <trkpt lat="45.21283" lon="5.72966">
        <ele>824.59997558594</ele>
        <time>2021-11-04T05:24:56.000Z</time>
      </trkpt>
      <trkpt lat="45.21282" lon="5.72964">
        <ele>824.20001220703</ele>
        <time>2021-11-04T05:24:57.000Z</time>
      </trkpt>
      <trkpt lat="45.21281" lon="5.72958">
        <ele>823.20001220703</ele>
        <time>2021-11-04T05:25:00.000Z</time>
      </trkpt>
      <trkpt lat="45.21279" lon="5.72957">
        <ele>822.40002441406</ele>
        <time>2021-11-04T05:25:02.000Z</time>
      </trkpt>
      <trkpt lat="45.21277" lon="5.72957">
        <ele>822</ele>
        <time>2021-11-04T05:25:03.000Z</time>
      </trkpt>
      <trkpt lat="45.21274" lon="5.72957">
        <ele>821.20001220703</ele>
        <time>2021-11-04T05:25:06.000Z</time>
      </trkpt>
      <trkpt lat="45.21273" lon="5.72957">
        <ele>820.59997558594</ele>
        <time>2021-11-04T05:25:07.000Z</time>
      </trkpt>
      <trkpt lat="45.21271" lon="5.72957">
        <ele>820</ele>
        <time>2021-11-04T05:25:09.000Z</time>
      </trkpt>
      <trkpt lat="45.2127" lon="5.72956">
        <ele>819.59997558594</ele>
        <time>2021-11-04T05:25:10.000Z</time>
      </trkpt>
      <trkpt lat="45.21267" lon="5.72953">
        <ele>818.40002441406</ele>
        <time>2021-11-04T05:25:13.000Z</time>
      </trkpt>
      <trkpt lat="45.21264" lon="5.72949">
        <ele>817.40002441406</ele>
        <time>2021-11-04T05:25:16.000Z</time>
      </trkpt>
      <trkpt lat="45.21262" lon="5.72948">
        <ele>817.20001220703</ele>
        <time>2021-11-04T05:25:17.000Z</time>
      </trkpt>
      <trkpt lat="45.21259" lon="5.72945">
        <ele>816.20001220703</ele>
        <time>2021-11-04T05:25:20.000Z</time>
      </trkpt>
      <trkpt lat="45.21257" lon="5.72943">
        <ele>815.79998779297</ele>
        <time>2021-11-04T05:25:22.000Z</time>
      </trkpt>
      <trkpt lat="45.21255" lon="5.72942">
        <ele>815.20001220703</ele>
        <time>2021-11-04T05:25:24.000Z</time>
      </trkpt>
      <trkpt lat="45.21251" lon="5.72942">
        <ele>814</ele>
        <time>2021-11-04T05:25:27.000Z</time>
      </trkpt>
      <trkpt lat="45.21248" lon="5.7294">
        <ele>813.40002441406</ele>
        <time>2021-11-04T05:25:29.000Z</time>
      </trkpt>
      <trkpt lat="45.21247" lon="5.72939">
        <ele>813</ele>
        <time>2021-11-04T05:25:30.000Z</time>
      </trkpt>
      <trkpt lat="45.2124" lon="5.72936">
        <ele>811.79998779297</ele>
        <time>2021-11-04T05:25:34.000Z</time>
      </trkpt>
      <trkpt lat="45.21234" lon="5.72928">
        <ele>810.79998779297</ele>
        <time>2021-11-04T05:25:38.000Z</time>
      </trkpt>
      <trkpt lat="45.21233" lon="5.72926">
        <ele>810.59997558594</ele>
        <time>2021-11-04T05:25:39.000Z</time>
      </trkpt>
      <trkpt lat="45.21233" lon="5.72924">
        <ele>810.59997558594</ele>
        <time>2021-11-04T05:25:40.000Z</time>
      </trkpt>
      <trkpt lat="45.21231" lon="5.72923">
        <ele>809.59997558594</ele>
        <time>2021-11-04T05:25:42.000Z</time>
      </trkpt>
      <trkpt lat="45.21227" lon="5.72921">
        <ele>808.59997558594</ele>
        <time>2021-11-04T05:25:45.000Z</time>
      </trkpt>
      <trkpt lat="45.21226" lon="5.72921">
        <ele>808.40002441406</ele>
        <time>2021-11-04T05:25:46.000Z</time>
      </trkpt>
      <trkpt lat="45.21219" lon="5.72918">
        <ele>807</ele>
        <time>2021-11-04T05:25:51.000Z</time>
      </trkpt>
      <trkpt lat="45.21215" lon="5.72919">
        <ele>805.79998779297</ele>
        <time>2021-11-04T05:25:55.000Z</time>
      </trkpt>
      <trkpt lat="45.21212" lon="5.72925">
        <ele>804.79998779297</ele>
        <time>2021-11-04T05:25:59.000Z</time>
      </trkpt>
      <trkpt lat="45.21212" lon="5.72928">
        <ele>804.20001220703</ele>
        <time>2021-11-04T05:26:01.000Z</time>
      </trkpt>
      <trkpt lat="45.21212" lon="5.7293">
        <ele>803.79998779297</ele>
        <time>2021-11-04T05:26:02.000Z</time>
      </trkpt>
      <trkpt lat="45.21213" lon="5.72932">
        <ele>803.40002441406</ele>
        <time>2021-11-04T05:26:03.000Z</time>
      </trkpt>
      <trkpt lat="45.21215" lon="5.72939">
        <ele>802</ele>
        <time>2021-11-04T05:26:07.000Z</time>
      </trkpt>
      <trkpt lat="45.21216" lon="5.7294">
        <ele>801.59997558594</ele>
        <time>2021-11-04T05:26:08.000Z</time>
      </trkpt>
      <trkpt lat="45.21216" lon="5.72943">
        <ele>801</ele>
        <time>2021-11-04T05:26:10.000Z</time>
      </trkpt>
      <trkpt lat="45.21214" lon="5.72945">
        <ele>800.59997558594</ele>
        <time>2021-11-04T05:26:12.000Z</time>
      </trkpt>
      <trkpt lat="45.21209" lon="5.72942">
        <ele>799.59997558594</ele>
        <time>2021-11-04T05:26:16.000Z</time>
      </trkpt>
      <trkpt lat="45.21206" lon="5.72939">
        <ele>799</ele>
        <time>2021-11-04T05:26:18.000Z</time>
      </trkpt>
      <trkpt lat="45.21203" lon="5.72935">
        <ele>798.20001220703</ele>
        <time>2021-11-04T05:26:20.000Z</time>
      </trkpt>
      <trkpt lat="45.21201" lon="5.7293">
        <ele>797.59997558594</ele>
        <time>2021-11-04T05:26:23.000Z</time>
      </trkpt>
      <trkpt lat="45.21199" lon="5.72927">
        <ele>797</ele>
        <time>2021-11-04T05:26:25.000Z</time>
      </trkpt>
      <trkpt lat="45.21198" lon="5.72925">
        <ele>796.79998779297</ele>
        <time>2021-11-04T05:26:26.000Z</time>
      </trkpt>
      <trkpt lat="45.21195" lon="5.72923">
        <ele>796.40002441406</ele>
        <time>2021-11-04T05:26:28.000Z</time>
      </trkpt>
      <trkpt lat="45.21194" lon="5.72921">
        <ele>795.79998779297</ele>
        <time>2021-11-04T05:26:29.000Z</time>
      </trkpt>
      <trkpt lat="45.2119" lon="5.72917">
        <ele>794.79998779297</ele>
        <time>2021-11-04T05:26:32.000Z</time>
      </trkpt>
      <trkpt lat="45.21185" lon="5.72911">
        <ele>793.59997558594</ele>
        <time>2021-11-04T05:26:36.000Z</time>
      </trkpt>
      <trkpt lat="45.21184" lon="5.7291">
        <ele>793.20001220703</ele>
        <time>2021-11-04T05:26:37.000Z</time>
      </trkpt>
      <trkpt lat="45.21183" lon="5.72909">
        <ele>793</ele>
        <time>2021-11-04T05:26:38.000Z</time>
      </trkpt>
      <trkpt lat="45.21178" lon="5.72905">
        <ele>792.20001220703</ele>
        <time>2021-11-04T05:26:41.000Z</time>
      </trkpt>
      <trkpt lat="45.21177" lon="5.72904">
        <ele>791.79998779297</ele>
        <time>2021-11-04T05:26:42.000Z</time>
      </trkpt>
      <trkpt lat="45.21176" lon="5.72904">
        <ele>791.59997558594</ele>
        <time>2021-11-04T05:26:43.000Z</time>
      </trkpt>
      <trkpt lat="45.21174" lon="5.72904">
        <ele>791</ele>
        <time>2021-11-04T05:26:44.000Z</time>
      </trkpt>
      <trkpt lat="45.21172" lon="5.72903">
        <ele>790.59997558594</ele>
        <time>2021-11-04T05:26:45.000Z</time>
      </trkpt>
      <trkpt lat="45.21169" lon="5.72902">
        <ele>790</ele>
        <time>2021-11-04T05:26:47.000Z</time>
      </trkpt>
      <trkpt lat="45.21167" lon="5.72902">
        <ele>789.79998779297</ele>
        <time>2021-11-04T05:26:48.000Z</time>
      </trkpt>
      <trkpt lat="45.2116" lon="5.72898">
        <ele>788.79998779297</ele>
        <time>2021-11-04T05:26:52.000Z</time>
      </trkpt>
      <trkpt lat="45.21156" lon="5.72896">
        <ele>788.20001220703</ele>
        <time>2021-11-04T05:26:54.000Z</time>
      </trkpt>
      <trkpt lat="45.21153" lon="5.72896">
        <ele>787.79998779297</ele>
        <time>2021-11-04T05:26:56.000Z</time>
      </trkpt>
      <trkpt lat="45.21149" lon="5.72897">
        <ele>787</ele>
        <time>2021-11-04T05:26:59.000Z</time>
      </trkpt>
      <trkpt lat="45.21147" lon="5.72897">
        <ele>786.59997558594</ele>
        <time>2021-11-04T05:27:00.000Z</time>
      </trkpt>
      <trkpt lat="45.21146" lon="5.72897">
        <ele>786.20001220703</ele>
        <time>2021-11-04T05:27:01.000Z</time>
      </trkpt>
      <trkpt lat="45.21143" lon="5.72896">
        <ele>785.79998779297</ele>
        <time>2021-11-04T05:27:03.000Z</time>
      </trkpt>
      <trkpt lat="45.21142" lon="5.72895">
        <ele>785.59997558594</ele>
        <time>2021-11-04T05:27:04.000Z</time>
      </trkpt>
      <trkpt lat="45.21141" lon="5.72894">
        <ele>785.20001220703</ele>
        <time>2021-11-04T05:27:05.000Z</time>
      </trkpt>
      <trkpt lat="45.2114" lon="5.72892">
        <ele>784</ele>
        <time>2021-11-04T05:27:07.000Z</time>
      </trkpt>
      <trkpt lat="45.21138" lon="5.7289">
        <ele>783.59997558594</ele>
        <time>2021-11-04T05:27:09.000Z</time>
      </trkpt>
      <trkpt lat="45.21135" lon="5.7289">
        <ele>783</ele>
        <time>2021-11-04T05:27:11.000Z</time>
      </trkpt>
      <trkpt lat="45.21129" lon="5.72887">
        <ele>782.20001220703</ele>
        <time>2021-11-04T05:27:14.000Z</time>
      </trkpt>
      <trkpt lat="45.21127" lon="5.72886">
        <ele>781.79998779297</ele>
        <time>2021-11-04T05:27:15.000Z</time>
      </trkpt>
      <trkpt lat="45.21121" lon="5.72883">
        <ele>780.59997558594</ele>
        <time>2021-11-04T05:27:18.000Z</time>
      </trkpt>
      <trkpt lat="45.21113" lon="5.72878">
        <ele>779.59997558594</ele>
        <time>2021-11-04T05:27:21.000Z</time>
      </trkpt>
      <trkpt lat="45.21112" lon="5.72876">
        <ele>779.40002441406</ele>
        <time>2021-11-04T05:27:22.000Z</time>
      </trkpt>
      <trkpt lat="45.2111" lon="5.72873">
        <ele>778.79998779297</ele>
        <time>2021-11-04T05:27:24.000Z</time>
      </trkpt>
      <trkpt lat="45.2111" lon="5.7287">
        <ele>778.40002441406</ele>
        <time>2021-11-04T05:27:26.000Z</time>
      </trkpt>
      <trkpt lat="45.21109" lon="5.72869">
        <ele>778.20001220703</ele>
        <time>2021-11-04T05:27:27.000Z</time>
      </trkpt>
      <trkpt lat="45.21108" lon="5.72868">
        <ele>777.79998779297</ele>
        <time>2021-11-04T05:27:29.000Z</time>
      </trkpt>
      <trkpt lat="45.21107" lon="5.72867">
        <ele>777.59997558594</ele>
        <time>2021-11-04T05:27:30.000Z</time>
      </trkpt>
      <trkpt lat="45.21106" lon="5.72864">
        <ele>777.40002441406</ele>
        <time>2021-11-04T05:27:31.000Z</time>
      </trkpt>
      <trkpt lat="45.21104" lon="5.72863">
        <ele>777</ele>
        <time>2021-11-04T05:27:32.000Z</time>
      </trkpt>
      <trkpt lat="45.21103" lon="5.72862">
        <ele>776.79998779297</ele>
        <time>2021-11-04T05:27:34.000Z</time>
      </trkpt>
      <trkpt lat="45.211" lon="5.72859">
        <ele>776</ele>
        <time>2021-11-04T05:27:36.000Z</time>
      </trkpt>
      <trkpt lat="45.21099" lon="5.72858">
        <ele>775.79998779297</ele>
        <time>2021-11-04T05:27:37.000Z</time>
      </trkpt>
      <trkpt lat="45.21094" lon="5.72852">
        <ele>775</ele>
        <time>2021-11-04T05:27:41.000Z</time>
      </trkpt>
      <trkpt lat="45.21091" lon="5.72848">
        <ele>774.59997558594</ele>
        <time>2021-11-04T05:27:43.000Z</time>
      </trkpt>
      <trkpt lat="45.21086" lon="5.72844">
        <ele>774</ele>
        <time>2021-11-04T05:27:46.000Z</time>
      </trkpt>
      <trkpt lat="45.21082" lon="5.72837">
        <ele>773.40002441406</ele>
        <time>2021-11-04T05:27:50.000Z</time>
      </trkpt>
      <trkpt lat="45.21075" lon="5.72823">
        <ele>772.20001220703</ele>
        <time>2021-11-04T05:27:56.000Z</time>
      </trkpt>
      <trkpt lat="45.21074" lon="5.72821">
        <ele>772.20001220703</ele>
        <time>2021-11-04T05:27:57.000Z</time>
      </trkpt>
      <trkpt lat="45.21064" lon="5.72801">
        <ele>771.40002441406</ele>
        <time>2021-11-04T05:28:05.000Z</time>
      </trkpt>
      <trkpt lat="45.21063" lon="5.72798">
        <ele>771.40002441406</ele>
        <time>2021-11-04T05:28:06.000Z</time>
      </trkpt>
      <trkpt lat="45.21061" lon="5.72795">
        <ele>771.40002441406</ele>
        <time>2021-11-04T05:28:07.000Z</time>
      </trkpt>
      <trkpt lat="45.21057" lon="5.72786">
        <ele>771.20001220703</ele>
        <time>2021-11-04T05:28:10.000Z</time>
      </trkpt>
      <trkpt lat="45.21056" lon="5.72782">
        <ele>771.20001220703</ele>
        <time>2021-11-04T05:28:11.000Z</time>
      </trkpt>
      <trkpt lat="45.21053" lon="5.72771">
        <ele>771</ele>
        <time>2021-11-04T05:28:16.000Z</time>
      </trkpt>
      <trkpt lat="45.2105" lon="5.72759">
        <ele>770.20001220703</ele>
        <time>2021-11-04T05:28:21.000Z</time>
      </trkpt>
      <trkpt lat="45.2105" lon="5.72757">
        <ele>770.20001220703</ele>
        <time>2021-11-04T05:28:22.000Z</time>
      </trkpt>
      <trkpt lat="45.21049" lon="5.72756">
        <ele>770</ele>
        <time>2021-11-04T05:28:23.000Z</time>
      </trkpt>
      <trkpt lat="45.21049" lon="5.72754">
        <ele>769.79998779297</ele>
        <time>2021-11-04T05:28:25.000Z</time>
      </trkpt>
      <trkpt lat="45.21048" lon="5.72752">
        <ele>769.20001220703</ele>
        <time>2021-11-04T05:28:27.000Z</time>
      </trkpt>
      <trkpt lat="45.21047" lon="5.72752">
        <ele>769</ele>
        <time>2021-11-04T05:28:28.000Z</time>
      </trkpt>
      <trkpt lat="45.21044" lon="5.72751">
        <ele>768.20001220703</ele>
        <time>2021-11-04T05:28:32.000Z</time>
      </trkpt>
      <trkpt lat="45.21044" lon="5.72751">
        <ele>767.79998779297</ele>
        <time>2021-11-04T05:28:33.000Z</time>
      </trkpt>
      <trkpt lat="45.21038" lon="5.72749">
        <ele>766.79998779297</ele>
        <time>2021-11-04T05:28:38.000Z</time>
      </trkpt>
      <trkpt lat="45.21036" lon="5.72748">
        <ele>766.40002441406</ele>
        <time>2021-11-04T05:28:39.000Z</time>
      </trkpt>
      <trkpt lat="45.21033" lon="5.72747">
        <ele>765.59997558594</ele>
        <time>2021-11-04T05:28:41.000Z</time>
      </trkpt>
      <trkpt lat="45.21031" lon="5.72747">
        <ele>765</ele>
        <time>2021-11-04T05:28:43.000Z</time>
      </trkpt>
      <trkpt lat="45.2103" lon="5.72747">
        <ele>764.79998779297</ele>
        <time>2021-11-04T05:28:44.000Z</time>
      </trkpt>
      <trkpt lat="45.2103" lon="5.72747">
        <ele>764.40002441406</ele>
        <time>2021-11-04T05:28:45.000Z</time>
      </trkpt>
      <trkpt lat="45.21029" lon="5.72746">
        <ele>764</ele>
        <time>2021-11-04T05:28:46.000Z</time>
      </trkpt>
      <trkpt lat="45.21027" lon="5.72745">
        <ele>763.40002441406</ele>
        <time>2021-11-04T05:28:49.000Z</time>
      </trkpt>
      <trkpt lat="45.21024" lon="5.72745">
        <ele>762.20001220703</ele>
        <time>2021-11-04T05:28:52.000Z</time>
      </trkpt>
      <trkpt lat="45.21022" lon="5.72745">
        <ele>761.59997558594</ele>
        <time>2021-11-04T05:28:55.000Z</time>
      </trkpt>
      <trkpt lat="45.2102" lon="5.72746">
        <ele>760.79998779297</ele>
        <time>2021-11-04T05:28:57.000Z</time>
      </trkpt>
      <trkpt lat="45.21019" lon="5.72745">
        <ele>760.59997558594</ele>
        <time>2021-11-04T05:28:58.000Z</time>
      </trkpt>
      <trkpt lat="45.21018" lon="5.72745">
        <ele>760.40002441406</ele>
        <time>2021-11-04T05:28:59.000Z</time>
      </trkpt>
      <trkpt lat="45.21016" lon="5.72745">
        <ele>759.59997558594</ele>
        <time>2021-11-04T05:29:02.000Z</time>
      </trkpt>
      <trkpt lat="45.21015" lon="5.72745">
        <ele>759</ele>
        <time>2021-11-04T05:29:04.000Z</time>
      </trkpt>
      <trkpt lat="45.21015" lon="5.72745">
        <ele>758.59997558594</ele>
        <time>2021-11-04T05:29:05.000Z</time>
      </trkpt>
      <trkpt lat="45.21013" lon="5.72746">
        <ele>757.40002441406</ele>
        <time>2021-11-04T05:29:08.000Z</time>
      </trkpt>
      <trkpt lat="45.21013" lon="5.72747">
        <ele>757.20001220703</ele>
        <time>2021-11-04T05:29:09.000Z</time>
      </trkpt>
      <trkpt lat="45.21011" lon="5.72748">
        <ele>756.79998779297</ele>
        <time>2021-11-04T05:29:11.000Z</time>
      </trkpt>
      <trkpt lat="45.21009" lon="5.72748">
        <ele>756.20001220703</ele>
        <time>2021-11-04T05:29:13.000Z</time>
      </trkpt>
      <trkpt lat="45.21007" lon="5.72749">
        <ele>755.40002441406</ele>
        <time>2021-11-04T05:29:15.000Z</time>
      </trkpt>
      <trkpt lat="45.21007" lon="5.7275">
        <ele>754.79998779297</ele>
        <time>2021-11-04T05:29:17.000Z</time>
      </trkpt>
      <trkpt lat="45.21005" lon="5.72751">
        <ele>754</ele>
        <time>2021-11-04T05:29:21.000Z</time>
      </trkpt>
      <trkpt lat="45.21004" lon="5.72752">
        <ele>753.79998779297</ele>
        <time>2021-11-04T05:29:22.000Z</time>
      </trkpt>
      <trkpt lat="45.21003" lon="5.72754">
        <ele>753</ele>
        <time>2021-11-04T05:29:25.000Z</time>
      </trkpt>
      <trkpt lat="45.21003" lon="5.72755">
        <ele>752.59997558594</ele>
        <time>2021-11-04T05:29:26.000Z</time>
      </trkpt>
      <trkpt lat="45.21002" lon="5.72755">
        <ele>752.20001220703</ele>
        <time>2021-11-04T05:29:27.000Z</time>
      </trkpt>
      <trkpt lat="45.21002" lon="5.72756">
        <ele>752</ele>
        <time>2021-11-04T05:29:28.000Z</time>
      </trkpt>
      <trkpt lat="45.21002" lon="5.72757">
        <ele>751.40002441406</ele>
        <time>2021-11-04T05:29:29.000Z</time>
      </trkpt>
      <trkpt lat="45.21" lon="5.72758">
        <ele>751.20001220703</ele>
        <time>2021-11-04T05:29:30.000Z</time>
      </trkpt>
      <trkpt lat="45.20996" lon="5.72758">
        <ele>750.20001220703</ele>
        <time>2021-11-04T05:29:33.000Z</time>
      </trkpt>
      <trkpt lat="45.20995" lon="5.72761">
        <ele>749.40002441406</ele>
        <time>2021-11-04T05:29:36.000Z</time>
      </trkpt>
      <trkpt lat="45.20994" lon="5.72762">
        <ele>749.20001220703</ele>
        <time>2021-11-04T05:29:37.000Z</time>
      </trkpt>
      <trkpt lat="45.20992" lon="5.72763">
        <ele>748.20001220703</ele>
        <time>2021-11-04T05:29:40.000Z</time>
      </trkpt>
      <trkpt lat="45.20991" lon="5.72763">
        <ele>748</ele>
        <time>2021-11-04T05:29:41.000Z</time>
      </trkpt>
      <trkpt lat="45.2099" lon="5.72763">
        <ele>747.40002441406</ele>
        <time>2021-11-04T05:29:43.000Z</time>
      </trkpt>
      <trkpt lat="45.20989" lon="5.72763">
        <ele>747</ele>
        <time>2021-11-04T05:29:44.000Z</time>
      </trkpt>
      <trkpt lat="45.20988" lon="5.7276">
        <ele>746.20001220703</ele>
        <time>2021-11-04T05:29:47.000Z</time>
      </trkpt>
      <trkpt lat="45.20987" lon="5.7276">
        <ele>745.79998779297</ele>
        <time>2021-11-04T05:29:48.000Z</time>
      </trkpt>
      <trkpt lat="45.20985" lon="5.7276">
        <ele>745.20001220703</ele>
        <time>2021-11-04T05:29:50.000Z</time>
      </trkpt>
      <trkpt lat="45.20983" lon="5.72759">
        <ele>744.59997558594</ele>
        <time>2021-11-04T05:29:52.000Z</time>
      </trkpt>
      <trkpt lat="45.20982" lon="5.72758">
        <ele>744.40002441406</ele>
        <time>2021-11-04T05:29:53.000Z</time>
      </trkpt>
      <trkpt lat="45.20981" lon="5.72757">
        <ele>744</ele>
        <time>2021-11-04T05:29:54.000Z</time>
      </trkpt>
      <trkpt lat="45.2098" lon="5.72755">
        <ele>743.40002441406</ele>
        <time>2021-11-04T05:29:56.000Z</time>
      </trkpt>
      <trkpt lat="45.20978" lon="5.72753">
        <ele>742.59997558594</ele>
        <time>2021-11-04T05:29:58.000Z</time>
      </trkpt>
      <trkpt lat="45.20978" lon="5.72751">
        <ele>741.79998779297</ele>
        <time>2021-11-04T05:30:00.000Z</time>
      </trkpt>
      <trkpt lat="45.20977" lon="5.7275">
        <ele>741.20001220703</ele>
        <time>2021-11-04T05:30:02.000Z</time>
      </trkpt>
      <trkpt lat="45.20976" lon="5.72748">
        <ele>740.79998779297</ele>
        <time>2021-11-04T05:30:03.000Z</time>
      </trkpt>
      <trkpt lat="45.20975" lon="5.72745">
        <ele>740.20001220703</ele>
        <time>2021-11-04T05:30:05.000Z</time>
      </trkpt>
      <trkpt lat="45.20974" lon="5.72744">
        <ele>739.79998779297</ele>
        <time>2021-11-04T05:30:06.000Z</time>
      </trkpt>
      <trkpt lat="45.20973" lon="5.72744">
        <ele>739.59997558594</ele>
        <time>2021-11-04T05:30:07.000Z</time>
      </trkpt>
      <trkpt lat="45.20971" lon="5.7274">
        <ele>738.79998779297</ele>
        <time>2021-11-04T05:30:10.000Z</time>
      </trkpt>
      <trkpt lat="45.20969" lon="5.72736">
        <ele>737.79998779297</ele>
        <time>2021-11-04T05:30:13.000Z</time>
      </trkpt>
      <trkpt lat="45.20969" lon="5.72736">
        <ele>737.40002441406</ele>
        <time>2021-11-04T05:30:14.000Z</time>
      </trkpt>
      <trkpt lat="45.20968" lon="5.72733">
        <ele>736.59997558594</ele>
        <time>2021-11-04T05:30:17.000Z</time>
      </trkpt>
      <trkpt lat="45.20968" lon="5.72732">
        <ele>736.20001220703</ele>
        <time>2021-11-04T05:30:18.000Z</time>
      </trkpt>
      <trkpt lat="45.20966" lon="5.72731">
        <ele>735.59997558594</ele>
        <time>2021-11-04T05:30:20.000Z</time>
      </trkpt>
      <trkpt lat="45.20965" lon="5.72731">
        <ele>735.20001220703</ele>
        <time>2021-11-04T05:30:21.000Z</time>
      </trkpt>
      <trkpt lat="45.20965" lon="5.72731">
        <ele>734.79998779297</ele>
        <time>2021-11-04T05:30:22.000Z</time>
      </trkpt>
      <trkpt lat="45.20964" lon="5.7273">
        <ele>734.40002441406</ele>
        <time>2021-11-04T05:30:23.000Z</time>
      </trkpt>
      <trkpt lat="45.20962" lon="5.72726">
        <ele>733.59997558594</ele>
        <time>2021-11-04T05:30:26.000Z</time>
      </trkpt>
      <trkpt lat="45.20962" lon="5.72726">
        <ele>733.40002441406</ele>
        <time>2021-11-04T05:30:27.000Z</time>
      </trkpt>
      <trkpt lat="45.20961" lon="5.72724">
        <ele>732.59997558594</ele>
        <time>2021-11-04T05:30:29.000Z</time>
      </trkpt>
      <trkpt lat="45.2096" lon="5.72724">
        <ele>732</ele>
        <time>2021-11-04T05:30:30.000Z</time>
      </trkpt>
      <trkpt lat="45.20957" lon="5.72722">
        <ele>731</ele>
        <time>2021-11-04T05:30:33.000Z</time>
      </trkpt>
      <trkpt lat="45.20956" lon="5.72721">
        <ele>730.59997558594</ele>
        <time>2021-11-04T05:30:34.000Z</time>
      </trkpt>
      <trkpt lat="45.20955" lon="5.7272">
        <ele>730.40002441406</ele>
        <time>2021-11-04T05:30:35.000Z</time>
      </trkpt>
      <trkpt lat="45.20954" lon="5.72718">
        <ele>730.20001220703</ele>
        <time>2021-11-04T05:30:36.000Z</time>
      </trkpt>
      <trkpt lat="45.20952" lon="5.72716">
        <ele>729.59997558594</ele>
        <time>2021-11-04T05:30:38.000Z</time>
      </trkpt>
      <trkpt lat="45.20947" lon="5.7271">
        <ele>728.59997558594</ele>
        <time>2021-11-04T05:30:41.000Z</time>
      </trkpt>
      <trkpt lat="45.20947" lon="5.72708">
        <ele>728.20001220703</ele>
        <time>2021-11-04T05:30:42.000Z</time>
      </trkpt>
      <trkpt lat="45.20946" lon="5.72703">
        <ele>727.20001220703</ele>
        <time>2021-11-04T05:30:45.000Z</time>
      </trkpt>
      <trkpt lat="45.20944" lon="5.72697">
        <ele>725.79998779297</ele>
        <time>2021-11-04T05:30:48.000Z</time>
      </trkpt>
      <trkpt lat="45.20944" lon="5.72695">
        <ele>725.40002441406</ele>
        <time>2021-11-04T05:30:49.000Z</time>
      </trkpt>
      <trkpt lat="45.20943" lon="5.72694">
        <ele>725</ele>
        <time>2021-11-04T05:30:50.000Z</time>
      </trkpt>
      <trkpt lat="45.20942" lon="5.72693">
        <ele>724.79998779297</ele>
        <time>2021-11-04T05:30:51.000Z</time>
      </trkpt>
      <trkpt lat="45.20939" lon="5.72692">
        <ele>724.59997558594</ele>
        <time>2021-11-04T05:30:52.000Z</time>
      </trkpt>
      <trkpt lat="45.20932" lon="5.72689">
        <ele>723.40002441406</ele>
        <time>2021-11-04T05:30:56.000Z</time>
      </trkpt>
      <trkpt lat="45.20926" lon="5.72684">
        <ele>722.59997558594</ele>
        <time>2021-11-04T05:30:59.000Z</time>
      </trkpt>
      <trkpt lat="45.20926" lon="5.72683">
        <ele>722.40002441406</ele>
        <time>2021-11-04T05:31:00.000Z</time>
      </trkpt>
      <trkpt lat="45.20925" lon="5.72682">
        <ele>722</ele>
        <time>2021-11-04T05:31:01.000Z</time>
      </trkpt>
      <trkpt lat="45.20924" lon="5.72678">
        <ele>721.20001220703</ele>
        <time>2021-11-04T05:31:03.000Z</time>
      </trkpt>
      <trkpt lat="45.20923" lon="5.72678">
        <ele>721</ele>
        <time>2021-11-04T05:31:04.000Z</time>
      </trkpt>
      <trkpt lat="45.20919" lon="5.72679">
        <ele>720</ele>
        <time>2021-11-04T05:31:07.000Z</time>
      </trkpt>
      <trkpt lat="45.20918" lon="5.7268">
        <ele>719.79998779297</ele>
        <time>2021-11-04T05:31:08.000Z</time>
      </trkpt>
      <trkpt lat="45.20915" lon="5.7268">
        <ele>719.20001220703</ele>
        <time>2021-11-04T05:31:10.000Z</time>
      </trkpt>
      <trkpt lat="45.20913" lon="5.7268">
        <ele>718.79998779297</ele>
        <time>2021-11-04T05:31:12.000Z</time>
      </trkpt>
      <trkpt lat="45.20911" lon="5.72682">
        <ele>717.79998779297</ele>
        <time>2021-11-04T05:31:15.000Z</time>
      </trkpt>
      <trkpt lat="45.20909" lon="5.72681">
        <ele>717.20001220703</ele>
        <time>2021-11-04T05:31:17.000Z</time>
      </trkpt>
      <trkpt lat="45.20908" lon="5.72681">
        <ele>716.79998779297</ele>
        <time>2021-11-04T05:31:18.000Z</time>
      </trkpt>
      <trkpt lat="45.20907" lon="5.72681">
        <ele>716.79998779297</ele>
        <time>2021-11-04T05:31:19.000Z</time>
      </trkpt>
      <trkpt lat="45.20902" lon="5.72683">
        <ele>715.59997558594</ele>
        <time>2021-11-04T05:31:23.000Z</time>
      </trkpt>
      <trkpt lat="45.20901" lon="5.72684">
        <ele>715.40002441406</ele>
        <time>2021-11-04T05:31:24.000Z</time>
      </trkpt>
      <trkpt lat="45.20897" lon="5.72683">
        <ele>714.40002441406</ele>
        <time>2021-11-04T05:31:27.000Z</time>
      </trkpt>
      <trkpt lat="45.20891" lon="5.72686">
        <ele>713</ele>
        <time>2021-11-04T05:31:31.000Z</time>
      </trkpt>
      <trkpt lat="45.2089" lon="5.72688">
        <ele>712.40002441406</ele>
        <time>2021-11-04T05:31:32.000Z</time>
      </trkpt>
      <trkpt lat="45.20889" lon="5.72688">
        <ele>712</ele>
        <time>2021-11-04T05:31:34.000Z</time>
      </trkpt>
      <trkpt lat="45.20888" lon="5.72689">
        <ele>711.79998779297</ele>
        <time>2021-11-04T05:31:35.000Z</time>
      </trkpt>
      <trkpt lat="45.20881" lon="5.7269">
        <ele>711</ele>
        <time>2021-11-04T05:31:38.000Z</time>
      </trkpt>
      <trkpt lat="45.2088" lon="5.7269">
        <ele>710.59997558594</ele>
        <time>2021-11-04T05:31:39.000Z</time>
      </trkpt>
      <trkpt lat="45.20875" lon="5.72691">
        <ele>709.59997558594</ele>
        <time>2021-11-04T05:31:42.000Z</time>
      </trkpt>
      <trkpt lat="45.20867" lon="5.72691">
        <ele>708.59997558594</ele>
        <time>2021-11-04T05:31:46.000Z</time>
      </trkpt>
      <trkpt lat="45.20865" lon="5.72692">
        <ele>708.20001220703</ele>
        <time>2021-11-04T05:31:47.000Z</time>
      </trkpt>
      <trkpt lat="45.20855" lon="5.72693">
        <ele>707</ele>
        <time>2021-11-04T05:31:52.000Z</time>
      </trkpt>
      <trkpt lat="45.20854" lon="5.72694">
        <ele>706.79998779297</ele>
        <time>2021-11-04T05:31:53.000Z</time>
      </trkpt>
      <trkpt lat="45.20852" lon="5.72694">
        <ele>706.59997558594</ele>
        <time>2021-11-04T05:31:54.000Z</time>
      </trkpt>
      <trkpt lat="45.20851" lon="5.72694">
        <ele>706.20001220703</ele>
        <time>2021-11-04T05:31:55.000Z</time>
      </trkpt>
      <trkpt lat="45.2085" lon="5.72694">
        <ele>706.20001220703</ele>
        <time>2021-11-04T05:31:56.000Z</time>
      </trkpt>
      <trkpt lat="45.20849" lon="5.72695">
        <ele>706</ele>
        <time>2021-11-04T05:31:57.000Z</time>
      </trkpt>
      <trkpt lat="45.20847" lon="5.72695">
        <ele>705.40002441406</ele>
        <time>2021-11-04T05:31:59.000Z</time>
      </trkpt>
      <trkpt lat="45.20845" lon="5.72695">
        <ele>704.79998779297</ele>
        <time>2021-11-04T05:32:02.000Z</time>
      </trkpt>
      <trkpt lat="45.20843" lon="5.72696">
        <ele>704.20001220703</ele>
        <time>2021-11-04T05:32:04.000Z</time>
      </trkpt>
      <trkpt lat="45.20843" lon="5.72697">
        <ele>703.79998779297</ele>
        <time>2021-11-04T05:32:05.000Z</time>
      </trkpt>
      <trkpt lat="45.20842" lon="5.72697">
        <ele>703.40002441406</ele>
        <time>2021-11-04T05:32:06.000Z</time>
      </trkpt>
      <trkpt lat="45.20841" lon="5.72698">
        <ele>703</ele>
        <time>2021-11-04T05:32:08.000Z</time>
      </trkpt>
      <trkpt lat="45.2084" lon="5.72698">
        <ele>702.79998779297</ele>
        <time>2021-11-04T05:32:09.000Z</time>
      </trkpt>
      <trkpt lat="45.20838" lon="5.72698">
        <ele>702.40002441406</ele>
        <time>2021-11-04T05:32:12.000Z</time>
      </trkpt>
      <trkpt lat="45.20836" lon="5.72701">
        <ele>702.40002441406</ele>
        <time>2021-11-04T05:32:15.000Z</time>
      </trkpt>
      <trkpt lat="45.20836" lon="5.72702">
        <ele>702.40002441406</ele>
        <time>2021-11-04T05:32:17.000Z</time>
      </trkpt>
      <trkpt lat="45.20836" lon="5.72703">
        <ele>703.20001220703</ele>
        <time>2021-11-04T05:32:20.000Z</time>
      </trkpt>
      <trkpt lat="45.20836" lon="5.72704">
        <ele>703.40002441406</ele>
        <time>2021-11-04T05:32:21.000Z</time>
      </trkpt>
      <trkpt lat="45.20836" lon="5.72705">
        <ele>703.59997558594</ele>
        <time>2021-11-04T05:32:22.000Z</time>
      </trkpt>
      <trkpt lat="45.20835" lon="5.72706">
        <ele>703.79998779297</ele>
        <time>2021-11-04T05:32:23.000Z</time>
      </trkpt>
      <trkpt lat="45.20833" lon="5.72709">
        <ele>704.79998779297</ele>
        <time>2021-11-04T05:32:26.000Z</time>
      </trkpt>
      <trkpt lat="45.20833" lon="5.7271">
        <ele>705.40002441406</ele>
        <time>2021-11-04T05:32:27.000Z</time>
      </trkpt>
      <trkpt lat="45.20833" lon="5.72711">
        <ele>706</ele>
        <time>2021-11-04T05:32:28.000Z</time>
      </trkpt>
      <trkpt lat="45.20833" lon="5.72711">
        <ele>706.20001220703</ele>
        <time>2021-11-04T05:32:29.000Z</time>
      </trkpt>
      <trkpt lat="45.20832" lon="5.72713">
        <ele>707</ele>
        <time>2021-11-04T05:32:32.000Z</time>
      </trkpt>
      <trkpt lat="45.20832" lon="5.72715">
        <ele>707.59997558594</ele>
        <time>2021-11-04T05:32:34.000Z</time>
      </trkpt>
      <trkpt lat="45.20832" lon="5.72717">
        <ele>708.20001220703</ele>
        <time>2021-11-04T05:32:36.000Z</time>
      </trkpt>
      <trkpt lat="45.2083" lon="5.72721">
        <ele>709.20001220703</ele>
        <time>2021-11-04T05:32:40.000Z</time>
      </trkpt>
      <trkpt lat="45.20829" lon="5.72721">
        <ele>709.40002441406</ele>
        <time>2021-11-04T05:32:41.000Z</time>
      </trkpt>
      <trkpt lat="45.20828" lon="5.7272">
        <ele>709.40002441406</ele>
        <time>2021-11-04T05:32:43.000Z</time>
      </trkpt>
      <trkpt lat="45.20827" lon="5.72721">
        <ele>709.40002441406</ele>
        <time>2021-11-04T05:32:45.000Z</time>
      </trkpt>
      <trkpt lat="45.20823" lon="5.72725">
        <ele>709.59997558594</ele>
        <time>2021-11-04T05:32:50.000Z</time>
      </trkpt>
      <trkpt lat="45.20823" lon="5.72726">
        <ele>709.59997558594</ele>
        <time>2021-11-04T05:32:51.000Z</time>
      </trkpt>
      <trkpt lat="45.20822" lon="5.72727">
        <ele>709.40002441406</ele>
        <time>2021-11-04T05:32:52.000Z</time>
      </trkpt>
      <trkpt lat="45.20821" lon="5.72727">
        <ele>709</ele>
        <time>2021-11-04T05:32:54.000Z</time>
      </trkpt>
      <trkpt lat="45.20818" lon="5.72728">
        <ele>708.20001220703</ele>
        <time>2021-11-04T05:32:57.000Z</time>
      </trkpt>
      <trkpt lat="45.20817" lon="5.72728">
        <ele>707.59997558594</ele>
        <time>2021-11-04T05:32:58.000Z</time>
      </trkpt>
      <trkpt lat="45.20816" lon="5.72728">
        <ele>707.40002441406</ele>
        <time>2021-11-04T05:32:59.000Z</time>
      </trkpt>
      <trkpt lat="45.20815" lon="5.72728">
        <ele>707</ele>
        <time>2021-11-04T05:33:00.000Z</time>
      </trkpt>
      <trkpt lat="45.20814" lon="5.72728">
        <ele>706.79998779297</ele>
        <time>2021-11-04T05:33:02.000Z</time>
      </trkpt>
      <trkpt lat="45.20814" lon="5.72728">
        <ele>706.59997558594</ele>
        <time>2021-11-04T05:33:04.000Z</time>
      </trkpt>
      <trkpt lat="45.20813" lon="5.72728">
        <ele>706.40002441406</ele>
        <time>2021-11-04T05:33:05.000Z</time>
      </trkpt>
      <trkpt lat="45.20813" lon="5.72728">
        <ele>706.40002441406</ele>
        <time>2021-11-04T05:33:06.000Z</time>
      </trkpt>
      <trkpt lat="45.20809" lon="5.7273">
        <ele>706.20001220703</ele>
        <time>2021-11-04T05:33:09.000Z</time>
      </trkpt>
      <trkpt lat="45.20808" lon="5.72731">
        <ele>706</ele>
        <time>2021-11-04T05:33:10.000Z</time>
      </trkpt>
      <trkpt lat="45.20807" lon="5.72732">
        <ele>706</ele>
        <time>2021-11-04T05:33:11.000Z</time>
      </trkpt>
      <trkpt lat="45.20803" lon="5.72729">
        <ele>706.40002441406</ele>
        <time>2021-11-04T05:33:16.000Z</time>
      </trkpt>
      <trkpt lat="45.20803" lon="5.72729">
        <ele>706.59997558594</ele>
        <time>2021-11-04T05:33:17.000Z</time>
      </trkpt>
      <trkpt lat="45.20801" lon="5.72728">
        <ele>707</ele>
        <time>2021-11-04T05:33:19.000Z</time>
      </trkpt>
      <trkpt lat="45.208" lon="5.72728">
        <ele>707.20001220703</ele>
        <time>2021-11-04T05:33:20.000Z</time>
      </trkpt>
      <trkpt lat="45.20799" lon="5.72728">
        <ele>707.40002441406</ele>
        <time>2021-11-04T05:33:21.000Z</time>
      </trkpt>
      <trkpt lat="45.20798" lon="5.72728">
        <ele>707.59997558594</ele>
        <time>2021-11-04T05:33:22.000Z</time>
      </trkpt>
      <trkpt lat="45.20798" lon="5.72727">
        <ele>708.40002441406</ele>
        <time>2021-11-04T05:33:25.000Z</time>
      </trkpt>
      <trkpt lat="45.20797" lon="5.72727">
        <ele>709</ele>
        <time>2021-11-04T05:33:30.000Z</time>
      </trkpt>
      <trkpt lat="45.20798" lon="5.72726">
        <ele>708.79998779297</ele>
        <time>2021-11-04T05:33:38.000Z</time>
      </trkpt>
      <trkpt lat="45.20798" lon="5.72726">
        <ele>707.79998779297</ele>
        <time>2021-11-04T05:33:42.000Z</time>
      </trkpt>
      <trkpt lat="45.20798" lon="5.72726">
        <ele>707.40002441406</ele>
        <time>2021-11-04T05:33:45.000Z</time>
      </trkpt>
      <trkpt lat="45.20798" lon="5.72726">
        <ele>707.20001220703</ele>
        <time>2021-11-04T05:33:46.000Z</time>
      </trkpt>
      <trkpt lat="45.20803" lon="5.72725">
        <ele>706.20001220703</ele>
        <time>2021-11-04T05:33:53.000Z</time>
      </trkpt>
      <trkpt lat="45.20807" lon="5.72727">
        <ele>706</ele>
        <time>2021-11-04T05:33:56.000Z</time>
      </trkpt>
      <trkpt lat="45.20808" lon="5.72727">
        <ele>706.20001220703</ele>
        <time>2021-11-04T05:33:57.000Z</time>
      </trkpt>
      <trkpt lat="45.2081" lon="5.72728">
        <ele>706.20001220703</ele>
        <time>2021-11-04T05:33:58.000Z</time>
      </trkpt>
      <trkpt lat="45.20817" lon="5.72726">
        <ele>707.20001220703</ele>
        <time>2021-11-04T05:34:05.000Z</time>
      </trkpt>
      <trkpt lat="45.20818" lon="5.72726">
        <ele>707.40002441406</ele>
        <time>2021-11-04T05:34:07.000Z</time>
      </trkpt>
      <trkpt lat="45.20819" lon="5.72725">
        <ele>708.40002441406</ele>
        <time>2021-11-04T05:34:09.000Z</time>
      </trkpt>
      <trkpt lat="45.2082" lon="5.72724">
        <ele>708.59997558594</ele>
        <time>2021-11-04T05:34:10.000Z</time>
      </trkpt>
      <trkpt lat="45.20821" lon="5.72724">
        <ele>708.79998779297</ele>
        <time>2021-11-04T05:34:11.000Z</time>
      </trkpt>
      <trkpt lat="45.20822" lon="5.72723">
        <ele>709.20001220703</ele>
        <time>2021-11-04T05:34:13.000Z</time>
      </trkpt>
      <trkpt lat="45.20822" lon="5.72723">
        <ele>709.40002441406</ele>
        <time>2021-11-04T05:34:14.000Z</time>
      </trkpt>
      <trkpt lat="45.20822" lon="5.72722">
        <ele>709.40002441406</ele>
        <time>2021-11-04T05:34:15.000Z</time>
      </trkpt>
      <trkpt lat="45.20822" lon="5.72721">
        <ele>709.40002441406</ele>
        <time>2021-11-04T05:34:16.000Z</time>
      </trkpt>
      <trkpt lat="45.20826" lon="5.72719">
        <ele>709.59997558594</ele>
        <time>2021-11-04T05:34:22.000Z</time>
      </trkpt>
      <trkpt lat="45.20828" lon="5.72717">
        <ele>709.40002441406</ele>
        <time>2021-11-04T05:34:24.000Z</time>
      </trkpt>
      <trkpt lat="45.20828" lon="5.72716">
        <ele>709.20001220703</ele>
        <time>2021-11-04T05:34:25.000Z</time>
      </trkpt>
      <trkpt lat="45.20829" lon="5.72714">
        <ele>708.40002441406</ele>
        <time>2021-11-04T05:34:29.000Z</time>
      </trkpt>
      <trkpt lat="45.2083" lon="5.72714">
        <ele>708.20001220703</ele>
        <time>2021-11-04T05:34:30.000Z</time>
      </trkpt>
      <trkpt lat="45.20829" lon="5.72713">
        <ele>707</ele>
        <time>2021-11-04T05:34:34.000Z</time>
      </trkpt>
      <trkpt lat="45.20829" lon="5.72711">
        <ele>706.40002441406</ele>
        <time>2021-11-04T05:34:36.000Z</time>
      </trkpt>
      <trkpt lat="45.2083" lon="5.72711">
        <ele>706.20001220703</ele>
        <time>2021-11-04T05:34:37.000Z</time>
      </trkpt>
      <trkpt lat="45.2083" lon="5.72708">
        <ele>705.59997558594</ele>
        <time>2021-11-04T05:34:39.000Z</time>
      </trkpt>
      <trkpt lat="45.20831" lon="5.72705">
        <ele>704.40002441406</ele>
        <time>2021-11-04T05:34:43.000Z</time>
      </trkpt>
      <trkpt lat="45.20832" lon="5.72701">
        <ele>703</ele>
        <time>2021-11-04T05:34:47.000Z</time>
      </trkpt>
      <trkpt lat="45.20833" lon="5.72698">
        <ele>702</ele>
        <time>2021-11-04T05:34:50.000Z</time>
      </trkpt>
      <trkpt lat="45.20834" lon="5.72694">
        <ele>701.40002441406</ele>
        <time>2021-11-04T05:34:53.000Z</time>
      </trkpt>
      <trkpt lat="45.20834" lon="5.72693">
        <ele>701</ele>
        <time>2021-11-04T05:34:54.000Z</time>
      </trkpt>
      <trkpt lat="45.20835" lon="5.72691">
        <ele>700.59997558594</ele>
        <time>2021-11-04T05:34:55.000Z</time>
      </trkpt>
      <trkpt lat="45.20835" lon="5.72684">
        <ele>699.40002441406</ele>
        <time>2021-11-04T05:34:59.000Z</time>
      </trkpt>
      <trkpt lat="45.20835" lon="5.72681">
        <ele>699</ele>
        <time>2021-11-04T05:35:00.000Z</time>
      </trkpt>
      <trkpt lat="45.20835" lon="5.72677">
        <ele>698</ele>
        <time>2021-11-04T05:35:03.000Z</time>
      </trkpt>
      <trkpt lat="45.20836" lon="5.72672">
        <ele>697.40002441406</ele>
        <time>2021-11-04T05:35:06.000Z</time>
      </trkpt>
      <trkpt lat="45.20836" lon="5.72671">
        <ele>696.79998779297</ele>
        <time>2021-11-04T05:35:07.000Z</time>
      </trkpt>
      <trkpt lat="45.20835" lon="5.72668">
        <ele>696</ele>
        <time>2021-11-04T05:35:09.000Z</time>
      </trkpt>
      <trkpt lat="45.20835" lon="5.72666">
        <ele>695.59997558594</ele>
        <time>2021-11-04T05:35:10.000Z</time>
      </trkpt>
      <trkpt lat="45.20834" lon="5.72665">
        <ele>695.20001220703</ele>
        <time>2021-11-04T05:35:11.000Z</time>
      </trkpt>
      <trkpt lat="45.20831" lon="5.72659">
        <ele>694.20001220703</ele>
        <time>2021-11-04T05:35:15.000Z</time>
      </trkpt>
      <trkpt lat="45.2083" lon="5.72659">
        <ele>693.79998779297</ele>
        <time>2021-11-04T05:35:16.000Z</time>
      </trkpt>
      <trkpt lat="45.20827" lon="5.72659">
        <ele>692.79998779297</ele>
        <time>2021-11-04T05:35:18.000Z</time>
      </trkpt>
      <trkpt lat="45.20824" lon="5.72664">
        <ele>691.79998779297</ele>
        <time>2021-11-04T05:35:21.000Z</time>
      </trkpt>
      <trkpt lat="45.20824" lon="5.72664">
        <ele>691.59997558594</ele>
        <time>2021-11-04T05:35:22.000Z</time>
      </trkpt>
      <trkpt lat="45.20822" lon="5.72665">
        <ele>691.20001220703</ele>
        <time>2021-11-04T05:35:23.000Z</time>
      </trkpt>
      <trkpt lat="45.2082" lon="5.72668">
        <ele>690.59997558594</ele>
        <time>2021-11-04T05:35:26.000Z</time>
      </trkpt>
      <trkpt lat="45.20816" lon="5.7267">
        <ele>690</ele>
        <time>2021-11-04T05:35:29.000Z</time>
      </trkpt>
      <trkpt lat="45.20814" lon="5.7267">
        <ele>689.40002441406</ele>
        <time>2021-11-04T05:35:31.000Z</time>
      </trkpt>
      <trkpt lat="45.2081" lon="5.72671">
        <ele>688.40002441406</ele>
        <time>2021-11-04T05:35:34.000Z</time>
      </trkpt>
      <trkpt lat="45.2081" lon="5.7267">
        <ele>688.20001220703</ele>
        <time>2021-11-04T05:35:35.000Z</time>
      </trkpt>
      <trkpt lat="45.20809" lon="5.72669">
        <ele>687.79998779297</ele>
        <time>2021-11-04T05:35:36.000Z</time>
      </trkpt>
      <trkpt lat="45.20809" lon="5.72668">
        <ele>687.20001220703</ele>
        <time>2021-11-04T05:35:38.000Z</time>
      </trkpt>
      <trkpt lat="45.20809" lon="5.72663">
        <ele>686.40002441406</ele>
        <time>2021-11-04T05:35:41.000Z</time>
      </trkpt>
      <trkpt lat="45.20808" lon="5.7266">
        <ele>686.40002441406</ele>
        <time>2021-11-04T05:35:43.000Z</time>
      </trkpt>
      <trkpt lat="45.20807" lon="5.72659">
        <ele>686</ele>
        <time>2021-11-04T05:35:44.000Z</time>
      </trkpt>
      <trkpt lat="45.20807" lon="5.72657">
        <ele>685.79998779297</ele>
        <time>2021-11-04T05:35:45.000Z</time>
      </trkpt>
      <trkpt lat="45.20807" lon="5.72656">
        <ele>685.59997558594</ele>
        <time>2021-11-04T05:35:46.000Z</time>
      </trkpt>
      <trkpt lat="45.20808" lon="5.72655">
        <ele>684.79998779297</ele>
        <time>2021-11-04T05:35:48.000Z</time>
      </trkpt>
      <trkpt lat="45.20808" lon="5.72649">
        <ele>684</ele>
        <time>2021-11-04T05:35:51.000Z</time>
      </trkpt>
      <trkpt lat="45.20807" lon="5.72647">
        <ele>683.40002441406</ele>
        <time>2021-11-04T05:35:52.000Z</time>
      </trkpt>
      <trkpt lat="45.20805" lon="5.72645">
        <ele>682.59997558594</ele>
        <time>2021-11-04T05:35:54.000Z</time>
      </trkpt>
      <trkpt lat="45.20805" lon="5.72644">
        <ele>682.20001220703</ele>
        <time>2021-11-04T05:35:55.000Z</time>
      </trkpt>
      <trkpt lat="45.20805" lon="5.72643">
        <ele>682</ele>
        <time>2021-11-04T05:35:56.000Z</time>
      </trkpt>
      <trkpt lat="45.20805" lon="5.72642">
        <ele>681.59997558594</ele>
        <time>2021-11-04T05:35:57.000Z</time>
      </trkpt>
      <trkpt lat="45.20804" lon="5.72638">
        <ele>681.20001220703</ele>
        <time>2021-11-04T05:35:59.000Z</time>
      </trkpt>
      <trkpt lat="45.208" lon="5.72631">
        <ele>680.20001220703</ele>
        <time>2021-11-04T05:36:02.000Z</time>
      </trkpt>
      <trkpt lat="45.208" lon="5.72629">
        <ele>680</ele>
        <time>2021-11-04T05:36:03.000Z</time>
      </trkpt>
      <trkpt lat="45.208" lon="5.72628">
        <ele>679.40002441406</ele>
        <time>2021-11-04T05:36:05.000Z</time>
      </trkpt>
      <trkpt lat="45.20798" lon="5.72627">
        <ele>678.79998779297</ele>
        <time>2021-11-04T05:36:07.000Z</time>
      </trkpt>
      <trkpt lat="45.20797" lon="5.72633">
        <ele>677.79998779297</ele>
        <time>2021-11-04T05:36:11.000Z</time>
      </trkpt>
      <trkpt lat="45.20796" lon="5.72637">
        <ele>677.20001220703</ele>
        <time>2021-11-04T05:36:13.000Z</time>
      </trkpt>
      <trkpt lat="45.20795" lon="5.72641">
        <ele>676.59997558594</ele>
        <time>2021-11-04T05:36:15.000Z</time>
      </trkpt>
      <trkpt lat="45.20794" lon="5.72643">
        <ele>676</ele>
        <time>2021-11-04T05:36:16.000Z</time>
      </trkpt>
      <trkpt lat="45.20791" lon="5.72644">
        <ele>675.40002441406</ele>
        <time>2021-11-04T05:36:18.000Z</time>
      </trkpt>
      <trkpt lat="45.20788" lon="5.72645">
        <ele>674.79998779297</ele>
        <time>2021-11-04T05:36:20.000Z</time>
      </trkpt>
      <trkpt lat="45.20787" lon="5.72645">
        <ele>674.40002441406</ele>
        <time>2021-11-04T05:36:21.000Z</time>
      </trkpt>
      <trkpt lat="45.20786" lon="5.72646">
        <ele>674.20001220703</ele>
        <time>2021-11-04T05:36:22.000Z</time>
      </trkpt>
      <trkpt lat="45.20784" lon="5.72647">
        <ele>673.20001220703</ele>
        <time>2021-11-04T05:36:24.000Z</time>
      </trkpt>
      <trkpt lat="45.20779" lon="5.72648">
        <ele>672</ele>
        <time>2021-11-04T05:36:28.000Z</time>
      </trkpt>
      <trkpt lat="45.20774" lon="5.72646">
        <ele>670.40002441406</ele>
        <time>2021-11-04T05:36:32.000Z</time>
      </trkpt>
      <trkpt lat="45.20775" lon="5.72639">
        <ele>669.20001220703</ele>
        <time>2021-11-04T05:36:36.000Z</time>
      </trkpt>
      <trkpt lat="45.20774" lon="5.72636">
        <ele>668.79998779297</ele>
        <time>2021-11-04T05:36:37.000Z</time>
      </trkpt>
      <trkpt lat="45.20774" lon="5.72634">
        <ele>668.40002441406</ele>
        <time>2021-11-04T05:36:38.000Z</time>
      </trkpt>
      <trkpt lat="45.20774" lon="5.72631">
        <ele>667.79998779297</ele>
        <time>2021-11-04T05:36:39.000Z</time>
      </trkpt>
      <trkpt lat="45.20775" lon="5.72624">
        <ele>666.40002441406</ele>
        <time>2021-11-04T05:36:43.000Z</time>
      </trkpt>
      <trkpt lat="45.20776" lon="5.72622">
        <ele>666.20001220703</ele>
        <time>2021-11-04T05:36:44.000Z</time>
      </trkpt>
      <trkpt lat="45.20776" lon="5.7262">
        <ele>666</ele>
        <time>2021-11-04T05:36:45.000Z</time>
      </trkpt>
      <trkpt lat="45.20774" lon="5.72616">
        <ele>665.20001220703</ele>
        <time>2021-11-04T05:36:47.000Z</time>
      </trkpt>
      <trkpt lat="45.20773" lon="5.72614">
        <ele>664.40002441406</ele>
        <time>2021-11-04T05:36:49.000Z</time>
      </trkpt>
      <trkpt lat="45.20773" lon="5.72614">
        <ele>664.20001220703</ele>
        <time>2021-11-04T05:36:50.000Z</time>
      </trkpt>
      <trkpt lat="45.20772" lon="5.72614">
        <ele>663.20001220703</ele>
        <time>2021-11-04T05:36:52.000Z</time>
      </trkpt>
      <trkpt lat="45.20771" lon="5.72615">
        <ele>662.79998779297</ele>
        <time>2021-11-04T05:36:53.000Z</time>
      </trkpt>
      <trkpt lat="45.2077" lon="5.72616">
        <ele>662.20001220703</ele>
        <time>2021-11-04T05:36:54.000Z</time>
      </trkpt>
      <trkpt lat="45.20768" lon="5.72617">
        <ele>661.79998779297</ele>
        <time>2021-11-04T05:36:56.000Z</time>
      </trkpt>
      <trkpt lat="45.20763" lon="5.72617">
        <ele>660.40002441406</ele>
        <time>2021-11-04T05:36:59.000Z</time>
      </trkpt>
      <trkpt lat="45.20757" lon="5.72617">
        <ele>659.20001220703</ele>
        <time>2021-11-04T05:37:02.000Z</time>
      </trkpt>
      <trkpt lat="45.20756" lon="5.72618">
        <ele>659</ele>
        <time>2021-11-04T05:37:03.000Z</time>
      </trkpt>
      <trkpt lat="45.20752" lon="5.72619">
        <ele>658.40002441406</ele>
        <time>2021-11-04T05:37:05.000Z</time>
      </trkpt>
      <trkpt lat="45.20751" lon="5.7262">
        <ele>658</ele>
        <time>2021-11-04T05:37:06.000Z</time>
      </trkpt>
      <trkpt lat="45.20748" lon="5.72619">
        <ele>657.20001220703</ele>
        <time>2021-11-04T05:37:08.000Z</time>
      </trkpt>
      <trkpt lat="45.20746" lon="5.72618">
        <ele>657</ele>
        <time>2021-11-04T05:37:09.000Z</time>
      </trkpt>
      <trkpt lat="45.20746" lon="5.72616">
        <ele>656.79998779297</ele>
        <time>2021-11-04T05:37:10.000Z</time>
      </trkpt>
      <trkpt lat="45.20746" lon="5.72608">
        <ele>655.79998779297</ele>
        <time>2021-11-04T05:37:14.000Z</time>
      </trkpt>
      <trkpt lat="45.20745" lon="5.72603">
        <ele>654.59997558594</ele>
        <time>2021-11-04T05:37:17.000Z</time>
      </trkpt>
      <trkpt lat="45.20745" lon="5.72602">
        <ele>654</ele>
        <time>2021-11-04T05:37:18.000Z</time>
      </trkpt>
      <trkpt lat="45.20743" lon="5.72594">
        <ele>652.79998779297</ele>
        <time>2021-11-04T05:37:21.000Z</time>
      </trkpt>
      <trkpt lat="45.20741" lon="5.72589">
        <ele>651.79998779297</ele>
        <time>2021-11-04T05:37:24.000Z</time>
      </trkpt>
      <trkpt lat="45.20739" lon="5.7259">
        <ele>651</ele>
        <time>2021-11-04T05:37:26.000Z</time>
      </trkpt>
      <trkpt lat="45.20738" lon="5.7259">
        <ele>650.59997558594</ele>
        <time>2021-11-04T05:37:27.000Z</time>
      </trkpt>
      <trkpt lat="45.20734" lon="5.72589">
        <ele>650</ele>
        <time>2021-11-04T05:37:29.000Z</time>
      </trkpt>
      <trkpt lat="45.20733" lon="5.72588">
        <ele>649.59997558594</ele>
        <time>2021-11-04T05:37:30.000Z</time>
      </trkpt>
      <trkpt lat="45.20731" lon="5.72587">
        <ele>649.40002441406</ele>
        <time>2021-11-04T05:37:31.000Z</time>
      </trkpt>
      <trkpt lat="45.2073" lon="5.72586">
        <ele>648.79998779297</ele>
        <time>2021-11-04T05:37:32.000Z</time>
      </trkpt>
      <trkpt lat="45.20728" lon="5.72585">
        <ele>648.40002441406</ele>
        <time>2021-11-04T05:37:33.000Z</time>
      </trkpt>
      <trkpt lat="45.20719" lon="5.72584">
        <ele>646.79998779297</ele>
        <time>2021-11-04T05:37:38.000Z</time>
      </trkpt>
      <trkpt lat="45.20715" lon="5.72582">
        <ele>645.59997558594</ele>
        <time>2021-11-04T05:37:41.000Z</time>
      </trkpt>
      <trkpt lat="45.20713" lon="5.72582">
        <ele>645</ele>
        <time>2021-11-04T05:37:44.000Z</time>
      </trkpt>
      <trkpt lat="45.20713" lon="5.72581">
        <ele>644.59997558594</ele>
        <time>2021-11-04T05:37:45.000Z</time>
      </trkpt>
      <trkpt lat="45.2071" lon="5.72579">
        <ele>643.59997558594</ele>
        <time>2021-11-04T05:37:48.000Z</time>
      </trkpt>
      <trkpt lat="45.20708" lon="5.72578">
        <ele>643.40002441406</ele>
        <time>2021-11-04T05:37:49.000Z</time>
      </trkpt>
      <trkpt lat="45.20707" lon="5.72576">
        <ele>642.79998779297</ele>
        <time>2021-11-04T05:37:51.000Z</time>
      </trkpt>
      <trkpt lat="45.20706" lon="5.72575">
        <ele>642.20001220703</ele>
        <time>2021-11-04T05:37:53.000Z</time>
      </trkpt>
      <trkpt lat="45.20703" lon="5.72574">
        <ele>641.79998779297</ele>
        <time>2021-11-04T05:37:55.000Z</time>
      </trkpt>
      <trkpt lat="45.207" lon="5.72572">
        <ele>641</ele>
        <time>2021-11-04T05:37:57.000Z</time>
      </trkpt>
      <trkpt lat="45.20697" lon="5.72571">
        <ele>640.40002441406</ele>
        <time>2021-11-04T05:37:59.000Z</time>
      </trkpt>
      <trkpt lat="45.20693" lon="5.72571">
        <ele>639.79998779297</ele>
        <time>2021-11-04T05:38:02.000Z</time>
      </trkpt>
      <trkpt lat="45.20688" lon="5.72574">
        <ele>638.59997558594</ele>
        <time>2021-11-04T05:38:05.000Z</time>
      </trkpt>
      <trkpt lat="45.20683" lon="5.72575">
        <ele>637.40002441406</ele>
        <time>2021-11-04T05:38:08.000Z</time>
      </trkpt>
      <trkpt lat="45.20681" lon="5.72576">
        <ele>637.20001220703</ele>
        <time>2021-11-04T05:38:09.000Z</time>
      </trkpt>
      <trkpt lat="45.20674" lon="5.72581">
        <ele>636.40002441406</ele>
        <time>2021-11-04T05:38:13.000Z</time>
      </trkpt>
      <trkpt lat="45.20671" lon="5.72584">
        <ele>635.79998779297</ele>
        <time>2021-11-04T05:38:15.000Z</time>
      </trkpt>
      <trkpt lat="45.20668" lon="5.72588">
        <ele>635.20001220703</ele>
        <time>2021-11-04T05:38:17.000Z</time>
      </trkpt>
      <trkpt lat="45.20664" lon="5.72591">
        <ele>634.40002441406</ele>
        <time>2021-11-04T05:38:20.000Z</time>
      </trkpt>
      <trkpt lat="45.20662" lon="5.72593">
        <ele>634.20001220703</ele>
        <time>2021-11-04T05:38:21.000Z</time>
      </trkpt>
      <trkpt lat="45.20662" lon="5.72595">
        <ele>634</ele>
        <time>2021-11-04T05:38:22.000Z</time>
      </trkpt>
      <trkpt lat="45.20661" lon="5.72597">
        <ele>633.79998779297</ele>
        <time>2021-11-04T05:38:23.000Z</time>
      </trkpt>
      <trkpt lat="45.20652" lon="5.726">
        <ele>632.79998779297</ele>
        <time>2021-11-04T05:38:28.000Z</time>
      </trkpt>
      <trkpt lat="45.2065" lon="5.726">
        <ele>632.79998779297</ele>
        <time>2021-11-04T05:38:29.000Z</time>
      </trkpt>
      <trkpt lat="45.20642" lon="5.72601">
        <ele>632.20001220703</ele>
        <time>2021-11-04T05:38:33.000Z</time>
      </trkpt>
      <trkpt lat="45.20639" lon="5.726">
        <ele>632</ele>
        <time>2021-11-04T05:38:35.000Z</time>
      </trkpt>
      <trkpt lat="45.20638" lon="5.72599">
        <ele>631.79998779297</ele>
        <time>2021-11-04T05:38:36.000Z</time>
      </trkpt>
      <trkpt lat="45.20628" lon="5.72595">
        <ele>630.59997558594</ele>
        <time>2021-11-04T05:38:42.000Z</time>
      </trkpt>
      <trkpt lat="45.20624" lon="5.72594">
        <ele>630.20001220703</ele>
        <time>2021-11-04T05:38:44.000Z</time>
      </trkpt>
      <trkpt lat="45.20619" lon="5.72592">
        <ele>629.59997558594</ele>
        <time>2021-11-04T05:38:46.000Z</time>
      </trkpt>
      <trkpt lat="45.20614" lon="5.72588">
        <ele>629.20001220703</ele>
        <time>2021-11-04T05:38:49.000Z</time>
      </trkpt>
      <trkpt lat="45.20607" lon="5.72585">
        <ele>628.59997558594</ele>
        <time>2021-11-04T05:38:52.000Z</time>
      </trkpt>
      <trkpt lat="45.20598" lon="5.72579">
        <ele>628</ele>
        <time>2021-11-04T05:38:57.000Z</time>
      </trkpt>
      <trkpt lat="45.20592" lon="5.72574">
        <ele>627.59997558594</ele>
        <time>2021-11-04T05:39:01.000Z</time>
      </trkpt>
      <trkpt lat="45.20587" lon="5.72571">
        <ele>626.79998779297</ele>
        <time>2021-11-04T05:39:04.000Z</time>
      </trkpt>
      <trkpt lat="45.20584" lon="5.7257">
        <ele>626.40002441406</ele>
        <time>2021-11-04T05:39:06.000Z</time>
      </trkpt>
      <trkpt lat="45.20573" lon="5.72563">
        <ele>625.40002441406</ele>
        <time>2021-11-04T05:39:12.000Z</time>
      </trkpt>
      <trkpt lat="45.2057" lon="5.72562">
        <ele>625.20001220703</ele>
        <time>2021-11-04T05:39:13.000Z</time>
      </trkpt>
      <trkpt lat="45.20566" lon="5.72562">
        <ele>625</ele>
        <time>2021-11-04T05:39:15.000Z</time>
      </trkpt>
      <trkpt lat="45.20562" lon="5.72561">
        <ele>624.79998779297</ele>
        <time>2021-11-04T05:39:17.000Z</time>
      </trkpt>
      <trkpt lat="45.20558" lon="5.7256">
        <ele>624.40002441406</ele>
        <time>2021-11-04T05:39:20.000Z</time>
      </trkpt>
      <trkpt lat="45.20555" lon="5.72559">
        <ele>624.20001220703</ele>
        <time>2021-11-04T05:39:22.000Z</time>
      </trkpt>
      <trkpt lat="45.20553" lon="5.72559">
        <ele>624</ele>
        <time>2021-11-04T05:39:23.000Z</time>
      </trkpt>
      <trkpt lat="45.20551" lon="5.72559">
        <ele>624</ele>
        <time>2021-11-04T05:39:24.000Z</time>
      </trkpt>
      <trkpt lat="45.20549" lon="5.72562">
        <ele>623.79998779297</ele>
        <time>2021-11-04T05:39:25.000Z</time>
      </trkpt>
      <trkpt lat="45.20545" lon="5.72564">
        <ele>623.59997558594</ele>
        <time>2021-11-04T05:39:26.000Z</time>
      </trkpt>
      <trkpt lat="45.20539" lon="5.72569">
        <ele>623</ele>
        <time>2021-11-04T05:39:29.000Z</time>
      </trkpt>
      <trkpt lat="45.20535" lon="5.72573">
        <ele>622.40002441406</ele>
        <time>2021-11-04T05:39:33.000Z</time>
      </trkpt>
      <trkpt lat="45.20529" lon="5.72575">
        <ele>621.79998779297</ele>
        <time>2021-11-04T05:39:36.000Z</time>
      </trkpt>
      <trkpt lat="45.20524" lon="5.72577">
        <ele>621.59997558594</ele>
        <time>2021-11-04T05:39:38.000Z</time>
      </trkpt>
      <trkpt lat="45.20517" lon="5.7258">
        <ele>621</ele>
        <time>2021-11-04T05:39:41.000Z</time>
      </trkpt>
      <trkpt lat="45.20515" lon="5.72581">
        <ele>620.79998779297</ele>
        <time>2021-11-04T05:39:42.000Z</time>
      </trkpt>
      <trkpt lat="45.2051" lon="5.72581">
        <ele>620.40002441406</ele>
        <time>2021-11-04T05:39:44.000Z</time>
      </trkpt>
      <trkpt lat="45.20498" lon="5.72575">
        <ele>619.79998779297</ele>
        <time>2021-11-04T05:39:49.000Z</time>
      </trkpt>
      <trkpt lat="45.20495" lon="5.72572">
        <ele>619.59997558594</ele>
        <time>2021-11-04T05:39:51.000Z</time>
      </trkpt>
      <trkpt lat="45.20486" lon="5.72565">
        <ele>618.79998779297</ele>
        <time>2021-11-04T05:39:56.000Z</time>
      </trkpt>
      <trkpt lat="45.20485" lon="5.72562">
        <ele>618.59997558594</ele>
        <time>2021-11-04T05:39:57.000Z</time>
      </trkpt>
      <trkpt lat="45.20483" lon="5.72561">
        <ele>618.40002441406</ele>
        <time>2021-11-04T05:39:58.000Z</time>
      </trkpt>
      <trkpt lat="45.2048" lon="5.72557">
        <ele>618</ele>
        <time>2021-11-04T05:40:00.000Z</time>
      </trkpt>
      <trkpt lat="45.20478" lon="5.72555">
        <ele>617.79998779297</ele>
        <time>2021-11-04T05:40:01.000Z</time>
      </trkpt>
      <trkpt lat="45.20476" lon="5.72552">
        <ele>617.40002441406</ele>
        <time>2021-11-04T05:40:03.000Z</time>
      </trkpt>
      <trkpt lat="45.20469" lon="5.72543">
        <ele>616.40002441406</ele>
        <time>2021-11-04T05:40:09.000Z</time>
      </trkpt>
      <trkpt lat="45.20463" lon="5.72536">
        <ele>615.20001220703</ele>
        <time>2021-11-04T05:40:13.000Z</time>
      </trkpt>
      <trkpt lat="45.20458" lon="5.72529">
        <ele>614.59997558594</ele>
        <time>2021-11-04T05:40:16.000Z</time>
      </trkpt>
      <trkpt lat="45.20455" lon="5.72525">
        <ele>614.20001220703</ele>
        <time>2021-11-04T05:40:18.000Z</time>
      </trkpt>
      <trkpt lat="45.20449" lon="5.72518">
        <ele>613.40002441406</ele>
        <time>2021-11-04T05:40:22.000Z</time>
      </trkpt>
      <trkpt lat="45.20445" lon="5.72518">
        <ele>613</ele>
        <time>2021-11-04T05:40:24.000Z</time>
      </trkpt>
      <trkpt lat="45.20441" lon="5.72519">
        <ele>612.40002441406</ele>
        <time>2021-11-04T05:40:27.000Z</time>
      </trkpt>
      <trkpt lat="45.2044" lon="5.7252">
        <ele>612.20001220703</ele>
        <time>2021-11-04T05:40:28.000Z</time>
      </trkpt>
      <trkpt lat="45.20439" lon="5.7252">
        <ele>612</ele>
        <time>2021-11-04T05:40:29.000Z</time>
      </trkpt>
      <trkpt lat="45.20439" lon="5.7252">
        <ele>611.79998779297</ele>
        <time>2021-11-04T05:40:30.000Z</time>
      </trkpt>
      <trkpt lat="45.20438" lon="5.72521">
        <ele>611.40002441406</ele>
        <time>2021-11-04T05:40:33.000Z</time>
      </trkpt>
      <trkpt lat="45.20439" lon="5.72521">
        <ele>611.20001220703</ele>
        <time>2021-11-04T05:40:34.000Z</time>
      </trkpt>
      <trkpt lat="45.20439" lon="5.72522">
        <ele>610.79998779297</ele>
        <time>2021-11-04T05:40:35.000Z</time>
      </trkpt>
      <trkpt lat="45.20437" lon="5.72523">
        <ele>610.20001220703</ele>
        <time>2021-11-04T05:40:37.000Z</time>
      </trkpt>
      <trkpt lat="45.20435" lon="5.72522">
        <ele>609.40002441406</ele>
        <time>2021-11-04T05:40:39.000Z</time>
      </trkpt>
      <trkpt lat="45.20435" lon="5.72522">
        <ele>609.20001220703</ele>
        <time>2021-11-04T05:40:40.000Z</time>
      </trkpt>
      <trkpt lat="45.20432" lon="5.72522">
        <ele>608.59997558594</ele>
        <time>2021-11-04T05:40:43.000Z</time>
      </trkpt>
      <trkpt lat="45.20431" lon="5.7252">
        <ele>608.20001220703</ele>
        <time>2021-11-04T05:40:44.000Z</time>
      </trkpt>
      <trkpt lat="45.20431" lon="5.7252">
        <ele>607.79998779297</ele>
        <time>2021-11-04T05:40:45.000Z</time>
      </trkpt>
      <trkpt lat="45.20429" lon="5.72519">
        <ele>607.20001220703</ele>
        <time>2021-11-04T05:40:48.000Z</time>
      </trkpt>
      <trkpt lat="45.20429" lon="5.7252">
        <ele>606.79998779297</ele>
        <time>2021-11-04T05:40:49.000Z</time>
      </trkpt>
      <trkpt lat="45.20429" lon="5.7252">
        <ele>606.59997558594</ele>
        <time>2021-11-04T05:40:50.000Z</time>
      </trkpt>
      <trkpt lat="45.20429" lon="5.72521">
        <ele>606</ele>
        <time>2021-11-04T05:40:52.000Z</time>
      </trkpt>
      <trkpt lat="45.20426" lon="5.72522">
        <ele>604.79998779297</ele>
        <time>2021-11-04T05:40:55.000Z</time>
      </trkpt>
      <trkpt lat="45.20425" lon="5.72522">
        <ele>604.20001220703</ele>
        <time>2021-11-04T05:40:57.000Z</time>
      </trkpt>
      <trkpt lat="45.20425" lon="5.72524">
        <ele>603.79998779297</ele>
        <time>2021-11-04T05:40:58.000Z</time>
      </trkpt>
      <trkpt lat="45.20424" lon="5.72525">
        <ele>603.40002441406</ele>
        <time>2021-11-04T05:40:59.000Z</time>
      </trkpt>
      <trkpt lat="45.20425" lon="5.72527">
        <ele>603</ele>
        <time>2021-11-04T05:41:02.000Z</time>
      </trkpt>
      <trkpt lat="45.20425" lon="5.72528">
        <ele>602.79998779297</ele>
        <time>2021-11-04T05:41:03.000Z</time>
      </trkpt>
      <trkpt lat="45.20424" lon="5.72529">
        <ele>602.59997558594</ele>
        <time>2021-11-04T05:41:04.000Z</time>
      </trkpt>
      <trkpt lat="45.2042" lon="5.7253">
        <ele>601.40002441406</ele>
        <time>2021-11-04T05:41:07.000Z</time>
      </trkpt>
      <trkpt lat="45.20416" lon="5.72535">
        <ele>600.40002441406</ele>
        <time>2021-11-04T05:41:11.000Z</time>
      </trkpt>
      <trkpt lat="45.20415" lon="5.72535">
        <ele>600.20001220703</ele>
        <time>2021-11-04T05:41:12.000Z</time>
      </trkpt>
      <trkpt lat="45.20412" lon="5.72538">
        <ele>599</ele>
        <time>2021-11-04T05:41:17.000Z</time>
      </trkpt>
      <trkpt lat="45.20411" lon="5.72539">
        <ele>598.79998779297</ele>
        <time>2021-11-04T05:41:18.000Z</time>
      </trkpt>
      <trkpt lat="45.20408" lon="5.72543">
        <ele>597.79998779297</ele>
        <time>2021-11-04T05:41:21.000Z</time>
      </trkpt>
      <trkpt lat="45.20407" lon="5.72543">
        <ele>597.40002441406</ele>
        <time>2021-11-04T05:41:23.000Z</time>
      </trkpt>
      <trkpt lat="45.20407" lon="5.72544">
        <ele>597</ele>
        <time>2021-11-04T05:41:24.000Z</time>
      </trkpt>
      <trkpt lat="45.20406" lon="5.72544">
        <ele>596.79998779297</ele>
        <time>2021-11-04T05:41:25.000Z</time>
      </trkpt>
      <trkpt lat="45.20403" lon="5.72544">
        <ele>596.20001220703</ele>
        <time>2021-11-04T05:41:27.000Z</time>
      </trkpt>
      <trkpt lat="45.20401" lon="5.72542">
        <ele>595.79998779297</ele>
        <time>2021-11-04T05:41:29.000Z</time>
      </trkpt>
      <trkpt lat="45.20401" lon="5.72541">
        <ele>595.59997558594</ele>
        <time>2021-11-04T05:41:30.000Z</time>
      </trkpt>
      <trkpt lat="45.20399" lon="5.72542">
        <ele>595.59997558594</ele>
        <time>2021-11-04T05:41:31.000Z</time>
      </trkpt>
      <trkpt lat="45.20397" lon="5.72543">
        <ele>594.79998779297</ele>
        <time>2021-11-04T05:41:34.000Z</time>
      </trkpt>
      <trkpt lat="45.20397" lon="5.72544">
        <ele>594.59997558594</ele>
        <time>2021-11-04T05:41:35.000Z</time>
      </trkpt>
      <trkpt lat="45.20396" lon="5.72544">
        <ele>594</ele>
        <time>2021-11-04T05:41:36.000Z</time>
      </trkpt>
      <trkpt lat="45.20396" lon="5.72545">
        <ele>593.59997558594</ele>
        <time>2021-11-04T05:41:37.000Z</time>
      </trkpt>
      <trkpt lat="45.20396" lon="5.72545">
        <ele>593.40002441406</ele>
        <time>2021-11-04T05:41:38.000Z</time>
      </trkpt>
      <trkpt lat="45.20395" lon="5.72548">
        <ele>592.59997558594</ele>
        <time>2021-11-04T05:41:41.000Z</time>
      </trkpt>
      <trkpt lat="45.20394" lon="5.72549">
        <ele>592.59997558594</ele>
        <time>2021-11-04T05:41:42.000Z</time>
      </trkpt>
      <trkpt lat="45.20392" lon="5.72549">
        <ele>592.20001220703</ele>
        <time>2021-11-04T05:41:43.000Z</time>
      </trkpt>
      <trkpt lat="45.20391" lon="5.7255">
        <ele>591.79998779297</ele>
        <time>2021-11-04T05:41:44.000Z</time>
      </trkpt>
      <trkpt lat="45.20389" lon="5.72549">
        <ele>591</ele>
        <time>2021-11-04T05:41:46.000Z</time>
      </trkpt>
      <trkpt lat="45.20387" lon="5.72549">
        <ele>590.59997558594</ele>
        <time>2021-11-04T05:41:48.000Z</time>
      </trkpt>
      <trkpt lat="45.20384" lon="5.72548">
        <ele>590</ele>
        <time>2021-11-04T05:41:50.000Z</time>
      </trkpt>
      <trkpt lat="45.2038" lon="5.72544">
        <ele>589</ele>
        <time>2021-11-04T05:41:54.000Z</time>
      </trkpt>
      <trkpt lat="45.2038" lon="5.72543">
        <ele>588.79998779297</ele>
        <time>2021-11-04T05:41:55.000Z</time>
      </trkpt>
      <trkpt lat="45.20379" lon="5.7254">
        <ele>587.79998779297</ele>
        <time>2021-11-04T05:41:59.000Z</time>
      </trkpt>
      <trkpt lat="45.20378" lon="5.72542">
        <ele>587.20001220703</ele>
        <time>2021-11-04T05:42:02.000Z</time>
      </trkpt>
      <trkpt lat="45.20377" lon="5.72542">
        <ele>586.79998779297</ele>
        <time>2021-11-04T05:42:03.000Z</time>
      </trkpt>
      <trkpt lat="45.20376" lon="5.72542">
        <ele>586.59997558594</ele>
        <time>2021-11-04T05:42:04.000Z</time>
      </trkpt>
      <trkpt lat="45.20375" lon="5.72539">
        <ele>586</ele>
        <time>2021-11-04T05:42:06.000Z</time>
      </trkpt>
      <trkpt lat="45.20375" lon="5.72537">
        <ele>585.40002441406</ele>
        <time>2021-11-04T05:42:08.000Z</time>
      </trkpt>
      <trkpt lat="45.20373" lon="5.72537">
        <ele>585</ele>
        <time>2021-11-04T05:42:10.000Z</time>
      </trkpt>
      <trkpt lat="45.20372" lon="5.72536">
        <ele>584.40002441406</ele>
        <time>2021-11-04T05:42:11.000Z</time>
      </trkpt>
      <trkpt lat="45.20366" lon="5.72537">
        <ele>583.59997558594</ele>
        <time>2021-11-04T05:42:14.000Z</time>
      </trkpt>
      <trkpt lat="45.20365" lon="5.72536">
        <ele>583.20001220703</ele>
        <time>2021-11-04T05:42:15.000Z</time>
      </trkpt>
      <trkpt lat="45.20361" lon="5.72534">
        <ele>582.40002441406</ele>
        <time>2021-11-04T05:42:21.000Z</time>
      </trkpt>
      <trkpt lat="45.2036" lon="5.72534">
        <ele>582.20001220703</ele>
        <time>2021-11-04T05:42:22.000Z</time>
      </trkpt>
      <trkpt lat="45.20357" lon="5.72531">
        <ele>581.20001220703</ele>
        <time>2021-11-04T05:42:26.000Z</time>
      </trkpt>
      <trkpt lat="45.20356" lon="5.72531">
        <ele>581</ele>
        <time>2021-11-04T05:42:27.000Z</time>
      </trkpt>
      <trkpt lat="45.20356" lon="5.72529">
        <ele>580.40002441406</ele>
        <time>2021-11-04T05:42:30.000Z</time>
      </trkpt>
      <trkpt lat="45.20356" lon="5.7253">
        <ele>580</ele>
        <time>2021-11-04T05:42:31.000Z</time>
      </trkpt>
      <trkpt lat="45.20355" lon="5.7253">
        <ele>579.79998779297</ele>
        <time>2021-11-04T05:42:32.000Z</time>
      </trkpt>
      <trkpt lat="45.20354" lon="5.7253">
        <ele>579</ele>
        <time>2021-11-04T05:42:35.000Z</time>
      </trkpt>
      <trkpt lat="45.20353" lon="5.72531">
        <ele>578.40002441406</ele>
        <time>2021-11-04T05:42:37.000Z</time>
      </trkpt>
      <trkpt lat="45.20351" lon="5.72533">
        <ele>578</ele>
        <time>2021-11-04T05:42:39.000Z</time>
      </trkpt>
      <trkpt lat="45.20347" lon="5.72532">
        <ele>576.79998779297</ele>
        <time>2021-11-04T05:42:42.000Z</time>
      </trkpt>
      <trkpt lat="45.20346" lon="5.72531">
        <ele>576.59997558594</ele>
        <time>2021-11-04T05:42:43.000Z</time>
      </trkpt>
      <trkpt lat="45.20342" lon="5.72528">
        <ele>575.59997558594</ele>
        <time>2021-11-04T05:42:48.000Z</time>
      </trkpt>
      <trkpt lat="45.20341" lon="5.72529">
        <ele>575</ele>
        <time>2021-11-04T05:42:50.000Z</time>
      </trkpt>
      <trkpt lat="45.2034" lon="5.72531">
        <ele>574.40002441406</ele>
        <time>2021-11-04T05:42:53.000Z</time>
      </trkpt>
      <trkpt lat="45.2034" lon="5.7253">
        <ele>574.20001220703</ele>
        <time>2021-11-04T05:42:54.000Z</time>
      </trkpt>
      <trkpt lat="45.20339" lon="5.72531">
        <ele>574</ele>
        <time>2021-11-04T05:42:55.000Z</time>
      </trkpt>
      <trkpt lat="45.20339" lon="5.72531">
        <ele>573.20001220703</ele>
        <time>2021-11-04T05:42:57.000Z</time>
      </trkpt>
      <trkpt lat="45.20338" lon="5.7253">
        <ele>572.40002441406</ele>
        <time>2021-11-04T05:43:00.000Z</time>
      </trkpt>
      <trkpt lat="45.20338" lon="5.72529">
        <ele>572.20001220703</ele>
        <time>2021-11-04T05:43:02.000Z</time>
      </trkpt>
      <trkpt lat="45.20338" lon="5.72528">
        <ele>571.40002441406</ele>
        <time>2021-11-04T05:43:08.000Z</time>
      </trkpt>
      <trkpt lat="45.20338" lon="5.72528">
        <ele>571</ele>
        <time>2021-11-04T05:43:14.000Z</time>
      </trkpt>
      <trkpt lat="45.20335" lon="5.72526">
        <ele>569.79998779297</ele>
        <time>2021-11-04T05:43:21.000Z</time>
      </trkpt>
      <trkpt lat="45.20334" lon="5.72526">
        <ele>569.40002441406</ele>
        <time>2021-11-04T05:43:22.000Z</time>
      </trkpt>
      <trkpt lat="45.20332" lon="5.72525">
        <ele>569</ele>
        <time>2021-11-04T05:43:24.000Z</time>
      </trkpt>
      <trkpt lat="45.20331" lon="5.72525">
        <ele>568.59997558594</ele>
        <time>2021-11-04T05:43:25.000Z</time>
      </trkpt>
      <trkpt lat="45.20328" lon="5.72523">
        <ele>567.59997558594</ele>
        <time>2021-11-04T05:43:28.000Z</time>
      </trkpt>
      <trkpt lat="45.20327" lon="5.72522">
        <ele>567.20001220703</ele>
        <time>2021-11-04T05:43:30.000Z</time>
      </trkpt>
      <trkpt lat="45.20325" lon="5.72522">
        <ele>566.59997558594</ele>
        <time>2021-11-04T05:43:32.000Z</time>
      </trkpt>
      <trkpt lat="45.20321" lon="5.72523">
        <ele>565.20001220703</ele>
        <time>2021-11-04T05:43:36.000Z</time>
      </trkpt>
      <trkpt lat="45.2032" lon="5.72523">
        <ele>565</ele>
        <time>2021-11-04T05:43:37.000Z</time>
      </trkpt>
      <trkpt lat="45.2032" lon="5.72523">
        <ele>564.79998779297</ele>
        <time>2021-11-04T05:43:38.000Z</time>
      </trkpt>
      <trkpt lat="45.20318" lon="5.72523">
        <ele>564</ele>
        <time>2021-11-04T05:43:40.000Z</time>
      </trkpt>
      <trkpt lat="45.20317" lon="5.72523">
        <ele>563.79998779297</ele>
        <time>2021-11-04T05:43:41.000Z</time>
      </trkpt>
      <trkpt lat="45.20314" lon="5.72522">
        <ele>563</ele>
        <time>2021-11-04T05:43:43.000Z</time>
      </trkpt>
      <trkpt lat="45.20312" lon="5.72522">
        <ele>563</ele>
        <time>2021-11-04T05:43:44.000Z</time>
      </trkpt>
      <trkpt lat="45.20307" lon="5.72524">
        <ele>561.79998779297</ele>
        <time>2021-11-04T05:43:48.000Z</time>
      </trkpt>
      <trkpt lat="45.20302" lon="5.72525">
        <ele>560.59997558594</ele>
        <time>2021-11-04T05:43:52.000Z</time>
      </trkpt>
      <trkpt lat="45.20301" lon="5.72525">
        <ele>560.40002441406</ele>
        <time>2021-11-04T05:43:53.000Z</time>
      </trkpt>
      <trkpt lat="45.20298" lon="5.72526">
        <ele>559.59997558594</ele>
        <time>2021-11-04T05:43:55.000Z</time>
      </trkpt>
      <trkpt lat="45.20296" lon="5.72525">
        <ele>559.59997558594</ele>
        <time>2021-11-04T05:43:56.000Z</time>
      </trkpt>
      <trkpt lat="45.20295" lon="5.72525">
        <ele>559</ele>
        <time>2021-11-04T05:43:57.000Z</time>
      </trkpt>
      <trkpt lat="45.20293" lon="5.72524">
        <ele>558.79998779297</ele>
        <time>2021-11-04T05:43:58.000Z</time>
      </trkpt>
      <trkpt lat="45.20292" lon="5.72524">
        <ele>558.59997558594</ele>
        <time>2021-11-04T05:43:59.000Z</time>
      </trkpt>
      <trkpt lat="45.20291" lon="5.72524">
        <ele>558.20001220703</ele>
        <time>2021-11-04T05:44:00.000Z</time>
      </trkpt>
      <trkpt lat="45.2029" lon="5.72524">
        <ele>558</ele>
        <time>2021-11-04T05:44:01.000Z</time>
      </trkpt>
      <trkpt lat="45.20286" lon="5.72523">
        <ele>557.40002441406</ele>
        <time>2021-11-04T05:44:04.000Z</time>
      </trkpt>
      <trkpt lat="45.20284" lon="5.72523">
        <ele>557.20001220703</ele>
        <time>2021-11-04T05:44:05.000Z</time>
      </trkpt>
      <trkpt lat="45.20279" lon="5.72523">
        <ele>556</ele>
        <time>2021-11-04T05:44:09.000Z</time>
      </trkpt>
      <trkpt lat="45.20274" lon="5.72526">
        <ele>555.20001220703</ele>
        <time>2021-11-04T05:44:12.000Z</time>
      </trkpt>
      <trkpt lat="45.20272" lon="5.72526">
        <ele>554.59997558594</ele>
        <time>2021-11-04T05:44:13.000Z</time>
      </trkpt>
      <trkpt lat="45.20269" lon="5.72528">
        <ele>554</ele>
        <time>2021-11-04T05:44:15.000Z</time>
      </trkpt>
      <trkpt lat="45.20266" lon="5.72528">
        <ele>553.20001220703</ele>
        <time>2021-11-04T05:44:17.000Z</time>
      </trkpt>
      <trkpt lat="45.20263" lon="5.72528">
        <ele>552.59997558594</ele>
        <time>2021-11-04T05:44:19.000Z</time>
      </trkpt>
      <trkpt lat="45.20261" lon="5.72528">
        <ele>552</ele>
        <time>2021-11-04T05:44:21.000Z</time>
      </trkpt>
      <trkpt lat="45.20257" lon="5.72526">
        <ele>550.79998779297</ele>
        <time>2021-11-04T05:44:25.000Z</time>
      </trkpt>
      <trkpt lat="45.20257" lon="5.72526">
        <ele>550.59997558594</ele>
        <time>2021-11-04T05:44:26.000Z</time>
      </trkpt>
      <trkpt lat="45.20256" lon="5.72527">
        <ele>550.20001220703</ele>
        <time>2021-11-04T05:44:28.000Z</time>
      </trkpt>
      <trkpt lat="45.20256" lon="5.72527">
        <ele>549.79998779297</ele>
        <time>2021-11-04T05:44:29.000Z</time>
      </trkpt>
      <trkpt lat="45.20255" lon="5.72528">
        <ele>549</ele>
        <time>2021-11-04T05:44:31.000Z</time>
      </trkpt>
      <trkpt lat="45.20252" lon="5.72528">
        <ele>548.59997558594</ele>
        <time>2021-11-04T05:44:33.000Z</time>
      </trkpt>
      <trkpt lat="45.20251" lon="5.72527">
        <ele>548.20001220703</ele>
        <time>2021-11-04T05:44:34.000Z</time>
      </trkpt>
      <trkpt lat="45.20249" lon="5.72528">
        <ele>547.20001220703</ele>
        <time>2021-11-04T05:44:36.000Z</time>
      </trkpt>
      <trkpt lat="45.20248" lon="5.72529">
        <ele>546.79998779297</ele>
        <time>2021-11-04T05:44:37.000Z</time>
      </trkpt>
      <trkpt lat="45.20246" lon="5.72528">
        <ele>546.20001220703</ele>
        <time>2021-11-04T05:44:39.000Z</time>
      </trkpt>
      <trkpt lat="45.20242" lon="5.72526">
        <ele>545.40002441406</ele>
        <time>2021-11-04T05:44:42.000Z</time>
      </trkpt>
      <trkpt lat="45.20241" lon="5.72527">
        <ele>544.59997558594</ele>
        <time>2021-11-04T05:44:43.000Z</time>
      </trkpt>
      <trkpt lat="45.2024" lon="5.72528">
        <ele>544</ele>
        <time>2021-11-04T05:44:45.000Z</time>
      </trkpt>
      <trkpt lat="45.20237" lon="5.72529">
        <ele>543.40002441406</ele>
        <time>2021-11-04T05:44:47.000Z</time>
      </trkpt>
      <trkpt lat="45.20233" lon="5.72528">
        <ele>542.40002441406</ele>
        <time>2021-11-04T05:44:50.000Z</time>
      </trkpt>
      <trkpt lat="45.20227" lon="5.72528">
        <ele>541</ele>
        <time>2021-11-04T05:44:54.000Z</time>
      </trkpt>
      <trkpt lat="45.20222" lon="5.72528">
        <ele>539.59997558594</ele>
        <time>2021-11-04T05:44:58.000Z</time>
      </trkpt>
      <trkpt lat="45.20219" lon="5.72528">
        <ele>538.79998779297</ele>
        <time>2021-11-04T05:45:00.000Z</time>
      </trkpt>
      <trkpt lat="45.20218" lon="5.72529">
        <ele>538.40002441406</ele>
        <time>2021-11-04T05:45:01.000Z</time>
      </trkpt>
      <trkpt lat="45.20212" lon="5.7253">
        <ele>537.20001220703</ele>
        <time>2021-11-04T05:45:05.000Z</time>
      </trkpt>
      <trkpt lat="45.20209" lon="5.72527">
        <ele>536</ele>
        <time>2021-11-04T05:45:08.000Z</time>
      </trkpt>
      <trkpt lat="45.20203" lon="5.72521">
        <ele>534.59997558594</ele>
        <time>2021-11-04T05:45:12.000Z</time>
      </trkpt>
      <trkpt lat="45.20202" lon="5.7252">
        <ele>534.20001220703</ele>
        <time>2021-11-04T05:45:13.000Z</time>
      </trkpt>
      <trkpt lat="45.20199" lon="5.72515">
        <ele>533.59997558594</ele>
        <time>2021-11-04T05:45:16.000Z</time>
      </trkpt>
      <trkpt lat="45.20195" lon="5.72513">
        <ele>533.20001220703</ele>
        <time>2021-11-04T05:45:18.000Z</time>
      </trkpt>
      <trkpt lat="45.20193" lon="5.7251">
        <ele>532.40002441406</ele>
        <time>2021-11-04T05:45:20.000Z</time>
      </trkpt>
      <trkpt lat="45.2019" lon="5.72506">
        <ele>531.59997558594</ele>
        <time>2021-11-04T05:45:23.000Z</time>
      </trkpt>
      <trkpt lat="45.20189" lon="5.72505">
        <ele>531.20001220703</ele>
        <time>2021-11-04T05:45:24.000Z</time>
      </trkpt>
      <trkpt lat="45.20184" lon="5.72499">
        <ele>530.20001220703</ele>
        <time>2021-11-04T05:45:29.000Z</time>
      </trkpt>
      <trkpt lat="45.20183" lon="5.72499">
        <ele>529.79998779297</ele>
        <time>2021-11-04T05:45:30.000Z</time>
      </trkpt>
      <trkpt lat="45.20182" lon="5.72499">
        <ele>529.59997558594</ele>
        <time>2021-11-04T05:45:31.000Z</time>
      </trkpt>
      <trkpt lat="45.20181" lon="5.72499">
        <ele>529.40002441406</ele>
        <time>2021-11-04T05:45:32.000Z</time>
      </trkpt>
      <trkpt lat="45.20178" lon="5.72498">
        <ele>528.79998779297</ele>
        <time>2021-11-04T05:45:34.000Z</time>
      </trkpt>
      <trkpt lat="45.20177" lon="5.72497">
        <ele>528.59997558594</ele>
        <time>2021-11-04T05:45:35.000Z</time>
      </trkpt>
      <trkpt lat="45.20175" lon="5.72493">
        <ele>527.79998779297</ele>
        <time>2021-11-04T05:45:38.000Z</time>
      </trkpt>
      <trkpt lat="45.20172" lon="5.72489">
        <ele>526.79998779297</ele>
        <time>2021-11-04T05:45:43.000Z</time>
      </trkpt>
      <trkpt lat="45.20171" lon="5.72489">
        <ele>526.59997558594</ele>
        <time>2021-11-04T05:45:44.000Z</time>
      </trkpt>
      <trkpt lat="45.20169" lon="5.72483">
        <ele>525.40002441406</ele>
        <time>2021-11-04T05:45:49.000Z</time>
      </trkpt>
      <trkpt lat="45.20168" lon="5.72482">
        <ele>524.79998779297</ele>
        <time>2021-11-04T05:45:51.000Z</time>
      </trkpt>
      <trkpt lat="45.20167" lon="5.7248">
        <ele>524.20001220703</ele>
        <time>2021-11-04T05:45:53.000Z</time>
      </trkpt>
      <trkpt lat="45.20164" lon="5.72478">
        <ele>523.40002441406</ele>
        <time>2021-11-04T05:45:56.000Z</time>
      </trkpt>
      <trkpt lat="45.20163" lon="5.72477">
        <ele>523</ele>
        <time>2021-11-04T05:45:57.000Z</time>
      </trkpt>
      <trkpt lat="45.20162" lon="5.72477">
        <ele>522</ele>
        <time>2021-11-04T05:45:59.000Z</time>
      </trkpt>
      <trkpt lat="45.20159" lon="5.72473">
        <ele>520.79998779297</ele>
        <time>2021-11-04T05:46:03.000Z</time>
      </trkpt>
      <trkpt lat="45.20158" lon="5.72469">
        <ele>519.40002441406</ele>
        <time>2021-11-04T05:46:07.000Z</time>
      </trkpt>
      <trkpt lat="45.20157" lon="5.72469">
        <ele>518.79998779297</ele>
        <time>2021-11-04T05:46:09.000Z</time>
      </trkpt>
      <trkpt lat="45.20157" lon="5.72468">
        <ele>518.40002441406</ele>
        <time>2021-11-04T05:46:10.000Z</time>
      </trkpt>
      <trkpt lat="45.20157" lon="5.72468">
        <ele>518.20001220703</ele>
        <time>2021-11-04T05:46:11.000Z</time>
      </trkpt>
      <trkpt lat="45.20154" lon="5.72464">
        <ele>517.20001220703</ele>
        <time>2021-11-04T05:46:15.000Z</time>
      </trkpt>
      <trkpt lat="45.20154" lon="5.72464">
        <ele>517</ele>
        <time>2021-11-04T05:46:16.000Z</time>
      </trkpt>
      <trkpt lat="45.20153" lon="5.72463">
        <ele>516.59997558594</ele>
        <time>2021-11-04T05:46:17.000Z</time>
      </trkpt>
      <trkpt lat="45.20152" lon="5.72462">
        <ele>515.79998779297</ele>
        <time>2021-11-04T05:46:19.000Z</time>
      </trkpt>
      <trkpt lat="45.2015" lon="5.72461">
        <ele>515</ele>
        <time>2021-11-04T05:46:21.000Z</time>
      </trkpt>
      <trkpt lat="45.20149" lon="5.7246">
        <ele>514.59997558594</ele>
        <time>2021-11-04T05:46:23.000Z</time>
      </trkpt>
      <trkpt lat="45.20147" lon="5.72459">
        <ele>513.40002441406</ele>
        <time>2021-11-04T05:46:26.000Z</time>
      </trkpt>
      <trkpt lat="45.20146" lon="5.7246">
        <ele>513</ele>
        <time>2021-11-04T05:46:27.000Z</time>
      </trkpt>
      <trkpt lat="45.20145" lon="5.72461">
        <ele>512.59997558594</ele>
        <time>2021-11-04T05:46:28.000Z</time>
      </trkpt>
      <trkpt lat="45.20145" lon="5.72462">
        <ele>512.40002441406</ele>
        <time>2021-11-04T05:46:29.000Z</time>
      </trkpt>
      <trkpt lat="45.20143" lon="5.72466">
        <ele>511</ele>
        <time>2021-11-04T05:46:33.000Z</time>
      </trkpt>
      <trkpt lat="45.20142" lon="5.72467">
        <ele>510.39999389648</ele>
        <time>2021-11-04T05:46:35.000Z</time>
      </trkpt>
      <trkpt lat="45.2014" lon="5.72468">
        <ele>510</ele>
        <time>2021-11-04T05:46:37.000Z</time>
      </trkpt>
      <trkpt lat="45.20139" lon="5.72471">
        <ele>508.79998779297</ele>
        <time>2021-11-04T05:46:41.000Z</time>
      </trkpt>
      <trkpt lat="45.20138" lon="5.72472">
        <ele>508.39999389648</ele>
        <time>2021-11-04T05:46:42.000Z</time>
      </trkpt>
      <trkpt lat="45.20137" lon="5.72474">
        <ele>508</ele>
        <time>2021-11-04T05:46:44.000Z</time>
      </trkpt>
      <trkpt lat="45.20137" lon="5.72475">
        <ele>507.60000610352</ele>
        <time>2021-11-04T05:46:45.000Z</time>
      </trkpt>
      <trkpt lat="45.20135" lon="5.7248">
        <ele>506.60000610352</ele>
        <time>2021-11-04T05:46:48.000Z</time>
      </trkpt>
      <trkpt lat="45.20134" lon="5.72482">
        <ele>506</ele>
        <time>2021-11-04T05:46:49.000Z</time>
      </trkpt>
      <trkpt lat="45.20133" lon="5.72486">
        <ele>505</ele>
        <time>2021-11-04T05:46:52.000Z</time>
      </trkpt>
      <trkpt lat="45.20131" lon="5.72491">
        <ele>503.79998779297</ele>
        <time>2021-11-04T05:46:55.000Z</time>
      </trkpt>
      <trkpt lat="45.20129" lon="5.72495">
        <ele>503.20001220703</ele>
        <time>2021-11-04T05:46:57.000Z</time>
      </trkpt>
      <trkpt lat="45.20128" lon="5.72497">
        <ele>502.60000610352</ele>
        <time>2021-11-04T05:46:58.000Z</time>
      </trkpt>
      <trkpt lat="45.20125" lon="5.72501">
        <ele>501.60000610352</ele>
        <time>2021-11-04T05:47:01.000Z</time>
      </trkpt>
      <trkpt lat="45.20122" lon="5.72508">
        <ele>500.20001220703</ele>
        <time>2021-11-04T05:47:04.000Z</time>
      </trkpt>
      <trkpt lat="45.20121" lon="5.72509">
        <ele>499.79998779297</ele>
        <time>2021-11-04T05:47:05.000Z</time>
      </trkpt>
      <trkpt lat="45.20118" lon="5.72514">
        <ele>498.60000610352</ele>
        <time>2021-11-04T05:47:08.000Z</time>
      </trkpt>
      <trkpt lat="45.20117" lon="5.72516">
        <ele>498.20001220703</ele>
        <time>2021-11-04T05:47:09.000Z</time>
      </trkpt>
      <trkpt lat="45.20117" lon="5.72518">
        <ele>497.60000610352</ele>
        <time>2021-11-04T05:47:10.000Z</time>
      </trkpt>
      <trkpt lat="45.20116" lon="5.7252">
        <ele>497.39999389648</ele>
        <time>2021-11-04T05:47:11.000Z</time>
      </trkpt>
      <trkpt lat="45.20116" lon="5.72523">
        <ele>496.79998779297</ele>
        <time>2021-11-04T05:47:13.000Z</time>
      </trkpt>
      <trkpt lat="45.20116" lon="5.72525">
        <ele>496.60000610352</ele>
        <time>2021-11-04T05:47:14.000Z</time>
      </trkpt>
      <trkpt lat="45.20115" lon="5.72529">
        <ele>495.79998779297</ele>
        <time>2021-11-04T05:47:16.000Z</time>
      </trkpt>
      <trkpt lat="45.20116" lon="5.72531">
        <ele>495.60000610352</ele>
        <time>2021-11-04T05:47:17.000Z</time>
      </trkpt>
      <trkpt lat="45.20117" lon="5.72533">
        <ele>495.20001220703</ele>
        <time>2021-11-04T05:47:18.000Z</time>
      </trkpt>
      <trkpt lat="45.20119" lon="5.72539">
        <ele>494.39999389648</ele>
        <time>2021-11-04T05:47:21.000Z</time>
      </trkpt>
      <trkpt lat="45.2012" lon="5.72541">
        <ele>494.20001220703</ele>
        <time>2021-11-04T05:47:22.000Z</time>
      </trkpt>
      <trkpt lat="45.2012" lon="5.72544">
        <ele>493.39999389648</ele>
        <time>2021-11-04T05:47:24.000Z</time>
      </trkpt>
      <trkpt lat="45.20119" lon="5.72544">
        <ele>493</ele>
        <time>2021-11-04T05:47:25.000Z</time>
      </trkpt>
      <trkpt lat="45.20112" lon="5.72543">
        <ele>491.79998779297</ele>
        <time>2021-11-04T05:47:29.000Z</time>
      </trkpt>
      <trkpt lat="45.20106" lon="5.72541">
        <ele>490.79998779297</ele>
        <time>2021-11-04T05:47:33.000Z</time>
      </trkpt>
      <trkpt lat="45.20104" lon="5.72541">
        <ele>490.79998779297</ele>
        <time>2021-11-04T05:47:34.000Z</time>
      </trkpt>
      <trkpt lat="45.20098" lon="5.72543">
        <ele>489.60000610352</ele>
        <time>2021-11-04T05:47:37.000Z</time>
      </trkpt>
      <trkpt lat="45.20094" lon="5.72542">
        <ele>488.39999389648</ele>
        <time>2021-11-04T05:47:40.000Z</time>
      </trkpt>
      <trkpt lat="45.20088" lon="5.72542">
        <ele>487</ele>
        <time>2021-11-04T05:47:43.000Z</time>
      </trkpt>
      <trkpt lat="45.20081" lon="5.72542">
        <ele>486</ele>
        <time>2021-11-04T05:47:46.000Z</time>
      </trkpt>
      <trkpt lat="45.20073" lon="5.72535">
        <ele>484.79998779297</ele>
        <time>2021-11-04T05:47:50.000Z</time>
      </trkpt>
      <trkpt lat="45.20072" lon="5.72533">
        <ele>484.60000610352</ele>
        <time>2021-11-04T05:47:51.000Z</time>
      </trkpt>
      <trkpt lat="45.20068" lon="5.72515">
        <ele>484.60000610352</ele>
        <time>2021-11-04T05:47:56.000Z</time>
      </trkpt>
      <trkpt lat="45.20072" lon="5.72497">
        <ele>484.20001220703</ele>
        <time>2021-11-04T05:48:01.000Z</time>
      </trkpt>
      <trkpt lat="45.20073" lon="5.72486">
        <ele>483.60000610352</ele>
        <time>2021-11-04T05:48:04.000Z</time>
      </trkpt>
      <trkpt lat="45.20074" lon="5.72483">
        <ele>483.60000610352</ele>
        <time>2021-11-04T05:48:05.000Z</time>
      </trkpt>
      <trkpt lat="45.20075" lon="5.72467">
        <ele>482.60000610352</ele>
        <time>2021-11-04T05:48:10.000Z</time>
      </trkpt>
      <trkpt lat="45.20075" lon="5.72464">
        <ele>482.39999389648</ele>
        <time>2021-11-04T05:48:11.000Z</time>
      </trkpt>
      <trkpt lat="45.20074" lon="5.72448">
        <ele>481.39999389648</ele>
        <time>2021-11-04T05:48:16.000Z</time>
      </trkpt>
      <trkpt lat="45.20074" lon="5.72443">
        <ele>480.60000610352</ele>
        <time>2021-11-04T05:48:19.000Z</time>
      </trkpt>
      <trkpt lat="45.20074" lon="5.72442">
        <ele>480.39999389648</ele>
        <time>2021-11-04T05:48:20.000Z</time>
      </trkpt>
      <trkpt lat="45.20074" lon="5.72441">
        <ele>480.20001220703</ele>
        <time>2021-11-04T05:48:25.000Z</time>
      </trkpt>
      <trkpt lat="45.20072" lon="5.72441">
        <ele>480.20001220703</ele>
        <time>2021-11-04T05:48:32.000Z</time>
      </trkpt>
      <trkpt lat="45.20071" lon="5.7244">
        <ele>480.20001220703</ele>
        <time>2021-11-04T05:48:34.000Z</time>
      </trkpt>
      <trkpt lat="45.20071" lon="5.7244">
        <ele>480.20001220703</ele>
        <time>2021-11-04T05:48:38.000Z</time>
      </trkpt>
      <trkpt lat="45.20066" lon="5.72437">
        <ele>480</ele>
        <time>2021-11-04T05:48:47.000Z</time>
      </trkpt>
      <trkpt lat="45.20062" lon="5.72434">
        <ele>479.39999389648</ele>
        <time>2021-11-04T05:48:49.000Z</time>
      </trkpt>
      <trkpt lat="45.20055" lon="5.72431">
        <ele>478.39999389648</ele>
        <time>2021-11-04T05:48:52.000Z</time>
      </trkpt>
      <trkpt lat="45.2005" lon="5.72429">
        <ele>477.79998779297</ele>
        <time>2021-11-04T05:48:54.000Z</time>
      </trkpt>
      <trkpt lat="45.20043" lon="5.72428">
        <ele>477</ele>
        <time>2021-11-04T05:48:57.000Z</time>
      </trkpt>
      <trkpt lat="45.20036" lon="5.72428">
        <ele>475.79998779297</ele>
        <time>2021-11-04T05:49:00.000Z</time>
      </trkpt>
      <trkpt lat="45.20025" lon="5.72425">
        <ele>474.79998779297</ele>
        <time>2021-11-04T05:49:04.000Z</time>
      </trkpt>
      <trkpt lat="45.20016" lon="5.72424">
        <ele>473.79998779297</ele>
        <time>2021-11-04T05:49:08.000Z</time>
      </trkpt>
      <trkpt lat="45.20014" lon="5.72424">
        <ele>473.39999389648</ele>
        <time>2021-11-04T05:49:09.000Z</time>
      </trkpt>
      <trkpt lat="45.20006" lon="5.72424">
        <ele>472.79998779297</ele>
        <time>2021-11-04T05:49:12.000Z</time>
      </trkpt>
      <trkpt lat="45.20004" lon="5.72423">
        <ele>472.39999389648</ele>
        <time>2021-11-04T05:49:13.000Z</time>
      </trkpt>
      <trkpt lat="45.19994" lon="5.72423">
        <ele>471.39999389648</ele>
        <time>2021-11-04T05:49:17.000Z</time>
      </trkpt>
      <trkpt lat="45.19989" lon="5.72422">
        <ele>471</ele>
        <time>2021-11-04T05:49:19.000Z</time>
      </trkpt>
      <trkpt lat="45.19984" lon="5.72422">
        <ele>470.20001220703</ele>
        <time>2021-11-04T05:49:21.000Z</time>
      </trkpt>
      <trkpt lat="45.19974" lon="5.72421">
        <ele>469</ele>
        <time>2021-11-04T05:49:25.000Z</time>
      </trkpt>
      <trkpt lat="45.19966" lon="5.7242">
        <ele>468.39999389648</ele>
        <time>2021-11-04T05:49:28.000Z</time>
      </trkpt>
      <trkpt lat="45.19963" lon="5.7242">
        <ele>468</ele>
        <time>2021-11-04T05:49:29.000Z</time>
      </trkpt>
      <trkpt lat="45.19953" lon="5.72421">
        <ele>467</ele>
        <time>2021-11-04T05:49:33.000Z</time>
      </trkpt>
      <trkpt lat="45.19943" lon="5.7242">
        <ele>466.39999389648</ele>
        <time>2021-11-04T05:49:37.000Z</time>
      </trkpt>
      <trkpt lat="45.19924" lon="5.72424">
        <ele>466.39999389648</ele>
        <time>2021-11-04T05:49:44.000Z</time>
      </trkpt>
      <trkpt lat="45.19912" lon="5.72427">
        <ele>466.79998779297</ele>
        <time>2021-11-04T05:49:49.000Z</time>
      </trkpt>
      <trkpt lat="45.19898" lon="5.72436">
        <ele>468</ele>
        <time>2021-11-04T05:49:55.000Z</time>
      </trkpt>
      <trkpt lat="45.19894" lon="5.72436">
        <ele>468.79998779297</ele>
        <time>2021-11-04T05:49:57.000Z</time>
      </trkpt>
      <trkpt lat="45.19893" lon="5.72436">
        <ele>469</ele>
        <time>2021-11-04T05:49:58.000Z</time>
      </trkpt>
      <trkpt lat="45.19892" lon="5.72437">
        <ele>469.20001220703</ele>
        <time>2021-11-04T05:49:59.000Z</time>
      </trkpt>
      <trkpt lat="45.19891" lon="5.7244">
        <ele>469.39999389648</ele>
        <time>2021-11-04T05:50:00.000Z</time>
      </trkpt>
      <trkpt lat="45.19889" lon="5.72447">
        <ele>470</ele>
        <time>2021-11-04T05:50:02.000Z</time>
      </trkpt>
      <trkpt lat="45.19889" lon="5.72447">
        <ele>470.20001220703</ele>
        <time>2021-11-04T05:50:03.000Z</time>
      </trkpt>
      <trkpt lat="45.19885" lon="5.72446">
        <ele>470.60000610352</ele>
        <time>2021-11-04T05:50:07.000Z</time>
      </trkpt>
      <trkpt lat="45.19884" lon="5.72448">
        <ele>470.60000610352</ele>
        <time>2021-11-04T05:50:08.000Z</time>
      </trkpt>
      <trkpt lat="45.19877" lon="5.72456">
        <ele>470.79998779297</ele>
        <time>2021-11-04T05:50:11.000Z</time>
      </trkpt>
      <trkpt lat="45.19861" lon="5.72472">
        <ele>470.20001220703</ele>
        <time>2021-11-04T05:50:18.000Z</time>
      </trkpt>
      <trkpt lat="45.1986" lon="5.72482">
        <ele>469.79998779297</ele>
        <time>2021-11-04T05:50:20.000Z</time>
      </trkpt>
      <trkpt lat="45.1986" lon="5.72489">
        <ele>469.39999389648</ele>
        <time>2021-11-04T05:50:22.000Z</time>
      </trkpt>
      <trkpt lat="45.19861" lon="5.72511">
        <ele>469.20001220703</ele>
        <time>2021-11-04T05:50:26.000Z</time>
      </trkpt>
      <trkpt lat="45.19862" lon="5.72514">
        <ele>469</ele>
        <time>2021-11-04T05:50:27.000Z</time>
      </trkpt>
      <trkpt lat="45.19863" lon="5.72521">
        <ele>469</ele>
        <time>2021-11-04T05:50:29.000Z</time>
      </trkpt>
      <trkpt lat="45.19864" lon="5.72536">
        <ele>467.79998779297</ele>
        <time>2021-11-04T05:50:33.000Z</time>
      </trkpt>
      <trkpt lat="45.19864" lon="5.72543">
        <ele>467.39999389648</ele>
        <time>2021-11-04T05:50:35.000Z</time>
      </trkpt>
      <trkpt lat="45.19864" lon="5.72551">
        <ele>466.79998779297</ele>
        <time>2021-11-04T05:50:37.000Z</time>
      </trkpt>
      <trkpt lat="45.19863" lon="5.72553">
        <ele>466.60000610352</ele>
        <time>2021-11-04T05:50:38.000Z</time>
      </trkpt>
      <trkpt lat="45.19862" lon="5.72553">
        <ele>466.39999389648</ele>
        <time>2021-11-04T05:50:39.000Z</time>
      </trkpt>
      <trkpt lat="45.19861" lon="5.72548">
        <ele>465.79998779297</ele>
        <time>2021-11-04T05:50:41.000Z</time>
      </trkpt>
      <trkpt lat="45.19861" lon="5.72541">
        <ele>465</ele>
        <time>2021-11-04T05:50:43.000Z</time>
      </trkpt>
      <trkpt lat="45.1986" lon="5.72534">
        <ele>464.60000610352</ele>
        <time>2021-11-04T05:50:45.000Z</time>
      </trkpt>
      <trkpt lat="45.19857" lon="5.72522">
        <ele>463.60000610352</ele>
        <time>2021-11-04T05:50:49.000Z</time>
      </trkpt>
      <trkpt lat="45.19857" lon="5.72519">
        <ele>463.60000610352</ele>
        <time>2021-11-04T05:50:50.000Z</time>
      </trkpt>
      <trkpt lat="45.19854" lon="5.72503">
        <ele>462.39999389648</ele>
        <time>2021-11-04T05:50:55.000Z</time>
      </trkpt>
      <trkpt lat="45.19854" lon="5.7249">
        <ele>461.20001220703</ele>
        <time>2021-11-04T05:50:59.000Z</time>
      </trkpt>
      <trkpt lat="45.19853" lon="5.72484">
        <ele>460.79998779297</ele>
        <time>2021-11-04T05:51:01.000Z</time>
      </trkpt>
      <trkpt lat="45.19852" lon="5.72475">
        <ele>460.20001220703</ele>
        <time>2021-11-04T05:51:04.000Z</time>
      </trkpt>
      <trkpt lat="45.19851" lon="5.72463">
        <ele>459.39999389648</ele>
        <time>2021-11-04T05:51:08.000Z</time>
      </trkpt>
      <trkpt lat="45.19851" lon="5.7246">
        <ele>459</ele>
        <time>2021-11-04T05:51:09.000Z</time>
      </trkpt>
      <trkpt lat="45.19845" lon="5.72447">
        <ele>458</ele>
        <time>2021-11-04T05:51:13.000Z</time>
      </trkpt>
      <trkpt lat="45.19843" lon="5.72446">
        <ele>457.79998779297</ele>
        <time>2021-11-04T05:51:14.000Z</time>
      </trkpt>
      <trkpt lat="45.19841" lon="5.72446">
        <ele>457.39999389648</ele>
        <time>2021-11-04T05:51:15.000Z</time>
      </trkpt>
      <trkpt lat="45.19838" lon="5.72451">
        <ele>456.79998779297</ele>
        <time>2021-11-04T05:51:18.000Z</time>
      </trkpt>
      <trkpt lat="45.19838" lon="5.72453">
        <ele>456.60000610352</ele>
        <time>2021-11-04T05:51:19.000Z</time>
      </trkpt>
      <trkpt lat="45.19837" lon="5.72462">
        <ele>456.39999389648</ele>
        <time>2021-11-04T05:51:22.000Z</time>
      </trkpt>
      <trkpt lat="45.19837" lon="5.72469">
        <ele>455.60000610352</ele>
        <time>2021-11-04T05:51:24.000Z</time>
      </trkpt>
      <trkpt lat="45.19835" lon="5.72478">
        <ele>455</ele>
        <time>2021-11-04T05:51:27.000Z</time>
      </trkpt>
      <trkpt lat="45.19834" lon="5.72482">
        <ele>454.39999389648</ele>
        <time>2021-11-04T05:51:28.000Z</time>
      </trkpt>
      <trkpt lat="45.19832" lon="5.72492">
        <ele>453.60000610352</ele>
        <time>2021-11-04T05:51:31.000Z</time>
      </trkpt>
      <trkpt lat="45.19831" lon="5.72495">
        <ele>453.39999389648</ele>
        <time>2021-11-04T05:51:32.000Z</time>
      </trkpt>
      <trkpt lat="45.1983" lon="5.72501">
        <ele>452.79998779297</ele>
        <time>2021-11-04T05:51:34.000Z</time>
      </trkpt>
      <trkpt lat="45.19829" lon="5.72504">
        <ele>452.20001220703</ele>
        <time>2021-11-04T05:51:35.000Z</time>
      </trkpt>
      <trkpt lat="45.19829" lon="5.72507">
        <ele>451.79998779297</ele>
        <time>2021-11-04T05:51:36.000Z</time>
      </trkpt>
      <trkpt lat="45.19827" lon="5.72517">
        <ele>451.20001220703</ele>
        <time>2021-11-04T05:51:39.000Z</time>
      </trkpt>
      <trkpt lat="45.19825" lon="5.72526">
        <ele>450</ele>
        <time>2021-11-04T05:51:42.000Z</time>
      </trkpt>
      <trkpt lat="45.19825" lon="5.72529">
        <ele>449.79998779297</ele>
        <time>2021-11-04T05:51:43.000Z</time>
      </trkpt>
      <trkpt lat="45.19825" lon="5.7254">
        <ele>448.79998779297</ele>
        <time>2021-11-04T05:51:46.000Z</time>
      </trkpt>
      <trkpt lat="45.19826" lon="5.72556">
        <ele>447.79998779297</ele>
        <time>2021-11-04T05:51:51.000Z</time>
      </trkpt>
      <trkpt lat="45.19826" lon="5.7257">
        <ele>446.79998779297</ele>
        <time>2021-11-04T05:51:55.000Z</time>
      </trkpt>
      <trkpt lat="45.19826" lon="5.72583">
        <ele>445.60000610352</ele>
        <time>2021-11-04T05:51:59.000Z</time>
      </trkpt>
      <trkpt lat="45.19825" lon="5.72586">
        <ele>445.60000610352</ele>
        <time>2021-11-04T05:52:00.000Z</time>
      </trkpt>
      <trkpt lat="45.19826" lon="5.72601">
        <ele>444.39999389648</ele>
        <time>2021-11-04T05:52:05.000Z</time>
      </trkpt>
      <trkpt lat="45.19829" lon="5.72617">
        <ele>443.39999389648</ele>
        <time>2021-11-04T05:52:10.000Z</time>
      </trkpt>
      <trkpt lat="45.19831" lon="5.72623">
        <ele>442.79998779297</ele>
        <time>2021-11-04T05:52:12.000Z</time>
      </trkpt>
      <trkpt lat="45.19832" lon="5.72629">
        <ele>442.20001220703</ele>
        <time>2021-11-04T05:52:14.000Z</time>
      </trkpt>
      <trkpt lat="45.19836" lon="5.72638">
        <ele>441.60000610352</ele>
        <time>2021-11-04T05:52:17.000Z</time>
      </trkpt>
      <trkpt lat="45.19837" lon="5.72641">
        <ele>441.20001220703</ele>
        <time>2021-11-04T05:52:18.000Z</time>
      </trkpt>
      <trkpt lat="45.19839" lon="5.72644">
        <ele>441</ele>
        <time>2021-11-04T05:52:19.000Z</time>
      </trkpt>
      <trkpt lat="45.19841" lon="5.72646">
        <ele>441</ele>
        <time>2021-11-04T05:52:20.000Z</time>
      </trkpt>
      <trkpt lat="45.19847" lon="5.72656">
        <ele>440</ele>
        <time>2021-11-04T05:52:24.000Z</time>
      </trkpt>
      <trkpt lat="45.19849" lon="5.72664">
        <ele>439.39999389648</ele>
        <time>2021-11-04T05:52:27.000Z</time>
      </trkpt>
      <trkpt lat="45.1985" lon="5.72667">
        <ele>439.39999389648</ele>
        <time>2021-11-04T05:52:28.000Z</time>
      </trkpt>
      <trkpt lat="45.19852" lon="5.72672">
        <ele>438.79998779297</ele>
        <time>2021-11-04T05:52:29.000Z</time>
      </trkpt>
      <trkpt lat="45.19856" lon="5.72677">
        <ele>438.20001220703</ele>
        <time>2021-11-04T05:52:31.000Z</time>
      </trkpt>
      <trkpt lat="45.19858" lon="5.72678">
        <ele>438</ele>
        <time>2021-11-04T05:52:32.000Z</time>
      </trkpt>
      <trkpt lat="45.19859" lon="5.72681">
        <ele>438</ele>
        <time>2021-11-04T05:52:33.000Z</time>
      </trkpt>
      <trkpt lat="45.1986" lon="5.72684">
        <ele>437.60000610352</ele>
        <time>2021-11-04T05:52:34.000Z</time>
      </trkpt>
      <trkpt lat="45.19859" lon="5.72687">
        <ele>437.20001220703</ele>
        <time>2021-11-04T05:52:35.000Z</time>
      </trkpt>
      <trkpt lat="45.19857" lon="5.72688">
        <ele>437</ele>
        <time>2021-11-04T05:52:36.000Z</time>
      </trkpt>
      <trkpt lat="45.19853" lon="5.72685">
        <ele>436.39999389648</ele>
        <time>2021-11-04T05:52:38.000Z</time>
      </trkpt>
      <trkpt lat="45.19847" lon="5.72679">
        <ele>435.79998779297</ele>
        <time>2021-11-04T05:52:41.000Z</time>
      </trkpt>
      <trkpt lat="45.19845" lon="5.72677">
        <ele>435.39999389648</ele>
        <time>2021-11-04T05:52:42.000Z</time>
      </trkpt>
      <trkpt lat="45.19835" lon="5.72667">
        <ele>434.39999389648</ele>
        <time>2021-11-04T05:52:47.000Z</time>
      </trkpt>
      <trkpt lat="45.19833" lon="5.72665">
        <ele>434.20001220703</ele>
        <time>2021-11-04T05:52:48.000Z</time>
      </trkpt>
      <trkpt lat="45.19826" lon="5.72655">
        <ele>433.20001220703</ele>
        <time>2021-11-04T05:52:52.000Z</time>
      </trkpt>
      <trkpt lat="45.19822" lon="5.72651">
        <ele>432.79998779297</ele>
        <time>2021-11-04T05:52:54.000Z</time>
      </trkpt>
      <trkpt lat="45.19815" lon="5.72646">
        <ele>432</ele>
        <time>2021-11-04T05:52:57.000Z</time>
      </trkpt>
      <trkpt lat="45.19806" lon="5.72638">
        <ele>431</ele>
        <time>2021-11-04T05:53:01.000Z</time>
      </trkpt>
      <trkpt lat="45.19804" lon="5.72636">
        <ele>430.79998779297</ele>
        <time>2021-11-04T05:53:02.000Z</time>
      </trkpt>
      <trkpt lat="45.19798" lon="5.7263">
        <ele>429.79998779297</ele>
        <time>2021-11-04T05:53:05.000Z</time>
      </trkpt>
      <trkpt lat="45.19795" lon="5.72625">
        <ele>429.39999389648</ele>
        <time>2021-11-04T05:53:07.000Z</time>
      </trkpt>
      <trkpt lat="45.19791" lon="5.72617">
        <ele>428.60000610352</ele>
        <time>2021-11-04T05:53:10.000Z</time>
      </trkpt>
      <trkpt lat="45.19789" lon="5.72607">
        <ele>428</ele>
        <time>2021-11-04T05:53:13.000Z</time>
      </trkpt>
      <trkpt lat="45.19789" lon="5.726">
        <ele>427.39999389648</ele>
        <time>2021-11-04T05:53:15.000Z</time>
      </trkpt>
      <trkpt lat="45.1979" lon="5.72581">
        <ele>426.20001220703</ele>
        <time>2021-11-04T05:53:20.000Z</time>
      </trkpt>
      <trkpt lat="45.19791" lon="5.72567">
        <ele>425.20001220703</ele>
        <time>2021-11-04T05:53:24.000Z</time>
      </trkpt>
      <trkpt lat="45.19793" lon="5.72553">
        <ele>424.20001220703</ele>
        <time>2021-11-04T05:53:28.000Z</time>
      </trkpt>
      <trkpt lat="45.19793" lon="5.7255">
        <ele>423.60000610352</ele>
        <time>2021-11-04T05:53:29.000Z</time>
      </trkpt>
      <trkpt lat="45.19793" lon="5.72531">
        <ele>422.39999389648</ele>
        <time>2021-11-04T05:53:34.000Z</time>
      </trkpt>
      <trkpt lat="45.19792" lon="5.72529">
        <ele>422.20001220703</ele>
        <time>2021-11-04T05:53:35.000Z</time>
      </trkpt>
      <trkpt lat="45.1979" lon="5.72528">
        <ele>422.20001220703</ele>
        <time>2021-11-04T05:53:36.000Z</time>
      </trkpt>
      <trkpt lat="45.19787" lon="5.72529">
        <ele>421.79998779297</ele>
        <time>2021-11-04T05:53:38.000Z</time>
      </trkpt>
      <trkpt lat="45.19785" lon="5.72531">
        <ele>421.39999389648</ele>
        <time>2021-11-04T05:53:39.000Z</time>
      </trkpt>
      <trkpt lat="45.19784" lon="5.72533">
        <ele>421</ele>
        <time>2021-11-04T05:53:40.000Z</time>
      </trkpt>
      <trkpt lat="45.19782" lon="5.72546">
        <ele>420.20001220703</ele>
        <time>2021-11-04T05:53:43.000Z</time>
      </trkpt>
      <trkpt lat="45.1978" lon="5.72554">
        <ele>420</ele>
        <time>2021-11-04T05:53:45.000Z</time>
      </trkpt>
      <trkpt lat="45.19777" lon="5.72561">
        <ele>418.79998779297</ele>
        <time>2021-11-04T05:53:47.000Z</time>
      </trkpt>
      <trkpt lat="45.19773" lon="5.72577">
        <ele>418</ele>
        <time>2021-11-04T05:53:52.000Z</time>
      </trkpt>
      <trkpt lat="45.19772" lon="5.72579">
        <ele>417.60000610352</ele>
        <time>2021-11-04T05:53:53.000Z</time>
      </trkpt>
      <trkpt lat="45.19768" lon="5.72576">
        <ele>417</ele>
        <time>2021-11-04T05:53:56.000Z</time>
      </trkpt>
      <trkpt lat="45.19767" lon="5.72569">
        <ele>416.20001220703</ele>
        <time>2021-11-04T05:53:58.000Z</time>
      </trkpt>
      <trkpt lat="45.19765" lon="5.7256">
        <ele>415.20001220703</ele>
        <time>2021-11-04T05:54:01.000Z</time>
      </trkpt>
      <trkpt lat="45.19765" lon="5.72554">
        <ele>414.60000610352</ele>
        <time>2021-11-04T05:54:03.000Z</time>
      </trkpt>
      <trkpt lat="45.19765" lon="5.72548">
        <ele>414</ele>
        <time>2021-11-04T05:54:05.000Z</time>
      </trkpt>
      <trkpt lat="45.19767" lon="5.72533">
        <ele>412.79998779297</ele>
        <time>2021-11-04T05:54:10.000Z</time>
      </trkpt>
      <trkpt lat="45.19772" lon="5.72519">
        <ele>412</ele>
        <time>2021-11-04T05:54:14.000Z</time>
      </trkpt>
      <trkpt lat="45.19773" lon="5.72516">
        <ele>411.39999389648</ele>
        <time>2021-11-04T05:54:15.000Z</time>
      </trkpt>
      <trkpt lat="45.19774" lon="5.72513">
        <ele>411</ele>
        <time>2021-11-04T05:54:16.000Z</time>
      </trkpt>
      <trkpt lat="45.19776" lon="5.72508">
        <ele>410.79998779297</ele>
        <time>2021-11-04T05:54:18.000Z</time>
      </trkpt>
      <trkpt lat="45.19773" lon="5.72507">
        <ele>410</ele>
        <time>2021-11-04T05:54:20.000Z</time>
      </trkpt>
      <trkpt lat="45.19763" lon="5.72516">
        <ele>408.79998779297</ele>
        <time>2021-11-04T05:54:25.000Z</time>
      </trkpt>
      <trkpt lat="45.19758" lon="5.72528">
        <ele>407.79998779297</ele>
        <time>2021-11-04T05:54:29.000Z</time>
      </trkpt>
      <trkpt lat="45.19756" lon="5.72534">
        <ele>407.60000610352</ele>
        <time>2021-11-04T05:54:31.000Z</time>
      </trkpt>
      <trkpt lat="45.19752" lon="5.72545">
        <ele>407.39999389648</ele>
        <time>2021-11-04T05:54:34.000Z</time>
      </trkpt>
      <trkpt lat="45.19752" lon="5.72551">
        <ele>407.39999389648</ele>
        <time>2021-11-04T05:54:36.000Z</time>
      </trkpt>
      <trkpt lat="45.19752" lon="5.72571">
        <ele>407.20001220703</ele>
        <time>2021-11-04T05:54:42.000Z</time>
      </trkpt>
      <trkpt lat="45.19751" lon="5.72598">
        <ele>407.39999389648</ele>
        <time>2021-11-04T05:54:50.000Z</time>
      </trkpt>
      <trkpt lat="45.19758" lon="5.7262">
        <ele>407.39999389648</ele>
        <time>2021-11-04T05:54:57.000Z</time>
      </trkpt>
      <trkpt lat="45.19765" lon="5.72644">
        <ele>407.39999389648</ele>
        <time>2021-11-04T05:55:03.000Z</time>
      </trkpt>
      <trkpt lat="45.19776" lon="5.72661">
        <ele>407.39999389648</ele>
        <time>2021-11-04T05:55:08.000Z</time>
      </trkpt>
      <trkpt lat="45.19788" lon="5.72675">
        <ele>407.79998779297</ele>
        <time>2021-11-04T05:55:14.000Z</time>
      </trkpt>
      <trkpt lat="45.19794" lon="5.72681">
        <ele>408</ele>
        <time>2021-11-04T05:55:17.000Z</time>
      </trkpt>
      <trkpt lat="45.19802" lon="5.72689">
        <ele>408.20001220703</ele>
        <time>2021-11-04T05:55:21.000Z</time>
      </trkpt>
      <trkpt lat="45.19814" lon="5.72701">
        <ele>408.39999389648</ele>
        <time>2021-11-04T05:55:28.000Z</time>
      </trkpt>
      <trkpt lat="45.19823" lon="5.72713">
        <ele>408.60000610352</ele>
        <time>2021-11-04T05:55:33.000Z</time>
      </trkpt>
      <trkpt lat="45.19826" lon="5.72716">
        <ele>408.79998779297</ele>
        <time>2021-11-04T05:55:34.000Z</time>
      </trkpt>
      <trkpt lat="45.19831" lon="5.72723">
        <ele>409</ele>
        <time>2021-11-04T05:55:36.000Z</time>
      </trkpt>
      <trkpt lat="45.19834" lon="5.7273">
        <ele>409</ele>
        <time>2021-11-04T05:55:38.000Z</time>
      </trkpt>
      <trkpt lat="45.19836" lon="5.72737">
        <ele>409</ele>
        <time>2021-11-04T05:55:40.000Z</time>
      </trkpt>
      <trkpt lat="45.19842" lon="5.72744">
        <ele>409.20001220703</ele>
        <time>2021-11-04T05:55:44.000Z</time>
      </trkpt>
      <trkpt lat="45.19843" lon="5.72744">
        <ele>409.20001220703</ele>
        <time>2021-11-04T05:55:45.000Z</time>
      </trkpt>
      <trkpt lat="45.19851" lon="5.72748">
        <ele>406.20001220703</ele>
        <time>2021-11-04T05:55:58.000Z</time>
      </trkpt>
      <trkpt lat="45.19857" lon="5.72747">
        <ele>405.39999389648</ele>
        <time>2021-11-04T05:56:00.000Z</time>
      </trkpt>
      <trkpt lat="45.19858" lon="5.72755">
        <ele>404.79998779297</ele>
        <time>2021-11-04T05:56:04.000Z</time>
      </trkpt>
      <trkpt lat="45.19859" lon="5.72763">
        <ele>404.39999389648</ele>
        <time>2021-11-04T05:56:07.000Z</time>
      </trkpt>
      <trkpt lat="45.19859" lon="5.72764">
        <ele>404.20001220703</ele>
        <time>2021-11-04T05:56:08.000Z</time>
      </trkpt>
      <trkpt lat="45.19857" lon="5.72765">
        <ele>403.60000610352</ele>
        <time>2021-11-04T05:56:10.000Z</time>
      </trkpt>
      <trkpt lat="45.19857" lon="5.72764">
        <ele>403.39999389648</ele>
        <time>2021-11-04T05:56:11.000Z</time>
      </trkpt>
      <trkpt lat="45.19857" lon="5.72762">
        <ele>403.20001220703</ele>
        <time>2021-11-04T05:56:12.000Z</time>
      </trkpt>
      <trkpt lat="45.19857" lon="5.72759">
        <ele>402</ele>
        <time>2021-11-04T05:56:15.000Z</time>
      </trkpt>
      <trkpt lat="45.19857" lon="5.72758">
        <ele>400.39999389648</ele>
        <time>2021-11-04T05:56:18.000Z</time>
      </trkpt>
      <trkpt lat="45.19858" lon="5.72759">
        <ele>399.20001220703</ele>
        <time>2021-11-04T05:56:21.000Z</time>
      </trkpt>
      <trkpt lat="45.19857" lon="5.7276">
        <ele>398.79998779297</ele>
        <time>2021-11-04T05:56:22.000Z</time>
      </trkpt>
      <trkpt lat="45.19856" lon="5.7276">
        <ele>398.39999389648</ele>
        <time>2021-11-04T05:56:24.000Z</time>
      </trkpt>
      <trkpt lat="45.19842" lon="5.72788">
        <ele>381.39999389648</ele>
        <time>2021-11-04T05:57:04.000Z</time>
      </trkpt>
      <trkpt lat="45.19849" lon="5.7278">
        <ele>380.60000610352</ele>
        <time>2021-11-04T05:57:06.000Z</time>
      </trkpt>
      <trkpt lat="45.19849" lon="5.72783">
        <ele>380.39999389648</ele>
        <time>2021-11-04T05:57:07.000Z</time>
      </trkpt>
      <trkpt lat="45.19848" lon="5.72779">
        <ele>379.39999389648</ele>
        <time>2021-11-04T05:57:10.000Z</time>
      </trkpt>
      <trkpt lat="45.19846" lon="5.72777">
        <ele>379.20001220703</ele>
        <time>2021-11-04T05:57:11.000Z</time>
      </trkpt>
      <trkpt lat="45.19837" lon="5.72771">
        <ele>378.20001220703</ele>
        <time>2021-11-04T05:57:15.000Z</time>
      </trkpt>
      <trkpt lat="45.19833" lon="5.72767">
        <ele>377.39999389648</ele>
        <time>2021-11-04T05:57:17.000Z</time>
      </trkpt>
      <trkpt lat="45.19831" lon="5.72766">
        <ele>377</ele>
        <time>2021-11-04T05:57:18.000Z</time>
      </trkpt>
      <trkpt lat="45.19819" lon="5.7276">
        <ele>375.79998779297</ele>
        <time>2021-11-04T05:57:23.000Z</time>
      </trkpt>
      <trkpt lat="45.19816" lon="5.72759">
        <ele>375.60000610352</ele>
        <time>2021-11-04T05:57:24.000Z</time>
      </trkpt>
      <trkpt lat="45.19812" lon="5.72753">
        <ele>375.20001220703</ele>
        <time>2021-11-04T05:57:26.000Z</time>
      </trkpt>
      <trkpt lat="45.19808" lon="5.72749">
        <ele>375</ele>
        <time>2021-11-04T05:57:28.000Z</time>
      </trkpt>
      <trkpt lat="45.19806" lon="5.72747">
        <ele>374.79998779297</ele>
        <time>2021-11-04T05:57:29.000Z</time>
      </trkpt>
      <trkpt lat="45.19797" lon="5.72741">
        <ele>373.60000610352</ele>
        <time>2021-11-04T05:57:33.000Z</time>
      </trkpt>
      <trkpt lat="45.19795" lon="5.72738">
        <ele>373.60000610352</ele>
        <time>2021-11-04T05:57:34.000Z</time>
      </trkpt>
      <trkpt lat="45.19794" lon="5.72736">
        <ele>373.60000610352</ele>
        <time>2021-11-04T05:57:35.000Z</time>
      </trkpt>
      <trkpt lat="45.19791" lon="5.72734">
        <ele>372.79998779297</ele>
        <time>2021-11-04T05:57:37.000Z</time>
      </trkpt>
      <trkpt lat="45.1979" lon="5.72735">
        <ele>372.39999389648</ele>
        <time>2021-11-04T05:57:38.000Z</time>
      </trkpt>
      <trkpt lat="45.1979" lon="5.72737">
        <ele>372.20001220703</ele>
        <time>2021-11-04T05:57:39.000Z</time>
      </trkpt>
      <trkpt lat="45.19794" lon="5.72743">
        <ele>371.20001220703</ele>
        <time>2021-11-04T05:57:42.000Z</time>
      </trkpt>
      <trkpt lat="45.19795" lon="5.72745">
        <ele>370.79998779297</ele>
        <time>2021-11-04T05:57:43.000Z</time>
      </trkpt>
      <trkpt lat="45.19801" lon="5.72748">
        <ele>370.20001220703</ele>
        <time>2021-11-04T05:57:46.000Z</time>
      </trkpt>
      <trkpt lat="45.19803" lon="5.7275">
        <ele>369.79998779297</ele>
        <time>2021-11-04T05:57:47.000Z</time>
      </trkpt>
      <trkpt lat="45.19805" lon="5.72752">
        <ele>369.60000610352</ele>
        <time>2021-11-04T05:57:48.000Z</time>
      </trkpt>
      <trkpt lat="45.19808" lon="5.72756">
        <ele>369</ele>
        <time>2021-11-04T05:57:50.000Z</time>
      </trkpt>
      <trkpt lat="45.19816" lon="5.72768">
        <ele>367.79998779297</ele>
        <time>2021-11-04T05:57:54.000Z</time>
      </trkpt>
      <trkpt lat="45.19821" lon="5.72777">
        <ele>366.60000610352</ele>
        <time>2021-11-04T05:57:57.000Z</time>
      </trkpt>
      <trkpt lat="45.19825" lon="5.72782">
        <ele>366</ele>
        <time>2021-11-04T05:57:59.000Z</time>
      </trkpt>
      <trkpt lat="45.19826" lon="5.72785">
        <ele>365.60000610352</ele>
        <time>2021-11-04T05:58:00.000Z</time>
      </trkpt>
      <trkpt lat="45.19833" lon="5.72791">
        <ele>364.60000610352</ele>
        <time>2021-11-04T05:58:03.000Z</time>
      </trkpt>
      <trkpt lat="45.19835" lon="5.72793">
        <ele>364.39999389648</ele>
        <time>2021-11-04T05:58:04.000Z</time>
      </trkpt>
      <trkpt lat="45.19841" lon="5.72797">
        <ele>363.20001220703</ele>
        <time>2021-11-04T05:58:07.000Z</time>
      </trkpt>
      <trkpt lat="45.19842" lon="5.72798">
        <ele>363</ele>
        <time>2021-11-04T05:58:08.000Z</time>
      </trkpt>
      <trkpt lat="45.19841" lon="5.728">
        <ele>362.39999389648</ele>
        <time>2021-11-04T05:58:10.000Z</time>
      </trkpt>
      <trkpt lat="45.19837" lon="5.72799">
        <ele>361.79998779297</ele>
        <time>2021-11-04T05:58:12.000Z</time>
      </trkpt>
      <trkpt lat="45.19829" lon="5.72797">
        <ele>361</ele>
        <time>2021-11-04T05:58:15.000Z</time>
      </trkpt>
      <trkpt lat="45.19827" lon="5.72796">
        <ele>360.79998779297</ele>
        <time>2021-11-04T05:58:16.000Z</time>
      </trkpt>
      <trkpt lat="45.19819" lon="5.72791">
        <ele>359.60000610352</ele>
        <time>2021-11-04T05:58:20.000Z</time>
      </trkpt>
      <trkpt lat="45.19814" lon="5.72787">
        <ele>359</ele>
        <time>2021-11-04T05:58:22.000Z</time>
      </trkpt>
      <trkpt lat="45.1981" lon="5.72784">
        <ele>358.20001220703</ele>
        <time>2021-11-04T05:58:24.000Z</time>
      </trkpt>
      <trkpt lat="45.19802" lon="5.72777">
        <ele>357.20001220703</ele>
        <time>2021-11-04T05:58:28.000Z</time>
      </trkpt>
      <trkpt lat="45.198" lon="5.72777">
        <ele>356.39999389648</ele>
        <time>2021-11-04T05:58:31.000Z</time>
      </trkpt>
      <trkpt lat="45.198" lon="5.72778">
        <ele>356</ele>
        <time>2021-11-04T05:58:32.000Z</time>
      </trkpt>
      <trkpt lat="45.19806" lon="5.72786">
        <ele>355.39999389648</ele>
        <time>2021-11-04T05:58:36.000Z</time>
      </trkpt>
      <trkpt lat="45.19811" lon="5.72791">
        <ele>354.79998779297</ele>
        <time>2021-11-04T05:58:38.000Z</time>
      </trkpt>
      <trkpt lat="45.19818" lon="5.72799">
        <ele>353.79998779297</ele>
        <time>2021-11-04T05:58:42.000Z</time>
      </trkpt>
      <trkpt lat="45.1982" lon="5.72801">
        <ele>353.60000610352</ele>
        <time>2021-11-04T05:58:43.000Z</time>
      </trkpt>
      <trkpt lat="45.19829" lon="5.72809">
        <ele>352.60000610352</ele>
        <time>2021-11-04T05:58:47.000Z</time>
      </trkpt>
      <trkpt lat="45.19834" lon="5.72814">
        <ele>351.39999389648</ele>
        <time>2021-11-04T05:58:50.000Z</time>
      </trkpt>
      <trkpt lat="45.19842" lon="5.72821">
        <ele>350.20001220703</ele>
        <time>2021-11-04T05:58:54.000Z</time>
      </trkpt>
      <trkpt lat="45.19845" lon="5.72826">
        <ele>349.60000610352</ele>
        <time>2021-11-04T05:58:56.000Z</time>
      </trkpt>
      <trkpt lat="45.19845" lon="5.72828">
        <ele>349.20001220703</ele>
        <time>2021-11-04T05:58:57.000Z</time>
      </trkpt>
      <trkpt lat="45.19844" lon="5.72829">
        <ele>349</ele>
        <time>2021-11-04T05:58:58.000Z</time>
      </trkpt>
      <trkpt lat="45.19843" lon="5.72828">
        <ele>348.60000610352</ele>
        <time>2021-11-04T05:58:59.000Z</time>
      </trkpt>
      <trkpt lat="45.19835" lon="5.72827">
        <ele>348</ele>
        <time>2021-11-04T05:59:02.000Z</time>
      </trkpt>
      <trkpt lat="45.19833" lon="5.72826">
        <ele>347.79998779297</ele>
        <time>2021-11-04T05:59:03.000Z</time>
      </trkpt>
      <trkpt lat="45.19823" lon="5.72821">
        <ele>347</ele>
        <time>2021-11-04T05:59:08.000Z</time>
      </trkpt>
      <trkpt lat="45.19821" lon="5.7282">
        <ele>346.60000610352</ele>
        <time>2021-11-04T05:59:09.000Z</time>
      </trkpt>
      <trkpt lat="45.19816" lon="5.72818">
        <ele>345.60000610352</ele>
        <time>2021-11-04T05:59:12.000Z</time>
      </trkpt>
      <trkpt lat="45.19817" lon="5.72819">
        <ele>345.20001220703</ele>
        <time>2021-11-04T05:59:13.000Z</time>
      </trkpt>
      <trkpt lat="45.19823" lon="5.72822">
        <ele>344.39999389648</ele>
        <time>2021-11-04T05:59:16.000Z</time>
      </trkpt>
      <trkpt lat="45.19826" lon="5.72824">
        <ele>344.20001220703</ele>
        <time>2021-11-04T05:59:17.000Z</time>
      </trkpt>
      <trkpt lat="45.19836" lon="5.72831">
        <ele>343</ele>
        <time>2021-11-04T05:59:21.000Z</time>
      </trkpt>
      <trkpt lat="45.19838" lon="5.72833">
        <ele>342.79998779297</ele>
        <time>2021-11-04T05:59:22.000Z</time>
      </trkpt>
      <trkpt lat="45.19833" lon="5.72835">
        <ele>342</ele>
        <time>2021-11-04T05:59:25.000Z</time>
      </trkpt>
      <trkpt lat="45.19825" lon="5.72832">
        <ele>341.39999389648</ele>
        <time>2021-11-04T05:59:28.000Z</time>
      </trkpt>
      <trkpt lat="45.19819" lon="5.72829">
        <ele>340.79998779297</ele>
        <time>2021-11-04T05:59:30.000Z</time>
      </trkpt>
      <trkpt lat="45.19814" lon="5.72826">
        <ele>340.20001220703</ele>
        <time>2021-11-04T05:59:32.000Z</time>
      </trkpt>
      <trkpt lat="45.19808" lon="5.72824">
        <ele>339.60000610352</ele>
        <time>2021-11-04T05:59:34.000Z</time>
      </trkpt>
      <trkpt lat="45.19803" lon="5.72819">
        <ele>339</ele>
        <time>2021-11-04T05:59:36.000Z</time>
      </trkpt>
      <trkpt lat="45.19798" lon="5.72814">
        <ele>338.39999389648</ele>
        <time>2021-11-04T05:59:38.000Z</time>
      </trkpt>
      <trkpt lat="45.19792" lon="5.7281">
        <ele>337</ele>
        <time>2021-11-04T05:59:41.000Z</time>
      </trkpt>
      <trkpt lat="45.19792" lon="5.7281">
        <ele>336.79998779297</ele>
        <time>2021-11-04T05:59:42.000Z</time>
      </trkpt>
      <trkpt lat="45.19792" lon="5.72812">
        <ele>336.39999389648</ele>
        <time>2021-11-04T05:59:43.000Z</time>
      </trkpt>
      <trkpt lat="45.19795" lon="5.72816">
        <ele>336.20001220703</ele>
        <time>2021-11-04T05:59:45.000Z</time>
      </trkpt>
      <trkpt lat="45.19801" lon="5.72819">
        <ele>336</ele>
        <time>2021-11-04T05:59:47.000Z</time>
      </trkpt>
      <trkpt lat="45.1981" lon="5.72827">
        <ele>335.39999389648</ele>
        <time>2021-11-04T05:59:50.000Z</time>
      </trkpt>
      <trkpt lat="45.19817" lon="5.72833">
        <ele>335</ele>
        <time>2021-11-04T05:59:52.000Z</time>
      </trkpt>
      <trkpt lat="45.19827" lon="5.72846">
        <ele>334.20001220703</ele>
        <time>2021-11-04T05:59:57.000Z</time>
      </trkpt>
      <trkpt lat="45.19827" lon="5.72847">
        <ele>333.79998779297</ele>
        <time>2021-11-04T05:59:58.000Z</time>
      </trkpt>
      <trkpt lat="45.19823" lon="5.72847">
        <ele>333.20001220703</ele>
        <time>2021-11-04T06:00:00.000Z</time>
      </trkpt>
      <trkpt lat="45.19819" lon="5.72845">
        <ele>332.79998779297</ele>
        <time>2021-11-04T06:00:02.000Z</time>
      </trkpt>
      <trkpt lat="45.19809" lon="5.72839">
        <ele>331.79998779297</ele>
        <time>2021-11-04T06:00:05.000Z</time>
      </trkpt>
      <trkpt lat="45.19806" lon="5.72837">
        <ele>331.39999389648</ele>
        <time>2021-11-04T06:00:06.000Z</time>
      </trkpt>
      <trkpt lat="45.19792" lon="5.72832">
        <ele>330.20001220703</ele>
        <time>2021-11-04T06:00:11.000Z</time>
      </trkpt>
      <trkpt lat="45.19783" lon="5.72822">
        <ele>329</ele>
        <time>2021-11-04T06:00:15.000Z</time>
      </trkpt>
      <trkpt lat="45.1978" lon="5.72821">
        <ele>328.60000610352</ele>
        <time>2021-11-04T06:00:16.000Z</time>
      </trkpt>
      <trkpt lat="45.19778" lon="5.72819">
        <ele>328.39999389648</ele>
        <time>2021-11-04T06:00:17.000Z</time>
      </trkpt>
      <trkpt lat="45.19776" lon="5.72819">
        <ele>328.20001220703</ele>
        <time>2021-11-04T06:00:18.000Z</time>
      </trkpt>
      <trkpt lat="45.19774" lon="5.72818">
        <ele>328</ele>
        <time>2021-11-04T06:00:19.000Z</time>
      </trkpt>
      <trkpt lat="45.19767" lon="5.72817">
        <ele>326.60000610352</ele>
        <time>2021-11-04T06:00:22.000Z</time>
      </trkpt>
      <trkpt lat="45.19765" lon="5.72816">
        <ele>326.39999389648</ele>
        <time>2021-11-04T06:00:23.000Z</time>
      </trkpt>
      <trkpt lat="45.19757" lon="5.72808">
        <ele>325.60000610352</ele>
        <time>2021-11-04T06:00:27.000Z</time>
      </trkpt>
      <trkpt lat="45.19756" lon="5.72808">
        <ele>325</ele>
        <time>2021-11-04T06:00:28.000Z</time>
      </trkpt>
      <trkpt lat="45.19757" lon="5.72809">
        <ele>324.79998779297</ele>
        <time>2021-11-04T06:00:29.000Z</time>
      </trkpt>
      <trkpt lat="45.19757" lon="5.7281">
        <ele>324.39999389648</ele>
        <time>2021-11-04T06:00:30.000Z</time>
      </trkpt>
      <trkpt lat="45.19762" lon="5.72815">
        <ele>323.39999389648</ele>
        <time>2021-11-04T06:00:33.000Z</time>
      </trkpt>
      <trkpt lat="45.19764" lon="5.72816">
        <ele>323.20001220703</ele>
        <time>2021-11-04T06:00:34.000Z</time>
      </trkpt>
      <trkpt lat="45.19769" lon="5.7282">
        <ele>322.60000610352</ele>
        <time>2021-11-04T06:00:36.000Z</time>
      </trkpt>
      <trkpt lat="45.19774" lon="5.72828">
        <ele>321.79998779297</ele>
        <time>2021-11-04T06:00:39.000Z</time>
      </trkpt>
      <trkpt lat="45.19778" lon="5.72837">
        <ele>321</ele>
        <time>2021-11-04T06:00:42.000Z</time>
      </trkpt>
      <trkpt lat="45.19781" lon="5.72841">
        <ele>320.39999389648</ele>
        <time>2021-11-04T06:00:44.000Z</time>
      </trkpt>
      <trkpt lat="45.19788" lon="5.72847">
        <ele>319.20001220703</ele>
        <time>2021-11-04T06:00:47.000Z</time>
      </trkpt>
      <trkpt lat="45.19791" lon="5.72851">
        <ele>318.60000610352</ele>
        <time>2021-11-04T06:00:49.000Z</time>
      </trkpt>
      <trkpt lat="45.19797" lon="5.72858">
        <ele>318</ele>
        <time>2021-11-04T06:00:52.000Z</time>
      </trkpt>
      <trkpt lat="45.19804" lon="5.72865">
        <ele>316.79998779297</ele>
        <time>2021-11-04T06:00:56.000Z</time>
      </trkpt>
      <trkpt lat="45.19811" lon="5.7287">
        <ele>315.39999389648</ele>
        <time>2021-11-04T06:00:59.000Z</time>
      </trkpt>
      <trkpt lat="45.19812" lon="5.72875">
        <ele>315</ele>
        <time>2021-11-04T06:01:01.000Z</time>
      </trkpt>
      <trkpt lat="45.19811" lon="5.72876">
        <ele>314.79998779297</ele>
        <time>2021-11-04T06:01:02.000Z</time>
      </trkpt>
      <trkpt lat="45.19808" lon="5.72877">
        <ele>314.39999389648</ele>
        <time>2021-11-04T06:01:04.000Z</time>
      </trkpt>
      <trkpt lat="45.198" lon="5.72876">
        <ele>313.60000610352</ele>
        <time>2021-11-04T06:01:07.000Z</time>
      </trkpt>
      <trkpt lat="45.19794" lon="5.72875">
        <ele>313.20001220703</ele>
        <time>2021-11-04T06:01:09.000Z</time>
      </trkpt>
      <trkpt lat="45.19787" lon="5.72872">
        <ele>312</ele>
        <time>2021-11-04T06:01:12.000Z</time>
      </trkpt>
      <trkpt lat="45.19778" lon="5.72868">
        <ele>311</ele>
        <time>2021-11-04T06:01:15.000Z</time>
      </trkpt>
      <trkpt lat="45.19769" lon="5.72863">
        <ele>310</ele>
        <time>2021-11-04T06:01:19.000Z</time>
      </trkpt>
      <trkpt lat="45.19767" lon="5.72861">
        <ele>309.79998779297</ele>
        <time>2021-11-04T06:01:20.000Z</time>
      </trkpt>
      <trkpt lat="45.19762" lon="5.72857">
        <ele>308.79998779297</ele>
        <time>2021-11-04T06:01:22.000Z</time>
      </trkpt>
      <trkpt lat="45.19758" lon="5.72854">
        <ele>308.39999389648</ele>
        <time>2021-11-04T06:01:24.000Z</time>
      </trkpt>
      <trkpt lat="45.19752" lon="5.72849">
        <ele>307.39999389648</ele>
        <time>2021-11-04T06:01:27.000Z</time>
      </trkpt>
      <trkpt lat="45.19744" lon="5.72844">
        <ele>306.39999389648</ele>
        <time>2021-11-04T06:01:31.000Z</time>
      </trkpt>
      <trkpt lat="45.19744" lon="5.72845">
        <ele>305.79998779297</ele>
        <time>2021-11-04T06:01:32.000Z</time>
      </trkpt>
      <trkpt lat="45.19746" lon="5.72846">
        <ele>305.20001220703</ele>
        <time>2021-11-04T06:01:34.000Z</time>
      </trkpt>
      <trkpt lat="45.19747" lon="5.72848">
        <ele>305</ele>
        <time>2021-11-04T06:01:35.000Z</time>
      </trkpt>
      <trkpt lat="45.19749" lon="5.72849">
        <ele>304.79998779297</ele>
        <time>2021-11-04T06:01:36.000Z</time>
      </trkpt>
      <trkpt lat="45.19755" lon="5.72854">
        <ele>304.20001220703</ele>
        <time>2021-11-04T06:01:38.000Z</time>
      </trkpt>
      <trkpt lat="45.19758" lon="5.72856">
        <ele>303.79998779297</ele>
        <time>2021-11-04T06:01:39.000Z</time>
      </trkpt>
      <trkpt lat="45.19762" lon="5.72861">
        <ele>303.20001220703</ele>
        <time>2021-11-04T06:01:41.000Z</time>
      </trkpt>
      <trkpt lat="45.19768" lon="5.72869">
        <ele>302</ele>
        <time>2021-11-04T06:01:44.000Z</time>
      </trkpt>
      <trkpt lat="45.19771" lon="5.72874">
        <ele>301.20001220703</ele>
        <time>2021-11-04T06:01:46.000Z</time>
      </trkpt>
      <trkpt lat="45.19772" lon="5.72878">
        <ele>301</ele>
        <time>2021-11-04T06:01:47.000Z</time>
      </trkpt>
      <trkpt lat="45.19777" lon="5.72889">
        <ele>299.79998779297</ele>
        <time>2021-11-04T06:01:51.000Z</time>
      </trkpt>
      <trkpt lat="45.19779" lon="5.72894">
        <ele>299.20001220703</ele>
        <time>2021-11-04T06:01:53.000Z</time>
      </trkpt>
      <trkpt lat="45.19784" lon="5.72902">
        <ele>298.39999389648</ele>
        <time>2021-11-04T06:01:56.000Z</time>
      </trkpt>
      <trkpt lat="45.19787" lon="5.72911">
        <ele>297.39999389648</ele>
        <time>2021-11-04T06:01:59.000Z</time>
      </trkpt>
      <trkpt lat="45.19789" lon="5.72914">
        <ele>297.39999389648</ele>
        <time>2021-11-04T06:02:00.000Z</time>
      </trkpt>
      <trkpt lat="45.19795" lon="5.72919">
        <ele>296.39999389648</ele>
        <time>2021-11-04T06:02:03.000Z</time>
      </trkpt>
      <trkpt lat="45.19796" lon="5.72921">
        <ele>296</ele>
        <time>2021-11-04T06:02:04.000Z</time>
      </trkpt>
      <trkpt lat="45.19795" lon="5.72923">
        <ele>295.79998779297</ele>
        <time>2021-11-04T06:02:05.000Z</time>
      </trkpt>
      <trkpt lat="45.19793" lon="5.72923">
        <ele>295.20001220703</ele>
        <time>2021-11-04T06:02:07.000Z</time>
      </trkpt>
      <trkpt lat="45.19785" lon="5.72922">
        <ele>294.20001220703</ele>
        <time>2021-11-04T06:02:10.000Z</time>
      </trkpt>
      <trkpt lat="45.19783" lon="5.72921">
        <ele>294</ele>
        <time>2021-11-04T06:02:11.000Z</time>
      </trkpt>
      <trkpt lat="45.19777" lon="5.7292">
        <ele>293</ele>
        <time>2021-11-04T06:02:14.000Z</time>
      </trkpt>
      <trkpt lat="45.19768" lon="5.72912">
        <ele>291.79998779297</ele>
        <time>2021-11-04T06:02:18.000Z</time>
      </trkpt>
      <trkpt lat="45.19761" lon="5.72909">
        <ele>291.20001220703</ele>
        <time>2021-11-04T06:02:20.000Z</time>
      </trkpt>
      <trkpt lat="45.19758" lon="5.72908">
        <ele>290.79998779297</ele>
        <time>2021-11-04T06:02:21.000Z</time>
      </trkpt>
      <trkpt lat="45.19749" lon="5.72901">
        <ele>289.39999389648</ele>
        <time>2021-11-04T06:02:25.000Z</time>
      </trkpt>
      <trkpt lat="45.19743" lon="5.72895">
        <ele>288.39999389648</ele>
        <time>2021-11-04T06:02:28.000Z</time>
      </trkpt>
      <trkpt lat="45.19733" lon="5.72891">
        <ele>287.20001220703</ele>
        <time>2021-11-04T06:02:32.000Z</time>
      </trkpt>
      <trkpt lat="45.19726" lon="5.72887">
        <ele>286.60000610352</ele>
        <time>2021-11-04T06:02:35.000Z</time>
      </trkpt>
      <trkpt lat="45.19721" lon="5.72885">
        <ele>285.79998779297</ele>
        <time>2021-11-04T06:02:37.000Z</time>
      </trkpt>
      <trkpt lat="45.19716" lon="5.72882">
        <ele>284.79998779297</ele>
        <time>2021-11-04T06:02:39.000Z</time>
      </trkpt>
      <trkpt lat="45.19708" lon="5.72876">
        <ele>283.39999389648</ele>
        <time>2021-11-04T06:02:43.000Z</time>
      </trkpt>
      <trkpt lat="45.19698" lon="5.72863">
        <ele>282.20001220703</ele>
        <time>2021-11-04T06:02:48.000Z</time>
      </trkpt>
      <trkpt lat="45.19691" lon="5.7286">
        <ele>281.39999389648</ele>
        <time>2021-11-04T06:02:51.000Z</time>
      </trkpt>
      <trkpt lat="45.1969" lon="5.7286">
        <ele>281</ele>
        <time>2021-11-04T06:02:52.000Z</time>
      </trkpt>
      <trkpt lat="45.19696" lon="5.72861">
        <ele>280.60000610352</ele>
        <time>2021-11-04T06:02:55.000Z</time>
      </trkpt>
      <trkpt lat="45.197" lon="5.72865">
        <ele>280</ele>
        <time>2021-11-04T06:02:57.000Z</time>
      </trkpt>
      <trkpt lat="45.19703" lon="5.72871">
        <ele>278.79998779297</ele>
        <time>2021-11-04T06:03:00.000Z</time>
      </trkpt>
      <trkpt lat="45.19704" lon="5.72874">
        <ele>278.79998779297</ele>
        <time>2021-11-04T06:03:01.000Z</time>
      </trkpt>
      <trkpt lat="45.19708" lon="5.7288">
        <ele>277.60000610352</ele>
        <time>2021-11-04T06:03:04.000Z</time>
      </trkpt>
      <trkpt lat="45.19713" lon="5.72889">
        <ele>276.60000610352</ele>
        <time>2021-11-04T06:03:08.000Z</time>
      </trkpt>
      <trkpt lat="45.19719" lon="5.72899">
        <ele>275.60000610352</ele>
        <time>2021-11-04T06:03:12.000Z</time>
      </trkpt>
      <trkpt lat="45.19725" lon="5.72906">
        <ele>275.20001220703</ele>
        <time>2021-11-04T06:03:14.000Z</time>
      </trkpt>
      <trkpt lat="45.19727" lon="5.72908">
        <ele>274.60000610352</ele>
        <time>2021-11-04T06:03:15.000Z</time>
      </trkpt>
      <trkpt lat="45.19731" lon="5.72914">
        <ele>274.20001220703</ele>
        <time>2021-11-04T06:03:17.000Z</time>
      </trkpt>
      <trkpt lat="45.19734" lon="5.72919">
        <ele>273.60000610352</ele>
        <time>2021-11-04T06:03:19.000Z</time>
      </trkpt>
      <trkpt lat="45.19738" lon="5.72924">
        <ele>273</ele>
        <time>2021-11-04T06:03:21.000Z</time>
      </trkpt>
      <trkpt lat="45.19739" lon="5.72927">
        <ele>272.79998779297</ele>
        <time>2021-11-04T06:03:22.000Z</time>
      </trkpt>
      <trkpt lat="45.19742" lon="5.72937">
        <ele>271.79998779297</ele>
        <time>2021-11-04T06:03:26.000Z</time>
      </trkpt>
      <trkpt lat="45.19743" lon="5.72939">
        <ele>271.60000610352</ele>
        <time>2021-11-04T06:03:27.000Z</time>
      </trkpt>
      <trkpt lat="45.19745" lon="5.72944">
        <ele>271.20001220703</ele>
        <time>2021-11-04T06:03:29.000Z</time>
      </trkpt>
      <trkpt lat="45.19748" lon="5.72948">
        <ele>270.79998779297</ele>
        <time>2021-11-04T06:03:31.000Z</time>
      </trkpt>
      <trkpt lat="45.19753" lon="5.72957">
        <ele>269.79998779297</ele>
        <time>2021-11-04T06:03:35.000Z</time>
      </trkpt>
      <trkpt lat="45.19754" lon="5.7296">
        <ele>269.79998779297</ele>
        <time>2021-11-04T06:03:36.000Z</time>
      </trkpt>
      <trkpt lat="45.19758" lon="5.72969">
        <ele>268.60000610352</ele>
        <time>2021-11-04T06:03:39.000Z</time>
      </trkpt>
      <trkpt lat="45.19762" lon="5.72975">
        <ele>268.20001220703</ele>
        <time>2021-11-04T06:03:41.000Z</time>
      </trkpt>
      <trkpt lat="45.19764" lon="5.72979">
        <ele>267.39999389648</ele>
        <time>2021-11-04T06:03:43.000Z</time>
      </trkpt>
      <trkpt lat="45.1977" lon="5.72987">
        <ele>266.79998779297</ele>
        <time>2021-11-04T06:03:46.000Z</time>
      </trkpt>
      <trkpt lat="45.19772" lon="5.72989">
        <ele>266.60000610352</ele>
        <time>2021-11-04T06:03:47.000Z</time>
      </trkpt>
      <trkpt lat="45.19775" lon="5.72991">
        <ele>266</ele>
        <time>2021-11-04T06:03:48.000Z</time>
      </trkpt>
      <trkpt lat="45.1978" lon="5.72996">
        <ele>265.39999389648</ele>
        <time>2021-11-04T06:03:50.000Z</time>
      </trkpt>
      <trkpt lat="45.19786" lon="5.73">
        <ele>264.60000610352</ele>
        <time>2021-11-04T06:03:53.000Z</time>
      </trkpt>
      <trkpt lat="45.19791" lon="5.73004">
        <ele>264</ele>
        <time>2021-11-04T06:03:55.000Z</time>
      </trkpt>
      <trkpt lat="45.19793" lon="5.73007">
        <ele>263.79998779297</ele>
        <time>2021-11-04T06:03:56.000Z</time>
      </trkpt>
      <trkpt lat="45.19798" lon="5.73009">
        <ele>263.20001220703</ele>
        <time>2021-11-04T06:03:58.000Z</time>
      </trkpt>
      <trkpt lat="45.19805" lon="5.73014">
        <ele>262.39999389648</ele>
        <time>2021-11-04T06:04:01.000Z</time>
      </trkpt>
      <trkpt lat="45.19808" lon="5.73019">
        <ele>261.79998779297</ele>
        <time>2021-11-04T06:04:03.000Z</time>
      </trkpt>
      <trkpt lat="45.19807" lon="5.73022">
        <ele>261.60000610352</ele>
        <time>2021-11-04T06:04:04.000Z</time>
      </trkpt>
      <trkpt lat="45.19804" lon="5.73023">
        <ele>261.20001220703</ele>
        <time>2021-11-04T06:04:06.000Z</time>
      </trkpt>
      <trkpt lat="45.19799" lon="5.73021">
        <ele>260.39999389648</ele>
        <time>2021-11-04T06:04:08.000Z</time>
      </trkpt>
      <trkpt lat="45.19793" lon="5.73018">
        <ele>259.79998779297</ele>
        <time>2021-11-04T06:04:11.000Z</time>
      </trkpt>
      <trkpt lat="45.1979" lon="5.73018">
        <ele>259.39999389648</ele>
        <time>2021-11-04T06:04:12.000Z</time>
      </trkpt>
      <trkpt lat="45.19781" lon="5.73015">
        <ele>258.39999389648</ele>
        <time>2021-11-04T06:04:16.000Z</time>
      </trkpt>
      <trkpt lat="45.19779" lon="5.73013">
        <ele>258.20001220703</ele>
        <time>2021-11-04T06:04:17.000Z</time>
      </trkpt>
      <trkpt lat="45.1977" lon="5.73007">
        <ele>257</ele>
        <time>2021-11-04T06:04:21.000Z</time>
      </trkpt>
      <trkpt lat="45.19768" lon="5.73007">
        <ele>256.60000610352</ele>
        <time>2021-11-04T06:04:23.000Z</time>
      </trkpt>
      <trkpt lat="45.19769" lon="5.73013">
        <ele>255.60000610352</ele>
        <time>2021-11-04T06:04:26.000Z</time>
      </trkpt>
      <trkpt lat="45.1977" lon="5.73014">
        <ele>255.39999389648</ele>
        <time>2021-11-04T06:04:27.000Z</time>
      </trkpt>
      <trkpt lat="45.19774" lon="5.73017">
        <ele>254.80000305176</ele>
        <time>2021-11-04T06:04:29.000Z</time>
      </trkpt>
      <trkpt lat="45.19779" lon="5.73018">
        <ele>254.19999694824</ele>
        <time>2021-11-04T06:04:31.000Z</time>
      </trkpt>
      <trkpt lat="45.19782" lon="5.73019">
        <ele>253.80000305176</ele>
        <time>2021-11-04T06:04:32.000Z</time>
      </trkpt>
      <trkpt lat="45.19791" lon="5.73023">
        <ele>253.19999694824</ele>
        <time>2021-11-04T06:04:35.000Z</time>
      </trkpt>
      <trkpt lat="45.19797" lon="5.73026">
        <ele>252.39999389648</ele>
        <time>2021-11-04T06:04:38.000Z</time>
      </trkpt>
      <trkpt lat="45.19798" lon="5.73028">
        <ele>252.19999694824</ele>
        <time>2021-11-04T06:04:39.000Z</time>
      </trkpt>
      <trkpt lat="45.19803" lon="5.73033">
        <ele>251.39999389648</ele>
        <time>2021-11-04T06:04:42.000Z</time>
      </trkpt>
      <trkpt lat="45.19803" lon="5.73036">
        <ele>251</ele>
        <time>2021-11-04T06:04:44.000Z</time>
      </trkpt>
      <trkpt lat="45.19798" lon="5.73037">
        <ele>249.80000305176</ele>
        <time>2021-11-04T06:04:47.000Z</time>
      </trkpt>
      <trkpt lat="45.1979" lon="5.73034">
        <ele>248.80000305176</ele>
        <time>2021-11-04T06:04:51.000Z</time>
      </trkpt>
      <trkpt lat="45.19788" lon="5.73032">
        <ele>248.39999389648</ele>
        <time>2021-11-04T06:04:52.000Z</time>
      </trkpt>
      <trkpt lat="45.19783" lon="5.7303">
        <ele>247.60000610352</ele>
        <time>2021-11-04T06:04:55.000Z</time>
      </trkpt>
      <trkpt lat="45.19782" lon="5.7303">
        <ele>247.19999694824</ele>
        <time>2021-11-04T06:04:56.000Z</time>
      </trkpt>
      <trkpt lat="45.19775" lon="5.73028">
        <ele>246.19999694824</ele>
        <time>2021-11-04T06:04:59.000Z</time>
      </trkpt>
      <trkpt lat="45.19773" lon="5.73028">
        <ele>246</ele>
        <time>2021-11-04T06:05:00.000Z</time>
      </trkpt>
      <trkpt lat="45.19765" lon="5.73023">
        <ele>245</ele>
        <time>2021-11-04T06:05:04.000Z</time>
      </trkpt>
      <trkpt lat="45.19762" lon="5.73023">
        <ele>244.80000305176</ele>
        <time>2021-11-04T06:05:05.000Z</time>
      </trkpt>
      <trkpt lat="45.1976" lon="5.73023">
        <ele>244.39999389648</ele>
        <time>2021-11-04T06:05:06.000Z</time>
      </trkpt>
      <trkpt lat="45.1976" lon="5.73024">
        <ele>244.19999694824</ele>
        <time>2021-11-04T06:05:07.000Z</time>
      </trkpt>
      <trkpt lat="45.1976" lon="5.73024">
        <ele>244</ele>
        <time>2021-11-04T06:05:08.000Z</time>
      </trkpt>
      <trkpt lat="45.1976" lon="5.73025">
        <ele>243.60000610352</ele>
        <time>2021-11-04T06:05:09.000Z</time>
      </trkpt>
      <trkpt lat="45.19763" lon="5.73028">
        <ele>243</ele>
        <time>2021-11-04T06:05:11.000Z</time>
      </trkpt>
      <trkpt lat="45.19765" lon="5.7303">
        <ele>242.80000305176</ele>
        <time>2021-11-04T06:05:12.000Z</time>
      </trkpt>
      <trkpt lat="45.19771" lon="5.73035">
        <ele>241.60000610352</ele>
        <time>2021-11-04T06:05:15.000Z</time>
      </trkpt>
      <trkpt lat="45.19779" lon="5.73042">
        <ele>240.80000305176</ele>
        <time>2021-11-04T06:05:19.000Z</time>
      </trkpt>
      <trkpt lat="45.19782" lon="5.73044">
        <ele>240.39999389648</ele>
        <time>2021-11-04T06:05:20.000Z</time>
      </trkpt>
      <trkpt lat="45.19783" lon="5.73046">
        <ele>240.39999389648</ele>
        <time>2021-11-04T06:05:21.000Z</time>
      </trkpt>
      <trkpt lat="45.19785" lon="5.73048">
        <ele>240.19999694824</ele>
        <time>2021-11-04T06:05:22.000Z</time>
      </trkpt>
      <trkpt lat="45.1979" lon="5.7305">
        <ele>239.19999694824</ele>
        <time>2021-11-04T06:05:24.000Z</time>
      </trkpt>
      <trkpt lat="45.19795" lon="5.73055">
        <ele>238.39999389648</ele>
        <time>2021-11-04T06:05:28.000Z</time>
      </trkpt>
      <trkpt lat="45.19795" lon="5.73057">
        <ele>238</ele>
        <time>2021-11-04T06:05:29.000Z</time>
      </trkpt>
      <trkpt lat="45.19788" lon="5.7306">
        <ele>237.19999694824</ele>
        <time>2021-11-04T06:05:32.000Z</time>
      </trkpt>
      <trkpt lat="45.19786" lon="5.73061">
        <ele>236.80000305176</ele>
        <time>2021-11-04T06:05:33.000Z</time>
      </trkpt>
      <trkpt lat="45.19779" lon="5.73058">
        <ele>235.60000610352</ele>
        <time>2021-11-04T06:05:37.000Z</time>
      </trkpt>
      <trkpt lat="45.19777" lon="5.73058">
        <ele>235.39999389648</ele>
        <time>2021-11-04T06:05:38.000Z</time>
      </trkpt>
      <trkpt lat="45.19771" lon="5.73056">
        <ele>234.39999389648</ele>
        <time>2021-11-04T06:05:41.000Z</time>
      </trkpt>
      <trkpt lat="45.19769" lon="5.73056">
        <ele>234.19999694824</ele>
        <time>2021-11-04T06:05:42.000Z</time>
      </trkpt>
      <trkpt lat="45.19764" lon="5.73057">
        <ele>233.80000305176</ele>
        <time>2021-11-04T06:05:44.000Z</time>
      </trkpt>
      <trkpt lat="45.19761" lon="5.73058">
        <ele>233.19999694824</ele>
        <time>2021-11-04T06:05:45.000Z</time>
      </trkpt>
      <trkpt lat="45.19755" lon="5.73059">
        <ele>232</ele>
        <time>2021-11-04T06:05:49.000Z</time>
      </trkpt>
      <trkpt lat="45.19755" lon="5.7306">
        <ele>231.80000305176</ele>
        <time>2021-11-04T06:05:50.000Z</time>
      </trkpt>
      <trkpt lat="45.19757" lon="5.7306">
        <ele>231.39999389648</ele>
        <time>2021-11-04T06:05:51.000Z</time>
      </trkpt>
      <trkpt lat="45.1976" lon="5.73063">
        <ele>231</ele>
        <time>2021-11-04T06:05:53.000Z</time>
      </trkpt>
      <trkpt lat="45.1976" lon="5.73064">
        <ele>230.80000305176</ele>
        <time>2021-11-04T06:05:54.000Z</time>
      </trkpt>
      <trkpt lat="45.19761" lon="5.73065">
        <ele>230.60000610352</ele>
        <time>2021-11-04T06:05:55.000Z</time>
      </trkpt>
      <trkpt lat="45.19764" lon="5.73068">
        <ele>229.80000305176</ele>
        <time>2021-11-04T06:05:58.000Z</time>
      </trkpt>
      <trkpt lat="45.19766" lon="5.73071">
        <ele>229.39999389648</ele>
        <time>2021-11-04T06:06:00.000Z</time>
      </trkpt>
      <trkpt lat="45.19769" lon="5.73072">
        <ele>228.60000610352</ele>
        <time>2021-11-04T06:06:02.000Z</time>
      </trkpt>
      <trkpt lat="45.19778" lon="5.73076">
        <ele>227.39999389648</ele>
        <time>2021-11-04T06:06:06.000Z</time>
      </trkpt>
      <trkpt lat="45.19782" lon="5.73079">
        <ele>227.19999694824</ele>
        <time>2021-11-04T06:06:08.000Z</time>
      </trkpt>
      <trkpt lat="45.19784" lon="5.7308">
        <ele>226.80000305176</ele>
        <time>2021-11-04T06:06:09.000Z</time>
      </trkpt>
      <trkpt lat="45.19788" lon="5.73084">
        <ele>226.39999389648</ele>
        <time>2021-11-04T06:06:11.000Z</time>
      </trkpt>
      <trkpt lat="45.1979" lon="5.73085">
        <ele>226.19999694824</ele>
        <time>2021-11-04T06:06:12.000Z</time>
      </trkpt>
      <trkpt lat="45.19795" lon="5.73089">
        <ele>225.19999694824</ele>
        <time>2021-11-04T06:06:15.000Z</time>
      </trkpt>
      <trkpt lat="45.19795" lon="5.7309">
        <ele>225.19999694824</ele>
        <time>2021-11-04T06:06:16.000Z</time>
      </trkpt>
      <trkpt lat="45.19794" lon="5.73092">
        <ele>225</ele>
        <time>2021-11-04T06:06:17.000Z</time>
      </trkpt>
      <trkpt lat="45.19791" lon="5.73095">
        <ele>224.60000610352</ele>
        <time>2021-11-04T06:06:19.000Z</time>
      </trkpt>
      <trkpt lat="45.19789" lon="5.73096">
        <ele>224.39999389648</ele>
        <time>2021-11-04T06:06:20.000Z</time>
      </trkpt>
      <trkpt lat="45.19787" lon="5.73095">
        <ele>224.19999694824</ele>
        <time>2021-11-04T06:06:21.000Z</time>
      </trkpt>
      <trkpt lat="45.19783" lon="5.73094">
        <ele>223.39999389648</ele>
        <time>2021-11-04T06:06:23.000Z</time>
      </trkpt>
      <trkpt lat="45.19781" lon="5.73093">
        <ele>223.19999694824</ele>
        <time>2021-11-04T06:06:24.000Z</time>
      </trkpt>
      <trkpt lat="45.19778" lon="5.73094">
        <ele>222.80000305176</ele>
        <time>2021-11-04T06:06:25.000Z</time>
      </trkpt>
      <trkpt lat="45.19772" lon="5.73093">
        <ele>222</ele>
        <time>2021-11-04T06:06:28.000Z</time>
      </trkpt>
      <trkpt lat="45.19762" lon="5.73093">
        <ele>220.60000610352</ele>
        <time>2021-11-04T06:06:33.000Z</time>
      </trkpt>
      <trkpt lat="45.19758" lon="5.73094">
        <ele>220</ele>
        <time>2021-11-04T06:06:36.000Z</time>
      </trkpt>
      <trkpt lat="45.1976" lon="5.73095">
        <ele>219.19999694824</ele>
        <time>2021-11-04T06:06:38.000Z</time>
      </trkpt>
      <trkpt lat="45.19761" lon="5.731">
        <ele>218.80000305176</ele>
        <time>2021-11-04T06:06:40.000Z</time>
      </trkpt>
      <trkpt lat="45.19762" lon="5.73101">
        <ele>218.60000610352</ele>
        <time>2021-11-04T06:06:41.000Z</time>
      </trkpt>
      <trkpt lat="45.19765" lon="5.73103">
        <ele>218</ele>
        <time>2021-11-04T06:06:43.000Z</time>
      </trkpt>
      <trkpt lat="45.19767" lon="5.73103">
        <ele>217.80000305176</ele>
        <time>2021-11-04T06:06:44.000Z</time>
      </trkpt>
      <trkpt lat="45.1977" lon="5.73106">
        <ele>217</ele>
        <time>2021-11-04T06:06:46.000Z</time>
      </trkpt>
      <trkpt lat="45.1978" lon="5.73116">
        <ele>215.80000305176</ele>
        <time>2021-11-04T06:06:51.000Z</time>
      </trkpt>
      <trkpt lat="45.19781" lon="5.73123">
        <ele>215.19999694824</ele>
        <time>2021-11-04T06:06:54.000Z</time>
      </trkpt>
      <trkpt lat="45.19783" lon="5.73123">
        <ele>214.80000305176</ele>
        <time>2021-11-04T06:06:55.000Z</time>
      </trkpt>
      <trkpt lat="45.19792" lon="5.73126">
        <ele>213.80000305176</ele>
        <time>2021-11-04T06:06:59.000Z</time>
      </trkpt>
      <trkpt lat="45.1979" lon="5.7313">
        <ele>213</ele>
        <time>2021-11-04T06:07:02.000Z</time>
      </trkpt>
      <trkpt lat="45.19788" lon="5.7313">
        <ele>212.60000610352</ele>
        <time>2021-11-04T06:07:03.000Z</time>
      </trkpt>
      <trkpt lat="45.19786" lon="5.73132">
        <ele>212.39999389648</ele>
        <time>2021-11-04T06:07:04.000Z</time>
      </trkpt>
      <trkpt lat="45.19783" lon="5.73134">
        <ele>212</ele>
        <time>2021-11-04T06:07:06.000Z</time>
      </trkpt>
      <trkpt lat="45.19783" lon="5.73135">
        <ele>211.39999389648</ele>
        <time>2021-11-04T06:07:07.000Z</time>
      </trkpt>
      <trkpt lat="45.19781" lon="5.73138">
        <ele>211.19999694824</ele>
        <time>2021-11-04T06:07:08.000Z</time>
      </trkpt>
      <trkpt lat="45.19781" lon="5.73146">
        <ele>210.19999694824</ele>
        <time>2021-11-04T06:07:11.000Z</time>
      </trkpt>
      <trkpt lat="45.19781" lon="5.7315">
        <ele>209.39999389648</ele>
        <time>2021-11-04T06:07:13.000Z</time>
      </trkpt>
      <trkpt lat="45.19781" lon="5.73152">
        <ele>209</ele>
        <time>2021-11-04T06:07:14.000Z</time>
      </trkpt>
      <trkpt lat="45.19781" lon="5.73168">
        <ele>207.39999389648</ele>
        <time>2021-11-04T06:07:18.000Z</time>
      </trkpt>
      <trkpt lat="45.19781" lon="5.73172">
        <ele>206.80000305176</ele>
        <time>2021-11-04T06:07:19.000Z</time>
      </trkpt>
      <trkpt lat="45.19781" lon="5.73176">
        <ele>206.19999694824</ele>
        <time>2021-11-04T06:07:20.000Z</time>
      </trkpt>
      <trkpt lat="45.19782" lon="5.7318">
        <ele>206</ele>
        <time>2021-11-04T06:07:21.000Z</time>
      </trkpt>
      <trkpt lat="45.19785" lon="5.73187">
        <ele>205.80000305176</ele>
        <time>2021-11-04T06:07:24.000Z</time>
      </trkpt>
      <trkpt lat="45.19786" lon="5.73191">
        <ele>205.80000305176</ele>
        <time>2021-11-04T06:07:25.000Z</time>
      </trkpt>
      <trkpt lat="45.19787" lon="5.73203">
        <ele>205.80000305176</ele>
        <time>2021-11-04T06:07:28.000Z</time>
      </trkpt>
      <trkpt lat="45.19784" lon="5.73217">
        <ele>205.80000305176</ele>
        <time>2021-11-04T06:07:33.000Z</time>
      </trkpt>
      <trkpt lat="45.19778" lon="5.73235">
        <ele>206</ele>
        <time>2021-11-04T06:07:39.000Z</time>
      </trkpt>
      <trkpt lat="45.19777" lon="5.73237">
        <ele>206</ele>
        <time>2021-11-04T06:07:40.000Z</time>
      </trkpt>
      <trkpt lat="45.19777" lon="5.73238">
        <ele>206</ele>
        <time>2021-11-04T06:07:41.000Z</time>
      </trkpt>
      <trkpt lat="45.19777" lon="5.73242">
        <ele>206</ele>
        <time>2021-11-04T06:07:43.000Z</time>
      </trkpt>
      <trkpt lat="45.19771" lon="5.73253">
        <ele>206.39999389648</ele>
        <time>2021-11-04T06:07:46.000Z</time>
      </trkpt>
      <trkpt lat="45.19769" lon="5.73257">
        <ele>206.80000305176</ele>
        <time>2021-11-04T06:07:47.000Z</time>
      </trkpt>
      <trkpt lat="45.19767" lon="5.73259">
        <ele>207</ele>
        <time>2021-11-04T06:07:48.000Z</time>
      </trkpt>
      <trkpt lat="45.19763" lon="5.73265">
        <ele>207.19999694824</ele>
        <time>2021-11-04T06:07:50.000Z</time>
      </trkpt>
      <trkpt lat="45.19762" lon="5.73268">
        <ele>207.39999389648</ele>
        <time>2021-11-04T06:07:51.000Z</time>
      </trkpt>
      <trkpt lat="45.19758" lon="5.73281">
        <ele>207.39999389648</ele>
        <time>2021-11-04T06:07:54.000Z</time>
      </trkpt>
      <trkpt lat="45.19753" lon="5.73295">
        <ele>207.80000305176</ele>
        <time>2021-11-04T06:07:58.000Z</time>
      </trkpt>
      <trkpt lat="45.19748" lon="5.73313">
        <ele>208</ele>
        <time>2021-11-04T06:08:03.000Z</time>
      </trkpt>
      <trkpt lat="45.19742" lon="5.73333">
        <ele>208</ele>
        <time>2021-11-04T06:08:09.000Z</time>
      </trkpt>
      <trkpt lat="45.19742" lon="5.73335">
        <ele>208</ele>
        <time>2021-11-04T06:08:10.000Z</time>
      </trkpt>
      <trkpt lat="45.19737" lon="5.73352">
        <ele>207.60000610352</ele>
        <time>2021-11-04T06:08:15.000Z</time>
      </trkpt>
      <trkpt lat="45.19735" lon="5.73358">
        <ele>207.39999389648</ele>
        <time>2021-11-04T06:08:17.000Z</time>
      </trkpt>
      <trkpt lat="45.19734" lon="5.73365">
        <ele>207.39999389648</ele>
        <time>2021-11-04T06:08:20.000Z</time>
      </trkpt>
      <trkpt lat="45.19737" lon="5.73367">
        <ele>207.39999389648</ele>
        <time>2021-11-04T06:08:22.000Z</time>
      </trkpt>
      <trkpt lat="45.19744" lon="5.73369">
        <ele>206.60000610352</ele>
        <time>2021-11-04T06:08:25.000Z</time>
      </trkpt>
      <trkpt lat="45.1975" lon="5.73369">
        <ele>206.19999694824</ele>
        <time>2021-11-04T06:08:27.000Z</time>
      </trkpt>
      <trkpt lat="45.19765" lon="5.73372">
        <ele>205.19999694824</ele>
        <time>2021-11-04T06:08:33.000Z</time>
      </trkpt>
      <trkpt lat="45.19773" lon="5.73374">
        <ele>205</ele>
        <time>2021-11-04T06:08:36.000Z</time>
      </trkpt>
      <trkpt lat="45.19789" lon="5.73374">
        <ele>205</ele>
        <time>2021-11-04T06:08:41.000Z</time>
      </trkpt>
      <trkpt lat="45.19799" lon="5.73376">
        <ele>204.80000305176</ele>
        <time>2021-11-04T06:08:45.000Z</time>
      </trkpt>
      <trkpt lat="45.19804" lon="5.73378">
        <ele>204.60000610352</ele>
        <time>2021-11-04T06:08:47.000Z</time>
      </trkpt>
      <trkpt lat="45.19815" lon="5.7338">
        <ele>204.80000305176</ele>
        <time>2021-11-04T06:08:53.000Z</time>
      </trkpt>
      <trkpt lat="45.19832" lon="5.73387">
        <ele>204.80000305176</ele>
        <time>2021-11-04T06:09:00.000Z</time>
      </trkpt>
      <trkpt lat="45.19835" lon="5.73387">
        <ele>204.80000305176</ele>
        <time>2021-11-04T06:09:01.000Z</time>
      </trkpt>
      <trkpt lat="45.19843" lon="5.73388">
        <ele>204.80000305176</ele>
        <time>2021-11-04T06:09:04.000Z</time>
      </trkpt>
      <trkpt lat="45.19857" lon="5.73391">
        <ele>204.80000305176</ele>
        <time>2021-11-04T06:09:10.000Z</time>
      </trkpt>
      <trkpt lat="45.19866" lon="5.73393">
        <ele>204.80000305176</ele>
        <time>2021-11-04T06:09:15.000Z</time>
      </trkpt>
      <trkpt lat="45.19873" lon="5.73393">
        <ele>204.80000305176</ele>
        <time>2021-11-04T06:09:18.000Z</time>
      </trkpt>
      <trkpt lat="45.19882" lon="5.73393">
        <ele>204.60000610352</ele>
        <time>2021-11-04T06:09:21.000Z</time>
      </trkpt>
      <trkpt lat="45.19894" lon="5.73392">
        <ele>204.60000610352</ele>
        <time>2021-11-04T06:09:26.000Z</time>
      </trkpt>
      <trkpt lat="45.19915" lon="5.73403">
        <ele>204.39999389648</ele>
        <time>2021-11-04T06:09:32.000Z</time>
      </trkpt>
      <trkpt lat="45.19926" lon="5.73405">
        <ele>204.60000610352</ele>
        <time>2021-11-04T06:09:35.000Z</time>
      </trkpt>
      <trkpt lat="45.19932" lon="5.73406">
        <ele>204.60000610352</ele>
        <time>2021-11-04T06:09:37.000Z</time>
      </trkpt>
      <trkpt lat="45.19947" lon="5.73416">
        <ele>204.60000610352</ele>
        <time>2021-11-04T06:09:43.000Z</time>
      </trkpt>
      <trkpt lat="45.19959" lon="5.73422">
        <ele>204.80000305176</ele>
        <time>2021-11-04T06:09:48.000Z</time>
      </trkpt>
      <trkpt lat="45.19978" lon="5.73427">
        <ele>204.80000305176</ele>
        <time>2021-11-04T06:09:55.000Z</time>
      </trkpt>
      <trkpt lat="45.19991" lon="5.73433">
        <ele>205</ele>
        <time>2021-11-04T06:10:00.000Z</time>
      </trkpt>
      <trkpt lat="45.19997" lon="5.73437">
        <ele>205</ele>
        <time>2021-11-04T06:10:02.000Z</time>
      </trkpt>
      <trkpt lat="45.20004" lon="5.7344">
        <ele>205</ele>
        <time>2021-11-04T06:10:05.000Z</time>
      </trkpt>
      <trkpt lat="45.20005" lon="5.73442">
        <ele>205</ele>
        <time>2021-11-04T06:10:06.000Z</time>
      </trkpt>
      <trkpt lat="45.2002" lon="5.73452">
        <ele>204.39999389648</ele>
        <time>2021-11-04T06:10:11.000Z</time>
      </trkpt>
      <trkpt lat="45.20024" lon="5.73454">
        <ele>204</ele>
        <time>2021-11-04T06:10:13.000Z</time>
      </trkpt>
      <trkpt lat="45.20028" lon="5.73456">
        <ele>204</ele>
        <time>2021-11-04T06:10:15.000Z</time>
      </trkpt>
      <trkpt lat="45.2003" lon="5.73458">
        <ele>203.80000305176</ele>
        <time>2021-11-04T06:10:16.000Z</time>
      </trkpt>
      <trkpt lat="45.2004" lon="5.73464">
        <ele>204.39999389648</ele>
        <time>2021-11-04T06:10:20.000Z</time>
      </trkpt>
      <trkpt lat="45.20051" lon="5.73476">
        <ele>205</ele>
        <time>2021-11-04T06:10:26.000Z</time>
      </trkpt>
      <trkpt lat="45.20057" lon="5.73482">
        <ele>205.19999694824</ele>
        <time>2021-11-04T06:10:28.000Z</time>
      </trkpt>
      <trkpt lat="45.20066" lon="5.73492">
        <ele>205.39999389648</ele>
        <time>2021-11-04T06:10:31.000Z</time>
      </trkpt>
      <trkpt lat="45.2007" lon="5.73496">
        <ele>205.19999694824</ele>
        <time>2021-11-04T06:10:33.000Z</time>
      </trkpt>
      <trkpt lat="45.20077" lon="5.73502">
        <ele>205.19999694824</ele>
        <time>2021-11-04T06:10:36.000Z</time>
      </trkpt>
      <trkpt lat="45.20095" lon="5.73517">
        <ele>205.19999694824</ele>
        <time>2021-11-04T06:10:42.000Z</time>
      </trkpt>
      <trkpt lat="45.20096" lon="5.7352">
        <ele>205</ele>
        <time>2021-11-04T06:10:43.000Z</time>
      </trkpt>
      <trkpt lat="45.20103" lon="5.73532">
        <ele>205</ele>
        <time>2021-11-04T06:10:46.000Z</time>
      </trkpt>
      <trkpt lat="45.2011" lon="5.73544">
        <ele>205</ele>
        <time>2021-11-04T06:10:50.000Z</time>
      </trkpt>
      <trkpt lat="45.20119" lon="5.73564">
        <ele>205.19999694824</ele>
        <time>2021-11-04T06:10:56.000Z</time>
      </trkpt>
      <trkpt lat="45.2012" lon="5.73572">
        <ele>205.19999694824</ele>
        <time>2021-11-04T06:10:58.000Z</time>
      </trkpt>
      <trkpt lat="45.20128" lon="5.73583">
        <ele>205.19999694824</ele>
        <time>2021-11-04T06:11:02.000Z</time>
      </trkpt>
      <trkpt lat="45.20133" lon="5.73591">
        <ele>205</ele>
        <time>2021-11-04T06:11:05.000Z</time>
      </trkpt>
      <trkpt lat="45.20146" lon="5.73614">
        <ele>205</ele>
        <time>2021-11-04T06:11:13.000Z</time>
      </trkpt>
      <trkpt lat="45.20155" lon="5.73629">
        <ele>205</ele>
        <time>2021-11-04T06:11:18.000Z</time>
      </trkpt>
      <trkpt lat="45.20167" lon="5.73646">
        <ele>205</ele>
        <time>2021-11-04T06:11:23.000Z</time>
      </trkpt>
      <trkpt lat="45.20175" lon="5.73671">
        <ele>205</ele>
        <time>2021-11-04T06:11:30.000Z</time>
      </trkpt>
      <trkpt lat="45.20174" lon="5.73681">
        <ele>205.19999694824</ele>
        <time>2021-11-04T06:11:34.000Z</time>
      </trkpt>
      <trkpt lat="45.20177" lon="5.73705">
        <ele>205.19999694824</ele>
        <time>2021-11-04T06:11:39.000Z</time>
      </trkpt>
      <trkpt lat="45.2018" lon="5.7372">
        <ele>205.19999694824</ele>
        <time>2021-11-04T06:11:43.000Z</time>
      </trkpt>
      <trkpt lat="45.20182" lon="5.73744">
        <ele>205.19999694824</ele>
        <time>2021-11-04T06:11:49.000Z</time>
      </trkpt>
      <trkpt lat="45.20181" lon="5.73764">
        <ele>205.39999389648</ele>
        <time>2021-11-04T06:11:55.000Z</time>
      </trkpt>
      <trkpt lat="45.20182" lon="5.73793">
        <ele>205.19999694824</ele>
        <time>2021-11-04T06:12:01.000Z</time>
      </trkpt>
      <trkpt lat="45.20183" lon="5.73797">
        <ele>205.19999694824</ele>
        <time>2021-11-04T06:12:02.000Z</time>
      </trkpt>
      <trkpt lat="45.20185" lon="5.73808">
        <ele>205.19999694824</ele>
        <time>2021-11-04T06:12:05.000Z</time>
      </trkpt>
      <trkpt lat="45.20183" lon="5.7382">
        <ele>205.19999694824</ele>
        <time>2021-11-04T06:12:08.000Z</time>
      </trkpt>
      <trkpt lat="45.20175" lon="5.73845">
        <ele>205.19999694824</ele>
        <time>2021-11-04T06:12:15.000Z</time>
      </trkpt>
      <trkpt lat="45.2017" lon="5.73862">
        <ele>205.39999389648</ele>
        <time>2021-11-04T06:12:20.000Z</time>
      </trkpt>
      <trkpt lat="45.20162" lon="5.73875">
        <ele>205.19999694824</ele>
        <time>2021-11-04T06:12:26.000Z</time>
      </trkpt>
      <trkpt lat="45.20157" lon="5.73883">
        <ele>205.39999389648</ele>
        <time>2021-11-04T06:12:29.000Z</time>
      </trkpt>
      <trkpt lat="45.20145" lon="5.73902">
        <ele>205.39999389648</ele>
        <time>2021-11-04T06:12:35.000Z</time>
      </trkpt>
      <trkpt lat="45.2014" lon="5.7391">
        <ele>205.60000610352</ele>
        <time>2021-11-04T06:12:37.000Z</time>
      </trkpt>
      <trkpt lat="45.20131" lon="5.73925">
        <ele>205.39999389648</ele>
        <time>2021-11-04T06:12:42.000Z</time>
      </trkpt>
      <trkpt lat="45.20126" lon="5.73931">
        <ele>205.19999694824</ele>
        <time>2021-11-04T06:12:45.000Z</time>
      </trkpt>
      <trkpt lat="45.20125" lon="5.73933">
        <ele>205.19999694824</ele>
        <time>2021-11-04T06:12:46.000Z</time>
      </trkpt>
      <trkpt lat="45.20115" lon="5.73949">
        <ele>205</ele>
        <time>2021-11-04T06:12:52.000Z</time>
      </trkpt>
      <trkpt lat="45.20101" lon="5.73965">
        <ele>205.19999694824</ele>
        <time>2021-11-04T06:12:57.000Z</time>
      </trkpt>
      <trkpt lat="45.20092" lon="5.73977">
        <ele>205.39999389648</ele>
        <time>2021-11-04T06:13:02.000Z</time>
      </trkpt>
      <trkpt lat="45.20085" lon="5.73984">
        <ele>205.60000610352</ele>
        <time>2021-11-04T06:13:06.000Z</time>
      </trkpt>
      <trkpt lat="45.2008" lon="5.7399">
        <ele>205.80000305176</ele>
        <time>2021-11-04T06:13:09.000Z</time>
      </trkpt>
      <trkpt lat="45.20071" lon="5.73999">
        <ele>206</ele>
        <time>2021-11-04T06:13:13.000Z</time>
      </trkpt>
      <trkpt lat="45.20065" lon="5.74004">
        <ele>206.19999694824</ele>
        <time>2021-11-04T06:13:16.000Z</time>
      </trkpt>
      <trkpt lat="45.20062" lon="5.7401">
        <ele>206.19999694824</ele>
        <time>2021-11-04T06:13:18.000Z</time>
      </trkpt>
      <trkpt lat="45.20056" lon="5.74023">
        <ele>205.60000610352</ele>
        <time>2021-11-04T06:13:23.000Z</time>
      </trkpt>
      <trkpt lat="45.20051" lon="5.7403">
        <ele>205.19999694824</ele>
        <time>2021-11-04T06:13:26.000Z</time>
      </trkpt>
      <trkpt lat="45.20047" lon="5.74042">
        <ele>204.19999694824</ele>
        <time>2021-11-04T06:13:30.000Z</time>
      </trkpt>
      <trkpt lat="45.20047" lon="5.74043">
        <ele>204</ele>
        <time>2021-11-04T06:13:31.000Z</time>
      </trkpt>
      <trkpt lat="45.20048" lon="5.74044">
        <ele>203.80000305176</ele>
        <time>2021-11-04T06:13:32.000Z</time>
      </trkpt>
      <trkpt lat="45.2005" lon="5.74054">
        <ele>203.60000610352</ele>
        <time>2021-11-04T06:13:37.000Z</time>
      </trkpt>
      <trkpt lat="45.20043" lon="5.74063">
        <ele>203.60000610352</ele>
        <time>2021-11-04T06:13:39.000Z</time>
      </trkpt>
      <trkpt lat="45.20034" lon="5.74072">
        <ele>203.80000305176</ele>
        <time>2021-11-04T06:13:42.000Z</time>
      </trkpt>
      <trkpt lat="45.20024" lon="5.74084">
        <ele>204</ele>
        <time>2021-11-04T06:13:48.000Z</time>
      </trkpt>
      <trkpt lat="45.20023" lon="5.74086">
        <ele>204</ele>
        <time>2021-11-04T06:13:49.000Z</time>
      </trkpt>
      <trkpt lat="45.2002" lon="5.74088">
        <ele>204.19999694824</ele>
        <time>2021-11-04T06:13:50.000Z</time>
      </trkpt>
      <trkpt lat="45.20017" lon="5.74092">
        <ele>204.39999389648</ele>
        <time>2021-11-04T06:13:52.000Z</time>
      </trkpt>
      <trkpt lat="45.20014" lon="5.74095">
        <ele>204.60000610352</ele>
        <time>2021-11-04T06:13:53.000Z</time>
      </trkpt>
      <trkpt lat="45.20009" lon="5.74102">
        <ele>205.19999694824</ele>
        <time>2021-11-04T06:13:55.000Z</time>
      </trkpt>
      <trkpt lat="45.19992" lon="5.74118">
        <ele>206</ele>
        <time>2021-11-04T06:13:59.000Z</time>
      </trkpt>
      <trkpt lat="45.19986" lon="5.74123">
        <ele>206.39999389648</ele>
        <time>2021-11-04T06:14:01.000Z</time>
      </trkpt>
      <trkpt lat="45.19972" lon="5.74138">
        <ele>206.60000610352</ele>
        <time>2021-11-04T06:14:06.000Z</time>
      </trkpt>
      <trkpt lat="45.19969" lon="5.74141">
        <ele>206.60000610352</ele>
        <time>2021-11-04T06:14:07.000Z</time>
      </trkpt>
      <trkpt lat="45.19953" lon="5.7416">
        <ele>206.80000305176</ele>
        <time>2021-11-04T06:14:13.000Z</time>
      </trkpt>
      <trkpt lat="45.19936" lon="5.74174">
        <ele>206.80000305176</ele>
        <time>2021-11-04T06:14:18.000Z</time>
      </trkpt>
      <trkpt lat="45.19933" lon="5.74177">
        <ele>206.80000305176</ele>
        <time>2021-11-04T06:14:19.000Z</time>
      </trkpt>
      <trkpt lat="45.19914" lon="5.74188">
        <ele>206.80000305176</ele>
        <time>2021-11-04T06:14:26.000Z</time>
      </trkpt>
      <trkpt lat="45.19896" lon="5.74199">
        <ele>206.39999389648</ele>
        <time>2021-11-04T06:14:33.000Z</time>
      </trkpt>
      <trkpt lat="45.19879" lon="5.74208">
        <ele>206.60000610352</ele>
        <time>2021-11-04T06:14:39.000Z</time>
      </trkpt>
      <trkpt lat="45.19864" lon="5.74212">
        <ele>206.60000610352</ele>
        <time>2021-11-04T06:14:45.000Z</time>
      </trkpt>
      <trkpt lat="45.19845" lon="5.74218">
        <ele>206.60000610352</ele>
        <time>2021-11-04T06:14:52.000Z</time>
      </trkpt>
      <trkpt lat="45.19842" lon="5.74219">
        <ele>206.80000305176</ele>
        <time>2021-11-04T06:14:53.000Z</time>
      </trkpt>
      <trkpt lat="45.19824" lon="5.74228">
        <ele>206.60000610352</ele>
        <time>2021-11-04T06:14:59.000Z</time>
      </trkpt>
      <trkpt lat="45.19812" lon="5.74234">
        <ele>206.60000610352</ele>
        <time>2021-11-04T06:15:03.000Z</time>
      </trkpt>
      <trkpt lat="45.19802" lon="5.7424">
        <ele>206.60000610352</ele>
        <time>2021-11-04T06:15:06.000Z</time>
      </trkpt>
      <trkpt lat="45.19787" lon="5.74243">
        <ele>206.39999389648</ele>
        <time>2021-11-04T06:15:11.000Z</time>
      </trkpt>
      <trkpt lat="45.19774" lon="5.74241">
        <ele>206.60000610352</ele>
        <time>2021-11-04T06:15:16.000Z</time>
      </trkpt>
      <trkpt lat="45.19768" lon="5.74242">
        <ele>206.60000610352</ele>
        <time>2021-11-04T06:15:18.000Z</time>
      </trkpt>
      <trkpt lat="45.19758" lon="5.74243">
        <ele>206.80000305176</ele>
        <time>2021-11-04T06:15:21.000Z</time>
      </trkpt>
      <trkpt lat="45.19752" lon="5.74245">
        <ele>206.60000610352</ele>
        <time>2021-11-04T06:15:23.000Z</time>
      </trkpt>
      <trkpt lat="45.19744" lon="5.74245">
        <ele>206.60000610352</ele>
        <time>2021-11-04T06:15:26.000Z</time>
      </trkpt>
      <trkpt lat="45.19738" lon="5.74246">
        <ele>206.60000610352</ele>
        <time>2021-11-04T06:15:28.000Z</time>
      </trkpt>
      <trkpt lat="45.19733" lon="5.74245">
        <ele>206.60000610352</ele>
        <time>2021-11-04T06:15:31.000Z</time>
      </trkpt>
      <trkpt lat="45.19732" lon="5.74244">
        <ele>206.39999389648</ele>
        <time>2021-11-04T06:15:32.000Z</time>
      </trkpt>
      <trkpt lat="45.1973" lon="5.74237">
        <ele>205.60000610352</ele>
        <time>2021-11-04T06:15:35.000Z</time>
      </trkpt>
      <trkpt lat="45.19729" lon="5.74236">
        <ele>205.19999694824</ele>
        <time>2021-11-04T06:15:36.000Z</time>
      </trkpt>
      <trkpt lat="45.19727" lon="5.7423">
        <ele>205</ele>
        <time>2021-11-04T06:15:38.000Z</time>
      </trkpt>
      <trkpt lat="45.19723" lon="5.74209">
        <ele>204.80000305176</ele>
        <time>2021-11-04T06:15:44.000Z</time>
      </trkpt>
      <trkpt lat="45.19716" lon="5.74182">
        <ele>204.80000305176</ele>
        <time>2021-11-04T06:15:51.000Z</time>
      </trkpt>
      <trkpt lat="45.19712" lon="5.74161">
        <ele>204.19999694824</ele>
        <time>2021-11-04T06:15:57.000Z</time>
      </trkpt>
      <trkpt lat="45.19711" lon="5.74158">
        <ele>204.19999694824</ele>
        <time>2021-11-04T06:15:58.000Z</time>
      </trkpt>
      <trkpt lat="45.1971" lon="5.74151">
        <ele>204.39999389648</ele>
        <time>2021-11-04T06:16:00.000Z</time>
      </trkpt>
      <trkpt lat="45.19709" lon="5.74149">
        <ele>204.60000610352</ele>
        <time>2021-11-04T06:16:01.000Z</time>
      </trkpt>
      <trkpt lat="45.19708" lon="5.74143">
        <ele>205</ele>
        <time>2021-11-04T06:16:03.000Z</time>
      </trkpt>
      <trkpt lat="45.19704" lon="5.74123">
        <ele>205</ele>
        <time>2021-11-04T06:16:09.000Z</time>
      </trkpt>
      <trkpt lat="45.19704" lon="5.7412">
        <ele>205</ele>
        <time>2021-11-04T06:16:10.000Z</time>
      </trkpt>
      <trkpt lat="45.19699" lon="5.74093">
        <ele>204.60000610352</ele>
        <time>2021-11-04T06:16:16.000Z</time>
      </trkpt>
      <trkpt lat="45.19699" lon="5.74085">
        <ele>204.60000610352</ele>
        <time>2021-11-04T06:16:18.000Z</time>
      </trkpt>
      <trkpt lat="45.19694" lon="5.74063">
        <ele>204.60000610352</ele>
        <time>2021-11-04T06:16:24.000Z</time>
      </trkpt>
      <trkpt lat="45.19687" lon="5.74042">
        <ele>205.19999694824</ele>
        <time>2021-11-04T06:16:30.000Z</time>
      </trkpt>
      <trkpt lat="45.19684" lon="5.74029">
        <ele>205</ele>
        <time>2021-11-04T06:16:34.000Z</time>
      </trkpt>
      <trkpt lat="45.1968" lon="5.74019">
        <ele>204.80000305176</ele>
        <time>2021-11-04T06:16:37.000Z</time>
      </trkpt>
      <trkpt lat="45.19667" lon="5.74007">
        <ele>204.60000610352</ele>
        <time>2021-11-04T06:16:43.000Z</time>
      </trkpt>
      <trkpt lat="45.19663" lon="5.74006">
        <ele>204.39999389648</ele>
        <time>2021-11-04T06:16:45.000Z</time>
      </trkpt>
      <trkpt lat="45.19652" lon="5.74003">
        <ele>204.19999694824</ele>
        <time>2021-11-04T06:16:50.000Z</time>
      </trkpt>
      <trkpt lat="45.19638" lon="5.73998">
        <ele>204.60000610352</ele>
        <time>2021-11-04T06:16:55.000Z</time>
      </trkpt>
      <trkpt lat="45.19621" lon="5.73993">
        <ele>205</ele>
        <time>2021-11-04T06:17:01.000Z</time>
      </trkpt>
      <trkpt lat="45.19619" lon="5.73991">
        <ele>205</ele>
        <time>2021-11-04T06:17:02.000Z</time>
      </trkpt>
      <trkpt lat="45.19617" lon="5.73986">
        <ele>205</ele>
        <time>2021-11-04T06:17:04.000Z</time>
      </trkpt>
      <trkpt lat="45.1962" lon="5.7397">
        <ele>205.19999694824</ele>
        <time>2021-11-04T06:17:09.000Z</time>
      </trkpt>
      <trkpt lat="45.19629" lon="5.73956">
        <ele>205</ele>
        <time>2021-11-04T06:17:15.000Z</time>
      </trkpt>
      <trkpt lat="45.19638" lon="5.7396">
        <ele>205</ele>
        <time>2021-11-04T06:17:21.000Z</time>
      </trkpt>
      <trkpt lat="45.19636" lon="5.73961">
        <ele>205</ele>
        <time>2021-11-04T06:17:24.000Z</time>
      </trkpt>
      <trkpt lat="45.19636" lon="5.73961">
        <ele>205</ele>
        <time>2021-11-04T06:17:25.000Z</time>
      </trkpt>
    </trkseg>
  </trk>
</gpx>